ECMWFFLT1_850_thetae_000.txt.gz
Theta_e
346 348 349 349 350 350 350 350 349 348 347 347 347 348 347 347 348 346 339 335 333 331 331 332 332 331 330 327 326 326 329 331 332 332 333 335 336 336 335 332 330 330 330 329 326 323 321 322 321 318 317 320 322 322 321 320 318 319 321 323 326 328 329
346 348 349 349 350 351 350 350 348 348 347 347 348 348 348 347 348 346 338 334 331 328 328 329 328 327 326 324 324 325 328 331 333 333 333 335 337 337 334 328 325 324 325 324 324 322 321 322 320 316 316 318 318 318 318 318 317 319 322 324 325 326 327
345 347 349 349 350 351 351 350 349 349 348 347 348 348 348 347 348 346 340 334 331 327 326 326 325 325 324 323 324 325 328 333 335 335 334 334 336 336 331 325 323 323 323 323 323 322 321 320 318 316 315 316 315 315 316 316 318 320 322 323 324 324 325
344 346 348 349 351 351 352 351 349 349 348 347 347 348 348 347 347 347 343 338 333 327 325 324 324 323 323 323 324 326 330 336 339 338 336 334 334 333 327 322 321 321 320 320 320 320 319 318 317 315 315 315 315 315 315 317 318 319 320 321 322 323 323
342 345 347 349 352 352 353 352 350 350 348 348 348 347 347 347 348 349 348 344 338 330 326 323 323 323 323 323 324 326 330 334 337 338 337 334 331 329 324 319 319 318 316 317 317 318 318 317 316 316 317 317 316 316 317 318 318 318 319 319 321 322 322
342 345 347 349 351 352 353 353 352 351 348 348 348 347 348 348 348 349 349 348 343 335 328 325 324 322 323 324 324 325 329 332 333 333 331 328 325 322 319 317 316 316 316 316 317 317 317 317 316 317 318 318 318 318 318 318 319 320 320 320 321 322 322
342 344 346 348 350 351 352 353 353 352 349 348 348 348 349 350 350 349 349 349 346 340 333 327 323 322 323 325 324 325 327 330 332 331 330 329 326 320 317 317 315 315 316 317 318 318 317 317 317 318 320 320 320 320 320 320 321 322 322 322 322 323 323
341 343 344 346 347 349 351 353 353 352 352 351 351 350 350 351 351 350 350 349 346 343 337 329 324 323 323 324 324 325 325 328 331 329 327 329 327 321 317 317 315 315 316 317 318 318 317 318 319 320 321 322 322 322 322 323 324 325 325 324 324 324 324
341 342 342 343 346 348 349 351 351 352 353 352 352 351 350 351 352 350 350 349 347 344 340 333 326 322 323 323 324 325 325 327 329 327 325 325 323 320 318 317 315 315 316 317 318 318 318 319 320 322 323 324 323 323 324 326 326 326 326 325 325 324 324
341 341 342 343 345 347 347 349 351 353 354 353 353 353 351 351 351 350 350 351 349 345 342 338 331 325 323 323 324 325 325 327 328 327 326 324 322 321 320 318 316 315 316 318 318 318 318 320 322 323 325 323 323 324 325 326 326 325 325 324 324 324 323
341 341 342 343 344 346 347 349 351 353 353 353 353 353 353 352 352 352 352 352 351 348 344 342 337 329 324 324 324 325 326 328 330 331 330 328 326 324 321 319 317 315 317 318 319 320 319 320 323 324 324 323 323 324 326 326 325 324 323 323 324 324 324
341 341 342 343 344 345 347 348 350 351 351 351 352 353 352 353 354 354 353 353 352 350 347 345 341 335 329 326 326 326 327 328 330 335 336 336 333 325 320 319 317 316 319 320 319 320 320 321 323 323 323 322 323 325 326 325 324 324 324 324 325 325 324
342 343 342 344 344 345 347 347 348 350 350 350 352 352 352 353 354 355 355 354 353 351 350 348 345 340 334 331 329 329 331 331 331 335 337 340 339 328 320 319 319 320 325 325 322 320 321 322 323 323 323 323 324 326 325 324 325 325 325 325 325 325 325
342 343 343 344 344 345 347 346 347 348 348 350 351 352 353 354 355 356 355 354 352 352 352 349 347 344 339 336 333 332 332 330 330 333 335 340 344 336 323 318 319 322 326 329 326 322 321 322 324 323 323 323 325 326 325 325 325 325 325 324 324 325 326
342 343 344 344 344 345 346 346 346 347 348 349 351 352 353 354 355 357 356 355 353 352 352 351 349 347 344 341 338 337 337 337 338 342 343 343 346 343 330 324 327 326 322 327 330 326 322 323 324 324 323 323 325 327 327 326 324 324 324 322 322 325 325
343 344 345 345 345 345 346 345 345 346 347 348 348 349 351 351 353 353 352 352 353 352 352 352 351 351 350 348 346 344 345 345 345 346 345 343 344 344 336 331 336 334 326 327 333 330 325 325 326 326 323 323 326 328 328 326 324 324 324 323 323 325 325
344 345 345 346 345 346 346 345 346 346 346 346 344 346 348 347 348 349 350 352 352 351 352 353 354 354 353 352 350 349 348 348 346 344 342 340 342 344 336 329 331 335 333 335 338 336 332 329 328 326 322 322 326 329 329 326 325 325 325 325 326 326 325
345 344 345 345 346 346 346 346 346 345 343 343 343 345 345 344 346 348 349 351 350 350 353 355 355 355 354 353 352 352 351 350 347 344 341 340 341 343 338 328 326 331 332 334 338 339 338 336 331 325 321 323 326 328 328 326 325 325 326 326 327 328 327
344 345 346 345 344 344 344 344 344 343 342 342 342 343 344 345 347 348 349 351 352 354 356 356 355 355 355 354 353 352 352 352 350 346 343 342 341 341 337 331 329 329 326 325 329 335 339 339 332 323 321 323 326 327 326 325 325 326 326 327 328 329 329
343 345 345 343 343 343 342 342 343 343 343 343 343 345 346 348 349 350 352 354 354 355 355 355 355 355 354 354 353 352 352 353 352 348 344 342 339 336 332 329 329 327 325 324 325 328 330 329 326 325 326 327 327 328 326 325 326 326 326 327 329 329 330
341 345 345 343 343 343 343 344 345 345 345 344 344 344 344 343 344 347 350 352 353 353 353 353 354 354 354 354 352 352 351 351 352 349 343 337 333 330 327 329 329 327 326 326 325 324 322 322 323 327 331 332 331 329 327 326 327 327 327 328 329 329 330
341 343 342 342 343 343 345 345 345 343 341 338 337 336 335 333 335 340 344 346 349 350 351 352 353 353 354 353 352 351 350 350 350 345 337 329 327 325 325 327 327 327 327 326 323 321 321 321 322 325 331 334 333 331 328 327 328 329 329 329 330 331 331
340 340 341 343 344 343 342 339 337 336 334 333 332 331 331 329 329 333 336 339 343 346 348 351 351 351 352 352 351 350 348 346 343 336 328 325 326 326 326 328 327 326 325 323 321 320 321 321 322 326 331 334 334 333 331 328 329 330 330 330 331 332 331
342 343 343 344 343 341 338 335 334 334 333 332 332 331 330 329 328 329 330 331 335 338 342 347 349 350 351 350 349 347 345 343 338 331 327 328 328 328 330 331 329 326 323 322 322 321 321 321 323 327 331 333 334 334 333 331 330 330 329 329 329 329 329
343 344 343 341 340 337 335 334 334 332 331 331 331 330 330 330 329 329 329 330 330 332 335 341 345 348 349 348 347 345 342 338 335 331 330 330 328 327 328 328 325 323 321 321 321 320 321 323 325 328 332 334 334 331 329 331 331 329 328 329 328 327 327
342 341 338 337 337 335 334 334 333 331 332 332 330 330 330 330 329 329 330 332 332 332 334 338 343 345 346 346 345 342 338 336 335 333 332 331 328 325 324 322 320 320 321 321 321 323 325 327 328 330 332 334 333 330 328 329 328 326 326 327 326 326 327
337 337 335 335 335 333 333 333 332 333 333 332 331 331 331 330 330 329 330 331 333 334 336 341 343 344 344 344 343 340 338 337 336 334 332 332 328 320 318 319 318 319 321 322 324 326 328 328 329 330 331 331 331 330 327 326 326 325 325 325 326 326 327
335 335 335 335 335 334 334 335 334 334 335 335 334 333 331 331 331 330 332 333 335 338 339 341 342 342 342 341 340 339 338 336 335 333 332 332 329 324 323 324 323 323 322 323 326 328 329 329 328 326 327 328 328 327 326 326 326 325 325 326 326 326 325
337 337 337 337 337 337 338 338 335 334 336 337 336 334 332 333 333 333 334 336 337 339 340 340 340 340 340 339 338 338 336 334 333 333 332 332 332 331 330 329 328 327 326 326 328 329 328 326 324 323 325 326 326 327 327 327 325 324 325 326 325 325 324
336 336 337 338 338 338 338 338 336 335 337 336 335 333 333 335 337 336 336 337 338 339 339 339 340 340 339 339 337 336 334 333 333 332 332 331 331 332 331 329 329 329 328 329 330 327 324 323 323 325 328 328 327 327 327 326 324 324 325 325 324 323 322
331 332 332 333 333 334 333 333 333 333 333 333 334 335 337 338 339 339 339 339 340 340 340 340 340 339 338 337 336 334 333 332 332 332 332 332 332 331 330 329 330 329 329 329 327 323 323 323 324 327 330 329 329 328 326 325 325 324 324 323 322 320 319
328 329 329 328 328 329 329 329 329 329 329 329 332 337 340 340 340 341 342 342 342 342 342 341 339 338 337 336 335 334 333 332 333 333 333 332 330 330 330 330 330 327 325 325 322 321 321 321 322 326 329 328 328 327 326 325 325 324 323 321 319 317 316
330 329 328 328 328 329 328 329 329 330 330 330 332 336 339 339 340 342 344 344 344 343 342 341 339 337 336 335 334 333 332 332 332 333 334 332 330 330 331 330 329 324 321 321 321 321 320 320 320 324 326 327 326 326 325 325 324 323 321 318 317 316 316
331 330 329 330 329 328 328 329 330 331 332 334 334 337 339 340 341 342 344 345 345 344 342 341 339 337 335 333 332 331 331 331 331 332 332 331 330 330 329 328 326 323 320 320 321 321 319 318 318 321 324 326 325 324 324 324 322 321 319 317 317 317 317
332 332 332 332 331 331 332 333 333 334 335 336 338 339 339 340 341 342 343 344 344 343 342 340 338 335 333 331 331 330 329 330 330 331 331 329 326 326 326 325 324 323 322 321 321 320 318 317 319 322 325 325 324 324 324 323 321 319 318 317 318 318 318
332 333 334 333 333 334 336 336 337 338 339 338 338 337 338 339 340 340 340 341 342 342 341 339 337 334 332 331 330 330 331 331 330 329 327 325 324 325 325 324 324 324 323 322 319 318 318 319 322 324 325 324 323 324 323 321 320 319 318 318 318 318 318
331 332 334 334 334 335 336 337 338 339 339 337 335 335 337 337 338 338 339 340 340 340 339 337 335 333 332 331 331 331 330 329 327 325 324 324 326 326 325 324 324 324 322 319 318 319 322 324 325 325 325 324 324 323 322 320 319 318 318 318 318 318 319
333 333 334 334 335 335 336 337 338 338 338 338 336 335 336 336 336 338 339 339 338 338 336 333 331 330 328 327 328 328 327 325 324 325 326 327 327 325 323 322 322 321 320 320 321 324 326 326 325 325 325 324 323 322 321 320 319 319 318 318 319 319 319

ECMWFFLT1_850_thetae_003.txt.gz
Theta_e
350 350 350 349 348 348 347 347 346 345 345 346 346 346 347 346 346 346 345 346 347 344 341 339 339 339 341 342 342 343 343 343 342 343 342 339 336 336 339 342 344 343 340 336 334 331 330 328 325 322 321 319 319 322 324 323 321 319 319 320 321 323 326
349 350 350 350 350 349 348 347 346 346 345 346 345 346 346 346 345 346 345 344 345 343 340 338 336 336 336 338 340 342 342 342 340 339 338 335 333 334 338 340 342 341 336 332 330 328 325 323 321 322 322 320 318 319 321 321 320 318 318 319 321 324 326
348 349 350 349 350 349 348 346 345 346 345 345 346 346 346 346 345 344 343 342 341 341 339 336 334 334 334 336 338 339 342 341 338 336 334 331 331 334 337 338 340 339 333 330 329 326 322 321 321 322 323 321 318 317 317 317 317 317 317 319 321 324 326
345 346 348 347 347 347 346 345 345 345 346 346 346 346 345 345 344 343 342 340 340 339 337 333 332 332 333 334 335 337 340 339 337 333 330 329 331 335 340 341 339 336 331 328 327 324 320 319 320 321 321 319 317 316 316 316 315 316 317 319 321 323 324
344 345 346 346 346 347 346 346 345 346 346 347 346 345 344 343 343 343 342 341 340 338 335 332 333 333 332 333 335 335 337 337 335 331 328 328 331 337 342 341 337 332 327 325 324 321 318 318 318 319 318 316 316 316 316 315 316 316 317 318 319 320 321
345 344 345 345 345 347 346 346 346 347 347 346 346 346 345 345 344 343 342 341 340 338 336 336 335 332 330 332 332 333 333 334 332 328 325 327 331 338 344 343 340 336 330 324 323 320 318 317 318 318 317 315 315 316 317 316 316 317 317 318 319 319 320
342 343 342 343 344 345 345 345 346 347 347 346 347 346 346 346 344 343 342 341 340 339 338 339 337 333 330 330 329 330 331 329 327 324 324 327 332 340 347 347 345 342 333 325 321 318 317 317 317 317 316 316 317 317 317 318 318 318 319 320 321 322 321
340 341 341 342 343 343 344 345 346 347 347 347 347 346 347 347 345 344 342 341 341 341 342 342 339 335 331 329 328 328 328 328 326 324 324 328 335 344 349 348 347 344 334 325 320 318 317 316 317 317 317 317 318 318 318 319 320 320 321 322 323 323 323
339 339 339 340 342 342 344 345 346 346 347 347 346 346 348 347 346 346 343 342 342 342 341 342 341 338 335 333 330 327 329 331 329 328 328 332 338 344 347 344 345 344 335 327 324 321 318 317 318 319 319 318 319 320 320 321 321 321 322 322 323 323 323
339 339 339 340 341 343 345 344 345 346 346 347 347 346 348 347 347 347 346 345 343 342 341 341 342 342 340 339 336 335 335 332 328 327 328 330 334 341 344 341 342 344 337 327 323 321 318 318 321 323 322 321 320 321 322 322 321 320 321 321 322 322 323
340 339 339 340 341 343 344 344 345 345 346 347 347 347 348 348 349 348 347 346 345 345 344 343 344 344 343 345 345 344 342 332 325 323 324 327 329 334 341 341 340 343 337 325 319 320 320 319 320 322 322 321 321 323 323 323 321 321 321 321 320 320 321
341 341 339 340 341 342 343 343 344 345 345 346 346 348 348 348 349 349 348 348 346 346 346 345 347 346 345 347 348 348 346 335 326 324 325 325 326 333 340 339 339 342 335 323 320 321 322 321 320 320 321 323 323 323 323 322 320 321 323 322 320 319 321
341 341 340 340 340 342 344 344 344 345 346 345 347 348 348 347 349 349 349 348 347 347 347 347 348 347 347 349 349 349 348 344 336 327 324 324 327 337 342 338 340 342 333 322 320 320 321 322 321 319 321 325 326 325 324 322 321 322 324 323 321 320 322
341 341 341 341 340 342 343 342 344 345 345 346 347 347 348 348 349 349 348 348 348 348 349 348 347 349 350 351 352 350 351 352 347 335 326 324 324 332 339 343 345 342 330 322 320 321 323 324 322 319 320 325 329 328 326 324 322 322 324 323 322 320 322
341 342 341 341 341 342 342 342 343 343 344 345 347 348 349 348 349 348 347 347 349 349 349 349 349 350 351 353 354 354 354 354 352 345 334 327 322 324 333 342 345 338 327 322 321 322 324 325 323 322 321 325 329 329 327 326 323 322 323 323 322 321 322
342 342 342 343 342 342 342 342 342 343 343 344 345 346 347 346 346 345 346 347 349 348 349 350 350 351 353 355 356 356 356 354 353 351 344 335 327 322 324 332 338 337 332 326 322 322 324 325 325 324 322 324 327 329 329 328 324 323 324 324 323 323 323
342 343 343 343 342 343 342 343 342 343 343 344 344 344 345 345 343 344 345 348 349 351 352 352 353 354 356 357 357 356 356 354 352 351 349 343 337 330 327 327 329 334 338 333 325 323 327 328 326 323 323 325 326 328 329 329 327 326 326 327 326 325 326
341 341 342 341 342 342 343 342 342 343 342 342 342 344 343 344 345 345 348 352 352 354 355 355 356 357 357 358 357 356 355 354 353 350 347 345 342 338 336 330 323 328 336 337 332 327 326 328 327 327 330 329 325 328 331 330 329 329 328 330 329 328 328
342 343 344 344 344 344 343 343 341 341 342 343 342 343 343 344 346 347 350 352 353 354 355 356 357 357 357 357 356 357 355 353 352 349 345 344 343 342 341 336 330 331 334 335 336 333 327 327 330 333 336 332 325 328 331 329 327 327 329 331 330 328 328
343 344 344 344 344 344 343 343 344 343 343 344 344 344 345 345 347 348 348 349 351 353 354 355 356 356 357 356 356 356 354 352 351 347 343 344 344 344 344 342 340 338 334 331 333 332 328 330 332 333 337 336 329 326 326 323 322 326 331 333 332 330 331
339 341 341 343 343 344 344 344 344 344 344 345 345 344 344 343 342 342 342 343 347 350 352 353 355 356 356 356 356 355 353 353 350 347 345 345 344 343 343 342 342 341 339 335 335 333 330 332 333 333 337 338 330 322 321 320 322 329 335 335 334 333 333
337 338 339 342 342 344 344 343 344 345 345 344 344 341 337 335 334 333 333 333 335 340 345 348 352 354 354 355 355 354 354 353 351 350 348 346 345 344 343 341 341 341 341 339 339 335 329 328 332 336 338 336 327 320 321 322 326 333 336 334 334 334 333
337 336 337 341 342 343 344 343 341 342 342 340 337 334 331 330 330 329 328 329 330 332 336 340 344 347 350 352 353 354 354 353 352 351 349 348 347 346 341 339 338 338 338 337 337 334 328 328 333 336 334 330 324 321 321 324 329 335 335 333 332 332 331
336 337 338 340 343 345 344 340 337 336 336 334 332 330 329 329 329 329 328 329 329 331 333 336 338 342 345 347 350 351 352 352 352 351 350 350 348 342 335 333 333 333 334 333 333 331 328 329 333 332 327 323 322 322 322 323 328 331 332 333 332 330 330
341 341 342 342 343 344 341 335 333 333 333 332 330 329 330 330 329 329 329 328 328 329 332 333 335 337 340 343 345 346 349 350 350 350 350 347 341 333 329 328 327 328 329 330 330 329 329 329 331 328 323 321 323 323 322 323 326 328 331 331 329 327 326
345 344 343 341 339 338 335 332 331 331 332 331 331 330 331 330 331 331 330 329 329 329 330 332 333 335 337 339 341 343 346 347 347 348 346 340 333 328 326 327 327 327 328 329 328 327 327 328 328 324 321 322 323 323 323 325 327 328 327 327 325 324 323
345 344 342 339 335 333 331 331 331 332 332 331 331 331 331 331 331 332 332 332 331 330 330 331 333 335 335 337 340 342 345 345 346 345 339 333 329 328 327 328 327 327 327 328 327 324 324 324 323 322 321 322 323 324 324 325 326 326 325 324 324 324 323
340 339 336 335 335 333 333 334 334 333 332 331 331 330 329 330 330 332 332 333 332 332 331 331 334 335 335 337 339 341 342 344 343 340 335 330 329 329 329 327 325 324 325 325 324 322 321 322 322 323 323 323 324 324 324 325 326 326 325 324 324 324 324
340 340 338 337 337 336 336 335 334 332 331 331 330 330 329 329 329 329 330 332 334 334 332 332 333 333 334 336 337 338 340 341 340 337 334 331 331 332 330 326 323 323 323 322 323 322 322 323 324 325 324 324 324 324 325 326 327 325 324 324 324 325 325
336 336 335 334 333 333 333 332 331 330 330 330 330 330 329 329 329 329 329 330 332 332 333 334 331 331 332 335 336 337 339 340 338 335 335 334 333 333 330 325 321 322 321 321 323 325 325 326 326 325 323 323 324 325 326 327 326 325 325 325 325 325 324
331 331 330 330 329 330 329 329 329 329 329 330 329 329 330 329 329 329 330 329 330 330 332 333 332 332 334 336 337 338 339 338 337 336 336 335 334 333 332 327 325 325 325 324 326 327 328 327 324 323 323 324 325 327 327 326 326 326 326 325 324 325 325
331 330 331 330 330 330 330 330 329 329 329 330 330 330 330 330 330 330 329 330 331 333 334 335 336 337 338 338 339 339 339 338 337 336 336 335 334 333 333 331 330 331 330 329 330 329 328 325 323 322 323 324 325 325 325 326 328 327 326 325 325 325 322
331 331 331 331 331 332 332 331 331 331 331 331 331 331 331 331 331 331 332 335 337 339 340 339 340 340 340 339 339 339 338 338 337 336 335 334 333 333 332 331 331 330 330 329 329 328 326 323 322 322 322 321 321 321 324 326 327 326 325 325 325 322 319
331 331 331 332 332 333 334 334 334 333 333 333 333 333 333 334 335 335 337 339 341 342 343 343 342 342 341 340 339 338 338 337 336 335 334 334 333 333 332 331 330 330 330 329 327 326 323 322 321 320 320 318 319 322 324 325 325 324 325 325 322 319 318
329 329 331 332 332 332 333 334 334 333 333 333 334 335 336 336 336 337 339 342 343 343 344 344 342 341 339 338 338 338 337 336 335 335 334 333 333 333 333 331 330 330 328 326 325 323 322 321 320 320 319 319 321 324 325 324 324 324 324 322 319 318 318
327 328 329 330 331 331 332 333 333 333 333 333 334 334 335 335 335 336 339 341 342 343 343 342 340 339 337 337 336 336 335 335 334 334 333 332 332 333 332 331 330 328 326 323 322 322 321 320 319 318 319 321 324 325 325 324 324 324 322 320 319 318 318
326 327 328 329 331 331 332 334 334 334 333 333 333 333 333 334 335 336 338 340 341 342 341 339 337 335 334 333 333 333 333 333 332 332 332 331 331 332 331 330 328 327 324 322 321 321 321 320 319 320 322 324 325 325 324 324 324 322 320 319 319 318 318
327 328 331 333 333 333 333 334 333 334 334 333 333 333 334 334 336 337 339 340 341 340 339 336 334 332 331 331 332 332 331 331 331 331 330 329 330 331 329 326 325 324 323 321 321 321 320 320 321 323 324 325 326 325 324 324 323 321 320 320 319 319 319

ECMWFFLT1_850_thetae_006.txt.gz
Theta_e
356 356 356 356 356 355 353 354 355 354 350 345 343 344 345 345 346 346 347 347 348 349 349 349 350 349 348 347 346 346 345 346 347 347 347 347 346 345 343 342 342 341 343 344 344 344 345 344 342 341 340 333 324 320 321 323 325 327 327 322 324 330 331
356 355 356 356 356 356 353 351 349 348 347 345 344 344 344 345 346 346 346 346 347 348 348 349 349 348 347 347 346 345 343 344 346 345 347 347 346 345 342 341 341 340 340 341 342 343 344 344 342 341 338 331 326 324 324 325 324 327 331 328 328 331 331
354 354 356 356 356 356 353 348 343 342 343 345 344 343 344 345 345 345 345 345 345 346 347 348 347 345 345 345 344 344 342 343 344 343 346 346 343 343 342 340 340 340 339 340 340 341 342 342 340 338 334 330 329 329 329 329 326 325 329 331 331 333 332
353 354 354 356 357 357 352 344 340 340 342 344 343 342 343 344 344 344 344 344 344 345 346 346 345 343 342 342 342 342 341 340 340 341 344 345 343 342 342 341 340 340 339 339 340 340 339 339 337 333 330 328 330 332 331 331 331 329 329 330 332 333 333
352 353 353 356 357 359 357 349 342 340 342 346 345 342 342 343 343 344 343 343 343 343 343 344 344 343 341 340 340 340 339 338 339 341 344 345 343 342 342 341 339 338 340 340 342 340 335 333 331 327 325 325 328 332 333 331 331 331 330 329 330 332 333
351 352 353 355 355 358 358 353 347 343 342 347 348 342 341 342 343 344 343 343 343 343 343 342 344 343 341 339 339 338 337 338 339 341 342 341 339 340 341 338 333 335 341 343 343 340 332 328 327 324 323 327 331 335 335 333 333 333 332 329 327 328 331
350 352 353 354 355 357 357 354 352 348 345 348 349 345 342 343 343 344 345 344 343 343 343 343 342 342 339 337 337 338 337 338 340 340 338 337 337 337 337 333 329 334 343 346 345 341 332 326 325 322 320 325 331 333 331 328 328 329 329 327 326 326 327
349 352 354 354 354 354 355 355 355 355 353 353 353 348 342 344 346 346 347 347 345 344 344 345 343 339 338 337 336 337 337 336 337 337 335 336 336 334 332 330 328 333 342 347 347 342 333 326 323 320 318 321 325 327 324 321 320 321 323 325 327 328 329
350 354 354 353 353 352 353 355 355 357 358 356 354 349 343 344 348 349 350 351 352 349 345 348 348 341 336 338 338 336 335 333 333 334 334 334 333 331 330 328 326 332 342 348 348 343 333 325 322 319 319 320 321 322 322 320 319 319 320 323 326 327 328
350 353 354 351 352 352 351 353 355 357 358 357 354 350 346 344 347 350 352 353 356 355 350 349 352 347 338 336 337 334 332 333 331 330 331 331 331 331 331 328 325 331 341 347 348 344 332 324 322 319 318 319 320 320 319 319 319 320 321 323 324 324 324
351 352 354 353 351 352 351 353 356 356 356 356 353 350 349 346 345 348 352 354 356 357 355 353 354 354 345 336 335 335 333 332 331 329 330 329 329 332 333 329 325 330 340 344 345 342 333 323 319 319 320 324 327 326 323 321 320 321 323 324 324 323 323
354 352 354 354 352 353 354 356 357 356 353 350 350 350 350 348 347 347 349 353 355 357 358 356 355 357 351 339 335 337 335 333 332 329 326 327 334 339 336 328 325 331 339 342 342 341 336 326 319 320 326 328 329 329 328 325 321 320 323 325 324 324 323
353 353 352 354 355 354 357 359 358 356 351 346 347 349 349 349 349 349 349 350 354 357 359 359 358 359 358 350 344 340 336 335 333 331 332 339 346 346 338 327 324 330 339 344 342 338 334 328 322 323 328 329 327 327 328 327 323 321 324 325 325 325 325
351 351 351 353 355 355 359 361 359 356 350 345 346 347 348 349 349 350 349 347 351 357 359 360 359 360 360 359 356 350 342 339 341 345 349 350 349 344 336 328 324 329 337 340 335 330 329 328 323 322 325 327 326 326 327 327 324 322 323 325 325 325 326
353 353 351 352 354 354 355 356 356 353 347 344 345 346 347 348 347 348 349 347 349 355 359 360 359 360 361 361 360 357 352 351 353 355 353 351 347 342 334 326 324 327 331 330 327 329 335 335 327 322 324 325 326 326 326 327 326 323 322 323 323 324 326
355 355 351 347 349 351 348 345 347 350 346 342 345 345 344 345 345 346 346 347 347 351 358 362 360 360 361 361 360 359 358 357 356 356 354 351 350 347 339 330 326 325 325 325 324 330 340 342 334 325 324 324 325 325 326 325 326 324 322 321 322 324 326
353 355 353 346 344 350 351 345 342 344 343 340 341 343 344 344 345 345 347 351 353 354 359 362 360 359 360 360 360 361 361 359 357 356 355 354 353 353 350 344 335 327 324 325 324 326 334 340 340 333 327 325 324 325 325 325 326 325 322 322 324 325 327
354 353 355 353 350 353 355 352 347 343 342 343 345 344 343 343 343 345 351 358 361 361 362 362 361 360 361 360 361 361 361 359 357 356 356 356 355 355 355 352 345 334 327 324 323 324 327 335 340 337 330 325 323 325 326 324 325 324 322 324 327 327 328
355 355 357 358 356 354 354 356 357 353 351 355 356 352 350 352 353 353 358 362 363 364 363 362 362 361 360 361 361 361 359 358 357 357 356 356 356 355 355 353 349 342 333 327 324 323 323 328 337 339 334 328 324 326 327 325 323 324 324 327 330 329 330
352 356 358 357 357 355 353 356 359 355 352 357 359 358 359 362 361 358 358 358 358 357 358 359 360 361 361 362 361 360 358 357 357 357 357 356 355 354 353 351 349 345 341 334 330 325 322 326 334 338 336 330 326 328 329 324 323 325 327 330 333 331 329
349 354 355 354 356 356 353 354 356 354 352 355 357 357 358 357 355 353 352 352 350 350 352 354 355 358 361 361 359 358 358 357 357 356 356 355 354 353 352 351 349 347 344 339 333 328 324 328 334 335 332 330 330 330 328 325 327 330 331 333 333 328 324
346 350 351 348 348 348 348 349 350 348 348 351 351 350 349 346 347 351 352 350 345 343 346 348 350 356 360 358 356 356 356 356 355 355 354 354 353 352 351 350 348 346 344 341 337 331 327 331 335 333 331 333 334 331 328 328 331 333 334 334 330 324 320
345 347 348 347 347 346 343 344 347 346 344 345 345 344 343 340 341 345 345 341 337 335 337 341 345 353 356 354 352 352 353 353 353 353 352 352 352 351 350 349 347 345 344 343 341 339 336 336 335 330 330 335 335 331 329 330 333 334 333 331 326 321 320
342 344 348 351 350 347 342 344 348 346 343 345 345 340 336 333 332 334 333 332 331 331 334 338 340 344 349 349 346 344 345 348 349 349 350 350 350 350 349 348 347 345 345 344 343 342 341 339 337 335 335 337 336 333 332 333 334 332 328 325 323 322 322
342 343 347 349 348 346 344 345 346 343 342 346 344 335 329 329 330 331 331 331 331 332 333 336 336 337 339 338 335 335 338 342 345 348 348 349 349 349 348 347 346 344 343 342 342 342 341 341 340 339 339 338 337 335 334 335 334 328 324 323 322 322 323
345 344 345 348 349 348 346 344 343 342 342 342 338 331 329 330 330 331 331 332 333 335 335 334 334 335 334 331 329 330 333 337 342 346 347 347 348 347 346 345 344 342 341 341 340 340 340 339 339 339 338 337 337 335 332 332 332 328 324 323 322 322 324
348 348 350 351 350 346 342 340 338 337 337 335 332 330 331 331 331 332 332 332 334 335 335 332 331 331 330 329 328 329 332 338 343 345 347 347 347 346 344 344 341 338 336 336 336 337 337 337 336 336 335 335 334 333 331 330 330 328 325 324 324 325 325
353 354 353 350 346 342 340 337 334 332 332 332 331 331 331 331 332 331 331 331 331 331 330 330 330 329 328 329 329 331 338 343 345 347 347 347 347 345 342 340 336 332 329 330 332 334 334 335 334 333 333 334 333 332 331 329 327 326 325 325 326 325 324
353 351 347 343 343 344 343 338 333 332 333 332 331 331 330 330 330 330 329 329 329 329 329 329 329 329 329 329 329 331 337 343 345 346 345 345 344 341 338 334 330 329 328 328 330 332 333 333 334 333 333 333 333 332 330 327 325 324 324 325 325 324 323
343 342 341 340 341 342 340 336 334 333 333 333 332 331 331 330 330 329 330 329 329 329 330 329 329 329 329 329 331 333 336 341 343 342 343 343 340 336 332 329 329 329 328 328 331 333 333 333 333 333 333 333 332 331 329 325 323 324 325 325 325 325 325
342 341 342 342 341 340 337 333 332 332 332 332 332 332 332 331 330 330 330 330 330 330 330 329 329 330 330 330 332 333 335 338 340 340 341 340 335 332 330 329 330 329 327 328 332 333 333 333 333 332 332 332 330 328 326 324 324 324 325 325 326 327 327
340 340 340 338 337 340 340 337 333 333 333 333 331 331 331 331 331 330 329 330 330 330 330 331 331 331 331 330 331 333 335 337 338 340 340 336 332 331 331 330 331 328 325 328 333 333 332 332 332 332 332 332 331 328 325 325 326 326 326 327 328 328 327
334 334 334 331 332 335 338 337 335 333 332 332 331 331 332 333 333 333 331 331 332 332 332 333 333 331 331 332 333 336 337 339 339 340 339 334 331 332 332 332 333 332 329 331 334 334 333 333 333 332 332 333 333 331 327 326 327 328 328 329 328 327 326
332 332 332 332 331 332 333 333 332 331 331 331 331 332 335 335 334 334 332 332 334 336 336 336 335 335 335 336 337 338 339 339 339 339 337 334 333 335 335 335 335 335 334 334 335 335 335 334 333 333 332 333 334 333 330 328 327 328 330 330 328 326 326
333 332 332 332 332 331 332 333 332 332 332 332 332 334 335 334 333 333 334 335 337 339 340 339 340 340 339 339 339 339 339 340 339 338 336 334 334 335 336 336 335 335 336 335 333 333 334 334 333 333 332 331 332 330 328 328 328 328 329 329 327 326 325
335 334 334 334 333 332 332 333 333 333 332 332 333 334 334 335 335 336 337 339 340 341 342 342 342 342 341 342 341 341 340 340 339 338 337 336 335 335 335 334 334 334 334 333 332 331 331 332 333 332 330 330 329 326 325 327 329 328 327 326 324 324 323
336 336 336 336 335 334 334 334 335 335 335 334 336 336 336 336 336 338 340 340 341 342 342 340 340 341 343 343 343 341 341 340 340 338 337 337 337 335 334 334 334 333 332 333 331 329 328 328 328 328 326 327 328 326 325 326 327 325 325 324 324 323 321
334 337 339 338 336 335 335 336 337 338 337 337 337 337 337 338 338 339 341 341 341 341 338 334 335 340 342 342 341 339 339 340 340 339 338 338 338 336 335 334 333 333 332 332 330 327 325 324 323 322 322 322 324 324 325 325 325 325 325 325 323 322 320

ECMWFFLT1_850_thetae_009.txt.gz
Theta_e
351 350 348 350 355 356 355 357 357 356 355 354 355 355 355 356 357 360 362 363 363 355 345 346 347 346 346 345 345 344 343 343 343 342 343 344 346 349 351 350 349 349 350 349 347 347 346 346 344 343 343 342 341 337 331 326 325 328 329 324 324 331 334
351 350 347 350 356 357 355 356 357 358 357 355 356 356 355 355 357 360 362 363 363 354 345 346 348 347 346 345 346 345 344 344 343 342 343 344 345 347 349 351 349 346 345 346 348 348 347 347 345 343 343 342 340 336 330 324 320 323 332 329 322 326 332
349 351 350 351 356 358 356 356 357 359 358 356 357 357 355 355 357 359 361 363 363 357 349 348 349 347 347 345 345 346 345 345 344 343 342 344 347 347 347 347 346 345 344 344 347 348 346 347 345 342 343 342 339 335 331 330 323 320 329 332 327 329 332
345 350 350 352 356 359 358 357 357 358 358 357 358 358 357 356 357 357 358 361 363 358 350 349 349 347 347 347 345 346 346 345 345 345 342 343 347 348 347 346 343 344 346 346 347 346 345 345 344 340 341 340 339 337 334 334 332 326 325 329 330 333 335
343 349 349 351 356 360 359 358 358 358 358 357 359 360 359 357 358 358 356 359 362 357 348 348 352 349 347 348 347 346 346 345 346 346 343 343 346 348 348 347 345 346 348 348 346 344 342 343 343 342 339 335 336 339 336 333 335 334 327 325 327 331 334
341 346 348 351 356 360 360 360 358 358 357 357 359 361 360 358 358 360 358 357 359 360 353 349 354 354 349 348 349 347 346 346 347 347 346 342 341 346 348 349 349 349 349 348 345 342 338 339 342 342 341 336 334 338 338 332 332 333 330 327 327 329 332
339 344 347 351 355 359 360 360 359 359 357 355 356 359 359 359 359 359 360 357 357 360 359 354 354 357 353 350 351 349 346 346 346 347 349 345 340 344 348 349 348 347 349 348 343 340 339 339 341 338 335 335 335 333 330 329 330 330 328 326 325 326 328
338 341 346 351 355 357 359 360 360 360 358 353 353 357 359 358 358 358 358 358 356 357 360 358 358 360 357 351 350 349 345 345 345 345 348 349 348 348 348 348 345 342 346 346 340 339 340 340 340 335 327 326 329 327 323 326 329 329 326 322 322 323 323
337 340 346 351 354 354 358 360 359 360 359 354 351 355 358 357 356 355 355 355 355 354 356 358 357 361 359 350 347 348 345 345 346 346 348 350 351 348 347 349 345 340 341 341 337 337 339 339 337 331 325 321 321 321 322 325 326 325 323 322 322 322 321
340 342 346 351 353 354 356 358 360 360 358 355 351 353 360 357 352 353 352 352 354 352 354 354 352 358 360 351 344 344 344 345 346 349 353 352 350 348 349 349 345 340 337 333 331 332 334 334 330 326 327 324 318 317 319 322 322 323 322 321 322 324 321
340 340 348 354 356 356 356 357 360 361 359 357 353 353 359 357 351 351 350 350 351 350 352 354 349 354 362 360 352 346 342 342 348 355 357 353 349 346 348 348 342 339 337 330 326 327 326 327 324 322 327 327 321 317 318 321 322 324 324 323 324 324 322
345 349 355 360 358 357 357 357 358 361 360 359 357 355 359 358 352 349 350 350 350 348 350 353 350 352 362 366 363 356 346 343 353 360 356 349 345 340 341 344 339 335 336 332 327 327 325 325 322 321 327 329 325 319 318 321 324 325 324 324 327 327 323
356 363 362 362 360 358 359 357 357 360 362 362 362 360 360 361 354 349 350 351 350 348 349 352 351 352 359 366 368 364 357 353 357 357 348 341 341 337 339 344 339 332 333 332 329 328 326 325 323 323 326 330 329 322 318 322 325 326 324 325 327 327 324
357 366 362 361 361 359 360 359 357 360 363 364 366 364 364 363 359 352 351 352 352 349 349 351 354 354 356 364 368 367 365 364 361 352 339 337 338 336 338 339 336 333 331 330 329 328 327 325 324 324 323 328 332 327 320 322 327 327 325 324 326 326 325
356 363 363 363 361 356 356 359 359 361 365 368 367 367 366 365 362 358 356 357 354 350 349 353 356 355 355 361 367 368 367 366 361 353 343 339 338 336 335 331 328 329 329 328 328 327 327 326 325 325 323 326 332 330 323 324 328 328 326 325 325 325 325
346 352 354 357 359 357 352 357 364 364 366 369 368 367 367 365 365 363 361 361 358 352 351 353 356 358 357 360 366 368 368 365 362 359 353 346 339 336 335 330 326 326 325 326 328 327 327 326 325 327 328 329 333 332 327 325 326 327 326 325 325 325 325
335 338 339 339 352 360 357 359 367 368 369 371 369 368 368 366 366 365 363 363 360 356 353 354 358 361 360 362 366 368 368 365 363 361 357 352 346 342 340 336 332 330 328 327 328 327 325 324 324 327 330 334 337 335 331 327 326 325 325 325 325 325 325
333 333 335 335 344 357 362 362 364 365 368 371 370 369 369 369 368 365 364 364 363 359 357 358 364 364 363 366 368 368 367 365 363 361 358 356 353 350 348 345 341 338 334 332 331 329 326 324 325 326 329 336 340 338 334 329 326 325 324 325 325 325 324
335 332 336 338 338 348 360 363 361 362 368 371 370 370 370 370 369 367 365 366 365 362 360 363 367 368 368 369 369 368 367 364 361 360 358 357 355 355 354 351 349 347 343 340 337 333 329 326 325 326 328 335 340 339 335 332 329 327 325 324 325 325 324
335 332 337 341 339 346 360 364 362 365 370 372 369 369 370 370 370 366 364 366 367 364 362 365 369 369 368 368 367 367 365 362 361 360 358 356 356 356 355 354 353 353 350 347 344 341 337 330 327 328 329 333 339 339 336 335 334 332 329 327 325 325 325
333 336 342 342 339 349 362 364 361 365 370 371 368 369 370 370 368 366 364 367 368 367 364 367 370 370 367 366 366 366 363 361 362 360 357 356 356 356 356 355 355 354 353 352 350 350 346 338 332 332 331 332 336 337 336 336 336 335 332 329 327 326 327
332 341 348 350 351 357 362 359 355 360 366 368 368 369 369 369 368 366 366 368 369 368 367 370 372 370 367 366 367 366 361 361 362 360 357 356 356 356 356 355 355 354 353 353 352 350 348 344 340 337 334 333 334 336 337 337 336 335 332 329 328 328 329
334 341 347 353 357 360 357 352 352 360 366 367 369 369 369 369 368 367 369 370 370 369 369 370 371 369 367 367 366 364 362 361 360 358 355 355 355 355 355 354 354 353 352 352 351 349 347 345 344 341 338 337 336 338 339 337 336 336 335 332 330 328 327
340 340 344 350 355 359 358 354 356 363 366 366 368 369 369 370 369 369 370 370 370 370 369 370 370 369 366 365 364 364 362 360 356 353 353 354 354 353 353 353 352 351 351 349 349 347 345 344 344 342 341 341 340 340 339 337 337 337 336 334 332 329 328
342 340 345 349 352 357 359 356 358 364 365 366 368 369 369 369 368 368 369 370 370 369 368 368 369 367 364 364 362 360 358 355 351 350 351 351 351 351 351 351 350 349 349 348 347 346 345 344 343 343 342 341 341 340 339 338 339 339 337 334 332 331 332
344 342 346 348 350 357 360 357 359 364 365 366 367 367 366 366 366 368 369 369 368 367 367 368 366 361 358 356 353 350 351 351 351 352 351 349 350 350 350 350 349 348 348 347 346 346 345 344 344 343 342 342 341 341 340 339 340 340 337 334 332 332 334
346 345 347 350 354 359 360 360 362 364 364 364 364 364 364 365 367 368 367 368 368 367 366 363 355 345 340 339 338 340 346 351 353 353 353 351 351 351 350 349 348 347 346 346 344 344 343 342 342 342 342 341 341 340 338 338 339 339 337 334 332 333 334
348 347 348 353 358 360 359 360 361 361 361 361 361 362 364 367 368 367 364 362 361 357 351 343 335 330 329 332 334 335 343 350 352 351 350 351 352 350 349 348 346 345 345 343 342 341 341 340 340 340 340 340 339 338 337 337 337 337 336 334 333 332 330
349 350 353 357 358 358 358 359 359 361 362 363 364 365 367 367 364 357 352 350 345 338 332 329 329 328 328 331 332 332 341 347 347 344 346 349 350 349 348 346 344 343 342 341 341 341 340 339 338 337 337 337 337 337 337 336 334 334 333 333 332 329 326
355 356 359 360 358 357 359 361 363 364 363 361 359 358 356 351 342 337 342 347 344 337 332 329 332 333 332 332 333 337 344 347 345 343 345 348 349 348 346 344 342 339 337 336 337 338 338 338 337 336 335 335 336 336 336 335 334 333 331 329 327 326 325
358 357 356 355 354 355 356 356 355 354 351 349 347 344 338 332 334 343 352 352 345 337 329 330 338 342 339 340 343 344 346 348 348 347 347 348 347 346 344 341 338 335 332 331 333 335 337 337 336 336 335 334 335 335 335 335 335 333 329 325 324 325 328
352 350 352 353 353 353 352 353 354 353 353 353 351 346 339 340 346 350 346 339 334 331 329 331 338 343 345 349 351 349 348 348 349 348 348 347 346 344 340 337 336 334 332 332 333 335 337 337 336 336 336 335 335 334 335 336 336 333 328 326 326 327 328
351 349 346 345 348 349 350 352 354 354 355 354 349 344 342 343 343 338 331 330 331 331 330 329 333 342 350 353 351 349 348 348 347 347 347 346 344 341 337 336 336 335 334 334 335 337 337 337 336 335 335 335 334 334 335 336 336 334 331 328 327 327 327
354 356 353 347 344 343 343 345 345 346 349 349 345 345 348 344 335 329 329 332 331 329 333 338 343 348 352 351 348 347 348 347 346 345 345 344 342 341 338 337 337 338 337 336 337 337 336 336 335 334 334 334 333 334 336 336 336 335 334 330 327 327 327
349 352 354 355 354 351 347 346 348 350 352 353 352 354 352 343 333 330 334 338 338 336 340 348 352 352 349 345 346 347 347 346 345 345 344 343 342 341 340 339 338 339 339 337 336 337 337 337 336 335 334 334 333 334 336 335 334 335 333 329 326 326 327
348 348 349 350 353 355 355 356 356 356 356 357 356 353 346 340 340 342 344 348 349 344 342 346 350 350 348 346 347 348 347 346 345 344 343 343 341 339 339 339 338 338 338 337 336 336 335 335 336 335 334 334 334 334 336 336 334 332 329 326 324 325 326
350 350 350 347 345 346 349 351 352 351 351 353 355 351 345 344 347 350 350 351 350 343 338 342 347 348 348 347 347 347 346 345 344 343 342 341 341 339 338 338 338 337 337 336 334 334 333 332 333 334 334 333 333 333 332 332 329 327 326 326 326 326 325
347 348 349 348 345 342 341 343 344 343 344 347 349 349 349 349 350 352 350 348 346 342 338 342 348 349 347 346 345 346 345 344 342 342 341 340 341 339 338 337 337 336 335 334 333 333 332 330 331 333 333 332 331 331 329 327 325 324 327 328 327 325 325

ECMWFFLT1_850_thetae_012.txt.gz
Theta_e
352 353 353 351 350 350 351 352 353 356 358 357 356 356 357 357 359 360 360 360 360 360 358 354 350 347 344 345 347 348 349 351 352 351 348 346 347 352 353 350 348 346 344 344 343 342 344 344 343 343 342 340 339 333 324 317 318 322 322 322 327 329 330
349 351 351 351 351 351 351 351 353 356 357 358 356 356 358 358 358 359 360 360 361 360 359 356 350 345 344 346 347 347 347 348 349 349 347 346 347 351 352 349 346 345 347 347 345 343 342 342 343 343 343 339 335 328 319 317 316 318 320 319 320 322 322
350 351 351 349 351 352 352 351 353 354 356 358 357 356 358 358 357 359 359 360 361 360 360 358 352 345 345 347 347 347 347 346 347 346 346 345 345 349 352 351 349 347 348 349 348 344 342 343 344 343 341 338 335 329 320 318 317 316 319 319 319 320 318
351 351 351 349 351 352 352 352 351 351 355 357 357 355 357 358 357 358 358 360 360 360 361 361 355 347 346 348 347 346 346 345 345 344 344 343 343 345 349 351 351 350 348 348 347 344 341 342 343 341 339 337 334 329 322 318 318 316 317 320 320 320 320
349 349 351 350 350 350 351 351 350 352 357 358 357 356 357 358 357 357 357 359 361 360 361 362 358 348 345 348 347 346 346 344 344 344 344 343 342 343 345 348 350 349 346 345 345 344 340 341 342 339 337 337 335 330 324 319 319 317 317 319 320 321 322
348 350 351 349 348 348 349 351 351 353 358 359 357 356 357 358 357 357 357 359 361 361 362 363 360 349 344 348 348 346 345 345 344 344 344 343 342 342 344 348 348 346 344 344 344 343 341 340 341 338 336 336 336 332 325 321 320 318 317 319 319 321 323
350 352 351 349 348 349 350 352 353 355 358 359 358 357 357 358 358 358 358 360 363 364 364 364 361 351 343 347 349 346 345 345 345 345 344 343 343 344 345 347 347 345 344 343 344 343 342 341 341 339 336 336 338 335 327 323 321 319 318 319 320 321 323
348 351 348 348 348 347 349 352 353 357 359 358 359 359 357 357 358 357 358 361 363 366 366 365 361 352 344 346 349 348 346 346 345 346 345 343 344 347 347 346 345 344 343 343 343 342 342 342 341 339 337 337 338 336 330 325 322 320 319 320 322 324 323
346 348 346 348 347 347 349 351 352 354 355 355 357 360 358 358 358 356 358 361 363 365 366 365 362 354 347 347 350 349 348 349 348 346 345 344 345 347 346 344 343 342 343 342 342 342 341 341 341 339 338 336 336 336 332 327 324 322 320 321 324 325 324
347 346 346 347 346 347 347 348 348 347 348 351 355 359 360 359 358 357 358 361 362 363 366 366 364 360 353 349 350 349 349 353 352 348 347 347 345 343 342 342 341 340 341 341 341 341 340 339 340 339 337 335 335 337 335 330 326 322 320 322 325 326 325
348 348 347 346 346 347 347 346 345 344 345 349 355 359 360 359 359 358 358 360 360 362 365 365 364 363 360 354 352 352 351 352 353 353 353 351 346 340 338 340 341 337 336 338 339 339 339 338 338 337 336 334 335 336 335 332 327 322 319 322 325 326 325
347 348 349 348 347 349 350 347 345 347 349 352 356 359 359 360 361 360 358 359 359 360 364 364 362 363 365 361 357 356 354 351 353 358 359 354 348 341 337 340 342 337 333 334 336 337 339 339 338 337 335 333 334 335 335 334 329 322 319 321 324 326 325
344 347 348 350 350 349 349 347 345 347 352 356 360 359 359 361 361 360 359 359 359 359 360 361 359 360 364 364 361 358 357 353 353 358 358 355 351 346 342 341 341 338 332 331 335 338 339 340 339 339 338 335 334 334 335 335 330 324 320 320 323 326 326
348 349 351 352 353 352 352 351 351 352 354 359 362 360 359 359 360 360 359 358 358 357 356 357 358 358 361 363 362 359 358 357 356 356 355 353 353 350 346 344 341 339 337 333 333 335 338 340 340 340 340 337 334 334 336 335 331 326 322 320 323 326 327
355 356 359 358 356 354 354 355 357 359 359 361 363 362 360 358 358 359 358 358 356 354 354 354 354 355 357 359 360 358 358 360 361 359 355 354 354 351 347 343 339 339 341 338 335 334 338 339 339 340 341 338 335 335 337 336 333 329 326 322 322 325 327
351 352 359 363 360 355 351 352 355 357 361 363 363 362 359 357 358 358 357 356 354 351 352 353 352 353 353 352 354 356 359 362 364 363 359 356 354 351 346 342 340 340 341 339 337 338 340 341 340 340 340 338 336 337 338 338 335 332 329 325 322 324 327
338 338 350 357 358 356 351 349 349 351 357 360 361 363 361 358 358 358 357 354 352 350 350 351 351 351 350 349 351 354 358 361 363 364 362 358 354 352 349 345 343 343 342 340 339 342 344 344 342 342 342 341 338 337 338 338 337 334 331 327 323 323 326
336 337 343 346 351 357 357 352 349 351 354 356 360 363 362 360 359 359 357 354 351 350 349 349 349 349 350 350 351 353 356 360 364 365 364 360 356 353 351 349 348 347 345 343 343 345 345 345 344 344 345 343 339 338 339 340 338 335 332 329 325 324 326
336 336 340 343 347 352 356 358 355 352 353 355 359 361 362 363 363 361 359 354 350 349 349 349 349 350 349 350 351 354 357 361 365 366 365 362 359 356 354 352 350 348 346 346 346 346 346 346 346 346 345 343 340 340 341 342 340 337 333 330 326 325 326
337 335 336 341 345 348 356 362 360 354 353 354 354 357 362 365 366 365 362 358 353 350 349 349 350 350 350 351 353 357 360 364 367 366 365 364 361 359 357 354 351 348 346 346 346 347 348 348 347 345 344 342 340 341 341 341 340 338 335 332 328 326 326
338 337 335 338 348 356 361 364 363 358 355 353 352 357 363 365 366 366 364 361 358 353 350 350 351 353 353 353 356 359 362 365 366 366 366 365 363 362 359 356 354 351 348 348 347 347 348 347 346 345 343 342 341 340 340 340 339 338 336 334 332 330 327
337 338 336 335 343 351 352 352 356 357 355 354 357 360 363 365 367 367 366 364 362 360 355 351 351 355 357 357 358 360 363 364 366 366 366 365 364 362 360 358 356 354 352 352 350 350 349 348 346 345 343 342 341 340 340 340 339 338 337 336 336 334 333
335 336 337 336 335 341 342 341 345 351 355 360 359 356 358 365 368 368 367 365 363 363 360 355 353 357 360 359 359 361 363 364 365 366 366 366 364 362 361 359 358 356 355 354 353 352 350 349 348 347 345 344 343 342 341 340 339 339 338 338 337 336 336
334 333 334 335 333 337 341 340 342 349 356 360 358 353 356 363 368 368 367 365 365 365 362 360 359 362 364 364 362 362 364 364 365 366 367 365 364 362 360 358 357 356 355 355 354 353 351 350 350 349 349 347 345 343 342 341 340 340 338 338 337 336 336
332 331 332 333 332 334 341 343 343 349 356 360 358 357 360 364 368 370 367 365 366 365 364 363 363 364 367 368 367 366 367 368 367 367 366 363 361 360 359 358 356 356 356 355 354 354 353 352 351 349 348 346 345 344 343 342 341 340 339 339 338 338 337
333 333 332 332 331 335 345 349 349 352 359 360 356 358 362 366 370 370 367 366 368 367 365 365 364 365 368 369 369 369 368 367 365 365 363 360 359 358 357 356 355 355 355 355 354 354 352 351 349 347 346 345 344 343 343 342 341 340 340 340 339 339 339
340 338 334 333 337 341 349 355 356 357 358 357 356 359 365 368 370 369 367 367 368 368 366 366 366 367 369 370 369 368 366 364 362 362 359 356 356 354 352 352 353 353 354 353 352 351 350 348 347 345 344 344 344 343 342 342 341 341 340 340 340 340 339
346 345 340 336 336 339 347 355 356 356 358 360 361 364 368 370 370 368 368 369 370 371 370 370 369 368 368 369 368 366 363 358 355 352 346 344 346 347 345 346 348 350 351 350 349 348 347 346 345 344 344 344 343 343 342 340 339 339 339 339 339 338 337
344 344 342 342 343 344 351 357 357 355 360 365 367 368 370 371 370 369 371 372 373 373 372 370 369 368 367 367 365 361 355 348 344 342 338 337 338 340 340 341 344 346 348 348 347 345 344 343 341 341 342 342 341 340 339 338 338 337 337 338 337 334 333
339 340 338 342 351 357 359 359 358 358 361 366 369 371 371 372 372 372 373 372 372 372 371 369 367 365 363 363 362 358 355 353 350 346 342 341 343 346 347 347 346 346 346 346 346 344 343 342 340 339 340 339 338 338 338 338 337 335 334 335 334 333 332
342 342 338 339 350 361 363 362 362 363 365 368 369 370 370 371 372 372 372 371 370 369 368 366 365 362 360 360 360 357 357 356 351 345 344 346 348 350 350 349 348 346 345 345 345 344 342 342 340 339 338 337 336 337 337 337 336 335 333 333 332 332 331
348 345 344 347 354 359 361 362 363 364 367 368 368 369 370 370 370 371 370 369 369 369 366 362 360 359 358 356 354 352 353 352 348 347 349 350 350 351 349 348 348 347 345 344 343 341 340 339 338 337 336 335 335 336 337 336 335 335 334 332 330 329 329
352 350 351 354 356 359 360 362 363 364 367 368 369 369 368 368 367 367 367 368 367 365 360 354 350 348 347 345 344 346 349 349 348 349 351 350 349 350 349 347 347 346 343 341 340 339 338 338 337 337 336 336 336 336 337 336 335 335 333 329 327 326 325
351 352 353 354 356 358 361 362 362 362 364 365 366 366 366 366 366 365 366 366 362 355 346 337 335 334 334 340 345 346 345 345 346 348 348 347 347 348 347 346 345 343 339 337 338 338 337 337 338 338 337 336 335 335 337 336 334 334 331 328 325 325 325
350 350 350 353 355 355 356 357 357 357 359 360 362 365 366 365 364 364 363 359 351 340 332 335 341 343 343 346 347 345 343 345 346 346 346 346 346 346 345 344 343 340 336 336 338 338 337 338 338 337 336 335 334 334 336 334 332 331 330 328 328 326 325
352 353 352 353 353 353 353 354 353 354 357 359 361 363 362 361 361 362 359 351 341 333 335 343 349 352 351 351 349 347 346 347 347 346 346 346 345 344 343 342 341 339 337 337 339 338 337 337 337 335 335 335 333 333 334 334 333 332 331 329 328 326 325
353 358 358 357 356 357 356 356 356 356 357 356 354 353 352 354 357 358 353 346 340 337 337 341 347 351 352 351 349 348 347 346 345 345 345 344 343 344 342 340 340 340 338 337 338 338 337 337 337 336 335 334 334 334 334 334 334 333 330 328 327 325 326
349 354 357 358 358 359 359 359 358 357 354 350 346 346 347 349 354 356 351 345 341 339 336 338 343 348 350 350 349 347 346 345 345 344 344 343 343 343 341 339 339 340 339 337 336 336 336 336 335 335 335 334 334 334 334 333 333 332 330 329 327 326 326

ECMWFFLT1_850_thetae_015.txt.gz
Theta_e
346 346 346 347 349 350 350 350 352 353 354 355 355 356 356 355 355 355 355 355 355 355 355 355 354 352 350 346 343 342 341 340 342 344 346 349 351 352 350 349 348 346 342 340 341 341 342 341 339 339 339 338 338 339 339 342 338 325 320 324 327 329 330
347 347 348 347 348 349 350 351 352 353 354 356 356 356 356 356 356 355 355 355 356 355 355 356 356 354 351 348 345 343 341 340 342 344 345 348 350 351 349 348 347 344 342 341 341 342 343 342 341 340 340 337 336 337 338 337 331 322 318 321 322 323 325
348 349 349 349 349 349 349 351 352 354 355 356 357 357 357 357 356 356 355 355 356 356 356 356 356 356 353 351 348 345 342 341 341 344 346 348 349 349 348 348 346 342 339 340 340 342 343 343 342 341 340 338 336 337 336 329 322 318 319 319 319 320 321
347 349 350 350 350 349 349 350 351 353 354 356 356 357 357 357 356 356 355 355 356 356 357 357 357 357 355 353 351 348 344 342 342 344 346 348 348 348 348 348 346 342 339 339 340 342 344 343 342 342 341 340 339 339 336 329 322 319 318 319 319 320 320
347 348 350 350 350 349 350 350 350 352 353 354 356 356 357 357 356 356 356 356 358 358 358 357 357 357 356 354 353 350 346 342 342 344 346 348 349 348 347 346 345 342 340 338 339 342 344 343 342 342 342 341 341 340 339 335 327 320 318 319 320 320 320
348 348 350 350 350 350 350 351 350 350 351 353 354 356 356 357 357 356 356 356 358 359 359 359 358 358 357 356 354 353 349 344 343 344 345 347 348 347 346 345 343 341 339 339 339 341 343 344 343 343 342 342 342 340 338 337 331 322 318 318 319 320 320
348 349 350 350 351 351 350 350 349 349 350 351 353 355 356 357 357 357 356 356 358 359 360 360 359 358 358 357 356 354 350 345 343 344 345 346 346 346 345 344 343 341 339 339 340 340 342 344 344 343 342 342 341 341 338 336 335 328 321 318 319 320 321
348 348 349 350 351 350 347 347 347 347 350 352 353 355 356 357 358 357 356 357 357 359 360 360 359 359 359 359 357 355 350 345 343 343 345 345 344 344 343 343 342 341 340 340 340 341 343 344 345 344 343 342 341 341 339 337 336 334 326 320 319 320 321
347 347 348 349 349 349 346 346 348 349 351 352 354 356 357 358 358 357 357 357 357 358 359 359 359 359 359 360 359 357 352 346 343 343 345 345 343 342 341 341 341 341 339 339 339 341 342 343 344 344 343 342 341 341 340 338 336 336 331 323 318 320 323
348 346 347 349 348 349 348 348 351 351 352 353 353 355 356 357 357 357 357 357 357 358 358 359 360 360 360 360 359 358 354 349 345 344 345 344 342 340 340 340 340 339 338 338 338 340 341 342 343 343 343 343 342 342 341 339 337 337 334 327 320 320 323
349 347 348 349 349 349 350 350 352 352 352 352 352 353 355 357 357 357 357 357 357 358 358 358 359 360 360 360 360 359 356 351 348 345 344 343 341 339 340 339 339 338 337 337 337 338 340 342 343 343 343 342 342 342 342 340 338 337 336 331 323 320 322
348 349 348 349 349 349 349 350 351 351 352 351 351 354 356 357 357 357 357 357 357 358 358 359 360 361 361 361 361 359 357 354 351 347 342 341 339 338 340 340 339 338 336 335 335 337 339 342 343 343 343 342 342 342 342 341 339 338 336 334 327 321 321
347 349 348 349 349 348 349 349 349 350 350 351 353 356 358 358 357 357 358 357 357 357 358 358 360 361 362 362 361 359 357 354 351 346 341 339 337 337 340 341 340 339 336 333 332 334 336 340 342 342 343 343 342 342 342 341 340 340 338 335 331 324 320
348 349 348 349 349 348 349 349 350 352 353 354 355 357 359 358 358 358 358 358 357 357 357 358 360 362 363 362 362 360 356 352 348 344 340 336 336 337 339 340 340 339 338 335 333 331 331 334 337 340 342 343 343 342 342 342 341 341 339 337 335 327 321
350 349 349 349 347 347 347 346 347 351 353 356 358 358 360 359 358 358 357 357 357 357 357 358 360 363 363 362 362 360 356 351 347 344 340 337 337 338 338 339 340 340 340 339 336 333 332 333 335 338 340 342 343 343 343 344 343 341 340 338 336 331 324
349 348 347 347 347 346 343 341 343 344 346 349 352 355 356 357 358 358 358 358 357 357 357 358 360 363 364 363 362 360 357 352 348 346 343 339 338 338 339 339 340 341 342 341 340 340 339 338 339 340 341 342 343 344 344 345 344 343 341 339 338 335 328
350 349 347 347 348 346 343 343 343 343 343 344 345 347 349 351 355 358 358 358 358 357 357 358 360 362 363 363 362 361 359 354 349 347 345 342 341 340 341 342 343 344 345 345 345 346 345 345 344 344 344 344 345 345 346 346 345 344 343 341 340 337 332
351 352 350 348 350 347 345 346 346 346 346 346 346 348 348 351 356 358 359 359 358 358 358 358 359 361 362 363 363 362 361 358 353 351 348 347 346 345 345 347 349 350 350 349 349 350 350 350 349 348 347 347 347 347 347 347 346 346 344 343 341 339 335
351 353 351 348 348 348 346 347 346 346 347 348 349 350 350 353 357 359 360 360 359 359 358 358 358 359 361 362 362 362 361 360 358 355 352 352 351 349 349 353 355 355 353 352 352 352 353 353 352 351 349 349 349 349 348 348 348 348 346 344 342 340 337
348 352 352 347 346 348 349 348 347 346 345 348 349 348 349 354 358 359 360 360 360 359 358 358 358 359 361 361 361 361 360 361 360 358 357 355 354 353 354 355 357 357 356 355 354 353 354 353 353 353 352 351 350 349 349 349 349 349 347 345 343 341 338
339 344 348 346 343 346 350 349 347 347 346 347 348 348 351 355 358 361 361 360 360 360 358 358 357 358 359 359 359 359 359 359 360 360 360 359 358 358 358 358 359 359 358 357 355 354 353 353 353 353 352 352 351 350 350 350 350 349 347 346 344 343 341
336 338 343 347 347 349 351 348 345 345 344 344 346 351 354 356 357 361 361 360 360 359 358 358 357 356 357 357 357 357 357 358 360 361 361 360 360 361 361 361 361 360 359 358 356 355 354 353 353 352 352 352 351 351 351 351 350 349 347 346 345 343 342
332 332 336 341 345 347 348 345 342 342 342 343 345 348 351 353 358 361 361 359 359 359 358 357 356 355 354 354 355 355 355 357 359 361 362 360 360 363 363 363 362 360 360 358 357 356 355 353 353 352 351 351 351 351 351 350 349 347 345 344 342 341 340
329 330 331 333 336 340 342 344 343 341 341 343 344 345 345 349 355 360 361 359 358 358 357 356 356 354 353 352 353 352 354 355 357 360 362 360 360 362 363 363 363 361 360 358 357 356 355 354 353 352 352 352 352 351 350 348 347 345 343 342 340 339 339
330 328 329 331 332 334 340 345 345 343 343 345 344 345 345 346 350 357 360 360 359 357 356 355 354 353 351 350 351 352 353 354 356 359 360 361 360 361 362 363 363 362 361 359 358 357 355 354 354 353 353 352 351 350 349 347 346 344 343 342 340 339 338
338 334 331 330 331 332 337 341 340 338 340 343 345 346 347 347 350 354 357 360 360 359 357 355 353 352 351 349 351 352 352 353 357 359 360 360 360 361 363 364 363 363 362 360 359 358 357 356 354 353 352 351 351 350 348 347 345 343 342 341 340 340 339
338 340 339 336 332 333 337 341 339 335 335 339 344 348 349 351 351 351 353 358 361 360 358 357 355 352 350 350 351 352 353 355 359 360 361 361 361 363 364 365 364 363 362 361 359 358 357 356 354 352 352 351 350 349 347 345 344 342 342 341 340 340 339
334 336 341 342 339 335 334 338 342 342 340 340 344 350 353 355 355 352 353 357 359 359 359 360 359 354 352 352 353 355 358 360 362 362 363 363 364 364 364 365 364 363 362 360 359 357 356 355 354 352 351 349 348 346 345 344 342 342 341 341 340 340 340
336 333 337 341 342 342 340 338 342 347 351 353 355 359 361 361 358 356 355 356 358 358 361 364 362 358 357 357 358 361 364 365 365 364 364 365 365 365 365 365 364 362 360 359 358 357 356 355 353 351 348 347 346 345 344 343 342 341 341 341 340 340 340
342 339 336 337 339 343 348 352 353 356 361 365 363 360 360 361 360 359 358 359 360 362 364 365 364 363 364 364 365 366 367 367 366 365 366 366 366 366 366 364 362 359 358 357 356 355 354 354 352 349 347 346 345 344 343 342 340 339 339 339 339 340 340
346 346 344 341 339 338 341 350 358 362 364 367 365 363 360 359 358 359 361 363 365 366 367 366 366 367 367 367 367 367 367 367 367 366 367 367 366 365 364 361 359 357 355 354 354 352 351 351 349 348 347 345 344 343 341 340 338 337 337 336 337 338 338
348 349 347 345 344 342 338 340 351 359 362 364 366 369 368 364 361 361 363 367 368 368 367 368 369 369 369 369 369 368 368 367 366 366 366 364 363 363 360 357 354 352 351 350 350 348 346 345 344 342 342 342 341 339 337 336 336 336 335 334 335 336 335
348 350 350 349 350 353 351 346 349 356 359 362 365 367 367 367 369 368 367 369 370 369 370 372 371 370 369 368 366 365 365 365 365 363 361 359 358 356 353 349 347 345 345 346 346 345 344 342 341 339 338 339 338 336 334 334 335 335 335 333 333 334 333
349 350 351 351 352 354 356 355 355 357 357 358 359 359 360 364 369 370 370 372 371 370 370 368 366 365 363 361 361 362 362 361 359 355 351 350 350 348 346 345 344 343 343 344 344 345 344 343 341 339 338 339 337 335 335 335 335 335 334 333 332 332 331
349 349 349 350 350 351 354 355 355 356 355 356 357 358 360 363 365 364 363 364 365 365 364 361 359 358 355 354 357 359 357 356 353 346 342 344 345 343 344 345 344 343 343 343 344 345 344 343 342 338 336 336 336 334 335 335 334 335 334 332 330 329 328
349 349 350 350 349 349 351 353 354 355 356 356 357 359 360 360 359 357 356 358 359 360 360 359 357 354 353 353 355 355 353 352 349 342 338 340 341 340 343 345 345 345 345 344 344 343 342 341 338 333 331 333 335 336 335 334 334 334 332 330 328 326 325
346 349 350 349 348 349 350 351 353 355 356 356 356 356 355 355 355 355 356 357 356 355 356 356 355 354 355 356 354 352 350 348 346 344 342 343 343 343 344 346 347 346 345 343 341 340 338 335 332 331 333 335 335 335 335 334 334 333 331 329 328 327 325
340 344 347 346 346 348 349 350 352 354 356 356 355 354 352 353 355 356 355 354 353 352 354 356 354 354 354 352 350 349 348 346 346 346 345 345 346 346 345 345 345 344 341 339 337 336 334 333 333 335 337 337 336 334 334 334 334 334 332 330 328 326 325

ECMWFFLT1_850_thetae_018.txt.gz
Theta_e
343 343 342 343 345 346 347 348 348 349 350 350 351 351 352 352 352 353 352 353 353 353 353 353 354 354 353 353 352 351 348 344 340 338 338 338 339 341 343 344 345 345 345 344 344 344 342 342 342 340 340 340 340 338 337 338 337 333 330 326 323 325 326
343 344 343 343 344 345 346 347 347 348 349 350 351 351 352 353 353 353 353 353 353 353 353 354 354 354 354 354 352 352 350 345 341 339 339 339 339 340 343 343 345 345 345 344 344 344 342 341 341 339 340 340 338 337 337 337 337 337 336 330 322 321 323
343 344 345 344 345 345 345 346 347 348 349 350 351 352 352 352 353 354 354 354 354 354 354 354 355 355 354 354 352 351 350 348 344 341 340 340 340 341 342 343 345 346 345 344 344 344 342 341 340 339 340 339 337 337 336 337 337 336 337 331 322 320 321
343 345 345 345 345 345 345 346 346 348 348 349 351 351 352 352 353 354 354 354 355 354 355 355 355 355 354 354 353 350 350 348 345 342 340 340 340 341 342 343 346 347 346 345 345 344 343 341 340 340 341 339 338 336 336 336 335 335 333 327 320 320 321
343 344 345 346 347 346 346 347 346 348 348 349 350 350 352 353 353 354 354 354 355 354 354 354 354 355 354 354 353 351 349 348 345 343 341 340 341 342 342 343 345 347 346 345 345 344 343 342 341 341 342 341 339 337 335 335 336 333 328 322 319 319 320
343 344 345 345 347 346 347 347 347 347 348 349 350 351 352 353 353 354 354 354 355 354 354 354 354 354 354 354 353 351 350 348 346 343 342 341 341 341 343 343 344 346 345 344 345 345 344 342 341 342 343 343 341 339 337 336 336 330 323 320 319 319 320
343 344 344 344 346 347 347 347 347 347 348 349 350 351 353 354 354 354 355 355 355 355 355 355 354 354 354 354 353 352 351 350 348 346 343 342 341 341 342 343 345 346 345 344 344 344 344 343 342 341 342 343 342 340 338 338 338 333 327 323 319 318 320
344 344 344 345 345 346 346 347 347 347 349 350 351 352 353 353 354 354 355 355 355 355 355 355 354 354 354 354 353 353 352 351 351 348 345 343 342 341 342 343 345 346 346 345 344 344 343 342 341 341 342 343 342 341 340 339 340 338 335 329 321 318 319
344 344 344 345 345 346 346 346 347 348 349 351 351 352 353 353 355 354 354 355 355 355 355 355 355 355 354 354 353 353 352 352 351 350 348 345 341 341 342 343 345 346 347 346 344 344 343 342 341 341 342 343 343 342 341 340 340 340 339 334 326 320 319
344 344 345 346 345 347 347 346 347 348 350 352 352 352 354 354 355 355 355 356 356 356 356 356 356 355 355 354 354 354 354 353 351 351 350 345 341 341 342 343 345 346 347 347 345 344 343 342 341 340 341 342 343 343 342 342 341 341 340 337 332 325 321
343 344 345 346 346 347 348 347 348 349 350 352 352 353 354 354 355 355 356 356 356 356 356 356 356 356 355 355 355 356 356 354 352 350 349 344 341 341 342 343 344 345 346 347 345 344 343 342 342 341 341 341 342 344 343 343 342 341 341 339 336 332 326
344 345 345 346 346 347 348 348 349 349 349 351 352 353 354 354 356 355 356 356 356 356 357 356 356 357 357 356 356 357 356 355 353 350 346 342 339 341 343 343 344 344 344 345 344 344 343 342 341 340 340 341 342 344 344 344 343 342 342 341 339 337 332
345 345 345 346 346 347 348 348 349 349 349 350 351 352 353 354 354 355 356 356 356 357 357 357 357 358 358 358 358 358 357 356 354 349 344 340 337 339 343 344 344 343 342 342 343 344 343 342 342 340 340 341 342 344 345 345 344 343 343 342 341 339 337
345 344 344 346 346 347 348 348 349 349 349 349 350 350 352 353 353 354 355 355 356 357 357 357 358 358 359 359 359 358 357 356 355 349 343 338 337 339 342 344 343 342 341 341 341 342 341 341 341 342 342 343 343 344 345 345 345 345 344 344 343 341 339
342 343 345 345 345 347 348 348 349 349 349 349 349 350 350 352 352 353 353 354 356 356 357 357 358 358 359 359 359 359 358 357 356 352 345 341 340 340 341 343 343 342 341 341 340 340 342 342 343 344 344 344 345 345 345 346 345 345 344 344 344 342 341
338 341 344 344 346 346 346 348 348 348 349 349 348 349 349 350 352 352 353 354 355 356 357 357 358 358 359 359 358 358 358 358 357 355 350 344 342 341 341 342 344 343 342 341 340 340 343 346 347 347 346 345 346 346 346 346 346 346 345 345 345 344 342
340 341 343 343 346 346 346 348 348 348 349 348 348 349 349 350 351 352 353 354 355 356 357 357 358 359 359 359 358 359 359 358 358 357 353 347 344 343 342 343 345 345 344 342 341 343 346 347 348 347 346 346 345 346 346 346 346 346 346 346 346 345 344
342 342 343 345 345 346 347 347 348 349 348 347 348 349 349 350 351 352 354 355 355 357 357 358 358 358 358 358 358 359 359 359 359 358 356 352 348 346 345 346 347 347 346 345 344 345 347 348 347 346 345 345 345 346 346 346 346 346 347 347 347 346 345
344 342 343 346 346 346 348 348 348 349 347 346 346 346 348 350 350 351 352 352 354 356 357 358 358 357 358 359 358 359 358 359 359 358 357 354 351 351 351 351 351 349 348 347 345 346 347 347 347 347 347 347 346 346 346 346 346 347 348 348 347 347 346
343 343 344 345 347 347 347 347 348 348 347 345 343 341 343 346 348 349 349 350 354 356 357 358 357 357 358 358 359 358 357 359 359 358 357 356 355 355 355 354 353 352 350 349 348 347 347 347 348 349 349 348 348 347 347 346 347 348 348 348 348 348 347
345 346 343 343 346 347 348 348 348 347 346 343 339 339 342 345 347 349 350 353 355 356 357 357 357 358 358 358 359 358 357 358 359 358 358 358 357 357 356 356 355 354 352 352 350 349 348 348 349 349 349 350 350 350 350 349 349 349 349 349 349 349 348
347 347 347 346 344 344 346 347 346 346 345 341 338 339 341 344 347 350 353 355 357 357 357 357 357 357 357 357 358 358 358 358 359 359 359 359 359 358 357 356 356 354 353 353 352 351 350 350 349 349 350 350 351 352 352 352 351 350 350 350 350 349 349
340 341 345 348 348 347 345 345 345 344 342 339 339 340 341 343 346 351 355 356 357 357 357 357 357 357 357 358 358 357 358 358 358 360 360 360 359 359 357 357 355 354 354 354 353 353 352 351 351 351 351 352 352 353 354 353 353 352 351 351 350 350 350
338 337 336 339 344 347 347 346 344 343 341 340 339 340 343 344 345 350 354 356 356 357 356 356 357 356 357 357 357 358 358 358 359 360 360 360 359 358 358 357 355 354 353 353 354 353 352 353 353 354 354 354 354 354 354 354 354 353 352 352 351 351 350
337 339 338 335 336 340 343 345 344 342 342 341 341 343 345 345 345 347 349 351 352 354 355 356 356 357 357 357 357 358 358 358 359 360 360 360 359 359 359 357 356 355 354 353 354 353 353 354 356 357 357 356 355 355 355 355 354 353 352 352 351 349 348
335 337 340 340 338 337 339 341 342 344 345 343 342 344 346 348 349 348 347 348 350 353 355 355 355 356 357 357 358 358 358 359 359 359 360 360 359 359 359 358 357 357 356 355 356 354 355 357 358 358 358 357 356 355 354 354 353 353 352 350 348 347 346
336 335 337 339 341 341 341 340 340 342 345 343 341 341 345 350 354 353 349 349 351 352 351 351 352 354 356 357 358 358 358 359 359 359 360 361 361 360 360 359 358 358 357 358 358 357 358 359 360 360 359 357 355 355 354 354 352 351 350 348 347 346 344
336 335 334 334 336 338 340 343 343 342 342 342 342 340 341 348 352 353 352 353 353 349 344 346 349 351 354 357 358 358 359 358 358 360 361 361 362 361 360 359 359 359 359 360 360 359 360 361 361 359 357 356 356 354 353 352 351 349 348 347 345 343 342
337 336 335 334 334 334 336 340 343 345 348 350 353 352 349 349 350 349 349 351 347 341 340 345 350 352 355 358 358 358 358 357 358 359 361 362 363 362 361 360 359 361 361 361 361 362 362 361 360 358 357 356 354 353 352 351 350 349 348 345 342 341 340
338 338 337 336 336 336 336 337 338 344 350 352 355 359 358 357 357 355 354 353 351 350 350 353 355 357 358 358 358 358 357 356 356 357 359 361 363 363 362 360 360 362 362 362 363 363 362 361 359 358 356 355 354 353 351 350 348 347 346 343 341 340 340
340 342 343 342 340 339 339 338 338 343 349 350 352 356 358 359 360 360 362 362 360 360 361 360 359 358 358 357 357 357 356 355 355 355 356 359 362 363 362 361 361 362 363 363 363 362 361 360 359 357 356 355 353 352 349 347 346 345 344 342 341 340 340
342 343 343 343 343 343 342 341 342 347 355 357 352 351 352 355 358 360 361 362 362 362 362 362 361 359 357 356 356 355 355 356 355 355 356 359 361 362 361 361 362 362 363 363 363 361 361 360 358 357 355 353 352 350 348 347 346 344 342 341 341 341 340
345 344 344 344 345 345 345 345 345 349 355 358 355 353 351 352 358 361 360 362 364 363 362 362 363 362 361 358 356 355 356 357 357 358 360 362 363 363 362 362 362 362 362 362 361 360 360 359 357 355 353 351 350 348 347 346 344 342 340 340 340 340 339
347 347 346 346 346 346 347 347 347 350 355 355 355 355 353 354 359 362 358 355 357 359 359 358 358 361 363 362 360 359 360 359 359 360 362 364 364 363 363 362 361 361 362 362 360 359 359 358 356 353 351 350 349 346 345 344 342 340 339 338 337 336 337
347 348 348 348 347 347 347 347 349 351 355 356 356 355 354 354 356 356 350 343 341 348 355 358 358 359 360 361 362 362 362 362 362 362 364 365 364 362 363 363 360 361 362 360 359 359 358 355 353 351 349 348 345 342 340 340 339 338 336 335 334 335 336
345 346 348 348 348 347 347 347 348 349 351 354 355 356 356 356 358 360 358 352 346 349 355 359 359 360 361 361 362 364 364 363 364 364 364 365 364 363 364 363 361 360 360 359 357 356 353 348 345 345 344 343 339 335 334 334 334 335 334 333 333 333 334
345 346 347 347 348 348 348 348 348 349 351 352 354 355 356 356 359 363 364 362 360 361 362 362 363 363 361 359 359 362 363 363 363 365 365 364 363 363 363 363 360 357 356 355 353 349 346 343 342 341 340 337 334 333 333 333 333 334 334 333 332 331 331
346 347 347 347 348 348 348 348 349 350 351 352 352 353 355 356 357 360 361 361 362 363 360 358 360 361 358 352 350 351 355 357 356 357 357 357 358 360 361 360 355 351 351 349 346 345 344 343 340 338 337 336 334 332 333 334 334 334 333 331 330 329 328

ECMWFFLT1_850_thetae_021.txt.gz
Theta_e
339 341 342 343 345 345 345 345 344 345 344 344 345 344 345 346 346 347 348 349 349 349 349 349 350 350 350 350 350 349 349 348 348 347 346 345 343 342 341 340 342 342 342 343 343 344 344 343 342 344 347 347 347 347 343 339 339 338 336 330 325 325 325
338 339 341 341 344 344 345 345 345 345 345 345 345 345 345 346 346 347 347 348 349 349 349 349 350 350 350 350 350 349 349 349 350 349 348 347 344 344 342 341 341 341 341 342 342 344 345 343 342 343 346 347 345 344 341 339 339 338 335 329 326 324 323
338 339 340 340 342 343 344 345 345 345 345 345 345 346 346 346 346 346 347 348 349 349 350 350 350 350 350 350 350 349 350 350 351 351 350 348 346 343 342 341 341 340 341 342 343 344 345 344 342 343 345 344 343 341 340 339 339 337 335 332 331 328 322
339 339 339 339 341 342 343 345 345 345 345 345 346 346 346 346 346 347 347 347 348 349 350 350 350 350 350 350 350 349 350 350 351 351 350 349 347 344 341 341 341 340 340 342 343 344 345 345 343 343 344 343 341 339 339 339 338 337 336 335 335 333 326
340 340 340 339 340 341 343 344 344 345 345 346 346 346 346 347 347 348 348 348 348 348 349 349 349 350 350 350 350 349 350 351 351 351 350 350 349 346 341 339 340 340 340 342 344 344 345 346 344 343 344 342 341 339 339 339 337 336 336 336 335 332 327
341 341 341 340 340 340 341 343 343 344 345 345 345 346 347 348 348 349 349 349 349 349 349 350 350 350 350 350 350 351 351 351 351 351 351 350 350 347 341 337 338 339 339 341 343 344 345 346 345 343 343 342 340 339 339 339 337 335 335 335 333 329 326
340 341 342 341 341 340 341 341 342 343 344 344 345 346 347 348 348 349 349 349 350 350 350 351 350 350 351 351 351 351 352 352 352 351 352 351 350 348 342 337 337 338 339 340 342 343 344 346 346 344 343 342 340 339 339 339 337 335 334 334 332 327 324
341 341 342 342 342 341 341 341 342 342 343 344 346 347 347 348 349 349 350 350 350 351 351 351 351 351 351 351 352 352 352 352 352 352 352 352 351 348 342 337 336 337 339 341 341 342 344 346 346 344 343 341 340 339 340 339 338 336 334 334 332 328 325
341 341 342 343 342 343 342 342 342 342 343 345 346 347 348 348 350 350 350 350 351 351 351 351 351 352 352 352 352 352 353 353 353 353 353 352 351 347 342 338 336 337 339 340 341 342 343 345 346 345 343 342 340 340 340 340 340 337 336 335 334 330 328
341 341 341 342 342 343 344 342 343 343 343 345 346 347 348 348 349 350 350 351 351 351 351 351 353 353 353 353 353 353 353 353 353 353 353 352 350 347 343 339 337 336 338 339 341 342 343 345 346 346 344 343 342 340 340 340 341 339 338 337 336 334 331
341 341 341 342 341 343 344 344 344 344 343 344 345 346 348 348 349 350 350 351 351 351 351 352 353 354 354 353 353 354 353 354 354 353 353 352 350 348 345 341 338 336 337 339 340 341 343 344 346 346 345 344 343 341 340 340 341 341 340 338 338 337 335
340 341 341 341 342 342 343 344 345 344 344 344 345 346 347 348 349 350 350 351 351 352 352 352 354 354 354 354 354 354 354 354 354 354 353 352 350 349 347 344 340 337 337 338 339 340 342 344 346 347 345 344 343 343 341 340 340 341 341 340 340 339 338
339 341 341 341 342 342 343 344 344 345 345 345 345 346 347 348 349 349 350 351 351 352 353 353 354 354 354 355 354 354 354 354 354 354 353 352 350 350 349 347 343 338 337 338 338 339 341 343 345 347 347 346 344 343 343 342 341 341 341 341 341 341 340
338 340 340 341 342 342 343 343 344 345 345 346 346 346 347 348 349 349 349 350 351 353 353 353 354 354 354 355 354 354 354 354 354 354 353 352 351 350 350 349 347 341 338 337 338 339 340 342 344 346 348 348 346 345 345 344 343 341 341 342 342 342 342
337 338 340 341 341 342 343 343 344 345 344 346 346 346 347 348 349 350 350 351 351 352 353 353 354 354 354 355 355 354 354 354 354 354 353 353 352 351 351 350 349 345 340 337 337 339 340 341 344 346 348 349 348 346 346 346 344 342 341 343 343 344 343
336 338 340 341 340 342 342 343 344 344 345 346 346 347 348 348 349 350 350 351 352 352 353 353 354 354 354 354 354 354 354 355 354 354 354 354 353 352 352 351 351 349 344 338 337 338 340 341 343 345 347 348 348 346 346 345 344 343 343 343 344 345 345
336 338 339 341 341 341 342 343 344 344 345 346 345 347 348 347 348 350 350 351 352 352 353 354 354 354 354 354 354 355 355 355 355 355 354 354 354 354 353 353 352 351 348 343 339 338 339 341 343 345 347 347 347 346 345 344 344 344 344 344 345 346 346
337 338 339 341 341 342 342 343 344 345 345 346 346 347 347 347 348 350 351 352 351 352 353 354 354 354 354 354 355 356 356 356 356 355 354 354 355 354 354 354 353 353 351 348 343 338 337 339 342 344 345 346 347 345 343 343 344 345 345 345 346 347 347
337 337 339 341 342 342 343 343 343 344 345 345 346 347 346 347 348 349 350 351 351 353 354 354 354 354 354 355 356 356 356 356 356 356 355 355 355 355 356 356 354 353 352 350 346 341 338 338 340 342 344 345 346 344 343 343 345 346 346 346 347 347 347
340 340 339 339 341 342 343 343 344 344 345 345 345 346 347 348 348 348 348 350 352 354 354 354 354 354 354 355 356 356 356 357 357 356 356 356 356 357 357 356 356 354 353 352 350 345 339 337 339 340 341 343 343 342 342 343 344 345 346 347 347 348 348
343 343 341 339 340 341 342 343 344 344 345 345 346 346 347 348 348 348 348 350 352 353 353 353 353 353 354 354 355 356 356 357 357 357 357 358 357 358 357 357 357 355 354 354 351 346 341 338 338 337 339 340 341 342 342 342 343 345 346 347 348 348 348
344 344 343 342 341 341 341 342 342 343 344 344 346 347 347 348 347 348 348 349 351 351 351 352 351 352 353 353 354 356 356 356 357 357 358 358 359 359 358 358 357 356 356 354 351 349 347 343 339 336 337 339 340 341 341 341 343 345 346 347 349 349 349
342 341 342 343 343 344 344 343 343 343 344 344 345 346 346 347 347 347 349 349 350 351 351 351 351 351 352 353 354 355 356 357 357 358 358 359 359 359 358 358 357 357 356 355 353 352 349 345 340 337 337 338 340 341 341 341 343 345 347 349 350 350 351
341 340 340 339 341 344 345 345 345 345 345 345 346 346 346 346 347 347 348 348 349 350 351 351 351 351 352 353 353 354 355 356 357 358 359 359 359 359 358 358 358 357 356 355 354 352 348 345 343 339 337 338 339 339 340 342 344 345 348 350 350 351 352
338 340 340 339 340 341 341 344 346 346 347 347 346 347 347 347 347 347 347 348 349 350 351 351 350 351 351 351 351 352 355 356 358 358 359 359 359 359 358 358 358 358 357 356 354 352 350 349 347 343 340 339 339 340 342 345 346 347 349 351 352 352 353
335 336 338 339 340 340 340 342 344 346 348 347 346 347 348 348 349 348 348 348 348 349 349 348 347 347 348 350 351 353 355 357 358 358 358 358 359 359 358 358 358 358 358 357 356 355 354 353 351 347 344 342 341 343 345 347 348 350 351 352 353 353 353
335 334 335 336 337 337 337 339 342 345 347 347 348 348 348 349 349 349 349 349 349 347 343 341 342 345 348 350 352 354 355 356 357 358 358 357 358 359 359 359 359 358 358 358 357 357 356 355 353 351 349 347 346 347 348 349 351 352 354 354 354 354 353
331 331 332 333 333 333 332 334 338 341 343 345 347 347 348 348 348 348 349 350 349 344 338 339 341 344 348 351 352 354 356 357 357 358 358 357 358 359 359 359 359 359 359 358 358 358 357 356 355 354 353 351 350 350 350 352 354 355 355 355 355 354 353
330 330 331 330 331 331 330 331 334 336 338 341 343 345 348 349 350 350 349 349 347 343 341 343 344 346 349 352 353 355 356 356 357 358 358 358 358 358 359 359 359 360 359 359 359 358 357 357 356 356 355 354 353 354 354 355 356 356 355 355 354 352 351
331 330 330 330 331 330 329 330 331 331 333 335 338 342 345 347 351 352 351 350 348 346 346 347 347 349 351 352 354 356 356 356 357 357 358 359 358 359 360 360 360 360 360 360 359 359 358 358 357 356 356 356 356 356 356 356 356 356 355 353 352 350 349
336 334 332 332 333 333 332 333 332 332 332 332 334 339 342 345 349 351 351 349 349 350 351 350 349 350 352 353 355 356 356 356 356 356 357 358 359 359 360 360 361 361 360 360 360 359 359 358 358 358 357 356 357 357 356 355 354 354 353 351 350 348 347
339 338 337 335 334 335 335 336 336 336 336 335 335 337 340 344 347 347 346 348 352 354 354 354 354 352 351 352 354 354 354 355 356 356 357 357 359 360 361 361 361 361 360 360 360 359 359 358 358 357 357 357 358 357 356 353 352 352 351 350 349 347 344
341 341 341 340 339 337 337 337 338 338 339 340 342 342 343 345 348 348 346 347 352 355 355 356 358 356 354 354 354 354 355 355 355 356 356 356 358 360 360 361 362 361 361 361 360 360 359 358 358 358 358 358 357 356 355 352 350 350 351 350 348 345 342
343 343 343 344 343 342 341 341 341 341 341 341 343 345 346 347 351 355 356 354 354 356 357 357 358 359 359 359 357 356 357 357 357 357 357 357 358 359 360 361 362 362 362 360 360 361 359 358 359 359 358 358 357 356 353 350 349 351 351 349 347 344 341
344 344 343 343 343 344 345 345 344 344 344 342 342 343 344 345 348 354 359 361 361 361 360 359 358 359 360 360 360 360 359 358 358 357 356 356 357 358 359 360 360 361 362 361 360 360 359 360 360 359 358 358 358 356 353 351 351 351 350 347 344 340 338
343 343 343 342 342 342 344 344 345 345 345 345 344 344 345 347 349 352 355 358 361 362 362 361 361 360 360 360 360 360 359 359 359 358 357 357 357 357 359 360 361 362 362 361 361 360 359 360 360 357 356 357 357 355 355 353 350 348 346 345 341 337 336
344 345 345 344 343 343 344 344 345 346 347 348 347 347 347 348 349 350 352 354 356 359 361 362 362 361 361 361 360 360 361 359 358 357 356 356 356 356 358 360 362 363 362 361 361 360 359 360 359 356 356 357 356 356 355 348 343 342 343 340 336 335 336
346 346 346 346 346 345 346 346 347 347 348 349 349 350 350 349 349 350 351 351 353 356 358 360 361 361 362 362 362 362 361 360 359 358 358 358 358 358 358 359 360 361 361 359 358 359 360 359 358 357 357 357 355 353 349 342 338 339 338 334 332 333 335

ECMWFFLT1_850_thetae_024.txt.gz
Theta_e
342 344 344 344 345 344 345 345 345 345 345 344 344 344 344 344 345 346 345 345 345 344 345 346 346 346 347 347 347 347 348 348 347 346 345 345 343 342 341 340 339 337 336 338 339 339 340 340 342 345 347 347 345 345 345 346 346 344 342 339 337 336 333
340 342 344 343 345 344 345 344 345 345 344 345 344 344 344 344 344 345 344 344 344 343 344 344 345 346 346 346 347 347 348 349 348 348 347 347 346 344 342 341 340 338 337 338 339 340 341 341 343 346 347 347 344 344 345 346 346 344 341 338 337 334 330
338 339 342 342 344 344 344 344 344 345 345 344 344 343 344 343 343 344 343 343 343 343 344 345 345 345 346 346 347 348 348 349 348 349 348 348 347 345 344 342 342 340 339 339 339 340 341 341 343 346 348 348 345 344 344 346 346 344 340 338 337 333 327
337 338 339 341 343 343 343 344 344 345 344 344 344 343 344 342 342 343 343 344 344 344 344 344 344 345 346 346 347 347 347 348 348 349 349 349 348 346 345 344 344 344 342 340 338 339 340 341 341 344 347 347 346 344 344 345 345 342 338 337 337 333 327
337 337 338 338 341 342 342 344 344 344 344 344 344 343 343 343 343 343 344 344 344 344 343 342 343 344 345 346 346 347 347 348 348 348 349 349 349 348 347 346 346 345 344 342 340 339 339 340 341 343 345 346 345 344 343 345 345 341 338 337 336 335 331
338 337 338 338 339 340 342 343 343 343 344 343 343 343 343 343 344 344 345 344 344 345 345 345 345 344 345 345 346 346 347 348 348 348 349 349 349 349 347 347 347 347 347 345 341 339 337 338 340 341 344 345 345 344 343 344 344 340 337 337 336 335 334
339 338 338 338 338 339 340 341 342 343 343 343 343 343 343 344 344 344 345 345 345 345 345 345 345 345 345 346 346 347 348 348 348 348 349 349 349 349 348 348 348 349 349 348 344 340 337 336 337 340 343 344 346 345 344 344 343 340 338 337 336 335 335
338 339 339 339 338 338 339 340 341 341 343 344 344 344 343 343 344 344 345 345 345 345 344 344 344 345 345 346 347 347 347 347 348 348 349 349 350 349 349 349 349 349 349 349 346 342 338 336 337 338 341 344 345 346 345 344 342 340 337 337 336 335 334
338 338 339 340 339 339 339 338 340 341 341 343 343 343 344 343 344 344 345 344 344 345 345 343 343 344 345 347 346 347 347 347 348 349 349 350 350 349 349 349 349 350 350 350 348 344 339 336 336 337 340 342 344 346 346 345 343 340 338 338 337 335 333
338 338 338 340 339 340 339 338 339 340 341 343 342 343 344 344 344 344 345 345 345 345 345 344 345 345 346 346 347 347 348 348 349 349 349 350 349 350 349 350 350 350 350 350 350 347 341 337 337 337 338 340 342 345 346 345 343 340 338 338 337 336 335
337 337 338 339 339 340 339 338 339 339 340 341 342 343 344 344 344 345 345 345 345 345 345 344 346 346 347 347 347 348 349 348 349 349 349 350 350 350 350 350 350 351 351 351 350 348 343 338 337 337 338 338 340 343 346 345 343 340 339 338 338 338 337
335 337 337 337 339 339 340 340 339 340 339 340 341 342 343 343 344 344 345 346 346 345 345 346 346 347 348 348 348 349 349 349 349 349 349 349 350 350 350 350 351 351 351 351 351 349 345 340 338 337 338 338 339 341 344 345 344 340 338 338 338 339 339
334 336 337 338 339 339 340 340 340 340 340 340 340 341 342 343 344 344 345 346 345 345 346 346 347 347 348 349 349 349 349 349 349 349 349 350 350 351 351 351 352 352 351 352 351 349 345 340 337 337 337 338 339 341 343 344 344 342 340 339 338 338 339
334 334 335 338 338 338 340 340 341 341 341 340 341 340 342 342 343 344 344 345 346 346 346 347 347 348 348 349 349 350 349 349 349 349 350 351 350 351 351 351 352 353 352 352 351 348 344 340 337 337 337 337 338 340 342 344 345 344 342 340 339 337 338
332 331 333 336 337 338 340 339 341 341 341 342 341 340 342 342 343 344 344 345 345 346 346 346 347 347 348 349 350 349 349 349 350 350 350 351 351 351 352 352 352 353 353 352 350 347 344 340 338 337 337 337 338 340 341 343 344 344 343 342 340 338 338
329 329 329 331 335 337 338 339 339 340 341 342 342 341 341 341 343 344 343 345 346 345 346 347 348 348 347 348 349 349 349 350 350 351 351 351 352 352 352 352 353 353 353 352 351 347 345 342 339 337 337 337 338 338 340 342 343 343 343 343 342 341 340
328 331 331 330 333 334 337 339 340 340 341 342 341 343 342 342 343 343 343 344 345 345 346 347 348 349 348 348 348 350 351 351 351 352 352 352 352 352 353 353 354 354 353 352 350 348 347 344 340 337 336 337 337 338 339 340 341 341 342 343 344 343 342
330 329 330 332 332 333 335 337 339 340 341 341 342 342 342 343 343 343 343 345 345 345 347 347 348 348 348 348 350 350 351 351 351 353 353 352 352 352 353 353 354 354 353 352 351 349 348 345 341 338 338 338 337 338 339 339 339 339 340 342 343 344 343
330 329 330 333 334 333 335 336 338 339 340 341 341 342 342 343 343 344 344 344 345 346 347 348 348 348 348 349 350 351 351 351 352 353 352 353 352 352 353 353 353 353 354 353 352 350 348 344 341 340 340 339 338 337 338 339 339 339 339 340 342 343 343
331 334 335 336 336 336 336 336 338 339 340 340 341 341 343 342 343 344 343 344 345 346 347 347 348 348 349 349 350 351 352 352 352 353 353 353 353 353 353 353 353 354 353 353 352 352 349 347 344 343 342 341 339 337 338 337 337 338 339 339 341 342 343
333 336 337 337 338 338 338 338 338 339 339 340 341 341 342 344 343 344 344 345 345 346 346 347 347 348 349 349 350 351 352 353 353 353 354 354 354 354 354 353 354 353 353 353 353 352 351 349 346 344 343 342 340 339 337 336 336 337 337 339 340 341 343
337 338 338 338 339 340 341 341 339 339 340 339 341 342 342 343 343 344 344 345 346 347 347 347 347 349 349 350 350 351 352 353 353 354 354 354 354 354 354 354 353 353 353 353 353 353 352 351 349 347 346 345 343 340 337 335 337 337 337 338 340 342 344
341 341 341 340 339 340 343 343 341 340 340 341 341 341 342 343 343 344 346 346 346 347 347 348 349 349 349 350 350 351 350 352 354 354 354 355 355 354 354 354 353 353 354 354 353 353 353 353 353 352 350 348 346 341 338 336 336 337 337 337 340 343 345
341 342 342 342 343 342 341 344 344 342 341 341 342 342 342 343 344 345 345 346 348 348 348 349 349 349 350 349 350 351 352 352 354 354 354 354 354 354 354 354 353 354 354 354 354 354 354 354 354 354 353 351 347 343 340 339 337 337 337 338 341 343 344
340 341 341 342 344 343 343 342 343 344 344 345 343 343 343 344 344 345 346 346 347 348 349 349 348 348 349 349 349 351 352 353 354 354 353 354 354 355 355 354 354 354 354 354 354 354 355 355 355 356 355 353 350 347 345 344 341 339 339 341 343 343 344
338 338 338 339 341 343 345 345 342 343 345 345 347 347 345 344 344 345 346 346 347 348 348 348 348 348 348 348 350 351 352 352 354 353 354 354 354 354 355 355 355 354 354 355 355 355 356 356 356 356 356 355 354 352 350 348 346 345 345 344 344 343 344
335 335 334 335 336 337 341 342 343 344 345 345 346 346 346 347 346 345 347 347 347 348 347 347 347 347 348 350 351 352 353 353 353 353 353 354 354 355 355 354 354 355 355 355 356 356 357 357 357 357 357 356 356 354 352 351 351 350 349 347 345 344 345
333 334 333 333 333 332 334 336 338 341 343 345 347 347 347 346 346 347 347 347 347 347 347 347 349 349 350 351 352 353 353 353 353 353 354 355 355 355 354 354 355 355 356 357 357 357 357 358 357 358 358 357 356 356 355 354 353 352 351 348 346 346 347
332 331 331 332 330 330 331 331 333 335 336 339 345 348 349 349 348 348 347 347 347 347 347 348 348 349 350 351 352 352 353 352 352 352 353 354 355 355 355 354 355 356 356 357 357 358 358 358 358 358 357 357 357 357 356 355 354 354 352 349 347 348 350
332 330 329 329 329 329 331 330 332 333 333 335 339 343 347 351 351 351 350 350 349 348 348 349 349 349 349 350 351 351 352 352 352 352 352 354 355 356 357 356 357 357 357 357 358 358 359 358 358 358 358 358 357 357 356 355 355 354 353 351 349 350 352
333 332 331 329 329 329 328 329 330 333 335 337 338 342 348 352 354 353 353 353 352 352 352 351 349 349 350 349 350 351 351 352 352 352 353 354 355 356 356 357 358 359 359 359 359 359 359 359 358 358 358 358 357 357 356 356 355 355 354 351 350 352 354
335 333 331 329 329 328 328 329 330 330 333 336 339 342 348 353 357 357 357 355 355 354 354 354 353 352 352 351 351 351 350 351 352 352 352 353 355 356 356 356 358 358 358 359 359 359 359 359 359 358 358 357 357 357 356 356 356 355 353 352 352 353 354
336 335 334 332 331 330 329 328 328 328 330 332 334 337 340 346 350 354 356 357 357 356 356 356 356 355 355 354 353 352 351 352 351 352 353 353 355 355 356 357 357 357 358 359 359 359 359 359 359 359 358 358 357 357 357 357 357 355 354 353 353 353 354
338 338 337 336 335 334 333 332 331 331 331 330 331 333 334 336 340 344 347 351 354 355 358 359 359 358 358 357 357 356 355 354 353 353 353 354 354 355 356 357 357 357 358 357 357 359 359 359 359 359 359 358 357 357 357 357 357 356 354 353 353 354 354
340 339 338 338 337 336 336 335 335 334 334 333 333 332 332 334 335 337 339 342 346 350 354 357 359 360 360 359 359 358 357 356 355 355 354 354 354 354 355 355 355 356 356 356 356 356 356 357 359 359 359 358 357 357 357 357 357 355 354 354 354 353 353
341 340 340 340 339 338 337 337 336 336 335 335 334 334 336 336 336 337 338 339 341 344 347 350 354 357 359 360 360 359 358 357 356 355 355 354 355 355 355 355 356 357 357 356 356 356 356 357 356 355 358 358 357 357 358 358 356 355 355 355 354 353 352
342 342 341 340 338 337 337 337 337 337 336 336 336 336 337 339 341 342 342 343 343 343 344 346 348 351 354 356 358 359 360 359 358 357 356 354 354 355 355 355 356 357 358 358 358 358 358 358 358 357 358 358 357 357 357 357 356 356 356 355 353 352 351
343 342 340 338 336 335 336 338 339 339 339 339 338 339 340 342 344 345 346 347 346 346 346 347 348 349 350 352 353 356 358 359 360 360 358 357 355 355 354 355 356 356 357 358 358 359 359 359 358 359 358 358 358 357 356 355 354 355 355 354 352 351 350

ECMWFFLT1_850_thetae_027.txt.gz
Theta_e
348 348 348 348 348 347 347 346 345 345 345 345 345 344 343 342 341 342 342 343 344 344 345 345 344 344 344 344 345 345 345 346 345 344 344 342 341 339 337 336 335 335 335 336 335 335 335 336 337 337 338 338 339 340 342 344 346 347 346 345 345 344 339
347 348 348 348 348 347 346 346 346 345 344 344 345 344 344 343 341 340 340 341 342 342 343 344 344 343 343 343 344 345 345 346 346 346 346 345 344 342 340 338 337 336 336 335 335 335 335 336 337 338 339 339 339 341 343 344 346 346 345 345 345 343 338
346 347 347 347 348 347 347 346 346 346 345 345 344 343 344 343 341 341 339 339 339 339 340 342 343 343 342 342 342 343 344 345 346 346 346 347 346 345 344 342 341 339 338 337 337 336 336 336 337 339 340 340 340 342 345 345 345 345 345 345 346 344 338
343 345 346 346 347 346 346 346 345 346 346 345 344 343 342 341 340 341 340 339 339 338 338 339 340 341 342 342 342 342 343 343 344 345 346 346 347 347 347 345 343 343 342 340 339 338 336 337 337 338 339 340 340 342 345 346 345 344 344 345 346 343 338
341 341 344 345 345 346 346 346 346 346 345 346 344 343 343 341 341 342 341 341 340 339 338 338 339 340 341 341 341 341 341 342 343 343 344 346 346 347 347 347 346 345 345 343 341 340 338 337 338 338 340 340 340 341 343 345 345 345 344 344 345 342 338
339 339 340 341 343 345 345 344 345 346 345 345 345 344 344 343 342 342 341 342 342 341 341 341 341 341 341 341 341 341 341 342 342 343 343 344 345 346 347 347 347 347 347 346 343 341 340 339 339 338 339 339 340 340 341 343 345 344 343 343 343 341 337
337 337 337 338 340 342 342 343 345 345 345 345 345 344 345 344 344 343 343 342 341 341 342 342 342 342 342 341 341 341 341 341 342 342 343 344 345 346 346 347 347 347 347 347 345 344 342 342 340 339 339 339 339 340 340 341 344 343 343 342 342 340 337
337 338 336 336 338 338 340 341 342 344 345 345 345 345 344 344 345 344 344 343 342 343 342 342 342 342 343 343 343 342 341 341 342 342 343 343 344 345 346 346 347 347 348 348 346 345 345 344 343 341 339 339 338 339 340 340 342 343 343 342 342 340 337
335 337 337 337 338 338 340 340 341 343 344 344 344 345 344 344 345 345 344 343 343 343 343 342 342 342 342 343 343 343 342 342 343 342 343 343 343 344 345 346 346 347 348 348 347 347 347 347 346 344 340 338 338 338 339 340 341 343 343 342 342 340 337
334 336 336 337 338 338 338 338 340 342 342 343 343 343 344 344 345 344 344 344 344 343 343 342 343 342 342 342 342 343 344 344 344 343 344 344 345 346 346 346 347 346 347 348 348 347 347 347 347 346 343 340 337 337 337 339 340 341 343 343 342 340 338
332 334 335 336 337 337 337 338 339 339 340 341 342 343 344 344 344 344 344 344 344 343 343 343 344 343 343 342 343 343 344 343 343 344 344 346 346 345 346 346 346 346 347 348 348 348 347 348 348 348 346 341 337 336 337 337 339 340 342 343 343 341 339
332 333 334 334 336 336 337 338 338 338 339 340 341 341 342 343 343 343 344 344 344 344 344 344 343 344 343 343 343 344 343 343 344 344 344 345 345 345 345 346 347 347 347 348 348 349 349 348 349 348 346 342 338 335 336 337 338 339 340 342 343 342 340
331 331 331 333 334 336 338 337 337 338 338 338 339 340 341 342 343 343 343 344 344 343 344 344 343 343 343 344 343 343 343 343 344 343 344 344 344 344 345 346 347 347 347 348 348 349 349 349 349 349 347 344 340 336 336 336 337 338 339 341 342 342 341
329 330 329 331 332 334 336 336 337 338 338 338 338 339 340 341 341 342 342 343 343 344 343 343 343 343 343 344 344 344 343 343 344 343 344 344 344 344 345 345 347 347 347 348 348 349 349 349 349 349 348 346 343 338 336 336 337 337 338 340 342 341 341
328 328 329 329 330 332 333 334 336 337 338 338 338 338 339 340 341 341 342 342 342 343 343 343 343 343 344 344 343 343 343 343 343 344 344 344 344 344 345 346 346 347 347 348 348 349 350 350 350 350 350 348 344 339 338 337 336 337 338 339 341 341 341
328 328 328 329 328 329 329 331 333 334 337 338 338 339 339 339 340 341 341 341 341 342 343 343 343 343 343 344 343 343 343 344 345 344 344 345 345 345 346 346 347 347 348 348 349 349 350 350 351 351 350 350 345 341 339 337 336 336 337 338 340 341 341
327 327 328 328 329 329 329 330 331 333 336 337 338 339 339 339 340 340 341 341 341 341 343 342 342 343 344 344 344 343 344 344 345 345 345 345 346 346 346 347 347 347 348 348 349 350 350 350 351 351 352 350 347 342 339 337 336 336 337 338 340 341 342
327 327 327 327 328 328 329 330 331 333 334 335 337 339 339 339 339 340 341 341 341 341 342 342 343 343 342 343 343 344 345 345 345 346 346 346 346 347 347 348 348 348 348 349 349 350 350 351 351 352 352 351 348 344 339 338 336 335 336 337 338 340 342
326 327 327 326 326 327 328 329 332 332 333 335 336 337 339 339 340 340 341 341 341 341 342 342 342 342 343 344 344 345 346 346 346 347 347 347 347 348 348 348 348 349 348 349 349 350 351 351 351 352 352 352 350 345 339 337 336 335 336 337 337 340 341
325 326 326 326 326 327 328 329 331 332 333 335 335 336 337 339 339 340 340 340 342 343 342 343 342 342 344 344 344 346 346 347 347 347 347 348 348 349 349 349 349 349 349 350 350 350 351 351 351 352 353 352 351 347 340 337 335 335 335 336 337 338 340
326 326 327 326 326 326 328 328 329 330 331 335 337 336 337 339 339 340 341 341 341 342 343 344 343 344 345 345 346 346 347 347 347 347 348 348 348 349 349 349 350 350 349 350 351 351 352 352 352 352 353 353 352 348 342 337 335 335 335 336 337 338 339
329 328 328 328 327 328 328 329 328 329 332 336 339 337 337 338 339 340 341 341 341 342 342 343 344 345 345 346 346 347 348 348 348 349 350 350 350 350 350 350 350 350 350 351 351 352 353 353 353 353 353 353 352 349 344 338 335 334 334 335 336 337 338
332 332 332 332 331 331 332 332 331 332 336 338 340 338 338 338 339 340 341 341 342 342 343 343 343 344 345 345 347 347 348 348 349 350 349 350 350 350 350 350 350 350 351 351 351 353 353 354 354 355 355 354 353 350 346 340 336 334 334 335 336 337 338
337 337 336 336 337 336 336 336 335 336 339 340 340 339 339 339 339 340 341 342 341 342 343 343 343 344 344 345 346 347 347 347 347 348 349 349 350 349 350 350 350 351 351 351 352 352 352 353 355 355 355 354 353 352 349 344 338 335 333 334 334 336 338
341 340 341 341 341 341 340 339 338 339 342 342 340 340 340 339 340 341 340 342 342 343 343 343 343 343 343 344 345 346 346 347 347 348 349 349 350 350 350 351 351 352 352 352 352 352 353 355 355 356 356 355 353 353 352 350 345 340 336 335 335 336 338
342 341 343 343 343 343 342 341 341 342 343 343 341 341 341 340 341 341 342 341 342 343 343 343 343 344 345 346 347 346 347 347 348 349 349 349 350 351 351 351 351 352 352 353 353 353 354 356 356 356 356 355 354 354 352 352 351 346 341 339 338 339 341
342 341 342 344 344 344 343 343 341 343 344 345 344 343 343 342 342 342 342 342 343 343 343 343 344 345 346 347 347 347 348 348 349 349 349 349 350 351 351 352 353 353 353 353 353 354 356 357 357 357 357 356 356 355 354 353 352 350 346 344 343 343 344
341 340 340 342 344 343 343 342 343 343 344 346 346 345 345 344 344 344 344 343 344 344 344 345 345 346 346 347 348 348 349 349 349 350 350 350 352 352 352 353 353 353 353 353 355 356 357 357 358 357 358 358 357 356 355 353 353 353 351 349 347 346 346
340 340 341 341 341 342 342 341 341 342 343 345 346 347 347 346 345 345 345 345 345 346 346 346 346 346 347 347 348 348 348 349 349 350 350 351 351 352 352 353 353 354 354 354 355 356 357 358 358 359 359 359 357 356 355 353 353 353 353 353 352 350 348
341 340 341 341 340 340 340 339 339 340 342 345 346 347 348 347 347 347 346 346 347 346 347 347 348 348 348 348 349 349 349 350 350 350 351 351 352 352 353 353 353 354 354 354 355 355 356 357 357 357 359 359 357 357 357 354 354 354 353 354 354 352 351
341 342 343 342 342 340 339 338 340 342 343 347 351 352 351 350 348 348 348 348 348 348 348 348 348 349 348 348 349 350 350 350 351 351 352 352 352 353 353 353 354 354 355 354 355 356 356 358 357 357 358 358 357 357 358 357 357 355 354 355 355 354 354
341 342 342 342 342 341 340 339 339 340 342 345 350 354 355 354 353 352 350 350 351 351 351 351 351 350 349 349 349 350 350 350 351 351 351 353 353 354 354 354 355 355 355 356 356 356 357 358 358 357 356 355 356 356 357 358 358 357 356 356 356 356 355
341 341 342 341 341 342 342 341 338 338 338 340 342 345 348 350 352 353 353 353 353 353 353 354 354 353 353 353 352 351 351 351 351 352 352 352 353 354 354 354 355 355 356 357 357 357 358 358 358 358 357 357 357 357 357 358 358 356 356 356 356 356 356
341 341 342 341 341 343 343 343 343 341 338 338 339 339 340 341 342 343 346 347 348 350 352 354 355 357 358 357 356 355 354 353 352 352 352 353 353 353 353 354 354 355 355 356 357 357 358 359 359 359 359 358 358 358 358 357 356 357 357 356 355 355 356
341 341 341 341 341 342 343 343 343 342 339 338 341 341 340 339 340 340 340 340 341 342 344 347 350 353 355 357 359 360 358 356 354 353 352 352 353 353 353 354 354 355 355 355 355 356 357 357 358 357 356 357 358 359 358 357 357 357 356 356 356 356 356
341 341 340 341 341 341 343 343 343 341 339 337 340 341 342 342 342 342 342 342 342 341 342 343 344 347 349 352 355 357 358 358 357 356 355 354 353 353 353 353 354 355 355 355 355 356 356 356 357 357 356 356 356 357 357 356 355 355 355 355 355 356 356
341 341 341 342 342 342 343 343 343 343 342 341 340 341 343 343 343 343 343 343 342 342 342 342 343 343 344 346 348 350 352 355 357 358 358 358 357 356 355 354 353 353 354 354 355 356 356 356 357 357 358 358 358 357 357 356 356 357 356 356 355 355 356
341 342 343 343 343 342 342 343 344 344 344 344 344 344 344 344 343 343 343 342 341 341 340 340 341 341 341 342 343 343 345 347 349 351 354 356 358 359 359 358 357 356 356 355 354 354 355 356 357 357 357 358 358 358 358 357 357 357 357 356 355 355 356

ECMWFFLT1_850_thetae_030.txt.gz
Theta_e
349 350 351 353 355 355 355 356 355 354 354 354 351 346 347 346 345 343 338 335 336 336 337 337 338 338 338 339 338 338 338 337 337 338 338 338 338 338 337 336 336 336 336 337 337 336 336 335 336 335 335 336 337 338 338 338 340 344 347 349 350 350 349
348 349 351 352 354 355 355 356 356 354 352 351 348 345 346 346 345 343 340 336 336 335 336 336 337 337 338 338 339 339 338 337 338 337 338 338 337 338 337 337 337 336 336 336 336 336 336 336 336 335 335 335 337 337 337 338 338 340 345 347 350 349 348
347 348 350 352 354 355 355 355 356 354 352 350 348 345 345 344 343 342 341 338 335 335 336 337 336 337 338 338 339 340 340 339 339 340 341 341 338 338 339 338 338 337 336 335 336 336 336 336 336 335 335 335 336 338 340 342 340 339 342 346 347 348 347
347 348 349 351 353 354 355 355 355 355 354 350 346 343 343 342 341 342 341 339 337 335 335 336 336 336 337 337 339 340 341 342 342 343 344 343 342 342 342 341 340 339 338 337 336 336 335 335 335 335 335 335 336 340 342 343 342 341 343 345 346 346 347
347 348 349 352 353 354 355 354 354 355 354 352 348 343 343 342 342 342 341 341 339 335 333 334 334 335 336 336 338 339 340 341 342 343 345 345 343 344 344 343 343 341 341 339 338 337 336 336 335 335 335 335 336 339 341 341 340 341 343 344 344 344 347
345 348 349 351 351 353 354 354 354 353 352 354 353 349 346 345 344 343 342 341 339 338 336 335 334 334 335 335 336 337 338 339 340 342 344 344 343 344 345 344 345 344 343 343 341 340 338 338 337 336 335 335 336 338 339 340 340 341 343 345 344 342 345
340 347 348 349 350 352 353 353 353 353 352 353 354 353 352 349 346 345 345 343 341 340 340 338 335 335 334 334 335 336 337 338 339 340 342 341 341 343 344 345 345 345 345 345 344 343 341 341 339 338 336 336 336 337 339 340 340 340 343 343 344 342 341
338 345 348 348 349 350 352 353 353 353 353 353 353 353 354 353 350 349 348 345 344 343 341 339 338 336 335 334 334 335 336 337 337 339 340 340 341 343 343 343 344 344 345 346 346 345 345 344 342 340 339 337 337 337 338 339 340 340 342 342 342 343 340
338 346 349 348 347 348 350 352 353 353 352 352 353 352 354 353 353 351 349 347 347 346 343 341 341 339 336 335 334 334 334 335 336 337 338 339 339 340 341 342 342 342 343 345 345 345 345 345 345 343 341 339 338 338 338 339 340 340 342 342 341 342 342
342 347 349 348 346 347 347 349 352 352 351 352 353 352 353 353 354 352 351 349 347 346 344 344 345 344 341 338 337 336 334 335 335 336 336 336 337 338 338 339 340 340 341 342 344 345 345 345 346 345 344 341 340 340 338 338 338 339 342 344 342 341 342
345 347 348 348 346 345 345 347 348 349 349 350 351 351 352 351 352 353 352 351 349 347 346 346 347 348 344 340 340 340 339 337 337 337 337 337 337 338 338 339 339 340 340 341 342 344 345 345 346 346 346 344 342 341 340 339 339 338 340 343 343 341 342
347 344 343 344 346 347 346 346 347 346 345 345 348 351 352 351 352 351 352 352 351 350 351 350 349 349 347 343 342 341 341 340 339 339 340 340 339 340 339 339 340 341 340 340 341 343 344 345 346 346 346 346 345 344 343 342 340 339 338 341 342 341 341
345 343 340 339 343 345 344 343 344 343 343 341 346 350 351 350 350 351 351 352 351 351 353 352 351 350 349 347 345 343 342 340 340 340 341 341 341 342 342 341 342 343 342 341 341 342 344 344 345 346 347 347 346 346 346 345 343 342 339 340 342 340 340
338 340 343 342 339 337 339 340 339 341 340 340 346 350 351 350 350 350 350 350 351 351 352 353 353 351 350 348 347 345 342 341 341 340 341 341 341 342 342 342 342 343 344 343 342 342 343 343 344 345 346 347 347 346 347 347 346 345 342 341 342 341 338
335 335 342 344 339 333 334 336 336 338 337 338 343 347 349 350 349 350 349 349 350 351 351 352 353 351 350 348 347 345 344 343 343 342 342 342 342 342 342 342 342 344 345 345 344 342 344 344 344 345 345 346 348 347 348 348 347 347 345 343 342 339 336
334 330 334 341 340 333 330 330 330 331 333 335 338 342 346 348 348 349 348 348 350 350 350 351 352 351 349 348 347 345 345 345 345 344 343 342 342 341 341 343 343 343 344 345 345 344 344 345 345 346 347 347 348 348 348 348 348 347 345 342 340 337 335
332 333 333 339 339 331 327 328 328 328 329 330 333 337 342 344 345 346 348 350 350 350 349 351 351 351 348 347 347 347 347 345 344 344 343 342 342 342 342 343 343 344 345 345 345 345 345 345 346 346 347 347 348 349 348 349 348 348 346 343 340 337 335
333 334 333 336 337 330 326 328 328 327 327 328 332 333 335 339 343 345 347 349 350 350 350 350 351 350 347 348 348 347 345 344 344 344 343 343 343 343 343 343 343 344 344 345 346 346 346 346 346 346 347 348 348 348 349 349 349 348 346 344 342 338 335
333 331 330 335 339 333 327 328 329 328 327 327 329 332 333 336 340 342 342 347 351 352 351 351 351 349 348 348 349 347 345 344 344 344 343 344 344 344 344 344 344 344 344 346 346 348 348 348 348 348 348 349 350 349 348 350 350 349 347 344 343 340 336
334 334 333 335 337 334 328 327 328 328 327 326 328 333 336 335 336 339 342 345 348 349 349 351 351 350 348 347 347 346 345 345 344 344 344 345 345 346 345 345 344 345 345 347 347 348 350 351 353 352 349 350 355 354 349 349 350 350 349 346 344 340 336
332 335 338 337 337 334 330 327 327 326 327 328 328 332 335 334 337 343 346 347 347 346 346 348 350 350 348 345 344 344 344 344 344 344 345 346 346 346 345 345 345 345 346 347 348 348 349 351 353 354 351 354 358 357 354 352 351 350 350 348 344 341 338
335 340 343 343 339 335 330 327 327 327 327 329 329 330 334 337 342 346 348 349 349 347 345 346 348 348 347 345 342 342 342 343 343 343 344 345 345 345 345 345 345 345 346 347 348 348 349 349 350 352 355 357 358 356 356 357 354 350 351 347 342 340 338
341 344 343 339 335 333 332 330 330 329 330 332 331 331 335 342 346 346 348 350 351 350 347 344 344 345 345 343 341 341 341 342 342 343 343 344 344 344 344 345 344 345 346 347 348 349 349 350 350 351 355 357 356 355 357 358 354 352 351 347 342 340 339
343 341 338 336 334 336 337 335 334 334 334 334 333 334 337 343 346 347 347 349 351 352 349 344 341 342 342 341 341 341 343 343 342 343 343 343 344 343 344 345 345 346 346 347 348 349 350 353 354 352 353 355 356 357 357 356 355 355 353 348 344 341 339
349 344 341 340 340 340 340 339 337 338 339 339 337 338 339 342 345 347 348 347 350 353 350 343 339 341 341 342 344 344 343 344 344 343 344 343 344 344 344 345 346 346 347 347 348 350 353 356 358 357 356 356 358 360 358 357 358 357 355 352 348 343 340
348 345 343 345 345 343 341 342 343 345 350 350 343 341 342 341 342 345 347 347 349 351 350 343 341 343 343 343 343 344 343 344 343 343 344 344 344 345 345 346 347 348 348 349 351 352 354 355 358 359 358 357 359 360 359 358 359 358 357 355 352 348 345
346 346 345 346 347 346 346 348 350 350 352 351 344 342 343 340 341 344 347 348 347 349 351 350 347 344 343 343 343 343 342 343 342 343 343 344 345 346 346 347 349 349 350 352 354 356 356 356 357 360 360 359 360 359 359 359 359 359 358 357 355 352 349
345 344 345 346 350 351 351 354 354 352 350 347 345 345 343 340 341 345 347 348 347 345 349 353 351 345 342 343 342 343 343 343 343 345 345 346 346 347 347 349 350 351 351 353 356 358 356 355 358 360 359 359 359 359 359 360 359 359 359 358 356 354 352
342 342 344 347 350 352 353 354 354 353 350 347 347 347 346 344 343 343 347 348 348 347 351 355 353 348 345 343 343 344 345 345 345 345 345 346 347 348 348 349 350 351 352 353 357 359 358 357 359 360 359 359 360 360 360 359 360 359 359 358 357 356 355
343 343 345 346 348 350 351 352 353 353 351 348 347 347 348 350 347 345 350 353 350 350 355 357 354 349 346 345 345 346 346 348 348 347 347 348 348 349 349 349 349 352 353 353 356 360 362 361 360 361 360 360 359 360 360 360 360 360 359 357 357 357 356
344 345 345 345 345 346 348 350 352 354 353 350 347 345 348 352 350 347 349 350 347 346 349 350 349 348 347 346 346 347 348 349 349 348 348 349 349 350 350 350 351 352 352 354 358 360 362 362 361 362 362 360 359 360 361 360 360 361 360 358 357 356 355
344 344 345 346 346 346 347 348 350 352 353 353 351 348 347 349 349 348 346 346 346 346 346 346 347 347 346 347 348 347 349 351 352 352 351 350 352 353 351 351 353 354 353 357 360 360 361 361 362 361 361 361 360 360 361 361 360 360 360 359 358 357 355
343 344 344 345 345 346 347 348 348 349 351 352 352 353 351 349 349 348 347 348 348 347 347 347 347 347 347 349 351 352 353 354 357 359 359 358 357 358 358 357 357 358 359 360 361 360 360 361 361 360 361 361 361 361 361 361 361 361 361 360 359 358 356
343 344 344 344 345 346 346 347 347 348 349 350 351 352 352 353 352 351 352 352 352 353 355 354 354 355 353 352 354 356 356 357 359 360 361 362 362 362 362 361 361 361 362 362 362 362 362 361 361 361 361 360 361 361 361 361 361 361 360 360 359 359 358
343 343 344 344 345 345 346 346 346 347 348 349 349 349 349 348 349 350 351 352 352 354 357 358 360 362 362 360 359 359 359 359 359 358 359 361 362 361 362 362 362 363 363 363 363 362 362 360 361 361 361 361 361 361 361 362 362 361 360 360 359 359 359
342 343 343 344 344 345 346 346 346 346 348 348 348 348 347 346 346 347 348 349 350 352 354 355 357 359 360 360 360 360 359 360 361 360 359 359 359 360 360 360 361 361 361 362 362 362 362 362 361 359 359 359 360 361 361 362 361 361 361 360 359 358 357
342 343 343 343 344 346 346 345 345 346 347 348 348 347 347 346 346 346 346 348 349 350 351 352 353 353 352 351 353 353 353 356 359 360 360 360 360 360 360 360 359 359 358 359 359 359 360 361 359 359 358 358 358 359 360 360 360 361 360 360 359 358 358
342 342 343 343 343 344 345 345 346 346 346 347 347 347 346 346 346 346 345 345 346 345 344 344 345 344 342 342 342 343 345 348 351 353 355 356 357 357 358 358 359 358 358 358 358 357 357 358 358 358 358 357 357 358 358 359 359 360 361 361 360 360 360

ECMWFFLT1_850_thetae_033.txt.gz
Theta_e
343 344 349 354 357 357 359 361 361 361 361 362 362 360 358 358 359 360 353 342 336 335 335 334 334 334 334 333 333 333 333 333 334 333 333 334 333 336 340 339 338 337 338 341 341 336 335 338 345 349 345 340 341 343 342 343 346 345 347 350 351 352 350
342 343 347 350 355 357 358 361 362 362 362 363 363 361 359 358 358 358 353 343 336 334 335 335 334 334 333 333 333 333 333 334 334 334 334 335 335 336 338 338 339 337 335 341 345 342 338 335 338 341 340 337 339 342 343 343 345 344 343 345 349 352 350
342 341 345 347 351 357 358 360 362 362 362 363 364 362 360 357 353 351 349 344 337 334 335 334 335 335 334 334 334 334 334 334 334 335 336 336 337 337 337 337 338 338 336 337 341 344 343 339 335 336 336 336 336 338 341 343 343 343 342 341 343 350 351
342 340 343 344 349 356 358 359 362 363 362 363 364 364 362 358 353 349 345 341 336 333 334 334 334 335 335 335 335 335 335 335 335 336 336 337 337 337 337 337 337 338 339 336 335 340 345 344 339 336 336 336 336 336 339 342 342 342 343 341 340 345 350
341 341 342 343 347 354 359 359 361 363 362 362 363 364 363 362 359 354 347 342 338 334 332 333 333 334 335 335 335 335 335 335 335 336 336 336 337 337 337 336 337 336 337 337 336 336 339 343 343 339 336 336 336 336 336 338 340 341 343 343 342 343 349
339 341 341 341 344 351 358 359 360 361 361 361 363 364 364 363 362 359 354 348 344 340 335 333 333 333 334 334 335 335 335 335 335 335 336 336 336 337 336 335 336 336 335 337 337 336 336 338 341 341 338 336 336 337 337 336 338 340 342 344 344 343 347
340 342 341 341 342 348 356 359 358 359 361 360 361 363 363 363 363 362 360 354 348 346 342 336 334 332 332 333 333 334 334 334 335 334 335 336 335 335 335 335 336 336 337 338 338 338 337 336 337 340 340 338 336 338 340 338 336 337 341 344 344 343 345
339 342 342 344 345 348 354 359 358 358 360 359 360 362 363 363 363 362 362 359 354 353 350 342 336 332 331 332 332 333 333 333 334 334 334 335 335 335 335 335 336 337 338 339 338 338 338 338 338 338 340 340 338 338 341 341 337 336 339 342 343 343 344
339 340 342 344 345 346 349 354 357 357 358 359 359 361 362 362 363 362 362 361 359 358 354 348 343 336 330 332 331 331 332 333 333 333 333 334 335 336 336 337 338 338 338 339 340 340 339 340 340 340 340 341 340 339 340 341 338 335 337 339 340 342 345
337 339 342 344 344 344 344 349 355 356 358 359 359 359 361 361 362 362 362 361 360 359 356 353 352 347 337 330 331 331 331 331 332 333 333 334 335 337 339 342 344 340 337 337 340 343 341 340 342 343 342 341 341 341 339 338 337 335 336 338 339 339 342
341 343 346 347 345 345 344 347 354 357 357 358 358 358 360 360 360 361 361 361 360 359 358 357 357 356 348 335 330 332 331 330 331 332 332 332 334 336 339 345 349 348 341 335 338 345 347 344 342 343 343 342 342 342 341 339 337 336 336 337 338 339 339
346 349 349 347 345 346 346 348 355 357 356 357 358 358 359 359 360 359 359 360 360 359 360 359 359 360 357 347 338 334 332 331 330 330 330 330 332 334 337 341 350 355 351 342 336 342 348 348 343 341 343 343 343 343 343 342 340 337 336 337 338 339 338
344 348 350 349 348 349 348 350 355 358 358 357 358 358 358 358 359 359 359 359 359 358 360 360 359 360 361 357 350 342 336 332 331 330 330 330 330 333 335 340 348 356 357 352 343 339 344 348 345 341 341 342 343 344 344 344 343 340 337 337 338 339 339
337 344 349 350 351 353 353 352 354 358 360 359 357 357 357 357 357 358 358 358 358 358 358 359 360 361 362 361 357 350 342 337 334 332 331 332 332 333 336 340 347 353 356 356 351 343 342 346 346 341 339 341 342 343 345 345 345 343 340 338 338 339 340
333 338 344 347 351 352 351 350 350 353 358 359 356 356 357 356 356 357 357 358 358 357 357 358 359 360 361 362 358 350 346 345 342 338 336 337 337 337 338 342 346 349 352 356 355 349 345 348 351 346 339 339 340 341 343 345 345 345 342 340 338 339 341
332 334 338 345 352 351 346 344 341 342 349 353 353 355 357 356 356 356 356 357 357 356 355 356 358 359 361 362 359 352 350 351 349 344 341 341 342 341 340 343 345 346 348 353 356 355 351 351 357 358 351 342 339 340 342 343 345 345 344 342 340 339 341
332 334 333 340 349 352 351 350 342 335 336 339 341 348 354 357 357 356 355 356 356 356 355 354 356 359 360 361 361 358 355 353 350 348 345 343 344 344 343 344 346 345 346 349 355 358 356 353 356 361 361 354 345 341 340 341 343 345 345 344 342 341 342
332 333 333 334 338 343 350 355 351 345 343 342 341 343 346 352 357 357 355 355 355 355 355 354 355 358 359 361 361 360 358 354 350 349 348 345 345 345 346 347 347 347 347 348 351 355 356 354 352 355 360 361 356 350 345 343 342 344 345 345 344 344 344
332 333 334 335 334 335 341 347 350 350 351 353 354 352 349 348 352 355 355 354 354 354 355 354 354 356 358 360 360 360 359 355 352 350 348 347 347 348 348 349 349 348 348 348 350 352 353 351 349 349 353 358 360 357 352 348 345 344 345 346 346 345 345
335 336 335 334 334 337 339 343 347 346 344 346 348 350 353 352 351 352 354 354 354 354 355 354 354 355 357 359 359 359 359 355 351 350 349 348 349 350 349 349 348 347 348 348 350 351 351 350 349 349 349 352 356 358 356 353 352 350 346 346 347 346 346
335 335 334 336 343 350 350 349 352 353 349 347 346 345 349 353 353 353 354 354 354 354 354 354 354 354 355 357 358 358 359 357 351 350 349 349 349 349 348 347 346 346 347 349 350 350 350 350 350 350 350 350 352 355 356 356 357 355 351 347 347 347 347
332 334 336 344 352 356 350 341 341 344 343 341 342 344 346 348 351 354 354 354 353 354 354 354 354 354 355 356 356 358 358 356 353 352 351 349 348 346 345 345 345 346 348 351 353 353 353 352 351 352 351 350 349 350 351 356 358 357 353 349 348 348 348
335 341 346 351 352 350 345 341 340 340 338 334 334 340 344 345 347 350 352 354 354 354 355 355 354 354 354 355 357 359 359 358 355 354 352 350 348 346 345 345 346 347 348 350 352 355 355 354 354 354 353 351 350 348 347 354 359 358 356 355 352 349 348
350 352 355 355 352 350 353 352 348 342 337 334 333 336 340 343 347 350 351 353 354 354 355 356 355 354 354 356 358 359 360 358 356 355 352 350 347 345 345 347 347 348 349 348 351 355 358 360 360 359 357 355 355 353 350 353 357 356 357 358 356 352 351
355 355 354 354 353 355 353 347 340 338 340 344 348 347 343 341 345 351 353 353 353 355 356 356 357 357 356 357 359 360 359 358 356 354 352 348 346 346 347 348 348 350 350 350 353 357 360 363 364 363 362 360 359 358 355 354 355 355 355 357 357 357 356
353 353 353 352 354 355 350 343 346 354 359 362 362 359 354 350 348 349 354 355 353 354 357 356 358 359 358 358 361 360 358 356 354 353 350 348 348 348 349 350 352 354 354 354 358 361 362 362 363 364 365 364 362 361 358 356 356 357 356 355 356 357 357
351 351 351 352 353 351 349 352 360 364 364 362 358 353 353 357 356 352 354 357 355 354 357 358 359 361 360 360 361 361 359 357 354 354 352 351 350 350 350 353 356 356 356 358 362 364 363 363 362 363 365 366 365 364 362 360 359 357 356 355 354 355 357
350 350 350 352 354 353 352 357 364 364 363 361 359 357 357 356 357 356 356 357 358 356 356 358 360 362 363 363 363 364 363 361 360 358 355 352 351 351 353 355 358 358 359 361 364 365 364 364 363 363 364 365 365 364 363 362 361 360 359 358 356 355 358
351 351 351 352 354 354 355 358 362 363 363 360 359 363 365 360 358 359 358 358 360 359 357 358 361 363 364 365 365 365 365 365 364 359 354 352 353 355 357 357 358 362 363 364 364 365 366 365 365 364 364 364 363 364 363 363 362 362 361 360 359 357 357
350 351 351 352 353 354 354 357 360 361 362 360 356 356 362 365 361 359 361 363 364 363 361 359 360 363 365 365 365 365 365 367 367 363 360 359 359 360 361 360 361 363 364 364 364 366 366 366 365 365 365 363 363 363 363 362 362 362 362 361 360 359 359
348 349 350 352 353 352 352 355 358 359 360 360 355 352 359 367 365 363 367 368 366 365 366 363 362 365 367 367 368 366 365 366 369 368 367 366 364 364 364 363 365 365 365 364 365 366 366 365 365 364 364 363 362 362 362 362 362 362 362 362 361 361 360
346 347 349 350 350 351 352 355 357 357 358 358 356 354 357 362 363 364 366 365 363 364 366 366 366 367 367 368 368 367 366 366 367 369 369 368 367 366 365 365 366 366 366 365 365 364 365 364 364 363 363 362 363 362 362 362 361 361 362 362 362 362 361
346 346 346 347 348 349 352 354 355 355 356 355 355 355 355 356 358 359 359 360 361 362 361 362 364 366 366 367 368 367 367 366 366 367 368 368 368 367 366 366 366 366 365 365 364 364 364 364 363 362 362 362 363 363 363 362 361 362 362 362 362 362 362
346 346 346 346 347 348 350 352 352 353 353 353 353 353 354 354 355 356 356 358 360 361 360 360 362 364 365 365 366 366 366 366 365 366 366 367 367 366 365 365 364 364 364 364 364 364 364 363 363 362 362 362 362 362 362 362 362 362 362 362 362 363 362
346 346 346 347 347 347 348 349 350 351 351 351 351 351 352 353 353 354 355 356 358 360 362 362 363 365 365 365 365 365 365 365 365 365 365 365 366 365 365 365 364 364 364 364 363 363 363 363 363 363 362 362 362 361 362 362 362 362 362 362 362 362 362
345 345 346 347 347 347 347 348 348 349 349 350 350 350 350 350 351 352 353 355 356 358 359 361 362 363 363 363 364 363 363 364 364 363 363 364 364 363 364 363 363 363 364 365 365 364 363 363 364 364 364 363 363 363 363 362 362 362 362 362 362 361 362
345 345 346 347 348 348 348 348 348 349 349 349 349 349 349 349 350 350 351 353 353 355 356 358 359 359 360 361 361 362 362 362 362 363 363 363 363 363 362 362 363 363 362 363 365 365 364 363 363 362 362 362 362 363 362 362 362 362 361 362 362 362 362
344 345 345 346 347 347 347 348 349 349 349 349 349 348 348 348 348 349 350 350 351 352 354 355 355 356 355 354 355 358 358 357 358 360 360 360 361 361 361 361 362 361 360 360 361 361 362 363 363 362 362 362 362 362 362 361 361 360 359 360 359 359 360

ECMWFFLT1_850_thetae_036.txt.gz
Theta_e
345 349 351 350 351 351 349 351 352 353 354 356 356 357 361 362 361 361 360 357 352 348 346 345 344 344 343 342 341 338 337 335 334 333 334 334 334 336 339 339 340 344 347 346 341 339 341 342 343 344 343 340 339 341 341 341 343 345 346 348 351 354 354
343 345 351 351 350 350 349 350 352 353 354 356 359 360 361 362 360 360 360 357 352 346 343 342 342 341 339 339 339 337 336 335 334 333 333 333 333 333 335 336 339 343 345 347 345 340 340 342 344 346 346 343 339 339 340 341 342 343 345 347 349 351 352
343 343 349 351 349 348 349 352 352 353 353 357 362 362 361 362 360 360 360 358 354 349 343 337 337 337 336 335 336 335 334 334 333 333 332 332 332 332 332 333 337 342 344 347 350 348 345 343 344 346 348 347 343 340 339 340 342 342 344 344 346 348 349
344 342 346 350 350 348 349 351 351 353 354 357 363 364 361 361 360 359 359 358 354 349 344 338 335 335 334 333 333 333 333 332 332 332 331 331 331 331 332 332 335 341 346 346 348 350 350 349 346 346 347 348 346 342 338 338 340 342 343 343 344 345 347
345 341 344 349 350 350 351 352 352 354 355 357 362 364 362 361 361 360 360 360 354 345 339 337 335 335 334 333 332 332 332 332 332 332 332 332 332 332 332 333 334 338 344 346 346 347 350 351 349 347 347 347 346 344 340 337 337 339 341 343 343 342 343
345 341 344 350 350 350 352 352 353 356 357 359 362 364 363 361 362 362 362 362 359 351 344 339 337 336 335 334 333 332 332 333 333 333 333 333 333 333 333 334 336 338 341 345 345 344 345 348 348 348 348 347 345 345 343 339 336 337 338 341 343 342 341
343 341 344 349 350 350 351 352 353 356 360 361 362 364 364 362 362 362 364 365 362 357 351 344 340 337 336 335 333 333 333 333 333 333 333 334 334 335 335 335 337 339 341 343 343 342 343 343 344 348 350 349 347 346 344 340 337 336 336 337 340 341 341
342 342 342 345 346 346 350 355 357 359 362 362 360 363 364 363 362 362 365 366 363 359 354 348 343 338 335 334 333 333 333 333 333 334 334 334 334 334 335 337 338 339 342 344 343 342 342 341 341 344 349 351 350 348 346 343 339 337 336 336 337 338 340
344 342 341 342 343 344 349 354 355 355 359 361 359 362 365 364 363 362 364 365 365 362 357 351 346 339 335 334 334 334 334 334 333 334 334 334 334 335 335 336 338 339 341 343 345 345 343 342 341 340 343 347 351 350 348 345 343 341 339 336 335 336 337
344 343 340 341 342 343 348 351 351 351 353 357 358 362 365 365 364 363 363 364 365 365 360 355 349 343 337 336 335 335 335 335 335 333 334 334 334 334 334 335 336 338 339 341 345 347 344 341 342 341 340 342 347 349 348 346 345 344 343 340 337 335 335
344 343 341 341 341 343 346 348 350 353 353 355 359 362 365 365 365 364 363 363 364 365 363 360 356 350 342 337 335 335 334 335 335 333 333 333 334 333 334 334 335 337 338 340 343 346 345 343 342 342 341 340 342 345 347 346 347 346 345 343 340 337 336
345 343 340 342 341 340 344 344 345 349 351 353 358 362 363 365 365 364 364 363 364 364 365 364 361 357 352 344 338 335 333 333 334 334 333 333 333 333 333 335 337 339 338 339 340 342 345 345 343 341 340 338 339 342 344 345 347 347 345 344 343 341 338
348 345 342 343 341 339 341 342 341 343 347 352 358 361 362 364 365 364 365 364 363 363 364 364 362 360 358 354 347 342 339 333 332 335 335 333 333 334 336 337 340 343 342 341 341 343 345 346 344 339 338 338 337 339 342 345 346 346 345 344 345 344 341
346 345 344 345 344 342 342 343 343 345 348 352 358 361 361 362 364 364 364 364 364 363 363 363 363 361 360 359 355 350 345 337 333 333 334 334 334 335 338 341 344 347 347 347 348 348 347 348 346 342 339 339 338 338 340 343 346 347 347 345 345 346 345
343 343 345 346 345 344 344 343 345 349 353 356 359 360 360 361 363 364 363 363 363 363 362 363 363 361 360 360 359 356 351 345 339 334 333 334 335 335 337 341 345 346 348 349 351 351 349 350 351 349 346 343 341 339 340 342 344 345 346 345 345 346 347
340 341 345 347 346 346 347 350 353 354 357 360 360 360 359 360 361 362 362 363 363 363 362 361 362 362 361 360 359 358 357 353 347 341 337 335 335 335 336 339 343 346 347 350 352 352 350 351 353 354 352 350 346 343 343 343 343 343 342 343 344 344 347
336 339 343 346 348 348 346 347 353 357 359 359 360 360 359 358 359 360 361 362 361 362 361 361 361 361 361 361 360 360 359 356 352 348 343 338 336 336 337 339 342 344 346 348 351 352 351 351 353 355 356 356 354 350 347 345 344 341 339 339 341 342 344
334 337 342 345 344 344 344 343 341 343 349 353 356 358 359 358 358 359 360 360 360 360 360 360 361 361 361 361 361 362 360 358 356 353 348 343 340 339 338 339 341 343 345 347 349 351 352 351 352 353 355 357 359 357 353 348 344 342 340 338 338 339 342
333 334 338 340 338 339 348 353 348 342 346 353 356 357 357 358 359 358 358 358 358 359 359 358 359 360 361 361 360 362 363 361 359 356 352 348 344 342 342 342 342 343 343 344 347 350 352 351 350 351 352 354 357 359 358 355 350 346 344 342 340 339 340
335 336 334 335 339 343 347 353 354 351 350 352 355 356 356 355 356 358 358 357 357 358 358 358 358 359 360 360 360 361 363 363 361 359 356 353 350 348 347 344 343 342 343 345 347 348 350 350 350 350 351 352 353 356 358 359 357 353 349 347 344 343 342
333 334 335 338 346 353 351 348 350 349 347 349 349 350 353 355 356 356 357 357 356 356 356 357 357 357 358 359 360 361 363 363 363 361 359 358 356 354 351 349 346 346 346 348 349 348 349 350 351 351 351 352 353 354 356 357 358 358 356 352 349 347 345
338 338 345 351 352 352 346 340 342 342 341 345 346 342 346 351 353 355 355 356 356 356 356 357 356 356 356 357 359 360 361 363 363 362 361 360 359 358 356 354 351 350 350 351 351 352 351 351 352 354 353 354 354 354 354 355 356 358 358 356 355 353 351
353 352 355 356 353 352 347 344 347 345 341 345 349 347 348 349 349 352 353 354 356 356 355 355 355 355 355 355 358 359 360 362 363 363 362 361 361 360 358 357 356 354 354 354 354 356 355 353 353 353 354 355 355 354 353 353 355 358 359 359 359 359 357
356 355 355 353 356 360 356 349 348 343 340 346 350 349 349 346 344 350 353 353 354 355 355 355 355 355 355 355 357 358 359 361 362 362 362 362 362 361 360 359 358 358 358 357 356 356 357 357 356 355 355 355 355 355 355 354 354 356 359 361 361 361 360
355 354 352 354 358 358 349 343 348 351 353 360 364 364 362 354 344 344 350 355 355 353 355 355 354 356 355 354 357 358 358 360 360 361 362 362 362 363 361 360 359 359 359 358 356 356 358 359 360 360 359 358 357 358 358 357 356 355 357 360 361 362 362
353 352 351 352 354 351 343 344 359 365 364 365 366 366 366 362 352 346 347 353 355 354 355 355 354 355 356 355 357 358 358 360 360 360 363 363 363 363 362 360 360 360 360 359 358 358 358 360 362 362 362 363 362 360 360 359 359 357 357 358 360 360 361
352 352 351 349 350 352 350 352 363 367 364 363 360 360 363 362 356 352 350 352 355 355 355 356 355 355 356 356 357 358 359 360 360 361 363 365 366 365 364 362 361 361 361 362 362 361 360 360 361 362 364 365 364 363 363 362 361 360 358 358 359 360 359
351 353 351 349 351 355 355 357 362 364 364 364 362 362 368 368 362 358 355 354 357 357 356 357 357 356 356 357 357 358 360 361 360 362 364 366 367 368 367 365 364 364 363 364 365 364 362 362 361 361 362 364 365 365 365 364 364 363 361 361 360 360 360
350 351 351 351 353 356 355 357 361 361 363 364 360 356 360 367 368 363 359 357 360 360 359 357 358 358 357 358 358 359 361 363 364 364 365 367 368 368 368 366 365 366 366 365 366 366 365 364 364 362 363 364 364 365 365 365 366 365 364 364 363 362 361
348 349 350 351 354 355 353 355 359 360 362 364 359 352 354 364 368 364 363 363 363 361 360 359 359 360 360 359 359 359 361 364 367 367 367 368 368 369 369 367 366 366 367 366 366 366 366 366 366 365 364 364 363 364 364 365 366 366 365 365 365 365 363
347 349 350 350 352 352 351 353 358 360 361 361 358 355 359 367 367 365 367 368 365 364 363 359 359 363 363 362 362 362 361 364 367 368 369 369 370 370 370 369 367 366 367 367 366 366 366 366 367 366 365 365 364 364 365 364 365 365 365 364 364 364 364
347 348 348 349 350 349 349 354 358 358 358 359 357 357 361 366 366 366 369 368 366 366 365 362 361 363 365 365 366 365 365 365 366 369 370 369 370 371 370 369 368 367 367 367 367 366 365 365 366 367 366 366 365 365 364 364 363 363 363 363 363 363 363
348 348 348 348 349 348 350 353 356 356 356 356 355 355 358 360 361 362 363 363 362 364 365 366 366 366 366 368 368 367 367 367 367 368 369 369 369 369 369 369 368 368 368 367 367 366 365 365 365 366 366 366 366 365 364 363 363 363 363 363 363 362 362
347 347 347 348 348 348 350 352 353 353 355 354 353 354 355 356 356 357 357 358 360 362 364 365 366 367 367 367 368 368 368 368 367 367 367 367 368 368 368 367 367 367 368 367 366 366 366 365 365 364 364 364 364 363 363 362 363 363 363 363 363 363 362
346 346 347 349 349 348 349 351 352 352 353 352 351 352 353 354 354 355 355 356 359 362 363 363 364 365 365 365 366 367 367 366 366 366 365 367 367 366 366 366 365 365 366 366 365 365 365 365 365 365 364 364 364 363 363 363 363 363 363 363 362 362 361
346 347 348 349 350 350 349 349 350 351 351 351 350 351 351 351 352 353 354 356 358 361 363 363 363 364 365 363 364 365 365 365 365 364 364 365 366 365 366 366 366 365 366 366 365 365 364 365 365 365 365 364 363 363 363 363 363 363 362 362 362 361 361
346 347 348 348 349 350 350 350 350 351 351 350 350 349 350 350 350 351 352 354 357 359 361 362 362 363 364 364 363 364 363 363 364 364 364 365 365 365 365 366 365 366 366 366 365 364 364 364 363 364 364 364 363 363 363 363 363 363 362 362 362 361 361
345 345 346 347 348 349 349 349 350 351 351 351 350 349 349 349 349 350 351 352 353 356 358 359 359 359 361 362 363 363 362 363 365 365 365 365 365 364 365 366 365 364 364 365 365 364 365 364 363 363 363 362 363 363 363 363 362 362 362 362 362 362 362

ECMWFFLT1_850_thetae_039.txt.gz
Theta_e
350 351 352 353 354 354 354 354 353 353 354 354 354 354 357 358 357 358 357 357 356 354 352 350 348 346 342 338 335 334 335 335 334 332 331 331 332 333 335 335 336 338 341 342 340 339 338 340 342 341 341 341 339 339 341 343 344 346 347 346 346 348 348
350 352 353 353 354 354 354 354 353 353 353 353 354 354 356 358 358 358 358 358 357 355 353 350 348 346 342 338 336 334 334 334 334 333 332 331 331 333 334 334 335 335 337 339 339 340 341 340 340 339 340 340 340 340 340 341 342 343 345 345 346 347 347
350 351 352 352 353 353 353 354 353 353 353 353 354 355 356 358 358 359 359 358 358 356 354 351 348 346 342 339 337 335 334 334 333 332 332 332 332 333 334 334 334 333 334 338 341 341 342 342 340 339 339 338 339 339 340 341 341 341 342 344 346 346 347
349 351 351 351 353 352 352 353 353 353 353 352 353 353 355 356 357 358 359 359 359 357 355 353 350 347 344 340 338 336 335 334 333 332 331 331 331 333 334 334 333 332 332 335 338 341 343 343 342 340 339 338 338 338 339 339 340 340 341 342 344 346 346
348 348 350 351 352 352 352 353 353 353 353 353 353 353 354 356 356 357 359 359 359 358 357 354 352 350 348 345 341 338 335 333 332 332 331 331 331 332 334 333 332 331 331 332 334 338 341 343 342 341 340 338 338 337 337 338 338 338 340 341 341 343 344
347 347 349 350 351 351 351 352 352 352 352 353 353 353 354 354 355 356 357 359 360 360 359 357 354 352 351 350 346 341 337 334 333 332 331 331 330 330 331 331 331 331 331 331 332 335 338 340 342 342 341 340 339 338 337 337 337 337 338 339 340 341 342
349 348 349 351 351 351 351 351 352 352 352 353 353 353 354 353 354 355 357 359 360 360 360 359 356 354 352 351 349 345 341 337 335 333 331 330 330 330 330 330 330 330 331 332 332 333 335 338 340 342 342 342 340 339 337 336 336 335 335 336 337 338 340
348 348 348 348 349 350 350 351 351 351 351 352 354 354 354 353 354 356 359 360 360 361 361 359 358 355 353 351 350 347 342 339 337 335 333 332 330 330 329 330 330 331 331 332 332 332 334 337 340 342 343 344 343 341 339 337 336 335 334 335 335 335 337
347 347 346 346 346 347 349 349 350 350 350 351 353 354 355 355 356 357 359 360 361 361 361 360 359 357 354 352 350 347 343 342 340 337 336 334 331 330 330 330 330 331 331 332 332 332 333 335 338 341 344 345 344 343 340 338 337 336 335 334 334 334 335
345 346 346 345 346 348 349 349 350 350 351 351 352 355 357 358 359 359 360 361 361 361 361 361 360 358 356 353 350 347 346 344 342 339 337 335 333 331 330 330 330 331 331 332 332 333 334 335 337 341 344 345 345 344 341 339 337 337 336 335 335 334 334
343 346 347 347 347 349 349 350 351 351 352 352 352 354 358 361 362 361 361 361 362 362 362 361 360 359 358 354 351 349 346 344 343 341 338 336 334 333 332 331 332 332 332 333 333 334 335 336 337 340 342 343 343 342 341 339 337 337 336 335 335 335 334
344 347 349 348 348 350 350 350 351 351 352 352 352 353 356 359 362 362 362 362 362 363 363 363 362 361 360 357 354 351 347 344 343 341 339 336 335 333 332 332 332 333 333 333 334 335 336 336 337 339 339 339 339 339 339 338 338 337 336 336 337 337 336
343 347 350 350 350 350 349 349 350 351 351 352 354 355 356 358 360 361 362 362 361 363 364 364 364 363 362 360 357 354 349 346 344 341 338 336 335 334 333 333 333 333 334 334 334 335 335 336 336 337 336 336 337 337 337 337 338 338 338 338 338 338 338
343 345 348 349 349 350 349 349 350 350 351 353 355 357 358 359 359 360 362 362 361 362 363 365 365 365 364 362 360 356 351 347 343 340 338 336 335 335 334 334 334 334 334 334 334 335 335 335 335 335 335 335 336 337 338 339 340 339 339 339 340 340 340
343 343 346 348 348 350 350 352 353 352 354 355 357 359 359 359 360 360 362 362 362 362 362 364 365 365 365 364 362 359 354 349 344 340 338 338 337 336 335 334 335 335 335 335 334 334 335 335 335 335 335 335 336 337 340 341 341 340 340 339 339 341 341
344 345 347 349 351 351 352 354 356 356 358 359 361 361 361 360 361 362 363 363 362 362 362 364 365 365 365 364 363 361 357 353 348 342 340 339 338 337 336 335 335 336 336 335 334 334 335 337 338 337 336 336 337 338 341 342 341 340 339 338 338 339 340
345 347 347 348 350 351 352 353 354 354 355 356 357 358 359 362 363 363 364 364 363 363 363 363 364 364 364 364 363 362 360 357 353 347 342 339 338 337 336 335 336 336 336 337 336 335 336 338 340 341 340 339 339 340 341 341 340 340 339 339 340 340 341
347 345 345 347 347 348 348 348 348 349 349 351 353 354 356 361 364 364 364 364 364 364 363 363 363 364 364 364 363 362 362 360 357 353 347 342 339 337 335 336 337 337 337 338 337 336 337 338 340 342 343 343 342 343 343 341 340 340 340 341 341 341 342
347 345 345 346 348 349 350 349 347 345 345 346 349 353 357 360 362 363 364 364 363 364 364 364 364 363 363 364 363 363 362 361 360 357 353 349 344 340 338 338 338 338 338 338 338 338 337 337 338 342 345 346 345 344 343 342 340 341 342 343 342 343 343
344 348 351 351 350 350 352 355 356 356 356 354 354 357 360 361 361 361 362 362 363 363 364 364 363 363 363 363 363 363 362 361 361 359 358 355 351 347 344 341 339 338 339 339 339 339 338 336 338 341 343 345 345 344 342 341 341 341 342 344 344 345 345
351 353 354 354 352 350 350 351 354 356 356 355 355 357 359 360 360 361 360 361 362 362 362 363 363 363 363 363 363 363 362 362 361 360 359 358 356 354 350 346 343 342 342 341 340 339 338 337 337 337 338 340 342 343 342 340 340 342 344 345 347 349 350
360 360 358 356 353 350 349 348 349 350 352 352 351 350 350 351 353 355 357 358 360 361 361 361 362 362 362 362 362 363 362 363 362 361 360 359 358 357 355 352 349 346 345 344 343 342 342 341 339 337 337 337 339 342 341 339 341 344 347 349 352 354 355
359 360 359 357 355 353 349 344 341 341 342 346 348 348 349 351 350 350 352 353 356 359 359 359 360 360 360 360 361 362 362 362 362 362 361 360 359 358 357 356 354 351 349 348 348 347 346 345 343 341 340 340 340 340 340 340 345 348 351 353 356 358 359
353 355 356 354 350 347 342 336 336 340 338 333 333 337 343 350 353 353 354 354 353 354 356 358 358 359 359 359 359 360 362 362 362 362 362 361 361 359 358 358 357 356 353 352 350 350 349 348 347 346 345 345 344 342 342 344 349 352 354 356 358 360 361
350 350 351 349 347 346 347 346 346 350 352 348 345 344 343 347 351 353 355 356 355 353 351 351 354 356 358 358 358 358 359 361 362 362 362 362 362 361 360 360 359 358 357 355 353 352 351 351 351 351 350 348 348 348 349 351 353 354 355 356 358 360 362
350 348 348 351 351 349 355 359 355 353 359 361 361 362 358 353 352 353 354 355 357 358 354 350 350 352 354 356 357 357 357 358 361 362 363 363 362 362 362 361 360 360 359 358 357 356 355 354 353 353 352 352 352 353 354 356 357 357 358 358 359 360 361
348 347 349 354 355 350 353 358 354 351 358 360 355 358 362 358 351 349 350 352 354 358 359 356 353 352 351 353 355 356 357 357 358 360 362 363 363 363 363 362 361 361 361 361 361 360 359 358 356 356 355 356 357 357 357 358 359 359 360 360 360 360 360
345 345 347 353 356 353 353 356 350 347 354 354 348 350 357 356 351 348 348 350 352 355 358 358 357 354 353 352 352 354 355 356 357 359 361 362 363 363 363 363 362 362 362 362 362 362 361 361 359 358 358 359 359 360 360 360 360 361 361 361 361 361 360
346 348 349 351 352 350 350 354 354 353 358 357 351 348 350 353 357 359 356 352 351 352 356 359 358 357 355 354 353 353 354 355 358 359 360 362 362 363 364 363 362 362 362 362 363 363 363 362 362 361 360 360 360 360 361 361 361 362 362 362 363 363 362
347 349 349 349 351 348 346 352 357 359 362 360 355 352 356 361 365 365 362 356 354 354 356 358 358 358 358 357 355 355 354 354 357 359 360 361 362 363 363 363 363 363 362 363 364 364 364 363 362 362 362 361 361 360 361 362 362 363 364 365 365 365 365
347 348 348 348 349 347 346 353 358 358 360 360 355 354 361 367 367 365 364 362 359 358 359 359 358 358 359 359 357 356 355 356 357 359 360 361 361 363 363 364 364 365 364 365 366 366 365 364 364 363 363 363 363 362 361 362 363 364 365 365 365 365 364
345 346 347 347 347 346 347 353 357 356 358 359 355 353 359 365 365 365 365 365 363 361 360 359 359 359 360 361 359 357 357 358 359 360 361 362 362 363 363 364 365 366 366 367 368 367 367 365 365 365 366 365 366 365 363 363 363 363 364 364 364 364 364
345 346 346 347 348 347 349 352 354 354 355 356 353 351 354 359 362 363 364 365 365 363 361 360 360 361 363 363 361 359 359 359 360 362 364 364 365 365 365 365 366 367 368 369 369 368 368 367 367 367 368 368 367 366 366 365 364 363 363 363 364 364 364
346 346 347 348 349 348 349 351 353 353 353 352 351 350 350 353 356 358 359 361 362 361 361 363 363 364 366 366 364 363 362 361 362 364 366 367 368 367 367 368 367 368 369 369 369 369 368 368 368 367 367 368 368 367 367 367 366 365 364 364 364 364 363
345 347 347 349 349 348 348 349 351 352 350 349 349 350 350 350 352 353 355 357 359 360 361 365 366 366 367 368 367 366 365 364 364 366 368 370 369 368 369 369 369 369 369 370 369 368 368 368 368 367 367 367 367 367 367 367 366 366 365 365 364 363 363
345 346 347 348 349 349 348 348 350 350 349 348 348 349 350 350 351 352 355 358 361 363 362 364 365 365 366 366 366 367 366 365 365 367 368 369 369 368 369 370 369 369 369 369 369 368 368 368 368 367 367 366 366 366 366 365 365 365 364 364 363 363 363
345 345 345 346 347 348 348 349 350 351 350 350 349 348 349 350 350 352 354 357 360 362 362 362 364 364 364 363 364 366 366 366 366 367 367 367 368 368 368 368 368 369 369 369 369 369 368 368 367 367 366 366 365 365 364 363 363 363 362 362 362 362 362
345 343 343 344 345 347 348 349 350 351 350 350 350 349 348 349 350 351 352 354 356 358 359 361 363 364 364 363 363 365 365 365 366 367 365 366 367 367 367 368 368 368 367 367 367 367 367 366 365 364 365 364 365 364 363 363 362 362 361 359 358 358 359

ECMWFFLT1_850_thetae_042.txt.gz
Theta_e
350 351 352 352 353 352 352 351 351 350 351 351 351 351 351 352 351 352 352 352 351 351 351 350 350 349 350 350 349 348 345 342 341 339 339 338 337 337 336 335 334 333 333 332 332 333 333 335 337 337 337 338 338 337 337 339 343 345 345 345 345 347 348
349 351 352 352 353 352 352 352 351 351 351 351 351 351 352 351 351 351 352 351 351 351 350 350 349 348 347 347 347 347 346 343 340 339 339 338 338 337 336 335 332 331 332 333 333 334 335 335 338 338 337 338 338 338 337 337 340 343 345 346 345 346 347
350 350 351 353 353 353 352 351 351 351 351 351 351 351 351 351 351 351 351 351 351 351 351 350 350 348 345 345 345 346 345 344 341 339 337 337 337 337 336 335 333 331 332 334 334 335 334 335 337 338 338 338 339 338 338 338 338 340 342 344 345 345 345
350 350 351 352 353 353 353 352 351 351 351 351 351 351 352 352 352 352 352 352 352 351 352 351 351 350 347 346 345 344 343 342 341 338 336 335 335 335 335 335 333 331 332 334 335 334 334 334 335 337 337 337 339 340 339 339 339 340 341 341 343 343 344
350 350 351 351 353 353 353 353 352 351 351 352 352 352 352 352 352 353 352 352 353 352 352 352 351 351 350 349 347 345 343 341 340 338 336 334 334 333 333 333 332 331 332 333 334 334 334 333 333 335 336 336 337 338 339 339 340 340 340 341 341 341 342
350 350 350 352 352 352 353 353 352 352 352 352 352 352 352 353 353 354 353 353 353 353 353 353 352 352 351 351 350 348 346 344 342 339 337 335 334 333 332 332 331 331 331 332 333 334 334 334 333 334 335 335 335 336 338 338 339 339 340 340 340 340 341
350 350 350 351 352 352 352 353 352 352 352 352 352 352 352 353 353 354 354 354 354 354 354 354 353 353 353 351 351 350 348 346 343 340 339 337 337 335 333 332 331 331 331 331 333 333 333 333 332 333 334 335 335 335 335 336 336 337 338 338 339 339 340
349 350 350 351 351 352 352 352 352 352 352 352 352 352 353 353 353 354 354 355 355 356 355 355 355 354 354 353 351 350 348 346 344 341 340 339 338 337 334 333 332 331 331 331 332 333 332 331 331 331 333 334 334 334 334 334 335 335 336 336 336 337 339
349 350 349 350 350 352 352 352 353 352 352 353 352 353 353 353 354 354 354 355 355 356 356 355 356 355 355 354 352 351 349 347 345 343 341 340 339 338 336 334 333 332 331 332 332 332 331 330 331 330 332 333 333 333 333 333 333 334 335 334 334 334 335
348 348 349 350 350 351 352 352 353 353 352 353 353 353 353 353 354 354 354 355 356 356 356 356 356 356 356 355 354 352 350 349 347 343 342 340 339 338 337 335 334 333 331 331 332 332 331 330 330 330 331 332 332 332 332 332 332 333 333 333 333 333 333
347 348 349 350 350 351 352 352 353 353 352 353 352 353 353 353 353 353 354 356 355 356 357 357 357 357 357 356 355 354 353 350 347 345 342 340 339 338 337 336 335 334 333 332 332 331 330 330 330 331 331 331 332 332 332 331 330 331 332 331 332 332 333
346 348 348 349 350 351 352 352 353 353 352 352 352 353 352 352 353 353 354 356 356 356 357 357 357 357 357 357 356 356 354 352 350 347 343 341 340 338 337 337 336 335 333 332 331 331 330 330 330 331 331 332 331 332 332 331 331 331 331 331 332 332 333
346 347 347 349 349 350 351 351 352 353 352 352 352 352 353 352 353 353 354 355 356 355 356 356 356 357 356 357 357 357 356 354 352 349 346 343 340 339 339 338 336 335 333 332 332 331 330 330 330 331 331 332 332 332 331 332 333 332 332 332 332 332 333
346 346 346 349 349 349 350 350 351 352 353 352 353 353 353 353 353 353 354 354 355 356 356 356 356 357 357 358 358 359 358 356 354 351 347 343 341 340 339 339 338 337 334 333 332 331 330 329 330 330 331 331 332 332 332 333 334 334 334 334 334 334 334
346 345 347 348 349 349 349 349 351 352 352 353 352 353 353 354 353 354 353 354 354 355 356 356 357 357 358 359 359 360 359 358 356 354 350 347 344 342 340 340 340 339 336 335 332 331 330 330 330 331 331 332 332 332 332 334 334 333 333 333 333 334 334
345 346 347 347 347 349 348 349 350 350 352 352 352 352 353 354 354 353 353 354 354 356 357 357 358 359 360 360 360 360 360 359 357 356 354 351 348 345 342 341 341 341 339 337 334 332 331 331 331 331 332 332 332 333 333 333 333 332 331 332 332 333 334
344 346 346 346 347 347 348 348 349 349 351 351 350 351 351 351 353 354 354 354 355 357 358 359 360 361 360 361 361 360 360 360 359 358 356 354 352 349 345 343 342 343 341 339 336 334 332 332 332 332 332 332 333 333 333 333 332 331 331 331 333 335 337
344 346 345 346 346 346 347 347 348 349 350 349 349 349 347 350 353 355 356 357 358 359 361 361 362 362 362 362 361 360 361 361 360 360 359 358 356 354 351 348 346 344 343 341 339 337 335 334 332 332 332 332 333 333 333 332 332 332 332 332 333 335 338
344 346 346 347 346 346 347 347 347 349 348 348 348 347 346 349 350 353 355 356 358 360 360 362 362 362 362 361 361 362 362 361 361 361 360 360 358 357 354 352 350 347 346 344 342 339 337 335 334 333 333 332 333 332 332 331 331 332 332 333 334 336 340
349 348 347 348 347 347 348 348 349 349 349 349 348 348 349 349 350 352 354 355 357 358 359 360 361 362 362 362 362 362 362 361 362 362 362 361 360 359 357 355 353 349 348 346 345 342 340 337 336 335 334 333 332 332 332 331 331 332 332 334 336 337 341
355 354 352 351 351 351 351 351 352 351 352 353 353 352 354 354 355 356 356 356 357 358 359 360 360 361 362 362 362 362 362 362 363 363 362 362 362 361 359 357 355 352 350 348 347 344 341 340 339 337 335 335 334 334 333 331 331 332 334 335 337 340 343
356 356 355 355 355 355 355 354 354 354 355 355 357 358 358 358 358 359 360 360 359 359 360 360 360 361 362 361 362 362 363 363 363 363 363 363 363 362 360 359 358 355 352 349 348 346 345 343 341 339 338 337 337 337 336 334 334 337 337 338 341 344 347
354 354 355 355 354 354 355 355 355 356 356 356 357 359 358 359 359 360 360 360 361 361 362 361 362 363 362 363 363 363 363 363 363 363 364 363 362 362 361 361 359 357 355 352 349 348 346 345 343 341 341 341 341 341 339 337 339 341 343 345 347 349 350
355 356 356 355 353 351 351 352 351 352 354 355 356 357 357 358 359 360 360 361 362 363 362 363 363 363 363 363 363 363 363 363 362 363 363 363 363 363 362 362 361 359 358 356 353 351 348 346 344 343 342 343 342 343 342 342 344 346 347 349 351 352 353
355 357 358 357 355 353 352 351 350 349 349 348 350 352 354 354 356 357 359 360 362 363 364 363 363 363 363 363 363 363 363 362 363 363 363 363 363 362 362 362 361 361 360 358 357 355 353 350 348 345 344 343 343 344 345 346 348 350 352 353 353 354 355
354 355 353 352 350 351 351 349 347 347 348 348 349 350 351 351 353 354 356 356 358 360 361 362 362 363 363 362 362 364 363 363 363 362 363 363 363 362 363 361 361 361 360 360 359 357 356 354 352 350 348 346 345 345 345 347 349 351 353 354 355 355 356
353 354 353 350 347 345 344 341 338 336 339 342 346 346 348 351 353 354 355 355 356 356 358 358 359 359 360 360 360 361 361 361 363 362 362 362 361 361 361 361 362 362 361 360 360 358 358 357 355 354 353 351 350 349 348 349 350 351 353 353 354 355 356
348 349 350 349 345 340 338 336 333 333 334 334 335 335 338 341 346 351 353 353 354 355 356 357 358 356 355 356 356 357 357 358 359 360 361 361 360 362 361 362 362 362 361 360 360 360 359 358 358 357 356 355 354 353 352 352 353 353 354 354 354 355 356
347 346 345 344 343 343 342 338 333 334 339 341 337 335 334 335 336 343 349 351 351 351 351 353 356 357 356 354 353 354 353 354 355 357 358 360 360 361 361 361 361 362 362 361 361 360 360 360 360 359 358 358 357 356 355 356 356 356 356 357 357 358 358
345 345 344 342 340 344 348 346 342 341 345 346 343 340 340 342 344 346 352 356 354 350 349 350 352 355 357 356 354 352 352 352 353 353 356 357 359 360 361 362 362 362 363 363 362 361 361 361 361 360 360 360 360 359 359 358 358 359 359 360 360 361 360
345 345 344 343 342 344 348 350 350 350 351 352 351 346 345 351 357 360 361 361 359 355 352 350 350 354 356 357 356 355 354 353 352 353 354 356 358 360 361 362 363 363 363 363 363 362 363 363 362 362 362 362 362 362 362 361 361 361 361 361 361 361 361
347 346 346 346 346 349 351 351 353 354 355 355 355 353 349 351 358 363 365 364 362 361 359 356 354 355 356 357 356 355 355 354 354 354 355 356 358 360 361 362 363 364 364 364 364 364 364 364 364 364 364 364 364 364 364 363 363 362 362 362 362 362 362
346 346 348 348 347 349 351 352 352 353 353 352 353 352 350 348 352 358 362 364 364 363 362 361 359 357 357 357 357 356 356 356 355 355 356 357 359 361 362 363 363 364 365 365 365 365 365 365 365 365 365 365 365 365 365 364 363 363 364 364 363 363 363
345 345 346 347 347 347 349 350 351 351 351 350 348 347 346 345 346 350 355 360 362 363 363 363 363 361 359 358 357 357 357 356 356 357 357 358 360 362 364 364 364 364 365 365 365 365 366 365 365 365 365 365 365 365 365 364 364 365 365 366 365 364 364
344 344 344 345 346 347 347 348 349 348 348 346 345 345 347 347 346 348 351 354 357 360 361 362 365 365 363 361 359 358 358 358 358 357 358 360 361 363 363 364 365 365 364 364 365 366 365 366 366 366 366 366 366 366 366 366 366 367 367 366 365 365 365
343 343 342 342 343 345 347 348 348 348 347 346 345 347 349 349 348 350 352 354 356 358 358 359 364 367 367 365 363 361 361 361 361 360 361 362 363 363 364 365 365 365 365 365 366 367 367 368 368 368 368 367 367 367 368 367 367 368 368 367 367 367 366
343 342 341 340 341 342 345 347 349 349 348 347 347 348 348 348 349 351 352 354 356 358 359 360 363 366 367 367 366 365 364 363 363 364 364 364 364 365 366 365 365 366 367 369 369 369 370 370 369 369 369 368 368 368 368 368 367 367 367 367 367 366 365
344 343 342 341 341 342 344 346 348 349 349 349 348 347 347 348 349 350 351 353 354 356 358 361 362 364 366 366 367 366 366 366 366 366 366 367 369 368 368 367 367 368 369 370 371 371 371 369 368 368 368 368 368 367 366 366 365 364 364 365 364 364 363

ECMWFFLT1_850_thetae_045.txt.gz
Theta_e
346 348 350 350 351 351 351 351 351 350 350 351 351 351 352 351 352 352 352 352 351 351 352 351 351 351 351 350 349 349 350 350 349 348 345 343 341 339 337 338 338 337 337 337 336 336 335 334 334 334 336 336 336 337 338 338 341 344 344 344 344 344 344
345 347 349 350 351 351 351 351 350 351 351 351 351 351 351 351 352 352 352 352 352 351 351 351 351 352 351 350 350 350 350 349 349 348 346 345 342 340 338 338 337 337 337 337 336 336 335 334 333 333 335 336 336 337 338 337 338 342 344 344 343 343 343
345 347 347 349 351 351 351 351 350 351 350 350 351 350 351 352 352 352 352 352 351 351 351 351 351 351 350 350 350 350 351 350 349 348 346 344 342 341 339 338 338 338 337 336 336 336 334 334 333 333 334 336 336 337 339 337 336 338 341 343 344 343 343
344 346 347 348 350 350 350 351 351 351 350 350 351 351 351 352 352 352 352 352 352 351 352 351 351 351 350 349 350 350 351 350 349 347 346 344 343 341 340 339 338 338 338 337 336 335 333 333 333 333 335 336 335 336 337 338 337 336 337 340 342 343 343
344 346 347 348 349 350 350 350 350 351 351 350 351 350 350 351 351 352 352 352 352 352 351 352 351 351 350 350 349 349 349 349 349 346 345 344 343 342 341 339 339 338 338 337 337 336 333 332 332 334 336 336 335 335 337 337 338 337 337 337 339 341 342
344 346 348 348 349 350 350 351 350 350 350 350 350 350 350 351 351 352 352 352 352 352 351 351 351 350 350 350 349 350 349 349 349 347 346 344 344 343 341 339 338 338 337 337 336 336 334 332 332 334 335 335 335 335 336 337 338 338 338 337 338 338 340
344 346 347 348 349 350 349 350 350 350 350 350 350 350 350 351 352 351 352 352 352 353 352 352 351 351 351 350 350 350 349 349 349 347 346 346 344 343 340 338 337 336 336 337 335 335 334 332 332 334 334 333 333 334 335 336 338 339 339 339 338 338 339
344 345 347 348 349 350 350 350 350 350 350 351 350 350 350 351 351 351 352 352 352 352 352 352 351 351 351 350 350 350 350 349 348 346 346 346 344 342 339 337 336 335 336 336 335 334 333 331 331 333 334 333 332 332 333 335 335 337 338 339 339 339 338
343 345 346 348 348 349 351 350 350 350 351 351 350 350 350 350 351 351 351 351 352 352 352 352 352 351 351 351 350 350 350 350 349 347 346 346 345 342 339 337 336 336 336 335 334 333 332 331 331 332 333 333 332 332 333 333 334 334 336 337 337 338 337
344 344 345 348 348 349 351 350 351 351 351 351 350 350 350 351 351 351 351 351 351 351 351 351 351 351 351 351 350 350 351 350 350 349 347 347 345 342 339 338 336 337 336 335 334 333 331 330 331 331 332 333 332 332 332 332 333 333 333 334 335 335 335
343 344 345 347 348 349 351 351 352 351 351 351 351 350 350 350 351 351 351 351 351 351 351 351 351 351 351 351 351 351 351 351 351 350 349 348 346 343 340 339 338 337 336 335 335 333 332 331 330 331 331 332 331 331 330 331 332 332 333 332 332 332 333
343 345 345 346 347 349 350 351 352 351 351 352 351 351 351 351 351 352 351 352 351 351 351 351 351 351 351 351 351 351 351 351 352 351 351 350 348 345 342 340 339 337 336 335 334 333 332 331 331 331 330 331 331 330 329 330 331 331 331 331 331 331 331
344 345 345 347 348 349 350 350 351 351 352 352 351 351 351 350 351 351 352 352 352 352 352 352 352 352 352 352 352 352 352 351 352 352 351 351 349 347 345 343 340 338 336 335 334 333 332 332 331 330 330 330 331 330 329 330 330 330 331 331 331 331 330
345 346 346 348 347 348 350 351 350 351 351 352 352 351 351 351 351 352 352 352 353 353 353 352 353 352 352 352 352 352 352 352 352 352 352 351 350 349 347 345 343 341 338 336 335 334 332 331 331 330 330 330 330 330 329 330 330 331 331 331 331 331 330
345 346 346 348 348 349 350 351 351 351 352 351 352 351 351 351 351 352 352 353 353 354 353 353 354 353 353 353 353 352 351 352 352 352 352 352 352 350 349 347 345 344 342 340 337 335 333 332 331 330 329 329 329 329 329 330 330 330 330 331 331 331 331
344 345 347 347 348 349 349 350 351 351 351 352 351 352 352 351 352 352 352 353 353 354 354 354 354 354 354 353 353 353 352 353 353 353 353 352 352 351 350 349 347 346 344 343 340 336 335 333 332 331 330 329 329 329 329 329 330 330 331 331 331 330 331
343 345 346 347 348 349 349 350 351 351 351 352 351 351 352 351 352 351 351 353 353 354 354 355 355 355 355 354 353 353 354 354 353 353 354 353 353 353 353 351 350 348 346 345 342 339 336 335 334 332 330 330 329 328 329 329 329 330 330 331 330 331 331
343 344 345 347 347 348 349 349 350 351 351 351 352 351 351 351 351 351 352 353 353 354 355 355 356 356 355 355 354 354 354 354 354 354 354 354 354 355 355 354 352 351 349 347 345 342 339 337 335 333 332 331 330 329 329 329 329 330 330 331 331 331 332
343 344 344 347 347 348 349 349 350 350 351 350 351 350 349 350 351 351 351 352 353 354 354 355 356 356 356 355 354 355 355 354 355 355 355 355 356 357 357 356 355 354 352 351 348 346 343 340 337 334 334 333 331 330 330 329 330 330 330 331 331 331 332
342 344 345 345 347 348 348 348 349 350 351 351 350 350 350 350 350 350 351 352 353 353 354 355 355 356 356 354 353 354 354 354 355 355 356 357 357 358 358 357 357 356 355 353 352 350 347 343 338 336 335 334 333 333 331 331 331 330 331 332 332 332 333
343 344 345 345 347 348 347 348 349 349 350 350 351 351 351 351 352 352 352 352 353 353 353 354 354 354 354 353 353 353 354 355 356 357 358 359 359 359 359 359 358 358 357 356 355 353 351 347 342 338 335 334 334 334 333 332 331 332 332 332 332 334 336
345 344 344 345 346 347 347 348 348 349 349 350 351 351 351 352 352 352 353 353 353 353 353 354 354 353 353 353 354 354 355 357 357 359 359 360 360 360 360 360 360 360 359 359 357 356 355 352 347 341 336 335 335 335 334 332 333 333 332 333 334 336 339
349 346 345 345 346 346 347 347 348 348 349 349 351 351 351 351 352 352 353 354 353 353 353 354 354 354 353 355 356 356 357 358 359 359 360 360 360 361 360 361 361 361 361 360 359 358 357 355 351 347 342 339 337 336 335 333 333 334 333 334 336 339 341
356 353 349 348 348 347 347 348 348 348 348 349 350 351 351 351 351 352 353 353 354 355 355 355 356 356 356 357 357 358 358 358 359 359 360 361 361 361 361 361 362 362 362 362 361 361 359 358 355 353 349 346 342 340 338 336 334 336 336 336 338 341 342
359 359 357 354 352 351 351 351 350 351 350 351 351 352 351 351 351 351 352 353 353 355 355 356 356 357 357 358 357 358 358 359 359 360 361 361 361 362 361 362 362 362 362 362 362 361 360 360 359 357 355 353 350 347 345 343 340 339 339 339 340 341 343
357 360 360 360 359 357 357 356 356 356 356 355 357 358 356 355 356 355 355 356 355 355 356 356 356 356 357 357 357 358 359 359 360 360 361 362 362 362 362 362 362 362 362 362 362 362 361 361 360 359 358 356 355 353 351 349 347 346 344 343 343 343 344
355 356 356 356 358 358 359 359 358 359 359 359 360 360 359 359 358 358 359 360 359 360 360 360 359 359 358 359 359 360 360 359 360 361 361 362 362 362 362 362 362 362 362 362 362 362 362 361 361 360 359 358 357 355 354 353 351 350 350 348 347 347 347
353 355 353 350 349 350 351 352 352 352 353 354 357 358 359 360 360 360 359 360 361 362 361 362 362 362 361 362 361 361 362 361 361 362 362 363 362 362 363 363 362 362 362 362 362 361 362 361 361 361 360 359 358 357 356 356 354 353 352 352 351 350 350
350 354 354 352 348 343 338 338 339 340 340 340 342 346 349 353 356 358 359 358 358 359 359 360 361 361 361 362 361 361 362 362 362 363 363 363 363 362 363 363 362 362 362 362 362 362 362 362 361 361 361 359 359 358 357 357 356 355 355 355 353 353 353
349 353 355 355 354 349 340 335 335 336 335 334 334 333 334 337 341 346 351 354 356 356 356 356 357 357 357 358 358 359 359 360 360 361 361 362 362 363 363 363 363 363 362 362 362 362 361 361 361 361 361 360 359 359 358 358 358 357 357 356 356 355 355
350 353 353 354 355 353 350 349 346 344 342 341 339 335 333 332 333 335 340 344 348 351 353 353 352 352 352 353 355 355 356 356 356 357 357 358 359 360 361 361 361 362 362 362 362 362 361 361 362 362 361 360 360 360 359 359 359 359 358 358 358 357 358
349 350 351 352 352 352 352 352 350 348 347 345 342 340 337 335 334 335 338 341 343 345 346 348 349 349 348 348 350 351 355 355 354 354 355 355 356 357 357 359 359 360 361 361 362 362 362 362 362 362 361 361 361 361 361 360 360 360 360 360 360 360 360
346 348 349 349 349 350 350 350 349 348 347 345 344 343 341 340 339 338 341 344 347 348 349 349 350 350 349 349 349 350 353 354 354 354 355 354 355 356 356 358 359 361 361 361 361 362 362 362 362 362 362 362 362 362 361 361 362 362 362 363 363 363 363
343 345 346 348 348 348 347 347 346 346 345 344 343 342 341 342 341 340 340 342 344 348 351 354 355 355 354 354 353 354 355 355 355 355 355 355 356 356 358 359 360 361 362 362 362 363 363 363 363 363 363 363 363 363 363 363 364 364 364 365 365 365 364
342 342 343 346 348 347 347 347 345 344 343 343 343 342 341 340 342 341 340 339 339 341 345 350 355 359 359 357 357 357 357 357 358 358 357 356 355 356 357 359 360 362 362 363 364 364 364 364 364 364 365 364 365 364 365 365 365 365 365 364 364 364 364
343 342 342 344 346 347 347 348 347 346 345 345 344 342 341 341 342 343 343 343 342 341 342 347 352 358 361 362 361 358 358 359 359 358 358 358 357 357 357 359 359 362 363 364 365 365 366 366 366 365 366 367 366 366 367 366 366 365 365 365 365 364 364
342 343 341 341 343 345 346 346 346 346 346 346 345 344 343 343 344 345 346 348 348 348 349 351 353 356 360 364 364 361 360 361 361 360 359 359 359 359 359 359 360 362 364 365 365 366 366 366 366 366 366 367 367 367 367 366 365 366 365 366 365 366 366
342 343 342 341 341 344 345 345 346 346 346 347 346 345 345 345 345 345 346 347 348 350 353 354 355 357 360 364 366 365 363 362 362 360 360 361 361 361 361 361 360 361 364 365 366 367 367 367 367 368 367 368 368 369 368 368 367 367 367 367 366 366 366

ECMWFFLT1_850_thetae_048.txt.gz
Theta_e
348 349 349 349 349 349 349 349 349 349 349 349 349 349 350 350 350 351 351 350 350 350 350 350 350 350 350 349 349 348 348 348 348 347 346 344 342 341 339 338 339 339 338 337 337 337 337 338 339 340 340 340 339 338 337 338 339 339 341 343 344 343 344
346 348 348 349 349 349 349 349 349 349 349 349 350 349 350 350 350 351 350 351 350 350 350 350 350 350 350 350 349 349 349 348 348 348 347 346 344 342 340 339 339 339 338 337 337 337 337 337 338 338 339 338 338 337 336 336 337 338 339 341 343 343 343
344 346 347 348 349 349 349 349 349 350 349 349 349 349 350 350 350 350 350 350 351 350 350 350 350 350 350 349 350 350 350 349 348 348 347 345 344 343 341 340 339 339 339 338 337 337 337 337 337 337 338 338 337 337 336 335 336 337 338 339 342 343 343
343 345 346 347 348 348 349 350 349 349 349 350 350 349 349 350 350 350 350 350 350 350 350 350 350 350 350 349 349 349 350 349 348 347 346 344 344 343 343 342 341 340 339 338 338 337 337 337 337 337 337 337 337 337 336 335 335 337 337 337 339 341 343
343 344 345 346 347 349 349 349 350 350 350 349 350 350 349 350 350 350 351 350 350 350 349 350 350 350 350 349 349 350 349 349 348 346 345 344 344 344 344 343 342 341 340 338 338 337 337 336 336 336 336 336 336 336 336 335 336 337 338 337 337 338 340
343 343 345 345 346 348 348 349 349 349 350 349 350 350 350 350 350 350 351 350 350 350 349 350 350 350 351 350 349 350 350 350 349 347 345 344 344 344 343 342 342 341 340 339 338 337 337 337 336 336 335 334 334 334 334 335 335 336 337 337 337 336 337
343 343 344 345 345 347 347 349 349 349 350 350 350 350 350 350 350 350 351 351 351 351 350 350 350 350 350 350 350 350 350 350 349 347 346 345 344 343 342 342 342 341 340 340 339 338 337 337 336 336 334 332 333 333 334 334 335 335 336 337 337 336 336
342 343 344 344 345 346 347 348 349 349 349 350 349 350 350 350 350 350 351 351 351 351 350 350 350 350 350 350 350 350 350 350 349 348 347 346 345 344 342 341 341 340 341 341 339 339 338 337 336 336 335 333 332 333 334 335 335 335 336 336 337 337 337
342 342 343 344 344 345 346 347 349 349 350 350 350 350 350 350 350 350 351 351 351 351 350 350 350 350 350 350 350 350 350 350 349 349 348 347 346 344 342 341 340 340 341 340 340 339 338 337 336 335 335 334 332 332 334 335 334 335 335 336 337 337 338
342 342 342 343 344 344 345 346 348 349 349 350 349 350 350 350 350 350 351 351 351 351 351 350 351 350 350 350 350 350 350 350 350 349 349 348 347 346 343 342 341 341 340 340 339 339 337 336 336 335 335 334 333 332 333 334 334 334 334 334 335 336 337
340 341 341 343 343 344 345 346 348 349 349 350 350 350 350 350 350 350 350 351 351 351 351 351 351 351 351 350 350 350 350 350 350 349 349 348 348 347 345 343 341 340 339 339 338 337 336 335 335 335 334 333 332 331 331 333 333 333 332 332 333 334 334
337 340 341 341 343 344 345 347 347 348 349 349 349 350 349 350 350 350 350 351 351 351 351 351 351 351 351 351 350 351 350 350 350 349 349 349 348 348 347 345 343 340 338 337 336 335 334 334 334 334 333 332 331 330 330 331 333 333 332 331 332 332 333
336 339 339 341 342 343 345 347 347 348 349 349 349 349 349 350 350 350 350 350 350 351 351 351 351 351 351 351 351 351 351 350 350 349 349 348 348 349 348 347 345 342 340 337 335 335 334 333 333 333 333 332 331 330 330 330 331 332 332 331 331 331 332
333 337 339 340 342 343 345 346 347 348 348 349 349 349 349 350 350 350 350 350 350 351 351 351 351 351 351 351 351 351 350 350 349 349 348 348 348 349 349 348 346 344 341 339 337 335 334 333 333 333 333 332 331 331 330 330 330 330 331 331 331 330 330
329 335 339 340 341 343 345 346 347 348 349 349 349 349 349 350 350 350 350 350 350 350 351 351 351 351 351 351 351 351 350 350 349 349 349 349 349 349 349 349 347 345 343 340 338 336 335 334 334 334 333 332 332 331 330 330 330 329 330 330 330 330 329
326 334 339 340 342 343 344 346 348 348 349 349 349 349 349 349 350 350 350 350 350 350 350 351 351 351 351 351 351 350 350 350 349 349 349 349 349 349 349 349 348 347 344 341 339 337 336 336 335 335 334 333 332 332 331 330 329 329 330 330 329 329 329
328 334 339 340 342 343 344 346 348 348 349 349 349 349 349 349 349 350 350 350 350 350 350 350 350 351 351 350 350 350 350 350 349 349 349 349 349 349 350 350 350 349 347 344 341 340 338 338 337 336 335 334 333 332 331 330 329 328 328 329 329 329 329
333 336 340 341 341 343 344 346 348 349 349 349 350 349 349 350 349 350 350 350 350 350 350 350 350 350 350 350 350 350 350 350 350 350 349 349 350 350 350 350 351 350 349 347 344 342 340 339 337 337 336 335 334 333 332 330 329 328 328 328 328 328 328
336 338 340 342 342 343 345 346 347 348 349 349 350 349 349 350 349 350 350 350 350 351 350 351 350 350 350 350 351 351 350 350 350 350 350 350 350 350 350 351 351 350 350 349 347 344 343 340 338 337 337 336 335 334 332 331 329 328 328 328 328 328 328
338 341 340 342 343 343 344 346 346 347 348 349 349 349 350 350 350 350 350 350 351 351 351 351 351 351 351 351 351 351 351 351 351 350 350 350 350 350 351 351 351 351 351 350 350 349 346 343 340 338 336 336 335 334 333 332 330 329 329 328 328 328 328
337 341 342 342 345 345 345 346 347 348 349 349 349 350 350 350 351 351 350 351 351 351 351 351 352 352 351 351 352 352 352 352 352 351 351 351 350 351 351 352 351 352 351 352 352 352 350 347 343 340 338 336 335 334 333 332 331 331 330 330 329 330 330
339 340 342 343 344 345 346 346 347 348 349 349 350 350 350 351 351 350 351 351 351 351 351 352 352 352 351 352 352 352 352 352 352 352 352 351 352 352 352 353 353 353 353 353 354 354 354 353 351 348 344 341 339 337 334 332 332 332 331 331 331 332 333
342 339 342 342 344 346 346 346 348 349 349 350 350 350 350 351 351 351 351 351 351 351 352 352 352 352 351 352 352 352 352 352 352 352 352 352 353 353 353 353 353 354 355 356 356 357 357 356 356 354 351 348 347 344 338 333 332 332 332 332 333 334 334
346 341 342 343 344 346 347 347 348 349 349 350 350 350 350 351 351 351 351 351 351 351 351 352 352 351 351 351 352 352 352 352 352 352 352 353 353 353 354 354 355 356 357 357 358 358 358 358 358 357 356 354 352 350 346 340 337 336 335 334 335 335 336
352 346 343 343 344 345 346 347 348 349 349 350 350 350 350 350 351 351 351 351 351 351 352 352 351 351 351 351 351 351 351 352 352 352 352 353 353 354 355 356 357 358 358 359 359 359 359 360 359 359 359 358 357 356 354 351 348 346 343 342 341 341 340
355 352 347 345 345 346 346 347 348 348 349 349 349 350 350 350 351 351 351 351 352 352 352 352 351 350 350 350 350 351 351 351 352 352 353 354 355 356 357 357 358 359 359 360 360 360 360 360 360 360 361 360 359 359 358 357 355 353 351 350 348 347 346
356 356 353 349 347 346 346 347 348 348 348 349 349 349 350 350 350 351 351 351 352 352 352 351 351 350 350 350 350 351 352 352 353 353 354 355 356 357 358 358 359 359 360 360 360 361 361 361 361 361 361 361 361 360 360 359 358 357 356 354 353 352 350
356 357 356 355 352 350 348 347 347 348 348 348 348 349 349 349 350 350 351 351 352 352 352 352 352 351 352 352 352 353 353 354 355 355 356 357 358 358 359 359 360 360 360 361 361 361 361 361 362 362 361 361 361 361 361 360 360 359 358 357 355 354 353
354 355 357 358 357 356 355 353 352 351 351 350 349 349 349 350 350 351 351 351 352 352 352 353 353 353 354 354 354 355 355 356 357 357 357 358 359 359 360 360 360 360 361 361 362 362 362 362 362 362 362 362 361 361 361 361 360 360 359 358 357 356 355
352 353 354 355 357 358 358 359 359 358 358 356 354 353 352 351 351 351 351 351 352 352 353 354 354 354 355 356 356 357 357 358 358 358 359 359 359 360 360 360 361 361 361 361 362 362 362 362 362 362 362 362 362 361 361 361 360 360 359 359 358 358 357
349 350 350 351 352 355 356 359 360 361 361 361 360 358 357 356 355 355 355 355 356 357 357 358 358 358 359 359 359 360 360 360 360 360 360 361 360 360 361 361 361 361 361 362 362 362 362 363 362 362 362 362 362 362 361 361 360 360 360 360 359 358 358
349 348 348 349 349 349 351 352 354 356 358 360 360 360 360 359 359 359 359 359 359 360 360 360 360 360 360 360 360 360 360 359 359 359 359 360 360 360 361 361 361 361 361 362 362 362 362 362 362 362 362 362 362 362 361 361 360 360 360 360 359 359 359
350 348 347 347 346 346 347 347 347 349 350 351 354 356 358 359 359 359 359 359 358 359 358 358 357 357 357 356 356 356 356 356 356 357 357 358 359 359 360 360 361 361 361 361 361 362 362 362 362 362 362 362 362 362 361 361 361 361 361 361 360 360 360
348 349 348 347 346 345 345 345 345 345 345 346 347 347 349 351 352 352 354 354 354 354 354 353 353 353 353 353 351 351 351 353 355 356 356 357 358 358 359 360 360 360 360 360 360 361 361 361 361 361 362 362 362 362 362 361 361 362 362 362 362 362 362
344 347 348 348 348 347 346 346 346 345 345 346 346 345 344 343 342 342 343 343 344 346 346 346 346 346 346 347 347 347 347 349 353 356 356 357 357 357 358 358 359 360 359 359 360 361 361 362 362 362 362 363 362 363 363 363 363 363 363 364 364 364 364
343 343 345 347 347 348 348 347 347 346 346 346 346 345 345 344 343 342 341 340 340 340 341 342 344 345 345 344 344 345 348 350 352 355 357 357 357 357 357 358 358 359 360 360 360 361 361 362 362 363 364 364 364 364 364 364 364 364 364 365 365 365 365
344 342 343 345 346 346 347 347 347 347 346 346 346 345 344 344 345 345 345 344 345 345 344 346 348 350 352 351 351 352 354 354 355 356 357 357 357 358 358 358 359 359 360 360 361 362 362 363 364 364 364 364 364 364 364 365 365 365 365 366 366 365 365
344 343 342 343 344 344 344 345 346 348 347 346 346 345 343 343 344 345 345 345 347 350 351 351 353 355 357 359 358 358 358 358 358 358 359 358 359 359 359 359 360 360 361 361 362 362 363 364 364 364 363 363 364 364 365 366 366 366 366 366 366 366 365

ECMWFFLT1_850_thetae_051.txt.gz
Theta_e
352 352 352 351 351 350 350 350 349 350 350 349 349 349 349 348 348 348 349 349 349 349 349 349 349 348 349 349 348 347 346 345 344 344 343 340 337 337 337 337 337 337 337 337 337 336 336 337 337 339 339 340 341 341 340 340 340 339 339 340 340 342 344
351 351 352 352 351 350 350 350 349 349 349 349 349 348 348 348 347 348 347 348 349 348 349 349 349 349 349 349 349 348 347 347 346 345 345 343 340 339 339 339 339 338 337 337 337 337 337 337 337 338 338 339 340 340 341 339 338 338 338 339 340 341 343
349 350 351 351 351 350 350 350 349 349 349 349 349 349 349 348 346 345 347 348 348 349 349 349 349 348 349 349 349 349 349 348 347 347 346 346 344 343 342 340 339 339 338 337 337 338 337 337 337 337 337 338 339 340 340 339 338 337 337 338 339 339 341
345 347 350 350 351 350 350 350 349 349 349 349 349 348 348 347 346 346 347 346 348 348 348 348 349 348 348 349 349 349 349 349 348 347 346 346 345 344 344 343 342 341 339 337 338 338 338 338 337 337 337 337 337 338 339 338 338 337 337 337 337 338 339
344 346 349 350 351 351 351 350 349 349 349 349 349 348 348 348 347 347 347 347 348 347 347 348 348 348 349 349 349 349 349 349 348 348 347 346 346 345 345 345 343 342 340 338 338 337 338 338 338 337 337 337 337 337 337 338 337 337 337 336 336 336 337
344 345 348 349 350 351 350 349 350 349 349 349 349 349 348 348 348 348 347 347 348 348 348 348 348 348 349 349 349 349 348 349 349 348 348 347 347 346 345 345 344 342 341 339 339 338 338 339 338 337 337 337 336 337 337 337 337 337 337 337 336 336 337
344 345 345 346 348 350 349 349 350 349 349 350 350 349 349 348 348 348 349 348 348 348 348 349 349 348 348 348 349 349 348 349 349 349 349 348 348 347 346 345 343 342 341 341 340 339 338 339 338 337 337 336 336 337 337 337 337 336 336 336 336 336 337
342 342 342 343 346 348 349 349 349 350 350 350 350 350 348 349 348 349 349 349 348 349 348 349 349 349 349 348 348 348 349 349 349 349 349 349 349 348 346 345 344 342 342 341 339 339 339 339 338 337 336 336 336 336 336 336 336 337 336 336 335 336 336
341 339 339 342 345 347 348 348 349 350 350 350 349 350 349 349 349 349 349 349 348 349 348 348 349 348 349 349 348 348 348 349 349 348 348 349 348 348 347 345 343 342 342 341 339 339 339 338 338 337 336 336 336 336 336 335 335 335 335 335 335 335 336
342 339 339 342 344 346 348 348 350 350 350 350 349 350 350 349 349 349 349 349 349 349 349 348 349 349 349 349 349 349 348 349 349 348 348 349 348 348 347 345 344 342 341 341 340 339 338 338 337 337 337 336 336 336 335 334 334 334 334 334 335 335 336
342 341 341 343 344 346 347 348 349 349 349 349 349 349 349 349 349 350 349 349 349 349 349 349 349 349 349 348 349 349 349 348 349 349 348 348 348 348 347 346 345 342 341 341 340 338 338 338 338 337 337 337 336 335 335 334 333 333 333 334 335 335 335
337 340 341 343 343 344 346 346 347 348 348 348 348 349 349 349 349 350 349 350 349 349 350 349 349 349 349 349 349 349 349 349 349 349 349 348 349 348 347 346 345 342 340 340 340 338 337 337 337 337 337 337 336 335 335 334 333 333 333 333 334 334 334
328 334 338 341 342 344 345 345 346 347 348 348 349 349 349 349 349 349 349 350 350 350 350 350 349 349 349 349 349 349 349 348 349 348 349 349 348 348 348 348 346 344 342 340 339 338 337 337 336 336 336 335 335 335 334 333 333 332 331 332 333 333 333
326 330 334 338 341 343 343 344 345 346 347 348 349 349 348 349 349 349 349 349 349 350 350 349 350 350 349 349 349 349 348 348 348 348 348 348 348 349 348 348 347 346 344 342 340 338 337 336 335 335 335 335 333 333 332 332 332 332 331 331 332 332 332
327 330 333 336 339 340 342 343 344 345 346 347 348 349 348 349 349 349 350 349 350 350 349 350 350 349 349 350 350 349 348 348 349 348 348 349 348 349 348 348 348 347 346 345 342 340 337 337 335 334 334 333 332 332 332 332 332 331 330 330 330 331 332
333 329 331 334 336 336 339 342 343 344 346 347 348 349 348 349 349 349 349 350 349 350 350 349 350 349 350 349 349 349 348 348 348 348 348 348 349 349 348 348 348 347 347 346 344 341 338 337 336 335 333 332 332 331 332 332 332 331 330 330 330 330 330
344 337 332 333 333 333 335 338 340 343 345 346 347 348 348 348 348 349 349 349 349 349 350 350 349 350 350 350 349 349 349 349 348 348 348 348 349 348 348 348 348 347 348 347 345 343 340 338 337 335 333 332 332 332 332 331 331 331 330 331 330 330 330
352 346 339 335 333 332 332 336 339 342 344 345 346 348 348 348 348 349 349 349 349 350 350 350 350 350 350 350 349 349 349 349 348 348 348 348 348 348 348 348 348 348 348 348 347 345 343 341 338 335 334 333 332 332 332 331 330 330 330 330 330 330 329
354 350 344 338 334 331 332 336 338 339 342 345 346 347 347 348 348 349 349 350 350 350 350 349 350 349 350 350 350 349 349 349 349 349 348 348 349 349 349 349 348 348 348 348 349 348 346 344 341 338 336 334 332 332 332 331 330 329 329 329 329 329 329
353 352 346 338 334 332 332 334 337 338 340 343 344 346 347 347 348 348 350 349 349 350 349 349 349 350 350 350 350 350 350 349 349 348 349 349 348 349 349 349 348 348 348 348 349 349 348 348 346 342 339 336 334 332 332 332 331 329 329 328 328 329 329
352 353 348 341 337 336 334 333 336 338 341 343 346 347 348 348 349 349 349 349 349 349 349 349 350 349 350 350 350 350 350 350 349 349 348 348 349 349 348 349 348 348 348 348 349 349 349 349 348 346 344 340 337 335 334 333 331 330 329 329 329 329 329
353 354 350 343 340 339 336 335 336 338 342 345 346 348 348 347 349 349 349 349 349 349 349 350 350 349 349 350 350 350 349 349 348 348 348 348 348 349 348 348 348 348 348 349 348 349 350 350 350 350 348 344 342 340 336 333 332 331 331 330 331 331 331
353 354 351 343 341 341 338 338 339 341 344 347 348 348 347 348 349 349 350 349 349 350 349 349 350 350 349 350 349 349 349 349 348 347 347 348 348 347 348 348 348 347 347 348 349 349 349 350 350 350 349 348 347 346 341 335 333 333 332 332 333 333 333
354 354 349 340 340 341 340 340 342 344 346 347 348 348 348 348 349 349 350 350 349 349 350 349 350 349 350 349 349 349 349 349 348 348 348 348 347 348 348 348 348 348 348 348 350 350 350 351 350 351 351 351 351 350 347 343 340 338 336 336 337 337 335
354 353 347 340 341 343 341 342 343 344 346 348 348 348 348 348 349 349 349 349 349 349 349 350 350 349 349 349 349 349 349 349 348 349 348 349 349 349 349 349 349 349 350 350 350 350 351 352 352 353 353 353 354 354 353 352 350 346 343 344 344 343 341
353 352 347 342 343 344 342 342 344 344 346 347 347 348 348 349 349 349 349 349 350 349 350 349 349 348 348 349 349 349 349 349 349 349 349 349 350 350 350 350 350 350 351 351 352 352 353 353 354 354 355 356 357 357 356 356 355 352 350 349 349 349 348
353 353 350 345 344 345 345 344 345 345 346 346 347 348 349 350 349 350 350 350 349 349 349 349 349 349 349 349 349 349 350 350 350 350 350 350 351 350 350 351 351 352 352 353 353 353 354 355 355 356 357 357 358 359 358 358 358 357 356 355 355 354 353
353 353 352 348 346 346 346 346 346 346 346 347 347 349 348 349 350 350 350 349 349 350 348 349 349 349 349 349 350 350 351 350 350 350 351 351 351 352 352 352 353 353 353 354 354 355 356 356 357 357 358 359 359 360 360 360 360 360 359 359 359 357 356
351 353 353 351 349 348 348 348 347 348 348 348 348 349 349 349 350 350 350 350 349 349 349 348 350 349 349 350 351 351 351 351 351 351 351 351 352 352 352 353 353 354 355 355 355 356 357 357 358 358 359 359 360 360 360 361 361 361 361 360 360 359 358
351 352 353 353 353 351 350 349 349 349 350 349 349 349 349 350 350 349 350 350 349 349 350 349 349 349 350 350 350 351 351 351 351 351 351 351 353 352 353 354 354 355 356 356 356 357 357 358 359 359 360 360 361 361 361 361 361 361 361 361 360 360 359
348 350 352 354 355 355 353 352 350 350 350 350 350 350 350 350 350 351 350 350 349 350 350 349 351 351 350 350 351 350 350 351 351 352 353 353 353 354 355 355 356 356 356 357 357 358 358 359 359 360 361 360 361 361 361 362 362 361 361 361 361 360 360
347 347 349 351 353 355 355 354 353 352 351 350 350 350 350 351 350 350 351 350 350 350 350 350 350 350 351 351 351 352 352 353 353 354 355 355 355 356 357 357 357 358 358 359 359 359 359 360 360 361 361 361 362 362 362 362 362 362 362 361 361 361 359
347 347 347 348 349 352 354 355 355 355 353 352 351 350 351 351 351 351 350 350 351 351 351 351 350 350 351 352 352 353 354 354 355 355 357 357 358 358 358 358 359 359 359 360 360 360 361 361 361 362 362 362 361 362 362 362 362 362 362 361 361 360 360
347 347 347 347 346 347 350 351 353 355 355 355 354 353 352 352 352 352 352 351 352 352 352 351 351 351 354 354 355 356 356 356 358 358 358 359 358 358 359 359 359 359 360 360 360 361 361 361 361 361 361 361 361 361 361 361 362 361 361 361 361 361 360
347 347 346 347 346 346 347 347 349 351 352 353 354 355 356 355 355 354 354 354 354 354 353 354 355 356 357 357 358 359 359 359 358 359 359 359 360 359 359 359 359 360 360 360 360 361 361 361 361 361 361 361 361 361 361 361 361 361 362 361 362 361 361
346 345 345 346 346 346 346 346 346 347 348 350 351 353 355 356 357 358 358 359 358 359 359 359 360 360 360 361 361 360 360 359 358 357 358 359 359 359 358 358 359 359 359 360 360 360 360 361 361 361 362 361 361 362 361 361 362 362 362 362 362 362 361
343 344 343 344 345 345 347 346 345 346 346 348 351 351 351 352 354 355 357 358 360 361 361 361 361 360 360 361 360 360 359 358 356 355 355 356 357 358 360 359 358 358 359 359 359 360 360 360 361 361 361 361 361 362 362 362 362 363 363 362 363 362 362
340 342 343 343 343 344 345 346 345 346 345 346 348 349 350 350 350 351 353 354 355 356 358 359 359 359 358 357 357 356 355 355 354 353 353 354 356 357 358 359 359 359 359 358 359 359 360 360 361 361 361 362 362 363 363 363 363 364 364 364 364 363 364

ECMWFFLT1_850_thetae_054.txt.gz
Theta_e
351 353 354 356 357 357 357 358 357 357 357 358 357 356 356 356 355 355 352 346 343 343 343 343 343 345 345 346 346 346 345 345 345 345 345 343 340 339 337 337 337 336 333 333 336 338 337 338 340 338 339 342 343 344 344 344 345 345 345 345 345 346 346
348 351 352 355 356 357 357 357 358 358 357 357 357 356 356 356 355 354 352 347 343 343 343 344 345 346 346 347 348 348 347 347 347 346 346 343 340 339 338 338 337 335 334 334 336 338 337 338 338 339 341 342 342 343 343 344 345 346 346 345 345 345 345
345 348 351 353 355 356 357 357 357 358 357 357 357 356 355 354 353 352 350 347 344 343 344 345 345 346 347 347 347 347 346 347 348 349 347 342 339 339 339 339 337 335 335 334 335 336 337 339 339 338 339 340 340 341 343 344 344 345 346 345 345 345 344
342 345 349 352 354 356 356 357 357 357 357 357 357 355 354 353 351 350 349 346 344 342 344 346 346 346 347 347 347 347 347 347 348 349 347 342 340 340 341 340 337 336 336 336 336 337 337 338 338 337 337 338 340 340 341 344 343 344 345 344 344 344 344
340 341 344 350 354 355 356 356 357 357 357 357 356 355 354 353 353 352 350 347 345 343 343 345 346 347 347 347 347 347 348 348 348 348 348 346 344 343 343 342 339 337 338 338 337 338 337 337 337 337 337 337 338 340 341 341 342 343 343 344 345 343 342
339 339 340 345 351 354 355 356 356 357 356 356 357 357 356 355 354 352 351 348 346 345 344 344 345 345 346 347 347 347 347 348 347 348 348 347 346 346 345 343 342 340 340 339 339 338 337 337 337 337 337 337 337 338 340 340 340 341 341 343 344 342 343
337 339 339 342 348 354 355 355 356 355 356 355 356 357 357 356 355 354 353 351 348 347 345 343 344 345 345 346 347 347 346 347 348 348 348 348 347 347 346 345 344 343 342 342 341 340 338 336 337 337 337 337 337 337 338 339 338 340 341 342 343 342 341
336 338 342 343 347 350 354 355 355 355 356 356 356 357 357 356 356 355 355 354 352 350 348 346 345 344 344 345 345 347 347 346 347 347 348 348 349 347 347 346 345 344 344 344 344 342 340 338 337 337 337 337 337 336 336 337 338 340 340 341 342 341 339
336 339 344 345 345 348 352 355 355 355 355 355 355 356 356 356 356 356 356 355 354 352 350 349 348 345 343 344 345 345 346 347 347 348 348 348 349 348 348 347 346 345 345 345 345 343 340 340 338 337 337 337 336 336 336 336 337 339 340 340 340 339 338
335 339 344 344 344 348 351 353 355 355 356 356 355 356 356 356 356 357 356 356 355 353 351 352 353 350 345 343 344 345 345 346 347 347 348 348 348 348 349 349 348 346 345 345 345 344 341 340 340 338 337 337 336 336 335 336 336 337 337 337 337 337 336
337 342 347 347 345 348 350 352 355 355 355 357 355 355 356 356 357 356 356 356 355 354 354 354 355 354 349 344 344 346 346 346 347 347 347 347 348 350 351 353 352 348 345 343 346 346 342 339 339 339 338 337 336 335 335 335 335 335 335 335 334 334 334
343 346 351 352 350 350 350 352 356 357 356 356 356 355 356 356 356 356 356 356 356 356 356 356 356 357 355 349 346 345 345 346 347 348 347 347 349 352 353 354 355 352 347 342 343 344 341 339 338 338 337 336 335 335 335 335 335 335 334 334 333 333 333
339 342 346 349 350 351 351 353 356 357 356 357 355 355 356 356 356 355 356 356 356 356 357 357 357 357 356 353 350 347 345 345 347 347 348 348 349 353 354 354 354 355 351 344 341 342 342 339 337 336 337 335 335 335 335 335 335 335 334 334 333 333 333
337 337 340 345 348 349 351 353 357 357 357 356 356 355 356 356 356 355 356 356 356 356 357 357 358 357 356 354 352 349 346 345 346 347 348 348 349 351 353 353 353 355 354 348 341 341 341 339 337 336 336 336 335 335 335 335 335 335 334 333 334 333 332
342 337 338 341 347 350 352 354 357 358 357 356 356 356 356 356 356 356 356 356 356 356 356 358 358 358 357 354 352 349 346 347 347 347 347 348 348 349 350 351 350 352 353 348 342 341 342 341 340 337 335 336 336 336 337 336 336 335 335 334 333 332 331
347 345 344 342 344 349 352 354 356 356 357 356 356 355 356 356 356 356 356 356 356 356 357 358 357 357 357 354 351 349 348 348 347 346 347 347 348 348 348 348 348 348 349 347 343 342 342 340 341 340 337 335 335 336 336 336 336 335 333 333 332 332 331
351 354 354 351 348 347 349 352 355 355 356 355 354 354 355 356 356 356 356 356 357 356 357 357 357 357 354 352 351 350 349 348 347 347 347 346 348 348 348 348 348 348 348 347 345 343 343 342 341 342 342 338 335 335 335 335 334 333 332 331 331 331 330
354 355 356 357 357 354 350 349 351 356 355 352 351 354 355 356 357 357 356 357 357 357 357 357 358 356 354 354 353 351 349 348 348 347 346 346 347 347 348 348 348 348 348 348 347 345 345 345 344 343 344 343 338 335 334 333 332 332 330 330 330 331 330
354 354 356 357 358 358 357 352 348 352 354 352 352 353 353 355 356 355 355 356 357 357 357 357 359 357 355 356 354 351 349 348 348 348 347 346 347 347 348 348 348 348 349 348 348 347 346 346 346 345 345 344 341 337 335 334 332 330 330 330 330 330 330
353 354 356 357 358 358 360 358 351 348 352 354 352 351 353 355 356 354 354 357 358 357 357 358 359 359 356 355 353 350 349 348 348 348 348 346 347 347 347 347 348 348 348 348 348 348 347 347 347 347 345 344 343 339 336 336 333 331 330 330 330 330 331
353 354 355 356 358 359 359 360 355 345 347 354 353 352 354 355 356 356 356 357 358 357 358 358 359 360 357 354 352 349 348 349 349 349 349 348 347 347 347 347 348 348 348 348 348 348 348 347 348 348 346 345 345 341 337 336 334 331 330 330 330 331 331
349 352 355 356 357 358 359 360 358 348 342 349 354 353 354 355 356 356 356 356 357 358 358 359 359 359 358 355 352 349 348 349 349 348 349 348 348 347 347 347 348 348 348 348 348 348 348 348 348 348 348 347 346 345 342 338 335 332 330 329 330 331 332
345 348 354 356 356 359 360 359 357 350 343 347 352 352 353 355 355 356 355 355 358 358 358 359 358 357 356 353 350 349 349 348 349 349 349 349 349 348 348 347 348 348 348 348 349 349 349 348 347 348 348 347 347 345 344 341 338 334 332 331 331 331 333
347 347 352 356 357 359 359 356 353 348 344 349 353 351 351 355 355 355 355 355 357 359 359 358 357 354 352 351 349 349 349 349 349 349 349 349 349 348 348 348 348 348 348 348 348 350 350 349 348 347 348 348 347 346 344 343 341 337 334 333 334 333 334
349 350 352 356 357 359 358 354 351 348 347 351 353 350 352 355 356 356 356 356 357 359 359 358 355 351 350 349 349 349 349 349 349 349 349 349 349 349 349 349 348 348 348 347 347 349 350 349 349 348 348 348 347 347 345 345 344 342 338 337 336 337 336
347 351 354 355 357 357 357 354 351 349 350 351 352 351 354 355 355 355 356 357 358 359 359 356 352 349 348 348 349 349 348 348 349 348 348 349 349 349 349 349 348 348 348 348 348 348 349 350 350 349 349 349 349 348 348 348 347 346 343 340 339 340 340
347 352 354 354 356 356 356 355 354 351 351 352 352 353 354 355 356 356 356 357 358 357 356 353 349 349 350 349 349 348 347 347 348 348 348 349 349 349 349 349 349 349 348 348 349 349 348 349 351 353 352 352 352 352 351 350 350 349 347 344 343 343 344
348 352 354 354 355 356 356 355 354 352 351 352 353 354 356 356 355 355 355 354 352 352 353 354 351 348 348 348 348 348 348 347 348 348 348 349 348 348 349 349 349 349 349 350 352 352 351 351 353 355 356 356 356 356 355 352 352 352 352 351 349 349 350
347 351 354 354 353 355 358 358 355 352 352 354 355 354 355 356 356 354 352 349 349 351 354 354 350 347 348 348 348 349 348 348 348 348 348 349 348 349 348 349 349 351 351 351 353 355 355 355 355 357 358 359 359 359 358 357 357 357 356 356 356 356 355
347 350 352 354 354 355 358 360 360 356 353 356 356 355 356 357 354 351 349 348 349 353 355 353 348 348 348 347 348 348 349 348 349 349 348 349 348 349 350 349 350 352 352 352 354 357 358 359 360 360 360 361 361 361 361 361 361 361 359 359 359 359 359
346 349 351 353 354 354 356 359 361 360 358 357 356 356 357 358 354 350 350 351 351 352 354 352 349 349 348 348 349 349 349 348 349 348 349 350 350 349 351 351 351 352 354 355 357 359 359 360 361 362 362 362 362 362 362 362 363 363 362 361 360 360 361
345 348 350 352 353 355 356 356 358 361 361 360 359 358 359 359 357 352 351 352 351 351 352 352 350 349 349 349 349 349 349 349 350 350 349 350 351 351 350 351 353 354 354 356 358 360 361 361 362 362 362 363 363 363 363 363 364 364 364 363 361 361 361
344 347 349 349 351 353 355 355 356 358 359 361 362 361 361 361 361 357 352 351 350 350 351 351 351 349 349 350 349 350 350 350 352 354 354 352 353 355 355 353 355 357 356 356 359 361 361 362 363 363 363 364 364 364 364 364 364 365 365 364 363 362 361
343 347 348 348 349 351 352 354 355 355 356 358 360 361 363 363 364 363 358 353 352 353 351 350 350 350 350 349 350 350 350 351 354 357 359 358 358 360 361 358 357 359 359 357 359 362 363 363 363 364 364 364 364 364 364 365 365 365 365 365 364 364 363
342 346 347 347 348 348 350 352 353 354 355 356 357 358 359 358 360 361 358 355 355 356 353 351 350 351 351 351 353 353 352 352 355 357 361 364 363 361 362 363 361 361 362 360 360 361 362 364 364 364 364 364 364 365 365 365 365 365 365 365 364 363 363
339 344 345 346 347 347 348 350 352 353 354 356 356 357 357 356 357 357 355 355 354 354 352 350 351 353 354 353 356 359 358 356 358 359 361 365 365 360 360 362 362 362 364 364 363 362 361 363 364 364 364 364 364 364 365 365 364 364 365 364 362 361 361
334 339 342 345 345 346 346 348 350 351 352 353 356 356 356 357 358 357 356 356 356 355 354 352 351 353 357 356 355 359 363 363 362 361 361 364 366 363 359 360 361 363 364 365 365 364 363 362 363 363 363 363 364 364 364 364 363 363 363 362 362 361 360
327 334 340 343 343 344 344 345 347 348 349 350 352 353 355 356 357 357 358 359 359 359 359 357 353 354 360 360 356 355 360 364 364 364 364 365 366 364 361 360 360 362 362 363 364 365 364 363 362 361 362 362 362 362 362 363 362 362 361 361 361 361 361

ECMWFFLT1_850_thetae_057.txt.gz
Theta_e
347 348 350 351 352 353 354 356 359 360 361 361 361 359 358 358 358 358 359 359 354 347 342 339 337 337 337 337 336 337 336 336 336 335 335 334 337 345 347 345 343 339 341 345 341 340 344 346 350 353 348 343 344 345 346 346 346 347 347 345 347 347 348
346 348 351 352 354 353 353 356 359 361 361 361 361 360 359 359 359 359 360 360 356 349 343 340 339 338 338 337 337 338 338 337 338 338 338 338 338 341 345 346 345 340 337 345 348 347 347 347 345 347 346 341 342 345 345 347 345 346 348 347 347 347 345
346 347 350 351 352 350 351 354 357 360 362 361 362 361 359 359 359 360 360 361 357 352 346 342 340 340 339 339 338 338 339 338 340 340 340 342 339 339 344 344 343 343 337 340 349 351 350 349 344 340 339 339 342 344 344 345 346 345 347 347 347 347 345
345 345 348 351 352 351 352 355 356 360 361 361 362 361 361 360 360 360 360 361 358 353 349 344 341 341 340 340 340 340 340 340 341 342 342 345 344 342 346 345 341 344 344 340 345 350 351 352 345 338 338 339 341 343 341 342 346 346 346 347 346 346 345
342 345 346 350 352 353 355 355 356 361 361 361 362 362 362 361 360 361 361 361 360 355 349 346 344 343 341 341 341 341 341 341 343 343 343 347 350 348 350 350 345 345 348 346 346 349 351 350 344 337 339 339 339 342 342 339 342 345 346 347 345 344 346
339 342 346 348 350 353 356 355 354 358 360 360 362 362 362 362 361 361 361 361 362 360 357 353 348 345 342 342 342 341 343 343 343 344 345 345 350 352 352 351 348 346 349 351 350 350 350 347 342 339 340 340 341 347 347 340 339 343 345 346 345 344 348
336 339 343 347 349 350 353 354 354 355 358 359 361 362 362 362 361 361 361 362 362 362 361 357 353 348 344 342 343 342 343 345 344 345 347 346 346 351 351 348 347 347 349 352 353 352 350 344 341 341 339 339 343 348 351 345 340 342 343 343 344 344 345
333 338 340 344 348 349 350 351 351 352 355 357 359 362 362 362 362 361 362 362 362 362 361 359 358 353 345 342 344 344 344 345 346 344 346 347 347 348 348 345 343 345 349 352 353 354 353 346 341 342 341 342 344 346 351 350 342 342 344 342 342 342 343
333 335 338 342 346 347 348 349 350 352 354 356 358 361 361 361 362 362 362 362 362 362 361 360 360 357 349 344 344 345 345 345 347 345 344 348 351 350 349 348 346 345 348 352 353 353 354 350 345 343 340 342 346 344 347 349 342 339 344 343 339 340 342
333 334 335 339 341 344 346 348 353 355 354 356 359 361 361 361 362 361 362 362 362 362 361 360 361 361 355 347 344 345 347 346 347 348 348 352 355 354 353 354 352 350 349 351 353 353 354 353 352 348 339 337 343 342 341 344 341 337 340 342 339 338 340
333 336 338 340 340 342 344 347 352 355 356 358 359 360 361 361 362 361 361 362 361 361 361 360 360 361 359 353 349 349 347 346 350 352 352 353 356 356 355 355 355 354 352 350 352 354 354 354 354 353 345 336 338 339 337 338 338 335 337 341 340 337 336
334 337 337 339 340 341 342 346 350 353 356 358 359 359 361 361 361 362 360 361 362 360 361 361 359 360 361 359 357 353 350 349 351 354 353 353 355 356 355 355 354 355 354 352 352 353 354 354 353 352 349 339 336 337 336 336 335 335 337 342 345 342 337
338 341 341 342 344 343 342 344 346 349 354 359 360 358 361 361 361 361 361 361 361 361 360 361 359 359 361 361 360 357 353 351 351 353 355 355 354 355 356 355 354 354 355 355 354 353 353 355 354 351 347 340 336 336 336 335 335 335 334 339 347 348 344
338 339 343 347 349 349 349 348 349 354 357 360 360 358 359 361 360 360 361 361 361 361 360 360 359 359 361 361 361 358 354 352 351 350 354 356 355 354 356 356 354 353 355 356 356 354 353 354 355 352 346 340 337 336 336 335 335 335 334 334 340 347 348
340 339 339 342 345 349 351 353 355 360 362 360 360 359 358 359 360 359 361 361 361 361 360 360 359 359 361 361 360 356 353 354 353 350 351 355 355 354 356 356 354 353 354 355 357 355 354 354 355 355 350 343 338 336 337 335 334 334 335 334 334 340 346
343 343 342 342 346 349 349 352 355 360 363 362 360 359 358 358 360 360 360 361 361 361 360 360 360 360 362 361 359 357 355 354 355 353 350 352 354 353 354 356 356 354 353 356 357 355 354 354 354 356 355 350 343 337 336 336 335 333 333 334 333 334 340
344 344 344 346 351 353 352 351 353 357 363 363 360 359 358 358 359 359 359 360 360 360 360 360 361 361 362 361 360 360 358 355 355 354 350 350 352 351 351 355 357 355 354 356 357 356 354 353 354 356 356 356 351 344 339 336 336 334 332 332 333 332 333
344 344 343 345 350 354 354 352 353 355 359 361 361 359 357 358 360 360 359 359 359 359 359 360 362 361 362 364 363 362 359 355 354 354 351 350 349 348 349 354 357 357 356 358 359 356 353 352 354 355 356 358 357 353 347 342 338 335 333 331 332 332 332
347 346 345 346 349 354 355 356 356 357 358 359 361 360 357 357 359 360 359 358 359 359 359 360 362 362 362 364 365 364 360 356 355 354 352 349 348 346 346 350 355 357 357 359 360 357 349 347 349 352 354 355 359 358 355 351 346 338 333 332 331 331 332
348 349 348 348 351 354 356 359 362 362 360 359 358 359 358 356 358 359 359 358 359 359 359 360 361 362 363 364 366 365 362 358 356 354 351 350 349 347 346 346 350 354 356 359 360 354 347 345 347 349 348 350 357 360 358 356 353 345 336 332 332 331 332
345 346 347 348 350 351 354 358 362 363 362 360 359 357 358 358 358 358 359 358 359 360 359 359 361 363 364 364 366 366 363 360 358 355 353 351 349 347 345 345 346 350 354 359 359 354 346 344 348 348 345 345 352 358 358 355 355 353 345 335 331 331 331
340 341 343 346 348 349 351 355 360 362 362 363 362 359 357 357 357 357 358 358 359 360 360 359 361 363 364 365 366 367 365 362 359 357 355 351 350 348 346 345 346 347 350 356 360 359 352 347 350 352 348 344 346 352 356 354 354 354 349 338 332 332 331
337 339 341 343 346 349 349 352 357 361 362 363 363 360 355 355 356 356 357 358 359 359 360 360 360 363 364 365 366 367 366 363 360 358 356 353 350 348 346 345 346 346 347 352 357 361 359 353 352 354 352 348 344 345 351 353 351 348 343 337 333 331 331
335 338 341 344 348 349 348 350 357 361 361 363 362 358 353 354 356 357 357 358 358 359 360 361 361 363 364 366 366 367 366 365 362 359 357 354 350 348 347 346 346 346 346 349 353 358 361 359 357 357 357 354 347 342 345 350 350 344 338 336 334 332 331
335 340 345 347 350 351 350 352 357 360 360 361 359 355 352 352 356 357 357 357 358 359 361 361 361 364 365 366 367 367 366 366 363 359 356 354 350 349 349 346 347 347 346 347 351 356 359 360 360 360 360 358 355 349 343 347 350 347 342 338 335 334 334
333 340 346 349 351 351 352 355 357 359 359 358 357 354 350 350 356 358 357 358 359 359 361 362 361 364 366 366 367 367 365 363 362 358 356 354 351 351 352 350 349 350 348 347 350 355 358 358 360 360 360 360 360 356 349 346 348 348 345 340 338 337 338
334 341 344 348 352 352 353 356 357 358 359 359 356 353 349 351 356 358 358 359 360 360 361 362 363 365 367 367 367 367 365 362 360 358 357 354 352 354 354 353 352 351 348 348 353 357 358 358 358 359 360 359 359 360 357 353 349 347 344 341 340 339 339
336 343 346 349 353 353 355 357 357 357 359 358 355 352 351 353 355 357 359 359 359 361 361 363 364 366 367 367 366 366 367 365 361 359 357 355 354 355 355 355 354 353 351 352 357 359 359 359 358 358 359 359 358 359 361 358 355 352 348 344 342 342 342
334 340 344 348 351 352 355 357 357 358 360 357 353 353 353 354 355 357 359 359 359 360 361 363 365 367 367 367 366 367 368 366 362 358 358 357 354 354 355 355 355 355 352 354 359 361 361 362 361 360 360 360 359 359 361 362 361 357 353 349 347 346 346
332 337 341 346 350 353 355 357 358 361 361 357 354 353 354 354 355 357 359 359 360 360 362 364 365 367 368 366 366 367 368 366 361 357 356 356 354 352 354 354 354 355 355 354 357 362 364 364 362 362 360 360 360 360 360 362 363 361 358 354 351 350 350
330 335 340 345 350 353 355 358 359 360 361 358 355 354 354 354 356 358 359 360 361 361 363 365 366 367 368 367 366 367 367 365 361 357 357 359 356 353 353 352 354 355 356 355 357 361 364 364 363 363 362 361 361 361 361 362 363 362 359 358 356 353 353
328 334 340 345 350 353 355 358 357 358 360 361 356 354 355 356 358 360 360 361 363 362 363 365 366 368 368 367 366 366 365 364 363 361 362 363 361 357 354 353 354 356 355 357 360 362 363 363 363 363 363 362 363 363 362 363 363 363 361 360 360 358 357
326 332 339 344 348 352 356 358 358 359 361 362 361 358 357 357 358 361 362 363 363 362 363 365 367 368 368 367 366 366 365 364 364 363 364 365 364 362 359 357 358 359 358 360 362 362 362 363 363 363 363 363 363 363 363 363 364 363 364 363 362 361 361
323 329 336 343 347 351 355 357 359 360 361 363 364 363 361 360 361 362 364 365 363 362 364 367 367 367 368 368 367 366 365 365 364 364 365 365 364 364 363 362 362 361 361 361 362 362 363 363 363 363 363 363 364 364 364 364 364 364 364 363 363 363 363
321 326 333 341 345 348 352 355 357 359 360 361 363 364 364 363 363 364 364 364 363 362 365 368 367 368 368 368 367 366 366 366 365 365 365 366 364 363 364 363 363 363 364 363 362 362 363 363 364 364 363 363 364 364 365 365 365 364 364 364 364 365 365
320 323 331 339 343 345 349 353 355 356 358 358 359 362 363 364 364 365 365 364 363 363 366 367 367 367 368 368 368 367 366 365 364 364 365 366 364 362 363 364 363 363 365 364 361 361 362 363 363 364 363 363 363 363 364 365 365 364 364 364 365 365 366
319 322 328 336 341 343 347 350 353 355 356 357 358 359 361 363 364 364 365 365 364 364 365 366 366 367 367 367 366 366 365 364 363 364 366 366 364 362 362 364 363 363 364 364 362 360 360 362 363 363 363 363 364 363 363 364 364 364 365 365 365 366 365
319 321 325 332 337 341 345 348 350 352 353 354 356 357 358 360 361 362 364 365 364 364 365 367 366 366 366 366 366 365 365 365 365 365 367 367 365 364 362 363 363 364 363 364 364 363 361 361 362 363 364 364 364 364 364 364 364 364 365 365 366 365 365

ECMWFFLT1_850_thetae_060.txt.gz
Theta_e
351 354 355 355 357 357 356 356 355 356 356 355 356 355 355 355 355 356 357 358 355 351 347 341 338 334 330 327 327 327 326 325 325 325 325 325 327 330 333 333 331 331 331 330 330 330 333 339 344 345 341 340 343 343 343 345 344 344 345 345 347 349 349
353 353 354 355 356 357 357 356 354 356 356 356 356 355 355 355 355 355 356 358 357 354 349 345 341 338 334 330 329 328 327 326 326 326 325 326 326 328 331 333 332 332 332 333 334 334 334 338 342 343 341 339 341 343 343 344 344 344 345 344 344 344 345
352 351 353 354 354 355 357 356 356 356 357 356 356 356 356 356 356 356 356 357 358 357 353 348 344 341 337 335 332 331 329 328 328 327 326 327 327 329 332 332 335 335 334 337 340 342 341 340 340 339 336 336 339 342 343 344 344 343 344 344 344 344 344
350 351 352 352 353 355 356 356 357 357 356 356 355 356 356 355 356 357 356 358 359 359 357 351 346 344 339 337 336 335 333 332 332 330 329 330 330 332 334 335 338 339 339 339 342 346 348 347 344 339 334 334 338 341 342 343 343 343 343 344 344 344 343
349 348 350 350 354 356 357 357 357 356 356 355 356 357 357 356 357 357 357 359 361 360 357 352 349 347 342 338 336 337 336 335 335 334 334 334 335 336 337 339 340 342 342 342 342 346 351 351 348 343 337 333 336 339 341 342 342 342 342 342 343 343 343
349 349 350 352 353 355 356 356 356 356 355 355 356 356 358 357 357 358 358 360 363 362 360 356 353 350 346 342 337 336 337 336 336 337 336 337 339 340 340 341 343 344 344 343 341 344 349 352 350 347 340 335 335 337 339 341 341 340 341 342 342 343 343
347 352 352 353 354 353 354 354 356 356 356 356 357 357 358 358 357 358 359 360 363 364 363 360 357 353 349 344 340 338 338 337 337 337 337 338 340 342 343 344 345 345 345 345 344 344 347 350 351 349 345 337 335 337 338 338 338 339 340 341 342 341 342
340 350 353 352 353 354 354 355 356 357 358 358 358 358 359 359 357 357 359 360 363 365 364 363 361 356 352 347 343 341 339 338 338 337 338 339 341 343 345 345 345 345 346 348 348 347 348 349 350 351 348 342 337 339 340 338 336 337 338 339 341 341 341
336 345 352 352 353 352 353 354 354 356 357 358 359 358 358 359 358 358 359 360 361 365 366 365 363 358 353 349 346 343 341 339 339 339 339 340 340 342 344 344 345 346 347 349 351 350 349 349 349 350 348 344 341 341 343 343 339 337 336 336 338 341 341
334 338 346 351 352 351 351 352 354 355 356 358 358 358 358 359 358 358 359 359 360 364 365 366 364 361 356 350 346 344 343 342 341 341 340 340 341 342 344 345 346 346 348 351 353 352 350 349 349 350 348 346 345 343 343 344 342 340 338 335 336 339 340
336 334 339 346 349 351 352 354 355 355 357 357 355 356 356 357 358 358 358 358 359 362 365 365 366 364 359 352 348 346 345 343 342 342 341 341 343 343 346 351 351 349 349 351 353 353 351 349 350 351 350 348 347 345 343 343 343 341 340 338 335 335 337
340 338 335 338 346 352 354 355 356 355 354 353 353 355 354 356 358 359 358 359 359 361 365 366 366 365 363 357 352 350 347 344 343 344 342 342 344 345 348 354 356 353 349 350 351 351 352 351 350 350 350 348 348 347 344 343 343 341 340 339 337 334 334
341 339 336 335 343 351 353 353 354 355 353 351 352 353 355 356 358 359 359 358 359 361 364 366 366 366 365 362 358 354 350 346 344 345 345 344 347 349 352 356 358 355 352 349 349 351 353 353 351 350 349 347 347 348 347 345 344 342 339 339 338 336 334
341 341 343 346 347 350 352 352 353 354 353 351 351 353 356 357 358 359 359 358 360 361 363 365 365 364 364 363 360 356 352 347 345 346 349 348 348 352 354 355 356 356 354 352 350 351 353 354 353 352 351 349 347 348 349 348 346 344 340 338 339 339 338
343 344 347 350 352 352 353 354 354 354 351 351 352 354 357 357 358 360 360 360 361 362 363 365 365 364 364 363 361 356 353 351 349 349 350 351 350 351 353 355 355 355 356 355 353 352 352 354 355 354 353 352 350 349 350 349 348 346 342 337 337 339 340
344 345 346 348 351 351 351 352 354 354 357 358 355 355 357 359 360 361 361 362 362 363 363 364 364 364 364 364 361 357 355 354 352 350 350 351 350 351 353 354 355 355 356 355 354 354 353 354 355 356 354 354 353 352 352 352 351 345 341 336 334 335 338
346 347 346 347 349 350 349 352 353 353 356 361 361 359 359 360 361 362 362 362 363 362 362 363 364 363 363 363 362 358 358 357 355 352 350 349 349 349 350 354 355 355 355 355 354 354 354 353 354 356 356 355 356 354 352 354 352 346 338 337 334 333 335
347 348 348 348 349 349 348 351 356 357 356 356 357 358 359 359 359 361 361 361 362 362 362 362 363 363 362 364 363 360 359 358 356 354 351 349 348 347 348 352 355 355 355 355 354 354 354 353 353 354 357 357 358 357 353 352 353 349 341 338 336 334 333
345 345 346 346 347 349 349 346 349 355 358 358 357 356 356 356 357 359 360 360 360 362 361 362 363 362 362 363 363 362 360 359 357 356 354 352 350 348 347 349 354 355 355 354 355 354 354 354 353 353 355 357 359 359 357 355 354 351 345 339 336 335 334
342 342 344 345 345 348 347 343 341 346 355 359 359 357 354 353 353 356 357 358 359 360 360 361 362 362 362 362 362 363 361 359 358 357 355 354 352 351 350 349 352 354 354 354 354 354 355 354 353 353 353 355 356 358 358 357 357 354 349 343 337 335 334
339 339 340 342 344 345 345 345 344 345 349 354 358 358 358 356 353 351 354 356 358 358 360 360 361 362 362 361 363 363 362 360 359 358 357 355 354 353 352 350 351 352 354 354 354 354 355 354 354 354 353 353 355 356 356 357 357 356 353 348 341 336 335
336 336 337 339 340 342 343 346 346 347 346 348 355 358 357 357 357 352 351 354 355 355 358 360 360 362 362 361 362 364 363 361 360 359 357 356 355 355 353 352 351 352 353 354 354 355 355 355 356 356 354 353 354 354 356 356 357 357 356 352 345 341 339
333 334 335 336 338 341 343 344 347 349 349 350 355 357 354 353 356 353 351 352 352 352 356 358 360 361 362 362 363 363 364 363 361 360 358 357 356 355 355 353 351 351 352 354 355 357 357 357 357 358 357 355 353 353 354 355 356 356 356 354 349 346 345
331 332 333 335 338 341 342 343 346 348 349 349 353 356 357 357 356 353 351 351 351 353 356 359 359 361 362 362 363 363 364 363 362 360 360 359 357 355 355 354 353 352 352 353 355 360 360 359 357 358 357 356 353 351 350 352 354 355 355 354 352 350 349
329 330 332 336 339 340 341 345 347 348 349 350 352 356 360 359 356 355 354 352 352 354 356 358 359 361 362 362 363 363 365 365 363 362 361 360 359 357 356 355 354 353 353 352 355 360 362 361 359 358 357 356 355 351 348 348 352 353 353 351 350 351 353
328 329 332 336 339 341 344 348 349 349 350 352 354 357 359 359 358 358 357 355 354 355 356 356 359 360 361 362 363 364 366 366 366 365 364 362 361 360 359 358 356 356 354 354 355 358 360 361 362 362 361 359 357 354 350 347 349 351 350 348 348 349 351
327 329 333 336 339 342 345 348 349 350 352 354 356 359 359 360 360 359 357 356 355 354 355 357 360 360 362 363 364 364 366 367 367 367 366 365 364 364 363 361 359 359 358 357 357 357 357 359 361 362 362 361 359 358 355 350 347 348 347 346 346 348 349
326 329 333 337 340 343 344 346 348 351 352 353 356 359 360 361 360 358 356 355 354 355 356 357 360 361 361 363 365 365 367 367 367 367 366 366 366 365 363 362 362 361 360 359 359 357 355 356 358 360 361 361 359 360 359 357 353 352 351 350 349 348 348
324 328 332 336 340 343 345 347 349 351 352 352 356 359 361 362 361 357 353 352 353 356 357 359 360 362 361 363 364 366 368 368 367 368 367 367 368 367 364 364 364 364 362 361 360 358 356 355 356 358 359 360 359 359 359 360 359 357 356 355 354 352 350
324 327 330 335 339 342 344 345 349 351 353 355 358 359 360 362 361 356 352 350 352 356 358 359 360 362 361 363 364 366 368 369 369 368 368 367 368 368 366 364 364 365 365 362 360 359 356 355 355 355 357 358 359 359 359 359 359 358 357 358 357 357 355
323 325 328 332 337 341 343 345 348 351 353 357 360 360 359 361 362 357 352 349 353 358 359 359 361 361 362 363 364 366 368 369 369 369 368 368 368 369 368 365 365 366 367 363 361 359 358 356 355 355 356 357 357 359 359 358 358 358 358 357 358 358 357
322 324 327 331 335 339 341 344 347 350 353 358 361 362 361 361 360 358 353 353 357 359 359 359 361 363 362 364 365 366 367 369 369 369 368 367 368 369 368 367 366 367 365 363 361 360 358 357 356 356 356 355 356 357 358 358 358 357 357 357 356 355 356
321 323 326 328 331 335 339 343 346 350 353 358 361 363 363 361 360 357 354 355 359 361 359 360 362 362 363 365 366 366 367 369 369 370 369 368 368 369 368 367 367 366 364 362 361 361 359 358 357 357 356 356 356 356 356 357 357 357 357 356 353 353 355
320 322 325 327 329 333 338 341 345 349 353 357 361 363 364 363 362 359 356 357 360 360 359 360 362 363 364 366 367 366 367 368 369 369 369 368 368 368 367 367 368 366 362 359 359 359 359 358 357 357 357 357 356 356 355 356 357 358 356 351 347 348 353
319 321 324 326 328 331 336 340 344 348 353 356 359 362 364 363 362 360 360 362 362 360 361 361 363 364 365 366 367 366 367 368 369 368 368 368 368 368 367 368 368 366 362 359 357 357 358 357 355 355 357 358 357 355 355 355 354 355 354 351 347 349 353
319 320 323 325 327 330 336 341 345 348 353 357 358 361 363 364 362 360 361 362 362 361 361 363 364 365 366 366 366 366 367 368 368 368 368 368 368 368 368 369 368 367 364 362 361 360 359 358 355 355 357 358 358 355 353 352 351 352 355 357 356 356 357
319 319 321 324 327 329 334 340 344 347 352 356 358 360 362 363 364 362 360 362 363 362 361 363 365 366 367 366 365 366 367 368 368 368 367 368 369 369 368 368 368 367 365 364 363 362 361 360 360 360 358 359 358 357 357 356 355 356 357 359 361 361 362
320 319 320 322 325 327 331 336 341 345 349 353 357 358 360 361 363 363 362 362 363 363 362 363 364 366 367 366 365 366 367 367 367 367 367 367 369 369 368 368 367 366 366 366 365 363 361 362 362 362 361 360 360 360 360 360 360 361 359 360 361 363 364

ECMWFFLT1_850_thetae_063.txt.gz
Theta_e
352 353 353 353 353 353 353 352 350 350 349 351 353 353 353 353 352 352 353 353 352 350 348 345 342 338 332 330 328 328 329 329 328 328 329 328 327 328 328 329 329 327 327 326 326 327 326 328 332 335 339 340 340 341 342 341 343 346 348 351 353 351 348
352 352 353 353 353 352 353 353 352 351 350 351 352 353 353 353 353 353 353 354 353 352 349 346 344 340 333 330 328 328 328 329 329 328 328 328 327 327 327 328 328 327 326 326 326 327 327 327 329 331 335 338 339 339 341 342 343 343 344 346 349 348 347
351 352 353 353 354 353 353 352 352 353 352 352 352 353 354 354 354 354 354 355 354 353 351 349 346 342 337 332 329 327 326 327 328 328 327 327 327 327 327 327 327 326 326 327 327 327 328 328 330 329 330 335 338 338 339 341 342 344 343 343 344 345 344
351 351 352 352 354 354 354 353 352 352 352 352 353 353 354 355 354 354 355 355 355 354 353 351 348 345 342 337 332 328 327 327 326 327 326 326 327 326 327 326 326 325 326 326 327 329 330 331 332 331 330 332 336 338 338 339 340 342 342 342 343 343 343
350 350 351 353 355 355 355 355 354 354 353 352 353 354 354 355 355 355 355 355 355 355 355 353 350 348 345 341 336 331 329 327 326 326 326 326 325 325 326 325 325 325 325 327 327 329 331 333 334 334 332 330 333 337 338 339 339 341 341 341 342 342 342
350 350 352 353 356 356 356 356 356 355 354 354 354 355 355 356 355 355 355 355 355 355 355 355 353 350 347 344 339 334 331 329 328 327 326 326 325 325 325 325 325 326 325 326 328 329 332 336 337 336 334 331 330 333 337 339 339 340 340 340 340 341 342
350 351 353 354 355 356 356 356 356 356 355 355 355 356 356 356 355 355 355 355 355 356 356 356 354 353 350 347 343 339 335 332 331 329 327 327 327 326 326 326 326 326 327 327 328 330 334 337 338 338 337 335 332 331 334 338 339 340 340 339 339 339 340
351 351 354 354 355 355 356 357 357 356 355 355 355 356 356 356 356 355 355 355 356 356 357 356 356 354 352 350 347 343 339 336 333 332 329 328 328 327 327 327 327 327 327 328 329 331 335 338 338 339 340 339 336 332 333 335 337 339 339 338 338 338 339
351 352 353 354 355 355 355 356 356 356 355 355 355 356 356 357 356 355 355 356 357 356 357 357 356 356 354 352 350 347 343 340 337 334 333 331 330 330 330 329 329 329 329 330 330 332 336 339 339 338 340 341 339 335 333 334 335 337 338 338 337 337 338
351 352 352 353 354 353 354 354 354 355 355 355 356 357 357 356 355 355 355 357 357 357 357 357 357 357 356 355 353 350 348 345 341 337 336 334 334 332 333 333 332 332 332 332 334 334 337 340 340 339 340 340 339 337 334 333 335 336 336 336 336 336 336
349 351 352 352 352 352 353 354 355 355 355 357 357 357 356 356 355 355 356 356 357 358 358 358 358 358 358 357 356 355 353 350 346 342 338 336 336 335 335 335 335 335 335 335 336 337 338 341 342 341 341 340 338 335 334 333 333 336 336 335 335 336 335
349 351 351 350 350 351 354 356 356 356 357 357 357 356 356 356 355 355 355 355 356 357 358 359 360 360 360 359 359 358 356 353 350 345 341 338 337 337 337 338 338 338 338 338 339 340 341 342 343 343 342 340 337 335 333 332 332 334 335 335 335 336 336
350 352 351 352 352 351 353 355 355 355 355 355 355 356 355 355 355 355 355 356 356 356 357 358 359 360 361 362 361 359 358 355 352 348 343 339 338 338 338 339 339 339 340 339 341 343 344 343 344 345 343 340 338 336 334 333 332 332 333 334 334 335 335
349 349 351 352 354 354 355 354 354 354 353 353 354 354 354 354 355 355 356 356 356 357 357 358 359 360 361 363 363 361 359 357 354 350 346 342 340 339 339 340 340 341 341 341 342 344 345 344 345 346 345 342 339 337 336 336 335 333 333 333 334 333 334
345 347 348 349 352 354 354 355 357 356 355 355 356 355 355 355 356 356 356 357 357 357 357 358 359 360 362 364 363 363 361 358 356 353 351 346 343 341 340 340 342 343 344 344 344 344 345 346 347 348 346 344 341 340 340 340 339 337 334 334 334 333 333
342 344 345 346 347 348 347 349 353 356 358 358 357 357 358 358 358 359 358 358 358 358 358 358 359 360 362 363 364 363 362 361 358 355 353 350 346 343 342 342 343 345 346 347 346 346 347 349 349 349 348 345 344 343 343 343 342 340 337 335 335 334 334
339 340 341 342 343 342 340 341 346 350 355 358 357 357 356 356 358 358 358 359 358 358 358 358 359 360 361 364 364 364 364 362 360 358 355 353 349 346 344 344 345 346 347 348 349 349 349 350 352 351 349 347 345 345 345 344 343 342 340 337 336 336 336
337 337 338 339 340 339 337 339 341 343 347 352 356 358 356 355 356 357 358 359 357 357 357 357 358 359 360 363 365 365 364 363 361 359 357 355 352 348 346 345 346 347 349 350 350 351 351 352 353 352 351 349 348 347 346 345 343 341 340 338 337 336 337
334 335 335 336 337 337 337 338 340 341 344 347 350 354 356 356 356 356 357 357 357 355 355 356 357 358 359 362 364 365 365 364 363 361 359 356 354 351 349 348 348 349 350 350 351 352 353 352 353 353 352 352 350 348 347 346 344 343 340 339 337 338 338
332 332 332 333 333 335 338 339 341 342 342 343 347 352 356 356 356 356 356 355 356 354 354 354 356 357 359 360 363 365 365 365 363 361 359 358 356 353 352 350 349 349 350 351 352 353 353 353 352 354 354 353 352 351 349 347 346 344 342 340 338 338 339
330 330 330 330 331 334 336 338 340 341 336 336 344 350 353 356 357 355 355 355 354 355 355 355 354 356 357 359 362 365 365 365 364 362 360 358 357 355 353 352 351 351 352 353 354 353 353 353 353 353 354 354 354 354 352 350 348 346 344 342 340 339 340
328 328 328 329 330 332 335 336 339 342 340 340 343 346 351 355 357 356 355 355 354 353 354 355 355 355 356 357 361 364 365 364 363 362 361 359 358 357 355 354 352 352 353 354 355 354 354 354 354 353 352 353 354 354 354 353 351 348 347 344 342 342 343
325 326 327 328 330 332 334 336 339 343 345 345 344 344 347 352 354 356 356 355 355 354 353 354 355 355 356 358 360 363 365 364 363 362 361 359 358 357 357 355 354 353 354 355 355 355 355 354 355 354 353 353 353 354 354 355 353 351 349 346 345 345 347
324 324 325 326 329 332 334 336 339 342 345 346 345 344 346 348 351 355 356 357 357 355 354 354 354 355 357 358 360 363 364 364 363 363 362 360 359 358 357 356 354 353 354 355 356 355 355 355 355 355 354 353 352 352 353 354 354 352 352 349 347 348 348
323 323 324 325 328 330 333 336 338 340 343 345 345 344 344 347 351 356 357 358 358 357 356 354 353 354 356 357 358 362 364 364 363 363 362 361 359 358 358 357 355 354 353 354 355 355 356 355 355 355 355 353 353 352 352 353 354 354 353 352 351 351 350
322 322 323 325 327 329 332 335 338 340 342 344 345 343 343 345 351 356 358 358 358 358 357 355 353 352 354 357 358 361 363 364 363 362 362 361 360 359 359 357 356 355 354 354 355 355 356 355 355 355 355 354 354 352 351 352 353 353 354 354 353 352 352
321 321 323 324 327 329 331 334 337 339 342 344 345 345 345 347 351 356 358 358 359 359 358 357 355 352 352 355 358 360 362 363 363 363 362 361 360 360 359 358 357 357 356 355 355 356 356 356 355 355 355 354 354 354 352 351 351 352 353 354 354 353 353
322 321 323 324 326 328 330 333 336 338 340 342 344 346 348 349 350 352 355 357 359 361 360 359 358 356 353 353 354 357 362 364 363 363 362 362 361 361 360 359 358 358 358 356 356 356 356 355 355 355 356 355 355 354 353 351 350 350 350 351 352 352 352
321 321 323 325 326 328 329 331 334 337 339 341 344 347 350 351 351 349 351 354 358 360 362 361 360 358 355 353 352 356 362 364 363 363 363 363 362 361 361 360 360 359 359 358 356 356 356 355 355 356 356 356 356 355 355 353 352 351 349 348 348 348 349
319 319 321 324 326 327 329 331 333 335 338 340 344 347 350 352 355 356 355 356 358 360 362 362 361 359 357 355 354 354 359 364 364 364 365 364 363 362 362 362 360 360 360 359 358 357 356 356 356 356 357 358 358 358 356 354 354 352 349 348 348 347 346
318 318 320 323 325 327 329 330 332 335 337 341 344 348 349 351 356 360 360 359 360 362 362 362 362 360 356 355 355 353 357 362 364 365 365 364 364 364 363 362 362 361 361 360 359 358 357 357 356 357 358 359 359 358 357 356 355 353 351 350 350 350 348
318 317 319 321 324 326 328 330 332 334 337 340 343 346 348 350 355 359 361 360 361 363 361 360 361 359 354 355 356 354 355 361 363 365 365 365 366 365 364 363 364 363 363 362 361 360 358 357 356 357 358 359 359 359 358 358 356 355 354 352 352 352 350
319 317 318 320 322 324 327 330 332 334 336 339 342 345 347 349 353 358 360 360 361 361 360 360 361 357 352 353 357 357 357 361 363 364 365 366 366 366 366 366 365 364 364 364 363 361 360 359 358 357 358 358 359 359 359 358 357 357 356 356 355 354 352
319 318 318 320 322 324 327 330 332 333 336 339 342 345 347 348 352 357 360 360 360 362 363 362 361 356 351 352 357 359 359 361 363 365 365 366 367 367 367 367 367 366 365 364 364 363 362 361 360 359 358 357 357 358 358 358 358 357 355 355 354 353 353
319 318 318 319 321 324 327 330 332 334 336 340 342 345 347 349 351 354 358 359 360 363 366 366 361 357 355 355 358 361 361 362 364 364 366 366 367 368 368 368 367 367 366 366 366 366 364 363 362 359 358 357 355 356 357 358 357 353 350 348 347 347 349
319 318 318 319 321 323 327 329 330 333 336 339 341 344 346 349 352 355 358 359 359 362 367 368 365 360 358 360 362 362 362 363 363 365 367 366 367 367 368 368 368 367 366 366 367 367 366 365 364 361 360 358 355 353 353 352 350 347 345 346 346 346 347
319 318 318 319 320 323 326 328 329 331 334 336 338 341 345 351 354 356 357 358 359 361 364 368 369 365 361 362 363 362 363 364 364 365 366 367 367 368 368 369 368 368 368 367 368 368 367 367 366 363 361 359 356 352 350 349 347 347 346 346 346 348 350
318 318 318 319 320 321 323 325 327 328 330 332 334 337 343 349 353 355 356 357 359 361 364 367 370 369 366 365 365 366 366 366 366 367 367 367 368 368 368 369 369 368 368 368 368 368 368 367 367 365 362 360 357 354 352 350 349 350 349 347 346 349 351

ECMWFFLT1_850_thetae_066.txt.gz
Theta_e
352 352 351 352 352 351 351 349 349 349 348 349 348 348 347 347 346 346 345 346 345 344 342 340 339 340 339 333 330 331 331 332 334 336 338 338 338 336 333 331 331 330 330 329 328 328 329 331 336 340 341 342 341 341 341 341 340 343 345 346 346 347 348
352 352 352 351 352 351 351 351 349 349 349 349 349 348 348 347 347 347 347 347 346 346 344 342 341 342 341 336 331 330 331 331 332 336 338 337 336 335 331 329 328 327 326 327 326 327 326 327 331 335 339 340 341 341 341 341 340 340 342 344 346 347 348
352 353 352 350 351 351 351 351 350 350 350 349 350 348 349 348 348 348 347 347 348 346 346 345 343 342 341 339 334 330 330 330 331 334 337 335 334 333 332 330 328 326 326 326 326 326 326 326 326 329 333 338 340 341 341 341 341 339 340 342 344 346 347
352 353 352 350 351 351 351 351 350 350 350 350 350 349 349 349 349 349 349 348 348 348 347 346 346 344 342 342 337 332 329 329 330 332 334 334 331 330 331 331 329 328 327 326 326 325 326 326 327 326 328 332 336 339 340 340 341 341 340 341 342 343 345
352 352 351 351 351 351 352 352 350 350 350 350 350 350 350 350 350 349 349 349 349 349 349 348 348 347 345 344 340 334 329 328 329 330 331 332 331 330 330 329 328 327 327 327 326 326 325 326 327 327 327 329 332 336 339 339 340 341 341 341 341 342 343
351 351 352 351 351 351 352 352 351 350 349 350 350 351 351 350 351 350 350 350 350 350 350 349 349 348 347 346 343 338 332 328 328 328 329 330 330 329 328 327 327 326 327 327 327 326 325 325 326 327 327 329 330 333 337 339 339 340 341 342 341 342 342
351 351 352 352 351 352 352 353 352 351 350 350 350 351 351 351 351 351 351 351 351 351 351 351 350 350 349 348 346 342 337 330 328 328 328 328 328 328 328 327 327 327 326 327 326 326 325 324 326 326 327 329 330 331 334 337 339 339 340 341 341 341 341
350 350 350 351 352 352 351 352 353 352 351 350 350 351 352 352 352 352 352 351 352 352 351 351 351 351 351 349 348 346 342 336 331 328 327 328 328 328 328 327 327 326 326 326 326 325 324 324 325 326 327 328 330 330 331 334 337 339 340 340 339 340 340
350 350 350 350 351 351 352 352 352 353 352 351 350 351 351 352 352 352 352 352 353 353 352 352 352 352 351 351 350 349 346 343 337 333 329 328 327 327 327 327 326 326 325 325 325 324 324 325 326 326 327 328 331 331 330 331 333 336 339 340 340 339 339
349 349 349 350 350 350 352 353 352 353 352 351 351 350 350 351 351 352 353 352 353 353 353 353 353 353 352 352 352 351 349 346 344 340 335 330 328 327 327 326 326 325 325 325 324 324 324 325 326 326 327 329 330 331 330 330 330 333 336 339 339 339 338
349 349 349 349 349 351 352 353 353 352 352 352 352 352 352 352 352 352 353 353 354 353 353 354 354 354 353 353 353 352 351 349 347 345 342 336 331 329 328 327 327 326 326 325 325 325 325 326 326 326 327 329 331 332 331 331 330 331 333 335 338 338 338
349 350 351 351 351 353 353 354 355 354 353 353 352 352 352 352 353 353 353 354 354 354 354 355 355 354 354 354 354 353 353 352 350 347 345 341 337 332 330 330 328 327 327 326 326 326 326 326 327 326 328 330 331 333 332 332 331 331 331 333 335 337 338
343 343 345 348 350 352 353 354 355 355 355 355 354 353 352 353 353 354 354 354 354 355 355 355 355 355 355 355 355 354 353 353 352 351 348 345 342 337 334 332 331 329 328 327 327 327 327 328 327 328 328 330 332 333 333 332 332 331 331 332 333 335 336
338 338 338 340 342 346 349 351 353 354 355 355 355 355 354 355 354 354 354 354 354 355 356 355 356 356 356 356 355 355 355 354 354 353 351 348 346 342 339 336 334 333 331 330 329 328 329 330 330 330 331 331 332 333 333 334 333 333 332 332 332 334 335
334 335 336 336 337 339 342 345 348 351 355 356 355 356 356 356 356 356 356 355 355 356 356 357 356 356 357 356 356 356 356 355 355 354 353 351 349 346 344 341 338 337 335 333 332 331 331 331 332 332 332 333 334 334 335 336 335 334 333 332 332 333 334
332 331 333 334 336 337 338 340 342 345 350 354 355 355 357 356 357 356 356 356 356 356 356 357 357 358 357 357 358 357 357 357 356 355 355 354 353 351 348 346 343 341 339 337 335 334 334 334 334 334 334 334 334 335 336 337 337 335 333 332 331 332 332
331 330 330 332 335 335 335 337 340 341 345 351 353 353 355 356 356 356 356 356 356 356 356 357 358 359 359 358 358 359 358 358 358 357 357 356 356 355 353 350 347 345 342 341 340 338 337 337 337 336 336 335 336 336 337 338 337 336 334 333 332 332 332
329 329 328 329 333 334 334 336 340 340 342 347 351 352 352 353 355 356 356 355 355 356 356 356 357 358 359 360 359 357 356 355 356 358 359 359 359 358 357 355 351 348 346 344 343 343 342 341 340 339 338 338 338 339 339 339 338 337 335 334 334 334 334
326 327 326 327 329 331 333 335 338 339 340 342 346 349 352 351 351 354 355 354 355 355 356 356 356 357 358 358 357 357 354 349 345 349 356 360 361 360 359 357 354 352 350 347 346 346 346 345 343 342 341 341 340 341 340 340 340 338 337 335 335 335 336
324 324 324 324 326 328 330 332 336 339 339 340 342 345 348 349 348 351 353 354 354 354 355 356 356 356 357 356 356 356 355 353 346 342 346 356 362 362 360 359 356 354 352 350 348 348 348 348 346 344 344 343 343 342 342 341 341 340 339 338 336 337 337
323 322 322 322 324 326 327 329 332 336 338 341 342 343 345 347 348 349 351 353 354 353 354 354 355 356 356 357 356 356 356 356 354 350 347 350 359 363 362 361 359 356 354 352 350 349 349 349 348 347 346 345 345 344 344 343 342 341 341 340 339 340 340
322 322 321 322 323 325 326 327 328 331 333 338 342 343 344 346 348 349 351 352 354 354 353 353 355 357 357 357 357 357 357 356 355 355 353 351 354 361 363 363 361 358 356 353 352 350 350 350 349 349 349 348 347 347 346 344 343 342 341 341 342 343 343
321 322 322 322 322 324 326 326 326 327 328 331 336 341 343 343 345 347 349 351 354 356 355 355 355 355 356 357 357 357 356 355 353 354 355 354 354 357 362 364 363 361 358 356 354 352 351 351 351 351 350 351 350 349 348 346 344 343 342 342 343 345 347
321 322 322 322 323 324 325 325 326 326 326 327 329 334 339 341 343 345 347 349 353 356 357 357 357 356 356 355 356 356 356 355 354 353 354 356 356 358 361 363 363 362 360 358 355 353 352 352 352 351 352 352 352 351 350 348 346 344 343 343 345 347 348
321 321 322 322 322 324 325 325 324 325 326 326 326 327 332 338 341 344 346 348 352 355 357 358 358 358 357 357 355 355 355 355 355 355 355 355 356 359 362 363 364 363 362 359 357 355 353 352 352 353 353 354 354 353 352 350 348 346 345 344 346 349 349
320 321 322 322 322 323 325 325 325 324 325 327 328 327 328 333 338 342 344 346 350 353 356 357 358 359 359 359 357 355 355 354 354 355 355 356 357 359 362 363 364 363 362 360 358 355 354 353 353 353 354 354 355 355 354 353 350 349 347 347 348 350 351
320 320 320 321 321 323 325 326 326 326 326 327 329 329 328 329 332 337 342 344 347 351 353 356 358 359 360 360 359 358 356 354 354 355 355 356 357 360 362 363 364 364 362 361 359 356 355 354 354 354 355 355 355 355 354 354 353 351 350 349 349 350 352
319 319 319 320 321 322 323 325 327 327 327 327 329 330 330 329 330 334 340 343 345 347 350 353 356 358 359 360 361 360 359 357 355 355 355 356 357 360 362 363 364 364 363 361 359 358 356 355 354 355 355 355 355 355 355 355 354 353 352 351 350 350 352
319 319 319 319 320 321 322 324 327 328 328 328 329 330 331 331 330 331 336 341 344 347 349 350 352 355 359 361 361 361 361 360 357 356 355 357 358 359 362 363 364 364 363 361 360 359 357 356 355 355 355 356 355 356 356 355 355 354 353 353 352 351 351
319 319 319 318 319 320 321 323 326 328 329 329 330 331 333 333 332 331 332 337 342 347 350 353 354 355 357 360 362 362 362 362 360 358 356 356 357 359 361 362 363 363 363 361 361 359 358 357 356 355 356 356 356 356 356 356 356 355 354 353 353 352 351
319 319 319 318 319 320 321 323 325 327 329 330 331 332 333 334 335 333 331 334 341 345 348 353 356 357 357 359 361 362 362 362 361 360 357 356 357 359 360 362 363 364 363 362 361 360 359 358 358 356 356 356 356 356 356 356 356 356 355 354 353 352 351
319 319 319 318 318 319 321 322 325 327 329 331 332 333 334 335 336 336 334 335 341 344 346 349 354 357 357 358 360 361 361 361 361 361 359 357 357 358 360 361 363 363 363 362 361 361 360 359 358 357 356 356 355 355 356 356 356 356 355 354 353 352 351
319 319 319 318 318 319 320 321 324 326 329 330 331 333 334 335 337 337 337 337 341 344 347 349 353 356 358 357 358 359 360 361 361 361 360 358 357 358 361 362 363 363 363 362 361 361 360 359 359 358 357 356 356 356 356 356 356 356 355 355 354 353 351
319 319 319 319 318 318 319 320 322 325 327 329 330 332 334 335 336 338 338 338 340 343 347 350 353 356 358 357 358 359 359 360 361 361 361 359 358 360 361 362 363 363 363 363 362 361 361 360 360 359 358 357 357 356 356 356 357 356 355 354 352 350 350
318 319 319 319 318 318 319 320 321 323 325 327 328 330 334 336 337 339 339 339 340 343 346 349 352 354 355 357 359 360 360 359 361 362 361 359 359 361 362 363 364 363 363 363 362 362 362 361 361 360 360 359 357 356 356 356 356 355 354 352 350 348 348
318 319 319 319 319 318 318 319 320 321 323 327 328 329 332 336 338 339 340 341 341 343 345 348 350 352 354 356 359 362 362 360 360 362 362 359 359 362 365 365 365 364 364 364 363 362 363 362 362 361 360 360 358 358 357 356 355 354 354 354 353 352 351
317 319 319 320 319 318 319 320 320 320 322 325 327 329 332 335 337 339 340 341 342 343 345 347 349 350 352 354 358 362 363 362 362 365 363 360 361 364 366 366 365 364 364 364 364 363 363 363 362 361 361 360 360 359 358 357 356 355 356 356 356 355 354
317 318 319 320 319 319 318 319 320 320 321 323 325 328 332 334 336 338 340 341 342 344 345 346 348 350 352 354 357 360 364 365 366 366 364 361 362 363 364 364 364 364 363 364 365 364 364 364 363 363 363 363 361 361 360 359 358 357 356 356 356 356 356

ECMWFFLT1_850_thetae_069.txt.gz
Theta_e
351 351 351 350 350 349 349 349 348 348 347 346 346 345 345 345 345 345 344 344 343 344 343 340 340 342 342 340 336 335 334 333 333 333 333 334 334 333 335 337 338 337 336 335 333 332 333 336 339 341 341 340 340 340 341 342 343 343 346 346 345 345 345
352 351 352 350 350 350 349 349 349 348 347 347 346 346 346 345 345 345 344 344 344 344 344 342 341 340 340 339 337 336 335 333 333 332 332 332 332 332 332 334 335 334 334 334 333 332 332 333 335 338 341 340 340 339 340 341 341 341 344 346 345 344 345
353 351 352 351 351 350 350 349 349 348 348 348 347 346 346 346 345 346 345 345 345 344 345 344 343 341 339 339 338 336 335 334 332 331 331 331 330 330 331 332 333 332 331 333 333 333 332 332 332 334 338 340 341 340 339 340 340 340 341 343 344 343 342
353 353 351 351 351 350 351 350 348 349 348 348 348 347 347 346 345 346 345 345 345 345 345 345 344 343 341 340 338 335 334 334 333 332 331 330 330 330 331 332 333 332 330 330 330 331 330 331 330 330 332 336 339 341 340 340 340 340 340 341 342 342 342
352 353 352 351 352 350 351 350 349 349 348 348 348 347 347 346 346 345 345 345 346 346 346 345 345 344 343 341 339 336 332 332 333 332 331 330 330 331 331 331 331 332 330 328 328 328 328 329 328 328 328 329 333 337 340 340 340 340 341 340 340 340 341
351 352 352 352 351 351 351 351 350 349 349 348 348 348 347 346 346 345 345 346 346 346 346 346 345 346 345 344 342 339 334 332 333 332 332 331 330 330 330 330 330 330 329 329 328 328 327 327 327 326 327 327 327 330 334 337 339 340 340 340 340 340 340
351 351 352 352 351 352 351 350 351 349 349 349 348 348 348 347 347 346 346 346 346 346 346 345 346 346 346 346 345 343 338 334 333 332 332 331 331 331 330 330 330 329 329 329 329 328 328 327 326 326 326 326 326 327 329 331 335 338 339 340 340 341 341
351 351 351 352 350 352 351 350 351 350 350 349 348 349 348 348 347 347 346 346 346 346 345 346 346 346 346 346 346 345 342 339 335 334 333 332 331 331 331 331 330 329 329 329 329 329 328 327 326 326 326 325 325 326 327 329 331 333 337 338 339 340 341
350 350 351 351 351 351 351 351 351 350 350 349 349 349 348 348 348 347 347 347 346 346 346 346 347 346 347 347 346 346 345 344 341 337 335 334 332 331 331 331 332 331 331 329 328 328 328 327 326 326 326 326 325 325 326 328 329 331 333 336 338 339 340
345 348 349 350 350 351 350 351 351 350 350 349 349 350 349 349 349 348 348 347 347 347 346 347 347 347 347 347 347 347 346 346 345 343 340 335 332 330 330 330 332 333 333 330 329 328 327 327 326 326 326 326 325 325 325 326 328 330 331 333 336 338 339
337 341 345 348 350 351 350 350 351 350 350 350 349 350 349 349 349 349 348 348 348 348 347 347 347 347 348 347 348 348 348 348 348 347 344 339 334 330 328 329 330 332 333 332 331 329 327 327 327 326 326 326 325 324 325 325 326 329 331 331 333 336 338
332 334 338 341 344 349 350 352 352 351 351 350 349 350 349 350 350 349 350 349 349 349 348 349 348 348 348 348 348 348 348 349 349 349 348 345 341 335 330 328 328 329 330 331 330 329 328 328 327 326 326 325 325 324 324 325 325 327 330 331 332 332 334
329 330 332 335 338 342 345 349 351 352 352 351 350 350 349 350 350 350 351 350 350 350 349 350 349 349 349 349 349 349 349 350 350 350 350 349 347 343 338 333 329 328 328 328 329 328 328 328 327 326 325 324 325 324 324 325 325 326 328 331 332 332 332
326 327 329 331 334 337 339 343 346 349 352 352 352 351 350 350 350 350 351 350 351 351 351 351 351 350 350 350 350 350 350 351 351 351 351 351 350 349 347 343 338 333 330 328 328 328 328 328 327 326 326 325 325 325 325 325 325 326 327 329 332 333 332
324 324 326 327 330 332 335 338 341 343 346 349 352 353 352 352 351 351 352 351 352 352 351 352 352 352 352 351 351 351 351 352 351 351 352 352 352 351 350 349 346 342 338 334 331 330 329 329 328 327 327 326 326 326 325 326 326 326 327 329 331 333 333
323 323 323 324 326 328 331 335 338 340 342 345 348 350 352 353 353 353 353 352 353 352 352 353 353 353 353 352 352 352 352 352 352 352 353 352 352 352 352 352 351 349 347 343 339 336 333 331 331 330 328 327 327 327 327 327 327 327 328 329 331 332 334
323 323 322 323 324 325 326 330 334 338 340 342 344 346 348 351 353 354 354 354 353 353 353 353 353 353 354 354 354 353 352 353 352 353 353 353 353 353 353 353 352 352 351 349 347 344 341 337 335 333 332 331 329 329 329 329 329 330 330 331 332 332 333
323 322 322 322 323 323 324 325 328 332 335 338 341 343 345 347 350 353 354 354 354 354 353 353 353 353 352 353 354 354 354 354 353 353 354 354 354 354 353 353 353 353 353 352 351 349 346 344 341 337 335 334 333 331 331 331 332 332 332 332 333 333 334
322 322 321 322 322 322 323 323 324 327 329 332 336 340 342 344 346 350 353 354 354 354 354 353 353 354 352 352 352 353 354 355 354 354 354 354 354 354 354 354 354 354 354 353 353 352 350 349 346 343 340 338 336 334 333 334 334 333 334 334 334 334 335
323 323 322 322 322 322 322 323 323 324 325 326 329 333 338 341 344 346 349 352 354 354 354 354 353 353 353 353 351 350 353 355 356 355 354 354 355 354 354 355 355 355 355 355 355 354 353 353 351 348 346 342 340 338 336 335 335 335 335 335 335 336 336
322 322 323 323 322 322 322 323 323 323 324 325 326 327 331 336 342 345 346 349 352 352 353 353 353 353 352 353 354 352 353 353 354 354 355 355 355 355 356 355 354 354 355 356 357 357 357 356 354 352 350 346 344 341 339 337 336 336 337 337 337 337 338
320 321 322 322 322 322 321 322 324 324 324 325 326 326 326 330 337 341 344 347 350 351 352 352 353 353 353 353 354 354 355 354 353 352 354 356 357 357 357 357 355 354 354 355 357 358 359 359 357 355 352 350 347 345 342 339 338 337 337 338 338 339 340
319 320 320 321 321 322 321 322 323 324 324 324 325 327 326 326 329 333 337 342 347 350 352 352 353 353 353 353 353 353 355 357 356 355 355 357 358 358 358 358 357 356 355 355 356 358 359 360 359 358 355 352 349 347 344 341 339 339 339 338 339 341 342
319 319 320 320 320 321 321 321 321 323 324 323 323 325 327 327 326 327 330 335 342 347 350 352 354 354 354 354 354 353 354 355 356 356 356 358 359 358 358 358 358 357 356 355 356 357 359 360 360 360 358 354 350 348 345 343 340 340 340 339 340 342 343
319 319 319 319 319 320 321 321 321 321 323 322 321 322 326 327 328 327 326 329 335 342 346 349 352 355 356 356 356 355 355 354 354 355 355 357 357 358 357 357 357 357 357 356 356 356 358 360 360 361 360 357 353 350 348 345 343 342 341 341 341 343 344
319 319 318 318 319 319 320 321 321 320 321 322 321 321 324 326 327 328 328 327 329 335 341 346 349 352 355 357 358 358 357 356 356 355 355 355 356 357 357 357 357 357 357 357 357 356 357 359 360 361 361 360 357 353 350 348 346 344 342 341 342 343 345
319 319 319 318 319 319 319 320 320 321 321 323 323 323 324 324 325 327 328 327 327 330 335 340 346 349 352 355 358 359 359 359 358 357 356 355 356 356 356 356 356 356 356 356 357 357 357 358 359 361 361 361 359 356 353 350 348 346 344 342 342 343 345
318 318 319 318 319 319 319 319 320 321 322 324 325 326 325 325 326 327 327 328 328 329 330 333 339 344 348 352 355 357 359 361 361 361 360 358 356 356 355 356 355 355 356 356 357 357 357 358 359 361 362 361 360 358 356 353 351 348 346 344 343 343 345
316 317 318 319 319 319 319 319 320 321 322 324 325 326 326 326 327 327 327 328 329 330 330 330 333 338 343 348 351 354 358 361 363 363 363 361 359 357 356 356 355 355 356 356 357 358 358 359 360 361 362 362 360 359 357 355 353 351 348 346 345 345 345
313 315 316 318 319 318 318 319 320 320 322 323 325 325 326 327 328 327 327 328 329 330 332 331 331 334 338 343 348 351 355 359 361 362 363 363 362 360 358 357 355 355 356 356 357 358 359 360 361 361 362 362 361 360 359 356 355 353 351 349 348 347 346
311 312 315 317 319 319 318 319 319 320 321 323 325 326 327 328 329 329 329 329 329 331 333 332 330 332 335 339 344 349 353 356 359 361 361 362 363 362 360 358 356 356 356 357 358 359 360 360 361 362 362 362 361 361 360 358 356 355 353 352 350 349 348
311 312 314 316 318 319 319 319 319 320 322 323 324 326 327 328 329 330 330 331 331 332 334 333 331 330 333 335 340 347 352 354 355 357 359 359 362 363 362 360 358 357 357 358 358 359 360 361 361 362 362 362 362 361 361 359 358 356 355 354 353 352 351
310 311 313 316 317 318 319 319 319 319 321 323 324 325 326 328 329 330 331 332 333 334 335 335 333 332 332 333 336 344 350 351 351 354 356 358 360 363 363 362 360 358 358 358 358 359 360 361 362 362 362 362 361 361 361 360 358 358 357 355 355 354 353
310 310 312 315 316 317 318 319 319 318 319 322 324 324 325 327 328 330 332 333 334 335 336 336 335 334 334 334 334 337 343 346 349 353 356 357 359 362 363 363 361 359 359 358 358 358 359 359 360 360 360 361 361 361 361 360 359 359 358 357 356 355 354
309 309 311 313 315 316 317 318 319 319 318 320 322 323 325 326 328 330 332 333 334 336 336 336 336 336 336 336 336 336 337 340 345 351 355 358 359 360 362 363 363 361 359 358 357 357 357 357 357 357 357 359 360 360 361 361 360 360 360 359 358 357 356
308 309 310 312 314 315 317 318 319 319 319 319 320 322 324 326 328 330 332 333 334 335 336 336 336 337 338 338 338 339 339 340 343 348 354 358 360 360 360 362 362 362 360 359 357 356 355 356 355 355 356 357 358 359 360 360 360 360 360 359 359 358 357
308 309 310 312 314 315 316 317 318 319 319 319 319 320 322 325 328 330 331 333 334 335 336 337 337 338 339 340 340 340 341 342 343 346 352 357 360 361 361 359 360 361 360 360 359 357 356 355 356 356 357 357 358 359 360 360 360 360 360 360 359 358 358
308 309 311 312 314 315 316 317 318 319 318 318 318 319 321 324 327 330 331 332 334 335 336 338 338 339 340 341 341 341 342 342 342 345 349 355 359 362 363 362 362 361 361 360 360 359 358 356 356 358 358 359 359 360 360 361 361 361 361 360 359 359 358

ECMWFFLT1_850_thetae_072.txt.gz
Theta_e
349 349 349 348 349 349 349 350 349 348 348 347 347 346 346 346 346 346 345 345 345 343 343 343 341 338 336 336 338 339 338 336 334 333 332 333 332 332 334 338 341 341 341 340 337 337 337 338 340 340 341 341 341 342 343 343 344 344 346 347 346 345 345
349 349 350 348 349 349 349 349 349 349 348 347 347 346 346 346 346 346 345 345 344 344 343 343 343 341 339 337 337 338 340 337 334 333 333 332 332 332 332 335 338 339 340 340 338 336 335 335 337 339 341 341 341 341 342 342 344 344 344 346 346 346 344
350 350 350 349 349 349 349 349 349 349 348 348 347 347 347 346 346 346 346 345 345 344 344 344 343 343 341 339 336 336 339 339 336 333 332 331 331 331 332 333 335 337 338 339 338 336 335 334 334 335 338 340 341 342 341 341 342 343 343 343 345 346 345
349 350 350 350 350 349 349 349 349 349 349 348 348 348 347 347 347 346 346 345 345 345 345 344 344 343 343 342 339 337 337 338 337 334 332 331 330 330 331 332 333 334 336 337 337 335 335 335 333 333 334 337 340 341 341 341 341 341 342 342 342 343 345
347 350 350 350 350 349 349 349 349 349 349 348 348 348 348 347 347 346 346 346 346 346 346 345 345 344 344 343 342 340 337 336 335 334 333 332 331 330 330 331 331 331 332 334 335 335 335 334 334 333 332 332 335 338 340 341 341 341 341 340 340 340 342
345 349 351 351 350 350 350 349 349 349 348 349 348 348 347 347 346 346 346 346 345 346 346 346 345 345 344 344 343 343 340 337 336 335 333 332 331 330 329 329 330 329 329 331 333 334 334 333 333 333 331 329 330 332 334 337 338 340 340 340 340 340 340
341 346 350 351 350 350 350 349 349 349 349 348 348 348 347 346 347 346 346 346 346 346 346 346 346 345 344 344 344 344 343 341 338 336 334 333 332 331 329 329 329 328 329 330 332 333 333 332 332 331 331 329 327 327 327 329 331 334 336 338 339 340 339
337 341 346 350 350 350 350 350 350 349 348 348 347 347 346 346 346 346 346 346 346 346 346 346 346 346 345 345 345 345 344 343 342 339 337 334 332 331 330 330 329 329 329 329 330 332 332 331 331 330 330 329 327 326 326 326 326 328 330 333 335 337 339
335 338 341 345 348 350 350 350 350 350 349 348 348 347 347 347 346 345 346 346 346 346 346 346 347 346 346 345 345 345 345 345 344 343 341 338 334 331 330 330 330 329 329 329 329 330 331 331 331 331 330 329 328 327 326 325 326 326 327 329 331 334 336
331 335 339 342 344 347 349 349 350 349 349 349 348 348 347 347 347 346 346 346 346 346 346 346 346 346 346 345 345 346 345 345 345 344 344 342 339 334 330 330 330 330 330 329 329 329 329 330 331 332 332 331 330 328 327 326 326 326 326 327 329 330 332
327 330 336 339 341 343 346 348 349 349 349 348 347 348 347 347 347 347 346 345 346 346 346 346 346 346 346 346 346 345 346 346 345 345 345 345 343 339 335 332 330 330 330 329 329 329 328 329 331 332 332 331 331 330 328 327 326 326 325 325 327 328 330
325 326 330 334 337 340 342 343 345 347 348 348 347 347 347 347 347 347 347 346 346 346 346 346 346 346 346 346 346 346 346 346 346 346 346 346 346 344 342 338 335 332 331 329 329 329 328 329 329 330 331 331 331 331 330 328 327 326 326 325 325 326 328
324 324 325 327 332 336 338 340 342 344 346 346 348 348 347 347 347 348 348 347 346 346 345 346 345 346 346 345 346 346 346 346 346 346 346 346 347 346 345 344 342 340 336 333 331 329 328 328 328 329 330 330 330 330 330 329 328 327 327 325 325 324 325
324 324 323 323 325 328 331 334 337 341 344 345 347 348 348 348 347 348 348 347 347 346 346 346 345 345 346 346 346 346 346 346 346 346 347 347 347 347 347 347 347 346 344 341 337 333 330 329 328 328 328 328 329 329 329 329 328 328 327 326 325 325 324
323 324 323 323 323 323 324 325 328 333 338 343 346 346 347 349 349 349 348 348 348 347 347 347 346 346 346 346 346 346 347 347 347 347 347 347 348 348 348 349 348 348 348 346 344 340 335 332 330 328 328 328 328 327 328 328 327 327 327 326 325 325 325
322 322 322 322 322 322 322 322 322 324 329 335 342 345 346 347 348 349 350 349 349 348 348 348 347 347 347 347 347 347 347 348 347 347 348 348 348 349 349 350 350 349 349 349 348 347 344 341 337 334 331 330 329 328 328 327 327 327 326 326 326 325 326
322 321 321 321 322 322 322 321 321 320 322 326 331 337 343 346 347 348 350 350 350 349 349 349 349 348 349 348 348 348 348 348 348 348 349 349 349 350 349 350 350 350 351 350 350 350 349 348 346 343 339 336 334 332 331 329 328 328 327 326 326 326 326
321 320 320 320 321 321 322 321 321 320 320 322 324 327 332 338 343 347 348 350 352 351 350 350 350 349 349 350 349 349 350 350 349 349 350 350 350 350 351 351 351 351 351 351 351 352 351 351 350 349 347 346 343 340 337 334 331 330 330 329 328 328 328
320 320 319 320 320 320 321 321 321 320 320 321 324 325 325 327 334 340 344 347 350 352 351 350 351 351 351 350 350 350 351 350 350 349 350 351 351 351 351 351 352 352 352 352 352 352 352 352 352 352 351 350 349 347 344 339 335 333 332 332 331 331 331
320 319 319 319 319 319 320 320 321 321 320 320 322 325 325 324 327 333 337 342 347 351 352 352 352 352 352 352 351 352 352 351 350 349 350 352 352 351 352 352 352 352 353 353 353 353 353 353 353 353 353 352 352 351 349 344 338 336 335 334 333 334 333
319 319 319 319 319 319 319 320 320 321 321 321 322 323 324 324 324 326 330 336 344 349 349 351 353 353 353 353 352 352 352 352 352 352 352 352 352 352 352 352 352 352 352 353 354 353 353 353 353 354 354 354 354 353 352 348 342 338 336 335 335 335 335
318 319 319 319 319 319 319 319 320 320 321 321 321 322 323 324 323 323 324 330 339 345 346 348 351 352 352 353 353 353 353 352 353 352 352 353 353 353 353 352 353 353 352 353 353 354 354 354 354 354 354 354 354 355 355 351 346 342 338 335 336 336 336
317 318 318 318 318 319 319 319 319 320 320 321 321 322 324 324 324 325 326 327 331 339 344 346 348 349 351 352 352 352 352 353 353 353 353 354 354 354 353 353 353 353 353 353 353 354 355 355 355 354 353 353 354 355 357 354 349 347 342 338 337 337 338
315 315 317 318 318 318 319 319 319 320 320 321 322 323 324 325 326 327 329 328 327 330 338 343 346 348 349 350 351 351 351 352 352 352 353 354 354 354 354 354 354 354 354 354 353 354 355 356 356 355 354 354 353 354 357 357 354 352 348 343 341 340 340
312 312 313 315 317 318 318 319 319 319 320 321 322 323 324 324 325 326 328 329 329 328 330 335 340 345 347 349 351 352 352 352 352 352 353 354 354 355 355 355 355 355 355 355 355 355 356 357 357 356 356 356 355 353 355 357 358 357 352 347 344 343 342
313 312 311 312 313 315 317 318 319 319 320 320 321 322 323 323 323 324 326 327 326 326 328 330 333 339 343 346 349 352 354 354 354 353 353 353 353 354 356 356 356 357 357 357 356 357 357 358 357 357 357 356 356 355 354 355 359 360 357 352 347 344 344
313 312 311 311 311 311 313 316 318 319 319 320 321 322 324 324 323 323 325 325 322 322 325 328 329 332 337 341 345 348 351 354 356 356 355 354 354 353 354 355 356 356 356 356 357 357 358 358 358 357 357 356 356 356 354 354 357 360 361 357 352 347 346
312 312 312 312 311 311 311 313 316 318 319 319 320 321 323 324 324 325 326 327 325 322 323 326 327 328 331 335 338 341 346 350 355 357 356 355 356 356 355 355 354 354 355 355 356 357 357 357 357 357 357 356 355 355 354 354 355 358 361 361 357 353 349
310 311 311 311 311 311 311 311 313 315 317 318 319 320 321 323 324 325 326 328 327 325 324 325 326 326 328 331 333 336 339 343 348 354 355 356 358 358 357 357 356 355 355 355 355 356 355 356 356 356 357 356 355 355 355 354 355 357 360 361 360 358 354
308 309 310 310 311 311 310 310 311 312 315 317 318 319 321 321 323 324 326 327 328 328 326 324 323 324 326 328 330 333 335 337 344 351 354 355 358 359 359 358 357 356 356 356 355 355 355 355 356 356 356 356 355 355 355 355 355 357 360 361 361 360 358
308 308 308 309 310 310 309 310 310 310 312 315 317 318 320 320 321 323 324 326 328 329 328 326 322 322 325 326 328 331 333 336 344 351 353 353 355 358 359 360 359 358 357 356 356 356 355 355 355 355 356 356 355 355 355 355 356 358 360 361 362 361 360
308 308 308 308 308 309 309 309 310 310 311 312 316 318 319 320 320 321 322 325 327 329 329 328 325 323 324 326 328 331 332 335 339 346 350 351 354 356 358 359 360 359 358 357 356 356 356 355 356 356 356 355 356 355 356 356 357 358 360 361 361 361 361
308 308 308 308 308 308 308 308 309 310 310 311 313 316 318 319 320 321 321 323 325 328 330 330 328 325 325 326 328 329 331 333 334 337 341 345 351 355 357 357 358 359 359 357 354 353 356 356 356 356 356 356 356 356 356 357 358 359 360 360 360 361 361
308 307 308 308 308 308 308 308 309 309 310 310 311 314 317 318 319 320 321 321 323 326 329 330 330 327 325 327 328 329 331 333 334 334 335 337 342 350 355 357 357 357 356 354 352 351 353 356 357 356 356 356 355 356 356 357 357 358 359 359 360 360 360
307 308 308 308 308 308 308 308 309 309 309 310 310 312 316 318 318 319 321 321 321 324 328 331 331 330 327 327 328 329 331 334 335 335 336 336 336 341 350 356 357 354 349 346 348 351 353 356 357 357 355 355 355 355 355 355 354 355 357 358 358 359 359
307 307 308 308 308 308 308 308 308 309 309 310 310 312 316 317 318 319 320 321 320 321 325 330 332 331 329 328 328 328 331 336 337 336 337 339 338 337 343 352 357 358 354 350 350 354 356 357 357 357 356 355 355 354 354 353 352 353 354 356 357 358 358
306 306 307 307 307 307 307 307 308 309 310 310 311 313 316 317 317 319 320 321 320 320 323 328 331 332 331 329 329 330 331 335 337 337 337 339 340 340 341 347 355 360 361 360 358 359 360 361 360 359 358 357 357 356 355 355 355 355 355 355 357 358 358
305 306 307 307 307 307 308 308 308 309 311 312 312 313 315 316 317 318 320 321 320 319 321 326 330 332 332 331 330 332 332 334 337 339 340 340 339 340 342 346 351 356 360 362 363 362 362 361 361 360 360 359 359 358 357 357 357 356 356 356 357 358 359

ECMWFFLT1_850_thetae_075.txt.gz
Theta_e
352 352 351 351 351 351 351 351 349 349 349 348 348 348 347 347 347 347 347 347 347 346 346 345 345 343 340 337 335 335 334 334 334 335 334 334 333 333 332 334 340 344 344 343 343 342 340 340 340 341 341 342 341 342 343 344 345 344 345 346 347 347 347
350 351 351 351 351 351 351 350 350 349 349 349 349 348 348 348 347 347 347 347 347 347 346 346 345 343 342 339 336 335 334 334 334 334 335 334 333 333 333 333 335 340 343 343 342 341 340 339 339 339 340 341 341 342 342 342 344 344 344 345 346 347 347
345 349 351 351 351 351 351 350 350 349 349 349 349 349 348 348 348 348 348 348 348 347 346 346 345 344 343 342 340 337 334 334 334 334 334 334 333 333 333 333 333 336 340 343 342 341 340 338 337 337 338 340 341 342 342 342 342 343 343 344 345 346 347
342 346 349 351 351 351 351 350 350 349 349 349 349 348 348 349 348 348 348 349 348 348 347 346 345 344 343 343 342 340 337 335 334 334 333 333 333 333 333 333 333 333 336 340 341 341 340 338 337 336 336 337 339 340 342 342 341 342 342 343 343 344 346
339 343 348 350 351 350 350 350 350 350 349 348 349 349 348 349 348 348 348 349 349 348 348 347 346 345 344 343 343 343 341 338 335 334 334 333 332 333 333 333 333 332 333 336 339 340 339 338 337 336 336 335 336 337 339 341 342 341 341 341 341 341 342
337 340 345 349 351 351 350 350 350 350 349 349 349 349 348 348 348 348 348 348 348 348 348 347 346 346 345 345 344 343 344 342 339 336 334 334 333 333 332 332 332 332 332 333 335 338 339 337 336 336 337 336 336 335 336 338 340 341 342 341 340 340 340
335 336 340 345 349 350 350 350 350 350 349 349 349 349 348 347 347 347 347 347 348 348 348 347 347 346 345 345 344 344 344 344 343 340 337 335 334 333 332 332 331 331 331 332 333 335 336 336 335 335 335 335 335 335 334 334 336 337 338 339 339 339 340
333 334 336 340 345 348 349 350 349 350 349 349 349 349 349 348 347 347 346 346 346 346 347 347 347 347 346 345 345 345 345 344 344 343 341 339 336 333 332 332 332 331 331 331 331 331 332 333 333 332 333 333 334 333 333 332 331 332 332 332 333 334 336
330 332 333 336 340 344 347 348 349 349 349 348 348 348 348 348 348 347 346 346 345 345 346 346 347 346 346 346 346 346 346 345 345 344 344 342 340 337 334 332 332 331 330 330 330 330 329 330 331 330 331 331 331 332 331 331 330 330 330 329 329 329 330
327 328 331 334 337 340 343 345 347 347 347 348 348 347 347 348 348 348 347 346 346 345 345 345 346 346 346 346 346 346 346 346 345 345 345 344 343 342 338 335 332 331 331 330 330 329 328 328 330 330 330 329 329 329 329 329 329 329 329 328 328 328 328
324 324 326 329 332 337 340 342 344 345 345 346 346 347 346 346 347 347 347 347 346 346 345 345 346 346 346 346 346 346 346 346 346 345 345 345 345 345 343 341 338 334 331 331 330 330 329 328 329 329 329 328 328 327 328 328 329 329 329 329 328 327 327
323 323 323 324 326 330 334 337 340 342 344 345 345 346 346 345 346 346 346 347 346 346 345 345 345 346 346 346 346 346 346 346 346 346 346 345 345 346 345 344 343 341 336 333 331 330 330 329 329 328 328 328 328 328 327 328 328 329 329 329 329 328 328
323 322 322 322 322 324 327 331 334 338 341 343 344 345 345 345 345 345 345 345 345 345 345 345 345 345 345 346 346 346 346 346 346 346 346 346 346 346 346 346 345 345 343 339 334 331 330 330 330 329 329 328 328 327 327 327 327 327 328 328 328 328 328
322 322 322 321 322 322 322 324 327 330 334 338 342 344 344 344 345 345 344 344 344 345 345 344 344 345 345 345 345 346 346 346 346 346 346 346 347 346 346 346 346 346 346 345 342 338 334 332 330 329 329 329 328 328 327 327 327 327 327 326 327 327 326
322 322 321 321 321 321 321 321 322 324 326 329 334 339 343 344 345 345 345 345 345 345 345 345 344 345 345 345 345 346 346 346 346 346 346 346 346 346 346 346 346 346 346 346 346 345 342 340 337 334 332 330 329 328 327 327 327 326 326 326 326 326 326
323 322 321 321 320 320 321 321 321 323 324 322 323 328 334 339 343 346 346 346 346 345 345 345 345 344 345 345 346 346 346 346 346 346 346 346 346 347 347 346 346 346 347 347 347 347 347 346 345 342 339 336 332 330 328 327 327 326 326 326 326 326 326
323 323 322 321 320 319 320 321 321 323 324 323 320 320 323 328 334 341 345 347 347 347 346 345 345 345 344 345 346 346 346 346 346 346 347 347 346 347 347 347 347 347 347 347 347 348 348 348 348 347 345 342 338 334 331 328 327 327 327 327 327 327 326
322 322 322 322 321 320 319 320 320 321 323 325 323 320 320 321 325 332 339 344 347 348 348 347 346 345 345 345 345 346 346 346 346 346 347 347 347 347 347 347 347 347 347 347 347 348 348 349 349 350 349 347 345 341 336 331 328 328 328 328 328 327 327
320 320 321 322 321 320 319 319 319 320 321 324 324 323 321 320 321 324 330 339 345 348 349 349 348 346 346 346 346 346 346 346 347 347 347 347 347 347 347 347 347 347 348 348 348 348 348 349 350 350 350 350 350 348 344 339 333 330 330 330 329 329 329
318 318 318 319 320 320 319 319 319 319 320 321 323 324 324 323 323 323 325 331 340 345 348 349 349 348 348 347 346 347 346 346 347 347 347 348 348 348 348 347 347 348 348 349 349 349 349 350 350 350 351 351 351 351 350 347 342 337 335 333 332 332 332
316 315 315 315 315 316 317 318 319 319 319 320 321 323 324 324 325 327 325 326 331 338 344 347 348 348 349 349 348 348 347 347 347 347 347 347 348 348 348 348 348 349 349 348 349 350 351 351 350 350 351 351 352 351 352 352 350 346 343 341 339 339 340
315 314 313 313 312 312 313 314 317 318 319 319 320 322 324 323 324 327 328 328 328 330 337 343 346 348 349 350 350 350 349 349 349 348 348 348 349 349 349 349 349 350 350 350 350 350 351 351 351 351 352 352 352 352 352 353 353 352 350 348 346 347 348
314 314 313 313 312 312 311 311 313 316 319 319 319 321 322 323 322 323 325 328 328 327 329 336 342 346 348 349 350 350 350 350 351 350 350 350 351 351 350 350 350 350 351 351 351 351 351 352 352 352 352 352 352 353 353 353 353 353 353 352 352 352 352
313 313 313 312 312 312 312 311 311 312 315 318 319 320 321 322 322 322 323 325 325 323 324 328 334 340 345 348 349 349 350 351 351 352 352 352 352 352 352 352 352 352 352 352 352 352 352 353 352 353 353 352 353 354 354 354 354 353 353 353 354 355 354
312 312 311 311 311 311 312 311 311 310 311 314 317 319 320 321 322 323 324 324 324 322 322 323 326 331 337 341 345 347 349 350 350 351 351 352 352 352 353 353 353 353 353 353 354 353 353 353 353 353 353 353 353 354 355 355 355 355 354 353 353 354 355
311 311 311 311 310 311 311 311 311 311 310 311 313 316 319 320 322 323 324 325 325 324 322 320 322 326 329 333 337 341 344 347 349 350 350 350 351 352 353 353 353 354 354 354 354 355 355 354 354 354 354 354 354 355 356 356 356 356 356 355 354 354 355
309 310 311 310 310 310 311 311 311 311 311 310 311 312 316 318 320 322 323 324 324 325 324 320 320 322 324 327 331 333 335 337 340 342 345 348 349 351 353 354 353 354 354 354 355 355 355 356 355 355 355 355 355 356 356 356 356 355 356 355 355 355 354
308 309 310 311 310 310 310 310 311 311 311 311 310 310 312 315 318 320 322 323 323 324 324 323 321 320 321 322 325 327 330 332 332 333 336 340 344 348 352 354 354 354 353 354 355 355 355 356 356 356 356 356 356 356 356 356 356 355 355 355 355 355 355
307 308 309 310 310 310 309 310 310 311 311 311 311 310 310 311 314 317 320 322 322 322 324 324 323 321 321 320 320 322 326 330 333 334 332 332 337 346 352 353 354 355 355 354 355 355 355 356 357 356 357 357 357 357 356 356 355 354 354 354 354 355 355
307 307 307 308 309 309 309 309 310 310 310 311 311 311 311 310 311 313 317 320 322 322 323 324 324 323 322 321 319 320 323 327 331 334 334 331 333 342 351 354 355 356 355 354 353 353 354 355 356 356 356 357 358 358 357 357 355 353 353 354 354 354 354
307 307 307 307 308 308 308 308 309 310 310 310 310 311 311 310 310 311 313 317 320 321 322 323 324 323 323 322 320 320 322 324 326 332 338 338 332 332 339 348 354 356 355 355 354 353 352 353 354 355 356 357 358 358 357 356 355 353 352 353 353 353 354
307 307 307 307 307 308 307 307 308 309 310 310 309 310 310 311 311 310 310 313 317 320 321 321 323 324 323 323 322 322 322 322 321 326 334 337 334 330 329 336 348 355 355 354 356 356 354 354 354 355 356 357 358 358 357 355 353 352 352 352 352 353 354
307 307 307 307 307 307 307 307 308 308 309 310 309 309 309 310 310 311 310 310 313 318 320 320 321 323 324 324 324 322 321 321 319 320 325 330 333 333 331 335 347 355 356 354 356 357 358 357 357 356 356 357 358 358 358 357 353 351 352 352 352 353 354
306 306 307 307 307 307 307 308 308 308 308 309 309 309 308 309 310 310 310 309 310 314 318 319 320 321 323 325 326 323 321 321 320 318 321 324 328 332 333 336 344 352 356 356 357 359 359 359 358 358 358 357 357 358 358 357 353 352 351 351 352 353 354
306 306 306 306 307 307 307 307 308 308 308 308 309 309 308 309 309 309 310 310 310 312 317 319 319 319 321 323 326 327 325 323 321 318 319 321 323 327 331 333 337 345 350 353 355 356 358 359 359 359 359 359 358 359 359 356 352 352 351 350 353 354 355
305 305 306 306 306 307 308 307 308 308 308 308 308 308 308 308 308 309 309 310 310 312 315 317 319 319 320 321 324 328 328 326 323 320 318 319 320 322 326 329 332 337 341 343 347 352 355 357 357 357 358 359 359 359 359 357 354 355 354 353 354 354 355
306 306 306 306 307 307 308 308 308 309 308 308 308 308 308 308 308 309 309 310 310 312 314 317 318 319 319 319 322 326 329 330 327 323 319 319 320 320 322 323 325 330 335 337 342 348 352 354 354 355 356 357 357 357 357 357 356 357 357 356 356 355 355
306 307 307 307 307 308 308 309 309 309 309 308 308 308 308 308 308 309 309 309 310 311 314 316 318 319 319 319 320 324 329 331 331 329 324 320 319 320 320 321 323 326 330 335 341 346 349 351 351 352 354 354 354 354 356 357 358 358 358 358 357 356 356

ECMWFFLT1_850_thetae_078.txt.gz
Theta_e
350 353 354 353 354 354 354 354 353 353 353 353 354 354 353 353 353 353 350 347 347 346 345 346 345 345 345 341 337 335 336 336 336 336 335 335 335 336 338 339 342 346 351 352 351 350 346 344 345 345 344 344 343 344 345 347 347 346 345 345 345 345 345
350 352 354 355 355 356 355 355 354 353 353 353 354 354 353 353 353 352 350 347 348 347 346 346 346 345 345 344 340 335 334 335 336 336 335 334 334 333 334 336 340 342 345 350 352 350 345 343 342 342 343 343 343 344 344 345 347 346 346 345 345 345 343
348 351 353 354 355 356 355 355 354 354 353 353 354 354 353 353 353 351 349 348 348 348 347 346 346 346 346 345 344 339 335 333 334 334 334 334 333 333 332 332 334 338 341 345 349 349 348 345 342 341 341 343 344 344 343 344 344 345 346 346 346 346 344
346 350 352 352 354 355 356 355 355 354 354 353 354 354 354 353 353 351 349 349 349 348 348 347 347 346 346 346 345 342 338 335 333 333 334 335 334 334 335 334 332 335 339 341 345 348 349 347 343 341 340 341 343 343 343 344 344 344 345 345 346 346 344
345 347 350 351 352 353 355 355 354 354 354 353 353 354 354 353 353 353 351 350 350 350 349 347 347 346 346 346 345 344 343 340 336 334 333 334 335 334 334 335 333 334 337 339 342 344 344 345 344 343 341 340 340 342 342 342 343 343 344 344 345 346 348
342 344 345 347 349 351 354 354 354 354 354 353 353 353 353 353 354 354 352 352 352 352 352 350 348 348 347 346 346 344 344 343 341 337 334 333 334 333 333 333 334 335 337 338 339 341 341 341 344 343 342 342 343 344 344 341 342 344 343 344 344 344 349
337 340 342 343 344 347 351 352 353 353 354 352 352 353 353 353 353 353 353 353 352 353 353 353 353 352 350 346 346 346 344 344 343 341 338 335 333 333 333 333 333 335 337 337 336 337 338 339 341 340 339 343 346 347 345 342 340 343 343 343 344 343 345
333 336 338 339 340 343 346 349 351 352 353 352 351 352 352 352 352 352 352 352 352 351 352 352 354 354 353 350 347 346 345 344 344 344 342 339 337 334 334 333 332 332 334 335 333 332 334 336 340 340 337 341 344 343 341 340 338 340 342 341 342 342 344
330 331 333 335 337 340 342 345 348 350 351 352 352 351 351 351 351 351 351 352 351 350 349 349 351 352 353 352 350 347 347 345 344 344 344 342 341 340 338 336 333 331 331 333 333 332 332 334 337 338 336 338 340 337 336 337 336 336 336 335 334 334 339
328 328 330 333 336 340 341 344 346 347 348 349 350 350 350 351 351 351 351 351 350 350 349 349 351 351 351 352 351 349 349 347 345 345 344 344 344 344 344 343 339 333 330 331 333 333 331 331 333 335 334 334 335 334 333 333 332 332 331 330 329 328 330
326 326 326 329 333 337 340 342 343 343 344 345 347 348 349 350 351 351 350 350 349 350 350 350 350 350 351 350 352 353 352 349 348 347 346 345 346 347 346 347 346 340 333 329 333 334 332 330 330 331 331 331 331 331 331 331 330 331 330 328 328 327 328
325 325 324 325 328 331 334 337 339 340 341 342 343 345 347 349 350 350 350 349 349 349 349 349 349 349 350 351 352 353 353 352 351 350 348 347 347 348 348 347 348 346 341 333 331 332 332 330 329 329 328 328 330 330 330 329 329 328 328 329 330 328 327
324 325 324 324 324 325 328 330 333 336 338 340 342 343 345 347 348 348 349 349 348 348 348 348 348 348 349 350 351 352 352 354 353 352 351 349 348 348 349 349 348 349 347 343 338 335 334 332 330 329 329 328 328 329 329 329 328 327 327 327 330 330 327
324 324 324 324 324 323 324 325 326 328 331 334 338 341 343 344 345 346 347 348 348 349 349 348 348 349 349 349 350 350 350 351 352 353 351 350 348 347 348 349 349 348 349 348 345 342 340 338 333 330 328 329 328 328 329 329 328 328 328 327 328 329 327
325 324 325 324 324 323 323 323 323 324 325 326 330 334 338 342 344 345 345 346 347 348 348 348 349 349 349 350 351 350 348 347 349 351 350 348 347 347 347 347 348 348 348 347 347 345 345 344 342 336 331 329 329 329 329 329 328 328 328 328 328 327 327
326 325 325 325 324 324 323 322 322 322 324 324 324 326 330 334 338 342 344 345 345 346 346 346 347 349 349 350 351 351 350 348 346 346 348 347 346 346 346 346 346 347 346 346 345 345 346 345 346 344 340 334 331 329 328 329 329 329 328 328 327 327 327
325 325 325 325 324 324 324 323 322 321 323 323 323 323 325 326 329 334 340 344 346 345 345 345 345 347 348 350 351 351 352 352 349 346 345 346 345 345 346 346 346 345 345 346 345 345 346 345 345 346 346 344 340 336 333 331 329 328 327 327 327 327 327
322 322 323 323 323 323 323 323 322 321 321 322 323 324 324 326 327 328 334 341 345 347 346 345 345 345 346 347 349 350 351 352 351 348 347 346 345 345 346 346 346 346 346 346 345 346 346 346 345 346 347 347 347 346 344 340 334 329 326 326 326 326 326
320 320 320 320 320 320 321 321 321 321 321 321 322 324 325 326 327 328 330 334 340 344 346 346 347 346 346 345 347 348 349 351 352 351 351 348 345 346 346 345 346 346 346 346 346 346 346 346 346 346 347 347 347 348 349 348 344 337 331 328 327 327 327
319 320 319 319 318 318 318 318 317 319 320 321 321 321 322 324 326 328 329 330 333 338 343 345 346 347 347 347 345 345 347 350 353 353 354 352 350 350 349 348 347 347 346 347 348 347 347 347 347 347 347 348 347 348 349 349 349 347 341 336 331 330 330
320 319 319 319 318 318 318 317 316 316 318 320 322 322 321 322 323 325 328 329 331 334 338 341 343 346 349 349 347 346 346 348 351 353 354 354 354 355 355 353 352 351 349 349 350 351 350 349 348 348 348 348 349 349 349 350 350 351 349 344 341 339 339
319 319 318 318 318 318 318 317 316 315 315 317 320 321 321 321 321 323 324 326 328 331 335 337 338 342 346 348 349 348 348 348 350 352 353 354 354 354 355 355 355 354 352 351 352 353 353 352 352 351 350 350 350 350 351 351 351 351 351 350 348 348 348
318 317 318 318 317 317 317 316 315 315 315 315 316 316 318 319 321 321 322 323 324 327 331 333 334 336 341 345 347 349 349 348 349 350 351 352 354 354 355 355 355 355 355 354 354 354 354 354 354 354 353 353 353 351 351 351 351 352 352 352 351 352 352
316 316 316 316 316 317 316 315 314 313 314 315 315 313 313 315 318 320 321 322 323 324 327 330 330 330 334 339 341 345 347 349 349 350 349 350 352 353 354 354 354 354 354 356 356 356 355 354 355 355 355 355 354 354 352 352 352 352 352 353 353 353 352
315 315 315 315 315 316 315 314 313 313 315 315 314 312 311 312 314 317 319 321 322 324 324 325 326 327 329 332 334 338 342 344 345 347 349 350 350 351 352 352 352 352 354 354 355 355 354 354 354 354 355 355 355 355 354 353 352 352 353 353 353 353 353
314 314 314 314 315 314 314 313 314 315 316 315 314 312 312 312 312 313 314 316 319 323 324 323 323 325 326 328 331 333 335 336 337 339 343 346 348 350 351 351 351 351 352 353 354 354 353 354 354 353 353 355 356 356 355 355 354 353 352 353 353 353 354
313 313 313 313 313 312 312 314 315 315 315 315 313 312 313 312 312 312 312 312 315 320 322 322 322 322 322 324 327 330 331 332 331 332 334 335 336 340 345 348 349 350 352 353 353 353 352 353 354 354 354 354 355 356 356 356 356 355 354 353 353 354 355
313 313 313 313 312 311 311 312 313 313 314 315 314 313 313 312 312 312 312 311 312 314 317 320 321 322 321 321 322 324 327 330 330 329 329 329 330 335 342 347 349 349 352 354 354 354 353 353 356 356 355 355 356 357 357 356 356 356 356 355 354 354 355
313 313 313 313 313 312 312 312 311 311 312 314 313 313 312 312 312 312 312 312 311 311 312 315 317 320 322 322 322 321 323 326 329 329 328 329 330 334 339 343 346 347 351 354 355 355 355 354 355 356 356 356 356 357 357 357 356 356 356 356 355 355 355
312 312 312 312 312 313 312 312 311 310 310 311 312 312 311 311 311 312 312 312 312 311 311 311 312 316 319 322 323 323 322 322 323 325 327 329 331 333 334 339 344 346 350 354 356 355 355 355 355 355 356 356 356 356 356 356 357 357 357 356 355 354 355
312 312 312 312 312 312 312 312 312 311 310 310 311 311 311 311 311 311 311 312 312 311 311 311 311 311 314 318 321 323 325 324 322 320 322 326 330 332 333 337 340 340 344 350 355 355 355 355 356 356 357 357 357 357 357 357 358 358 358 358 357 356 355
312 312 312 312 312 311 311 311 312 312 311 311 311 311 312 311 311 311 311 311 311 311 311 311 311 311 311 313 316 320 323 325 324 322 321 321 323 326 328 331 333 331 333 340 349 353 356 356 356 357 357 357 357 357 357 359 359 358 358 358 359 359 358
312 312 312 312 311 310 309 310 311 312 311 310 309 310 310 310 310 310 310 310 310 310 311 311 311 311 311 311 313 316 319 323 323 322 321 321 320 323 325 327 329 332 330 329 336 343 350 354 356 356 356 357 356 356 357 359 358 357 358 358 358 360 360
311 311 311 311 311 311 310 309 308 308 308 308 308 309 309 309 309 309 309 309 309 309 310 311 310 310 311 310 310 312 315 319 322 322 322 323 322 323 324 324 328 332 330 326 328 333 339 347 354 355 356 357 357 357 356 356 355 357 357 357 357 359 361
311 310 310 311 311 311 311 310 308 306 306 306 307 308 309 309 309 309 309 309 309 309 309 311 311 311 312 311 312 313 315 317 320 322 324 324 322 320 321 321 322 326 325 321 325 329 332 340 346 349 352 356 358 357 356 355 355 356 357 356 357 359 361
309 310 310 310 310 310 310 310 310 309 308 308 308 308 309 309 309 310 310 310 311 311 311 312 313 314 314 313 315 319 320 320 319 321 323 325 324 323 323 322 320 323 324 321 321 323 325 330 333 336 344 352 354 355 355 355 357 357 356 356 357 357 359
308 309 309 309 309 310 310 310 311 311 311 311 311 311 312 311 310 310 310 311 312 313 314 313 314 315 316 316 318 319 319 318 318 318 320 323 325 327 329 327 322 319 321 322 321 320 320 322 324 327 334 342 347 348 349 351 355 357 358 358 358 358 359
308 308 308 308 309 309 310 310 310 311 311 311 312 312 312 312 311 311 312 312 314 315 315 314 314 315 316 317 317 316 316 318 319 319 319 321 323 326 330 332 331 327 322 320 319 320 320 320 321 324 328 334 340 343 342 342 345 351 355 357 358 359 359

ECMWFFLT1_850_thetae_081.txt.gz
Theta_e
351 353 355 355 354 355 354 353 354 355 355 355 354 353 354 354 354 353 357 356 348 345 346 344 344 344 342 340 337 335 337 340 341 341 342 347 349 350 350 350 351 353 354 354 353 353 352 351 353 354 350 344 345 346 345 346 346 347 346 347 350 349 350
350 351 355 355 353 354 354 354 354 354 354 355 355 355 354 354 355 355 358 357 351 347 347 345 344 345 343 342 339 336 333 337 340 340 343 346 347 348 351 351 350 352 354 356 356 355 352 350 349 350 348 345 346 346 345 347 345 348 350 347 346 346 344
352 353 355 354 354 355 354 354 355 353 353 354 355 356 355 355 355 355 357 358 354 350 348 346 345 345 345 344 342 339 335 336 338 339 342 345 345 346 349 351 351 351 353 355 356 356 354 351 348 347 347 349 350 348 345 348 347 346 349 346 345 346 342
351 354 353 353 354 355 354 354 353 352 352 353 354 355 355 355 355 356 358 358 357 353 348 347 346 345 345 346 344 343 339 335 337 340 344 347 346 347 348 349 349 349 351 353 354 355 355 353 351 348 346 346 350 351 347 347 349 346 346 346 347 348 344
350 351 350 352 353 354 354 353 352 352 352 353 354 355 355 355 355 357 358 357 355 353 349 348 350 348 346 346 346 347 343 338 337 341 347 349 348 348 348 347 347 347 349 351 351 353 353 354 354 351 346 343 346 351 349 348 349 346 344 345 348 350 350
346 347 347 350 353 353 354 353 352 352 353 354 353 353 354 355 355 356 356 355 354 354 352 351 353 352 348 346 349 350 347 342 339 340 346 349 349 349 348 348 348 347 347 349 349 351 352 352 354 353 351 347 348 351 351 350 351 350 346 344 345 350 354
342 344 344 347 350 352 353 353 353 352 354 355 353 352 353 353 353 354 355 355 355 356 356 353 354 354 351 349 352 353 350 347 344 341 344 348 348 348 349 348 347 347 347 348 348 349 351 351 351 352 353 352 350 351 352 352 353 353 352 347 343 346 351
337 340 341 343 345 347 349 351 352 353 354 354 353 354 354 353 352 353 354 355 354 354 356 355 355 357 355 354 355 354 354 353 350 345 344 348 348 347 348 349 348 347 346 348 348 348 350 350 350 351 352 352 351 350 351 352 350 351 353 351 345 345 350
334 336 338 339 341 342 343 345 348 351 353 353 353 353 354 352 352 352 352 353 353 353 354 354 355 356 358 358 358 356 356 356 354 352 349 349 348 347 347 347 348 347 346 345 346 347 348 349 350 350 350 350 351 351 352 351 348 348 352 353 348 346 350
332 333 335 337 338 339 340 342 345 347 348 350 352 352 353 352 351 351 351 352 352 352 353 353 353 355 357 359 359 358 358 357 355 354 353 351 349 347 346 345 346 347 346 345 344 345 346 347 348 350 350 350 349 350 351 350 348 348 351 351 347 344 344
331 331 332 333 334 336 339 342 343 343 344 345 347 349 352 353 352 351 350 351 352 352 352 352 352 353 356 357 358 358 358 357 356 354 354 352 349 347 346 344 344 346 346 345 344 343 344 345 345 348 351 350 348 347 346 344 343 344 348 351 349 345 344
330 330 329 330 331 333 336 339 340 341 341 342 343 346 349 351 351 351 351 351 351 351 351 352 352 352 354 355 356 357 357 358 356 355 354 353 351 349 347 345 344 344 346 346 344 343 343 345 344 343 343 342 343 344 342 338 336 336 340 346 349 347 346
331 330 328 328 329 329 331 334 336 339 339 340 342 343 345 348 350 351 352 351 351 351 351 351 351 352 352 353 354 355 356 356 356 356 355 354 352 350 348 347 345 344 344 345 345 344 342 344 346 343 336 331 333 339 340 336 333 332 331 336 344 348 347
331 331 329 329 328 328 328 329 330 334 337 339 341 343 344 345 346 349 351 351 351 351 351 351 350 351 351 353 353 354 355 356 356 356 355 355 354 352 350 349 347 345 344 344 345 345 342 342 345 346 340 332 328 331 336 336 333 331 329 329 335 343 346
330 330 329 329 328 328 328 327 327 328 332 335 338 341 343 344 345 346 347 350 351 350 350 350 350 350 351 352 352 353 354 355 355 356 356 356 355 354 353 351 349 348 346 346 346 346 345 342 343 345 346 342 334 329 333 339 339 337 334 330 329 335 342
329 328 328 328 327 327 327 328 327 326 326 329 332 335 338 341 343 344 345 347 348 348 349 350 350 351 353 353 353 352 353 354 355 355 356 356 356 356 356 355 353 351 349 348 347 347 347 345 344 344 346 347 344 339 337 341 343 342 338 332 328 330 337
327 326 326 326 325 325 325 325 326 326 326 327 327 328 331 334 338 340 342 344 345 347 347 348 350 351 351 353 353 352 353 354 355 356 355 355 356 358 357 357 355 353 352 351 350 349 350 349 348 346 345 347 347 346 344 342 341 342 340 335 329 329 333
326 325 325 324 325 325 324 323 324 325 326 327 327 326 327 328 331 335 339 341 343 345 346 346 347 347 348 350 352 353 352 352 353 354 353 353 355 357 357 358 357 355 354 354 353 353 352 352 352 350 348 347 346 346 346 344 342 342 341 338 333 328 330
325 324 324 324 324 324 324 324 323 323 324 326 327 327 327 326 327 330 335 339 341 343 345 345 346 346 346 347 349 350 351 351 351 352 352 352 353 354 355 356 356 355 355 355 355 355 354 353 353 352 351 350 348 348 347 346 345 344 343 342 338 332 328
324 324 324 323 323 324 323 323 323 322 322 323 324 326 326 326 326 326 328 333 338 340 341 342 344 345 346 346 347 348 348 348 348 349 349 350 351 353 354 355 355 355 356 356 354 355 356 355 355 354 352 350 349 349 349 348 348 347 347 347 344 339 333
323 323 323 322 323 323 323 322 322 322 322 322 321 322 323 324 326 326 326 326 332 337 339 339 340 342 345 347 347 347 346 345 345 346 347 348 350 352 353 354 354 354 355 356 354 355 356 356 356 356 355 353 350 350 350 350 350 349 349 349 349 346 342
322 322 321 322 321 322 322 321 321 321 321 322 322 320 320 320 321 325 327 325 326 330 334 336 336 337 340 344 345 346 346 347 346 346 347 349 350 351 351 352 354 353 354 355 354 354 355 355 356 357 356 356 354 352 353 352 351 350 349 349 350 349 348
321 320 320 321 320 320 321 320 320 321 321 321 322 320 320 319 318 321 325 324 323 326 328 330 331 332 335 338 341 344 346 347 348 348 348 349 349 350 351 352 353 352 352 352 352 352 353 353 355 356 356 357 356 355 355 354 353 351 350 349 349 349 350
320 320 319 319 319 320 321 319 318 319 320 321 322 320 320 320 319 320 321 321 323 327 329 328 325 325 327 329 332 337 341 343 345 347 348 349 350 349 350 351 353 353 352 352 351 352 353 352 353 355 356 356 357 357 356 356 355 353 351 350 350 350 350
319 319 319 319 319 319 319 317 316 318 320 321 321 319 319 319 319 320 319 317 319 325 329 328 324 321 322 321 321 328 334 337 341 343 344 346 348 349 350 350 350 351 352 353 353 352 352 352 353 354 355 355 357 357 357 357 357 355 353 352 351 351 351
318 318 318 318 318 318 318 317 317 319 320 320 319 318 319 320 320 319 317 315 318 322 325 324 320 318 321 321 319 321 324 330 335 338 339 341 342 344 347 349 350 351 352 353 354 354 354 353 353 355 355 355 357 358 358 358 358 357 356 354 353 352 351
317 317 317 317 317 316 316 317 318 318 318 319 319 319 319 319 320 318 315 314 318 322 322 320 316 315 317 319 320 321 320 322 325 328 333 338 339 340 343 345 347 350 352 352 352 353 355 355 355 356 356 357 358 357 357 357 357 357 358 357 354 353 352
316 316 316 316 316 316 316 317 318 318 318 318 318 319 319 319 319 317 314 313 317 320 319 317 313 312 314 315 317 320 321 321 322 322 325 330 333 336 341 342 343 345 348 351 352 352 353 354 356 357 357 358 358 357 357 357 356 355 356 357 357 356 355
317 317 317 316 316 316 316 316 317 317 317 317 317 318 318 319 320 318 314 313 314 315 315 314 312 312 313 313 314 316 317 319 322 323 323 323 324 326 331 336 339 341 342 345 348 351 353 353 354 356 357 358 358 357 357 358 356 355 355 356 357 358 357
317 317 316 316 316 316 316 316 316 316 316 316 317 317 318 319 320 320 319 318 317 315 313 312 311 312 312 312 313 313 314 315 317 320 322 323 323 322 322 325 330 335 339 342 345 347 350 352 353 355 356 356 357 358 358 358 356 356 356 356 357 357 358
316 316 316 316 316 316 316 315 316 316 315 316 317 317 318 318 318 319 320 320 319 316 313 312 312 313 312 312 312 312 312 313 314 317 320 323 324 323 322 321 323 327 331 336 340 342 346 350 353 356 356 357 357 358 358 358 357 356 355 355 356 357 358
316 316 316 316 316 316 315 314 314 315 316 316 316 316 317 318 318 318 318 318 316 316 316 317 317 315 313 312 313 313 313 313 314 316 321 325 327 325 324 325 328 329 329 330 335 340 341 342 345 349 353 356 356 356 357 356 355 354 354 355 356 357 357
316 316 316 316 316 315 315 314 314 314 313 313 312 312 314 314 315 317 317 317 317 318 318 317 315 314 315 318 319 318 316 313 312 313 316 320 324 327 330 334 339 341 341 340 341 342 342 341 341 341 344 348 351 353 354 354 353 353 354 356 357 357 357
315 315 315 315 315 315 315 315 315 314 312 310 307 307 309 310 311 311 312 313 315 318 320 319 316 314 314 317 320 321 319 316 316 316 316 317 321 329 332 332 334 338 341 343 345 345 345 346 346 345 346 348 348 347 348 349 351 353 354 355 356 356 357
314 314 314 314 314 314 314 315 315 315 314 312 310 308 308 308 309 310 313 314 315 317 319 320 320 318 317 317 320 323 323 323 323 323 323 323 326 329 328 323 320 323 327 331 336 339 340 340 339 340 344 347 345 343 344 345 347 351 354 356 356 356 356
313 313 313 313 312 313 313 313 314 314 315 315 314 313 312 310 309 311 314 316 317 316 317 319 321 321 321 321 322 323 323 324 324 325 326 327 327 328 326 322 318 317 318 320 322 325 328 329 328 329 334 335 332 332 338 341 340 342 346 349 351 354 356
312 312 312 312 312 312 312 312 313 313 314 314 314 315 315 314 313 312 313 315 316 316 316 317 319 320 320 321 321 321 322 322 323 324 326 326 325 325 325 320 315 313 314 316 319 320 322 323 324 325 327 328 325 323 325 328 329 330 333 335 338 345 352
311 311 311 311 311 311 311 311 312 312 313 313 314 314 314 315 315 315 315 314 315 315 315 315 316 317 319 320 320 320 320 322 323 323 324 325 325 326 324 321 317 316 314 314 316 320 321 322 324 325 326 327 326 323 321 322 325 328 330 331 333 338 343

ECMWFFLT1_850_thetae_084.txt.gz
Theta_e
355 355 356 356 355 357 358 355 351 351 352 351 350 350 350 350 349 351 355 355 348 339 336 336 335 335 337 338 337 337 338 339 338 340 347 349 351 353 350 346 349 353 353 351 348 348 347 347 348 345 344 345 347 347 346 346 346 347 349 348 347 345 346
353 354 356 356 357 357 355 354 352 352 352 352 351 351 351 350 351 352 355 356 351 341 337 337 336 337 337 336 336 337 337 340 339 338 342 345 347 350 348 348 350 352 354 354 353 352 350 347 347 347 345 344 345 346 346 346 346 346 347 347 346 345 347
352 352 354 356 358 357 356 355 354 353 353 352 353 353 352 351 352 353 355 358 354 345 340 340 338 338 339 337 336 336 336 339 340 338 341 342 342 346 348 349 351 351 352 354 355 354 352 348 347 347 346 343 343 345 345 346 345 345 346 345 345 345 346
354 353 354 356 357 357 358 357 354 354 353 352 353 354 352 351 351 353 355 357 356 350 345 343 341 341 342 341 339 337 333 336 338 338 341 342 340 344 350 349 349 351 352 353 355 355 354 352 348 346 345 344 343 344 344 346 346 345 346 346 346 345 345
352 353 354 355 356 357 358 356 353 353 353 353 354 353 353 351 350 352 355 358 359 356 350 346 347 347 345 343 345 342 333 334 337 336 341 347 344 344 349 349 347 350 352 353 355 355 355 353 349 344 342 343 346 347 343 343 346 346 346 348 348 345 345
350 351 353 354 355 357 358 356 354 353 353 354 354 354 353 352 351 351 354 357 359 358 357 354 353 353 351 348 350 350 340 334 336 335 340 349 348 345 347 349 347 348 350 352 353 354 356 355 351 347 342 340 345 349 345 342 344 345 345 347 348 345 345
347 348 350 352 353 355 358 358 357 355 353 353 353 353 353 352 352 351 353 355 357 358 359 358 355 354 355 353 353 354 348 338 336 335 340 348 350 348 347 347 347 346 347 350 351 352 354 354 353 351 347 343 346 350 350 346 344 344 344 345 346 346 347
344 346 347 348 349 350 354 357 357 355 353 352 352 353 354 353 352 351 353 356 356 356 357 358 356 354 355 355 354 354 352 346 339 334 338 346 349 349 349 348 348 346 346 348 349 350 351 350 352 353 351 350 350 351 351 350 346 346 346 344 344 345 346
341 343 344 344 345 345 348 353 355 355 353 352 352 352 353 353 353 353 354 356 356 355 354 356 357 354 353 354 354 354 354 354 349 340 340 346 348 349 349 349 348 347 346 347 347 348 349 348 349 351 352 353 353 351 351 351 349 347 349 348 344 342 345
339 339 340 341 341 341 344 349 353 354 353 353 353 353 352 352 353 354 354 354 354 354 354 354 356 355 354 354 353 352 352 354 354 350 348 349 348 348 349 349 349 348 347 347 347 347 348 348 348 348 348 350 352 351 350 351 350 346 347 350 348 343 344
336 337 337 338 339 340 341 345 348 349 351 352 352 353 354 352 352 353 353 353 354 354 355 355 355 356 355 351 348 348 350 351 353 354 354 352 349 347 348 348 349 349 348 347 347 347 347 347 348 349 347 346 347 348 346 349 349 344 343 349 349 344 343
334 335 335 336 338 339 339 340 342 343 344 346 347 350 352 352 353 353 352 352 353 353 353 353 353 354 354 352 349 345 347 350 350 351 352 351 349 347 347 347 346 348 348 347 346 346 346 347 347 349 349 346 343 343 342 343 346 342 340 346 351 347 342
333 334 334 334 336 336 337 337 339 339 339 340 342 344 346 347 349 352 353 352 352 352 353 352 352 351 351 352 353 351 350 351 351 350 350 350 349 346 345 345 345 345 347 347 347 345 345 347 347 347 347 346 343 342 341 340 342 342 338 341 350 352 347
333 332 333 333 334 334 335 335 336 337 338 340 341 342 344 346 347 348 350 351 351 352 353 353 353 353 351 349 351 353 353 353 353 351 349 349 349 347 346 345 344 344 344 345 347 346 344 344 346 346 346 346 343 341 341 340 339 340 338 336 342 350 351
333 331 330 331 331 333 334 333 333 334 335 338 341 343 346 348 347 345 346 350 351 351 352 353 353 354 353 352 351 351 351 352 353 352 350 349 348 348 347 346 345 345 344 344 345 346 345 343 344 346 346 347 346 343 344 345 342 338 335 333 333 339 347
332 331 329 328 329 330 332 332 333 332 332 333 335 339 342 344 344 342 344 347 350 350 351 351 351 352 352 353 353 353 352 351 352 352 352 350 349 350 350 349 347 346 345 345 345 344 345 344 342 344 345 347 348 346 346 348 348 342 335 332 330 330 334
329 329 329 328 327 327 328 330 330 331 331 331 330 331 334 337 339 340 343 345 347 348 348 348 350 350 350 352 353 354 353 352 352 353 352 351 350 351 352 352 351 349 347 347 347 345 345 345 344 343 343 346 348 349 348 348 348 347 341 335 332 329 328
328 328 328 327 327 327 327 327 327 327 329 330 329 329 330 331 333 337 341 343 344 345 346 346 347 348 349 350 351 352 352 352 353 353 353 353 352 352 353 353 352 352 350 349 348 346 346 346 346 345 343 344 345 348 350 350 348 346 344 340 336 334 331
327 326 327 326 326 326 326 326 326 325 325 325 326 328 329 329 329 331 336 340 343 343 343 344 345 346 347 348 349 349 350 351 352 353 353 353 353 352 353 354 354 353 351 350 350 348 347 347 348 348 346 345 345 346 347 349 349 346 345 343 340 338 336
326 326 326 325 325 325 325 325 325 325 325 323 323 323 325 327 330 330 332 336 340 341 341 341 342 344 345 346 346 346 347 349 350 350 351 352 352 352 353 354 355 354 352 351 350 351 351 350 349 349 349 348 346 346 346 347 348 347 345 344 342 341 340
325 325 324 325 325 324 324 324 324 324 325 324 323 322 322 323 327 330 330 332 335 336 335 333 333 339 344 346 346 346 345 347 347 347 348 350 351 351 351 352 352 352 352 350 349 350 351 352 352 351 352 352 351 350 349 347 348 348 347 346 345 344 343
324 323 323 323 324 324 323 322 323 324 324 324 323 323 323 322 323 326 326 328 332 334 333 328 326 331 337 341 345 346 345 345 345 345 346 347 348 348 348 349 350 350 351 351 350 351 350 350 351 350 350 352 353 354 353 352 350 349 348 348 347 347 346
323 322 322 322 322 323 322 321 322 323 323 324 323 322 322 322 323 323 321 323 328 332 333 331 326 325 326 329 335 341 343 344 344 345 346 346 346 346 347 349 350 349 350 351 352 352 352 351 350 349 349 350 352 354 356 356 354 353 350 349 349 349 349
322 321 322 321 321 323 321 319 320 322 322 323 323 322 322 322 323 323 321 320 324 327 329 329 324 321 320 321 324 328 332 336 340 342 344 345 346 347 348 349 351 350 350 351 352 353 353 352 351 350 350 352 353 354 356 357 357 356 355 353 351 350 350
321 321 320 320 321 321 319 318 320 321 322 322 321 321 322 322 323 324 320 317 322 325 326 325 320 315 316 317 318 320 321 323 327 330 334 339 343 347 349 349 349 350 350 350 351 352 352 353 352 352 353 354 355 355 356 357 357 357 356 356 355 354 352
320 319 319 320 319 318 318 319 320 320 320 321 320 320 322 322 323 325 320 317 321 325 325 324 319 314 314 314 315 316 317 319 321 322 324 329 335 340 346 349 349 349 349 349 350 350 351 353 353 353 353 355 355 355 355 355 355 355 356 356 356 355 355
319 319 319 319 317 317 318 319 320 320 320 320 319 320 321 321 322 323 320 318 321 324 325 323 319 314 313 314 313 314 315 317 320 321 323 326 328 332 339 344 346 346 347 348 349 350 351 353 354 354 354 354 354 354 355 354 354 355 354 355 356 356 356
319 319 319 318 317 318 318 319 319 319 319 319 318 319 320 320 321 320 318 318 321 322 322 321 317 314 314 313 313 313 313 314 316 318 320 322 324 328 333 337 340 340 341 343 346 347 347 348 349 350 352 353 353 353 354 354 354 354 352 352 354 355 355
319 318 318 318 318 319 318 318 319 318 317 318 319 319 320 319 319 318 318 319 322 321 319 317 314 313 313 313 313 314 313 313 313 314 316 318 320 323 326 329 331 332 333 337 339 339 338 340 343 345 347 349 351 352 353 353 353 353 352 351 352 353 354
319 318 317 318 318 319 318 318 318 318 317 318 319 319 319 319 320 320 320 321 321 319 316 313 312 313 314 314 313 313 312 312 313 313 314 315 316 319 321 323 324 325 326 330 333 334 336 338 339 341 343 345 347 349 351 352 352 351 351 352 353 352 353
318 318 317 318 319 317 316 316 318 318 318 319 319 319 319 319 319 320 321 320 318 315 316 317 318 318 317 314 312 312 312 313 314 315 315 315 317 320 322 321 321 322 323 324 326 329 331 332 335 339 342 344 345 346 347 349 351 351 353 354 354 354 354
319 318 318 318 318 316 314 316 318 318 318 319 317 316 317 317 318 319 320 319 318 317 319 322 322 320 317 315 313 314 314 313 313 313 313 313 315 317 318 319 320 322 325 328 329 331 333 335 339 343 346 347 347 345 345 348 350 351 353 353 353 354 354
319 318 318 317 317 316 316 317 317 317 318 317 314 312 312 314 315 316 316 316 318 320 322 322 322 322 321 318 314 313 314 315 314 314 313 313 314 315 317 320 322 327 333 338 339 341 343 344 345 347 348 349 348 346 346 348 349 351 351 351 351 352 352
318 317 317 317 316 316 316 316 316 316 317 316 314 312 311 310 312 313 315 316 318 321 321 320 320 322 322 320 317 317 319 321 321 321 320 320 320 322 323 323 324 328 334 337 337 338 337 337 337 339 341 342 342 343 346 349 350 351 352 351 350 350 351
317 316 316 316 316 315 315 315 315 315 315 315 315 315 314 313 313 314 316 318 318 319 319 319 320 320 321 321 322 323 323 324 325 325 325 325 326 327 327 326 327 329 330 329 329 330 328 325 322 321 322 323 325 329 335 340 342 344 347 351 353 354 354
316 315 315 315 315 314 314 314 314 314 315 315 315 316 316 315 314 315 316 317 317 318 318 319 319 318 318 320 321 321 322 322 322 322 321 322 323 325 326 326 327 328 327 325 324 323 320 316 313 313 314 314 316 318 322 325 327 329 332 337 343 349 352
315 315 315 314 314 314 314 314 314 314 314 314 314 314 314 314 314 315 315 315 315 316 316 316 316 316 317 319 321 321 321 322 321 321 321 321 321 322 322 321 318 317 317 316 315 314 314 314 317 319 318 316 314 316 318 319 321 322 323 325 327 331 334
314 314 313 313 313 313 313 314 314 313 313 313 313 314 314 313 314 314 314 314 314 315 315 315 316 317 318 319 320 320 320 320 321 322 322 323 323 323 323 322 321 320 320 319 320 321 323 324 324 322 320 318 316 315 315 316 318 319 321 323 324 324 324

ECMWFFLT1_850_thetae_087.txt.gz
Theta_e
355 356 356 356 356 355 354 353 351 350 349 349 349 348 347 346 346 347 346 347 347 344 339 335 333 335 337 337 336 335 336 338 341 347 350 349 349 350 350 349 348 347 346 345 345 347 346 344 344 344 344 344 345 345 345 346 346 348 349 348 349 349 346
355 356 357 356 356 355 354 354 352 350 350 350 350 349 348 347 347 347 347 348 349 346 341 336 332 333 337 339 338 337 336 338 339 343 349 351 349 349 347 345 345 346 347 345 346 348 347 344 345 345 344 344 345 345 345 346 345 347 348 347 348 347 345
354 355 356 357 357 355 355 355 354 351 350 351 351 350 349 348 347 348 348 349 350 350 346 340 334 332 335 338 339 338 337 337 337 339 345 350 350 347 344 343 343 344 347 348 347 348 349 347 347 347 344 342 345 345 345 346 345 346 348 346 346 346 344
352 353 355 357 357 355 356 356 355 352 350 350 351 351 350 349 348 348 349 349 350 349 349 346 339 333 333 335 338 338 337 338 338 337 341 346 347 347 345 343 342 343 346 349 348 349 350 350 349 349 345 342 343 344 345 345 344 345 345 344 344 345 345
350 350 353 356 357 355 356 356 354 352 351 351 351 350 351 350 350 349 349 350 349 346 346 347 346 342 337 335 336 337 336 338 338 337 338 341 344 347 347 344 343 342 344 349 350 351 352 351 350 347 345 344 343 343 345 345 344 345 345 344 344 344 344
349 350 352 354 354 355 356 355 354 353 352 351 350 351 351 351 350 349 348 349 349 347 344 344 346 346 344 340 336 336 336 336 338 338 338 339 340 344 345 344 345 344 343 347 352 353 352 353 350 345 343 345 344 342 344 344 344 345 345 345 345 344 344
346 349 351 352 353 353 355 355 355 354 353 352 351 352 352 351 351 350 349 349 350 349 347 344 344 346 347 345 341 338 336 333 335 337 338 340 340 341 343 346 347 345 344 347 351 354 354 353 353 348 344 343 343 342 341 342 344 345 345 344 345 346 343
343 345 347 350 351 352 355 356 355 354 354 354 353 353 353 353 352 351 350 350 350 351 349 346 345 347 348 349 348 344 340 336 335 335 337 340 344 345 345 347 348 347 347 347 348 351 353 354 354 352 347 342 341 341 341 340 341 343 344 344 345 345 344
340 342 343 346 348 349 353 356 355 354 354 354 354 353 353 353 352 351 351 350 351 352 352 349 346 347 349 353 354 352 350 348 344 339 335 337 345 350 349 347 347 347 347 348 348 347 348 351 354 354 350 345 342 342 342 342 342 343 343 343 344 345 344
338 340 342 345 347 347 350 353 355 354 354 354 353 353 353 352 352 351 351 351 353 355 356 353 351 351 353 355 357 356 356 356 355 350 343 339 343 349 350 349 348 347 345 347 348 347 345 346 349 350 349 347 345 344 345 345 345 345 343 342 342 343 343
337 338 340 342 344 345 349 352 353 354 353 353 352 352 352 352 352 352 352 353 355 356 357 356 355 356 355 354 355 357 356 356 356 356 353 348 347 350 350 349 349 348 346 346 346 348 347 346 346 346 346 346 345 345 347 348 347 346 345 343 341 341 343
336 337 338 339 339 341 344 347 350 352 352 352 352 353 353 352 352 352 352 354 355 355 354 354 354 356 355 352 353 355 356 355 354 355 355 352 351 351 351 349 349 348 347 346 345 346 348 347 346 346 345 343 342 343 345 348 348 346 345 344 341 340 340
334 335 336 337 337 337 339 342 345 348 349 350 352 352 353 353 353 352 352 353 354 353 352 352 352 353 353 353 353 354 355 354 354 354 355 353 352 351 350 349 349 349 348 348 346 345 346 347 347 346 344 342 341 340 342 345 346 345 343 341 341 339 338
334 334 334 335 336 336 337 339 340 343 345 346 348 350 351 352 352 352 352 352 352 352 352 352 351 351 351 353 354 355 354 354 353 352 352 352 352 351 349 348 349 349 348 348 347 345 344 346 347 347 346 344 342 340 340 341 342 342 341 339 337 337 337
332 332 333 334 334 334 335 336 337 339 341 343 345 346 349 349 350 350 350 351 352 352 352 352 351 350 350 351 352 354 354 353 352 350 349 349 350 349 348 347 347 347 348 348 347 345 343 344 345 346 346 345 344 343 341 340 338 337 336 336 335 334 334
330 330 331 332 332 332 332 332 333 334 337 339 341 343 345 346 346 347 347 348 349 350 351 352 352 352 351 351 350 351 352 353 352 350 349 349 348 347 347 347 346 346 347 348 348 346 345 343 344 345 345 345 345 344 343 342 340 336 333 332 331 332 333
328 328 329 329 329 329 330 330 330 331 332 333 335 338 341 342 342 343 344 345 346 347 348 350 352 352 352 352 351 350 351 352 352 352 352 352 349 347 347 346 346 346 347 348 347 347 346 345 344 344 345 345 344 344 344 344 343 341 338 334 331 330 331
328 328 327 327 327 327 327 327 327 328 329 329 330 332 335 337 340 341 342 343 344 345 347 349 350 350 350 351 352 352 351 351 352 352 352 352 351 349 348 347 346 347 348 349 347 346 346 346 346 345 345 346 346 346 345 344 343 343 343 341 338 336 334
327 327 327 326 326 326 325 325 324 325 325 326 328 330 331 334 337 339 340 340 340 342 344 346 347 346 347 348 350 352 352 352 352 352 352 352 352 351 350 349 348 348 349 350 349 348 346 345 346 345 345 346 347 348 348 347 346 345 345 345 345 343 342
326 326 325 325 325 325 325 325 324 323 323 323 325 328 330 331 332 335 336 334 332 333 339 343 344 344 344 345 347 349 351 351 351 351 351 352 351 351 351 350 350 349 350 351 351 350 348 346 345 345 345 345 345 347 348 349 349 349 348 348 348 347 346
325 325 324 324 324 324 324 324 324 324 323 322 323 325 326 327 329 331 333 333 330 328 331 335 339 342 344 344 344 345 348 349 350 350 351 352 351 351 351 351 351 351 351 352 353 352 351 349 347 345 345 345 344 345 346 347 348 350 351 351 351 350 349
324 324 324 323 322 323 324 324 324 324 323 322 323 322 322 324 327 329 331 334 332 327 324 325 328 334 340 343 344 344 345 345 346 348 349 351 351 351 351 352 352 352 352 353 353 353 352 352 350 349 348 347 346 346 346 345 346 349 350 351 351 351 351
323 323 323 322 320 321 322 322 323 323 322 322 323 323 323 323 325 326 327 329 329 326 323 319 319 324 329 333 337 340 343 344 345 345 346 347 348 349 350 350 350 350 351 352 352 352 352 351 351 350 350 350 349 349 349 349 349 348 347 347 347 348 350
322 322 322 322 320 319 321 322 322 322 322 321 322 323 324 323 322 323 325 326 326 325 323 318 316 316 318 320 323 327 332 336 339 340 343 344 346 346 346 347 348 348 348 349 350 350 350 350 351 350 350 350 350 351 351 351 350 350 349 348 347 346 347
321 321 321 321 319 319 320 321 321 321 321 320 321 322 323 323 322 320 322 324 325 325 324 320 316 315 314 314 314 316 320 323 326 329 333 337 342 345 346 346 346 346 347 348 349 350 350 350 351 351 351 351 351 351 351 351 350 349 349 350 351 351 351
319 320 319 319 319 319 320 320 320 320 320 319 320 321 321 322 321 319 318 320 321 322 323 319 316 314 314 313 313 314 314 316 319 321 323 326 332 338 342 344 346 347 347 348 349 350 350 350 350 351 351 352 352 352 352 352 350 348 348 350 353 354 354
319 319 319 318 319 319 319 319 318 318 319 319 320 320 320 321 320 318 317 318 319 321 321 318 315 314 314 313 313 314 313 314 315 316 318 318 321 325 329 333 338 341 344 345 347 348 348 349 349 350 350 351 353 353 353 352 351 350 350 352 353 353 352
319 318 318 319 319 318 318 318 316 316 318 319 320 320 320 319 318 317 319 320 320 320 318 315 312 312 313 313 314 314 313 314 313 314 315 315 316 318 321 323 327 331 334 335 337 340 342 344 345 346 346 348 349 350 351 352 352 352 352 352 353 353 352
318 317 318 319 319 318 317 315 315 317 319 319 319 319 319 318 318 318 320 321 320 317 314 313 314 314 313 312 312 312 312 313 313 313 314 314 314 315 317 319 321 324 325 324 325 328 331 334 336 338 339 341 342 344 345 347 347 349 350 351 351 351 351
317 317 318 319 319 317 315 313 315 318 319 319 318 318 317 317 317 318 319 319 316 313 314 317 319 319 316 312 310 310 311 311 312 312 313 314 314 314 314 316 317 318 319 320 322 324 325 327 330 333 335 337 339 340 342 343 344 345 347 349 350 351 352
317 317 318 319 318 315 313 314 317 318 318 317 316 315 314 313 313 314 315 313 310 314 319 321 319 317 314 311 309 309 310 310 311 311 311 312 312 312 312 313 314 316 318 321 325 331 334 333 335 339 340 341 343 345 346 346 347 347 347 348 349 351 352
318 316 316 316 315 313 312 314 315 316 315 314 312 310 310 309 309 311 311 307 310 318 322 319 315 312 310 309 308 308 309 310 311 311 312 313 315 316 315 315 318 322 324 326 331 338 341 341 340 342 343 344 346 346 342 339 340 343 346 349 351 352 352
318 316 315 314 314 313 313 313 313 313 312 312 310 310 309 308 309 311 312 311 313 317 317 314 312 310 308 307 307 309 312 315 316 318 319 320 321 322 322 324 326 326 327 330 334 338 340 341 340 340 340 341 340 336 328 323 323 326 332 339 344 348 349
317 316 315 315 315 315 314 313 313 312 311 312 312 312 311 311 312 314 315 315 316 316 315 314 314 313 310 309 308 309 315 320 321 322 323 323 323 323 324 326 327 327 327 328 331 333 334 335 335 335 333 329 326 321 317 315 315 315 317 322 327 332 337
316 316 316 316 315 314 313 312 312 312 313 314 314 313 312 311 312 313 314 314 314 315 314 314 314 313 311 310 310 312 316 318 318 319 321 322 322 322 323 325 327 328 328 328 329 330 330 330 329 327 324 319 315 314 314 314 315 316 315 315 316 318 321
315 315 316 315 314 313 312 312 313 314 314 314 313 313 312 311 311 312 312 311 311 312 312 313 314 314 313 313 314 316 316 314 312 312 313 314 313 313 313 316 320 324 326 327 328 328 328 327 326 323 320 316 314 316 318 317 315 315 315 314 315 315 316
315 315 315 313 312 312 313 313 314 314 313 313 312 312 312 312 312 312 312 311 311 312 313 314 314 315 315 315 315 316 316 314 312 311 310 309 308 307 306 307 308 311 314 317 318 318 318 319 319 319 318 317 317 318 318 316 317 319 318 316 315 314 314
315 314 313 312 312 313 313 313 313 312 312 312 311 311 311 311 312 312 312 313 313 314 314 314 314 314 314 314 314 314 315 315 316 315 314 313 312 312 311 310 309 308 307 307 308 309 311 313 314 316 317 318 319 319 318 320 325 326 322 318 317 315 314

ECMWFFLT1_850_thetae_090.txt.gz
Theta_e
354 352 351 350 347 346 346 348 345 343 344 343 344 344 344 345 344 345 345 344 344 342 338 335 334 335 334 334 335 337 341 344 346 347 346 347 347 347 348 349 348 347 344 343 344 344 344 345 345 344 344 344 344 345 345 346 348 349 349 348 345 342 340
354 354 353 352 351 349 348 349 347 345 345 344 344 345 344 345 345 345 346 345 344 343 339 335 334 336 336 334 333 334 338 341 342 344 346 347 347 346 346 347 348 348 346 344 344 345 345 346 345 344 344 345 345 345 344 346 348 348 349 348 345 344 342
353 353 353 352 352 352 351 351 349 347 346 345 345 345 345 346 346 346 346 345 345 344 342 337 333 334 335 335 333 332 334 337 339 341 344 346 346 345 346 346 346 347 346 345 344 345 347 346 344 344 344 344 345 345 344 345 346 346 348 348 346 346 345
353 352 352 352 353 353 352 350 349 348 348 347 346 346 346 346 347 347 346 345 345 345 345 342 335 331 333 335 335 334 334 335 336 338 341 343 342 342 345 347 344 344 345 346 345 344 346 346 344 345 344 343 344 344 344 345 345 345 347 347 347 348 348
350 349 350 353 353 353 352 349 349 350 349 348 347 347 347 347 347 347 346 346 346 345 346 345 338 331 331 333 335 336 335 335 335 336 339 341 340 339 342 344 343 341 342 345 346 345 344 344 344 344 344 342 342 344 344 344 345 344 345 346 346 347 348
349 348 350 353 352 352 353 351 351 351 349 349 348 347 347 347 346 346 346 346 346 346 346 347 342 333 329 332 335 338 338 337 336 336 338 339 339 339 339 340 340 340 339 342 344 345 344 343 342 343 344 343 342 342 344 344 344 344 344 345 345 344 346
347 348 350 352 352 353 353 353 353 352 350 349 349 349 349 349 347 347 347 346 346 346 346 347 346 338 332 331 333 336 338 338 337 336 337 338 339 340 339 339 338 338 338 339 341 343 344 343 342 341 342 343 343 342 342 343 344 344 344 344 344 344 345
343 346 349 350 351 352 353 353 353 352 350 350 349 349 350 350 350 349 349 348 349 351 351 350 349 346 342 338 337 337 337 336 337 337 337 337 338 339 339 339 338 338 339 338 339 344 345 345 344 343 342 342 342 342 341 342 343 344 344 345 344 344 345
341 344 348 349 350 352 353 355 354 352 350 349 349 350 349 350 350 351 351 352 353 353 353 352 351 349 346 342 341 341 340 338 336 336 337 338 338 338 339 340 340 341 341 339 340 345 348 347 346 346 344 342 341 341 341 340 341 342 343 344 344 344 344
340 343 346 348 349 350 352 354 355 354 352 351 351 351 350 350 349 350 352 352 352 352 351 351 351 351 348 344 344 345 346 345 342 339 337 336 337 339 339 340 342 343 345 345 344 345 348 349 348 348 347 344 342 341 340 339 339 340 341 342 343 343 343
339 341 345 347 348 348 349 350 352 353 354 353 353 352 351 351 350 350 350 350 350 349 348 348 350 353 351 349 350 351 350 350 348 348 345 341 338 339 342 345 346 347 348 348 348 347 348 348 347 347 346 345 345 343 341 339 338 338 339 339 341 342 342
338 339 342 345 346 345 345 346 347 350 352 353 353 353 352 352 352 351 350 349 349 348 348 348 350 353 351 349 351 353 352 349 347 349 352 351 346 342 344 349 351 350 349 349 349 348 348 348 347 345 343 343 343 343 342 341 340 338 338 338 339 340 340
338 338 339 341 342 342 342 343 345 348 350 352 352 352 352 352 351 351 350 350 350 349 349 350 352 353 351 350 350 351 353 352 348 347 352 355 353 349 348 352 353 351 350 349 349 348 348 348 348 346 344 342 341 341 341 342 342 340 340 340 338 337 338
336 336 336 337 338 339 340 341 342 344 346 349 350 350 350 351 351 352 351 351 351 351 351 352 353 354 353 352 351 351 353 353 351 349 349 352 355 353 352 353 353 351 349 348 348 348 347 347 346 346 346 345 344 343 342 341 341 341 341 342 341 339 337
335 334 334 335 335 336 338 339 339 341 342 344 347 348 349 349 349 350 351 351 352 352 353 354 354 354 354 354 353 352 352 352 352 351 351 353 354 354 353 353 353 351 350 348 348 348 349 347 345 345 345 346 346 346 345 343 342 341 341 341 342 341 339
333 332 332 332 332 333 334 334 336 338 340 341 343 345 347 348 348 349 349 351 352 352 352 353 353 353 353 353 353 352 352 352 352 352 352 353 354 354 353 354 353 351 349 349 348 348 349 349 348 345 344 345 346 346 346 345 344 343 342 341 340 340 338
330 330 330 330 331 331 332 332 332 334 336 338 340 341 343 344 346 348 349 350 351 351 351 351 351 351 351 352 352 352 352 352 353 353 353 353 352 352 353 353 353 351 349 348 348 348 348 349 349 348 345 344 345 346 347 346 345 344 343 342 342 341 340
328 327 327 327 328 328 329 329 331 332 333 336 339 341 341 342 343 345 346 347 347 349 350 350 351 351 351 351 350 351 351 352 352 353 354 353 353 351 350 350 351 351 349 347 347 348 348 348 349 349 347 345 345 345 346 346 346 346 345 344 344 344 344
327 326 326 325 324 324 325 326 328 330 331 334 338 339 339 340 341 342 343 344 344 346 346 347 349 351 351 351 351 350 351 351 351 352 352 353 353 351 349 349 348 349 348 347 347 348 348 348 348 349 348 347 346 345 346 346 346 346 346 346 346 346 346
326 326 325 325 323 323 323 323 325 327 329 330 332 334 335 335 334 334 337 341 342 342 343 345 346 348 348 349 350 351 352 352 352 352 352 352 352 351 351 351 349 348 347 346 346 347 348 349 349 349 349 348 347 346 346 345 345 345 346 347 347 347 347
325 325 324 324 324 323 323 323 323 324 325 326 327 329 332 333 330 328 329 334 338 340 341 342 343 343 343 344 346 349 351 352 352 353 353 352 352 352 352 351 352 351 350 348 347 347 348 349 349 348 348 348 347 347 346 346 345 345 346 347 347 348 348
324 324 324 323 323 323 323 323 323 323 323 324 325 326 330 333 331 326 324 324 328 334 338 340 340 341 341 342 343 345 347 348 349 350 351 351 352 352 352 352 352 351 351 351 350 349 350 351 351 350 348 347 347 347 346 346 347 347 347 348 348 349 349
323 323 323 323 322 323 323 322 322 323 323 323 324 325 329 331 329 327 325 322 320 323 329 332 332 334 336 338 340 341 342 344 346 347 347 347 349 349 351 351 351 352 351 351 351 351 351 351 352 352 351 349 348 347 346 345 345 347 348 348 349 349 349
322 321 322 322 322 322 322 321 322 323 323 323 322 323 326 328 327 325 326 325 320 317 318 319 318 319 323 327 331 331 331 335 341 343 343 343 345 345 346 348 348 349 349 350 350 350 350 350 351 351 351 351 350 350 350 349 348 349 348 349 349 348 348
321 320 320 320 321 321 321 321 321 322 322 322 322 322 323 325 326 325 324 323 320 317 315 314 314 314 315 317 320 322 322 326 331 333 332 334 337 340 342 344 346 347 347 347 347 348 348 348 348 349 349 349 349 349 350 350 350 351 351 351 350 349 348
321 320 319 319 320 320 320 320 320 320 321 321 321 321 321 321 322 322 321 320 318 316 315 315 314 314 314 314 315 317 318 319 320 321 321 322 325 329 332 335 337 341 344 345 346 346 347 347 347 347 348 349 349 349 350 350 350 350 351 351 350 350 349
320 320 318 318 319 320 319 319 319 319 319 320 320 320 319 318 317 317 317 316 315 315 315 315 314 313 314 315 314 314 315 315 315 315 315 316 318 321 323 325 327 330 334 337 337 337 340 344 347 348 348 349 349 350 350 351 351 350 350 350 350 350 350
319 319 318 317 318 318 318 317 317 318 319 319 320 319 318 317 315 315 314 314 315 314 313 313 313 312 312 313 314 314 315 314 315 315 315 314 315 317 319 321 323 324 325 325 325 326 330 334 337 342 345 345 347 347 348 349 349 349 350 350 350 351 351
319 319 318 318 317 317 316 316 316 317 318 318 318 318 317 316 315 314 314 315 314 313 311 311 311 311 312 312 312 313 313 313 313 314 314 314 314 314 315 316 317 319 319 319 321 326 332 335 335 336 338 339 341 342 343 345 347 346 346 347 348 348 350
318 318 318 317 317 317 315 315 316 317 317 318 318 317 316 315 314 314 314 314 312 310 310 310 309 309 310 310 310 310 310 311 311 311 311 312 312 312 313 313 314 316 317 320 321 325 334 342 342 340 338 337 339 342 342 344 345 344 345 347 347 347 348
318 317 317 317 317 316 314 313 315 316 317 318 317 316 314 312 311 312 312 313 313 311 310 310 310 309 309 309 309 309 309 310 310 310 312 313 314 314 314 314 317 319 321 324 325 326 333 341 343 342 342 341 343 344 344 344 343 339 339 339 338 338 341
317 317 317 316 315 314 312 311 311 313 314 314 313 312 311 309 309 309 310 313 316 315 311 310 310 308 307 307 308 308 308 309 311 312 314 316 317 319 320 320 321 323 324 328 330 332 336 339 340 341 342 342 342 342 343 344 340 333 326 323 322 323 326
318 317 316 315 313 311 310 309 309 310 310 310 310 309 309 308 309 308 309 312 315 314 312 311 310 308 307 307 307 308 308 309 310 312 315 318 319 321 323 323 324 325 326 328 332 334 336 336 337 338 338 339 339 339 339 338 333 325 318 316 316 316 316
317 316 314 312 310 309 309 309 309 309 309 309 310 310 310 310 310 311 310 311 312 312 312 312 311 310 309 308 307 307 308 308 309 310 312 315 317 320 322 323 324 325 326 326 327 330 332 332 332 332 332 333 334 334 332 329 324 318 315 315 315 315 315
316 314 313 310 310 311 311 310 309 310 311 312 312 311 310 310 310 310 310 310 310 310 310 311 311 310 309 308 307 307 307 307 308 309 309 310 311 315 319 321 321 323 324 324 323 323 323 325 327 327 327 327 327 327 325 322 318 315 316 317 316 314 313
315 314 313 313 313 312 311 311 312 312 313 313 313 311 310 310 309 309 309 309 309 310 310 310 310 309 309 309 308 308 308 307 307 307 307 306 306 307 310 312 313 314 316 317 318 319 318 319 320 322 324 324 323 322 321 319 318 317 317 317 316 314 314
314 314 314 314 312 312 312 313 314 314 313 313 312 311 310 309 309 310 310 310 311 311 312 311 311 310 310 309 309 309 309 309 308 308 308 307 307 307 307 306 305 306 308 309 310 312 312 313 314 316 317 317 317 316 316 317 318 319 318 316 315 316 319
314 314 314 313 312 312 313 314 313 313 312 312 311 310 310 309 310 311 312 312 312 312 312 312 312 311 310 309 309 310 311 312 312 311 311 311 311 311 311 310 308 306 306 306 307 307 307 307 308 308 309 309 310 310 311 313 315 317 320 322 323 325 325

ECMWFFLT1_850_thetae_093.txt.gz
Theta_e
351 349 348 348 348 349 348 345 342 342 344 344 343 344 343 343 343 343 342 343 342 340 338 338 339 339 339 339 339 341 343 344 345 346 347 347 346 347 349 349 347 347 346 343 344 346 344 344 344 344 344 344 343 343 345 345 344 344 344 345 347 348 346
352 351 349 348 348 348 348 347 344 342 343 344 343 343 344 343 343 343 343 343 343 340 337 336 337 337 337 338 339 341 342 343 344 345 346 347 346 345 347 348 347 347 347 345 344 345 345 344 344 344 344 344 343 343 344 346 344 345 346 347 347 347 345
352 352 351 349 348 347 347 347 347 344 342 343 344 343 344 343 342 343 343 343 343 341 338 335 336 336 336 336 338 339 341 342 343 344 345 347 346 344 345 346 347 347 347 346 345 345 345 344 345 344 343 343 344 343 344 345 345 346 348 348 346 345 344
352 352 352 351 349 347 346 346 347 347 343 342 343 343 343 343 343 343 343 343 344 343 339 335 335 335 335 335 336 337 338 339 341 343 345 347 346 345 344 345 345 346 345 345 345 344 344 346 345 344 343 343 343 344 344 344 345 346 347 346 346 345 344
352 352 352 352 352 350 347 346 346 347 345 343 343 343 343 343 343 343 344 344 345 344 341 338 337 336 335 335 335 336 336 336 338 341 343 345 346 346 345 344 345 345 344 344 345 344 344 345 345 343 343 343 343 343 344 345 345 345 346 345 346 346 345
350 351 351 352 352 352 351 349 347 347 347 345 343 343 344 343 343 344 344 345 345 346 344 343 342 340 338 335 334 336 337 335 335 337 339 341 344 345 344 343 345 345 344 343 344 345 345 345 345 344 343 344 343 341 342 344 344 344 345 345 345 345 345
349 350 351 351 352 352 352 351 349 347 346 346 345 344 344 344 344 344 344 345 345 346 346 345 345 344 343 340 335 334 336 336 335 334 335 337 340 343 343 342 343 344 345 344 343 345 347 346 345 345 345 345 344 342 341 342 343 343 344 343 343 343 343
348 350 350 351 351 352 352 352 351 349 347 347 347 346 345 344 344 345 345 345 346 346 346 345 345 345 344 344 340 335 333 335 336 335 334 336 337 340 341 341 341 343 346 346 344 345 347 348 349 347 346 345 345 343 342 341 341 342 342 343 342 343 343
348 349 349 350 351 352 352 352 352 351 349 349 349 348 347 346 345 345 345 345 346 346 346 345 345 345 345 345 344 339 334 335 337 337 336 336 336 337 339 339 340 342 345 346 345 345 346 348 350 351 349 347 345 344 343 341 340 340 341 341 342 342 343
346 347 346 348 350 351 352 352 352 352 351 350 350 349 349 348 346 346 346 346 346 346 346 346 345 345 345 347 346 341 336 335 336 337 338 338 337 337 337 337 338 340 342 344 346 347 346 348 350 351 352 350 349 347 345 342 340 340 340 340 341 342 342
343 344 344 346 348 350 351 352 352 353 352 351 350 350 349 349 347 347 347 346 346 346 346 346 345 345 346 347 347 343 338 335 334 335 336 337 337 336 337 337 337 338 339 342 344 346 346 347 349 351 352 352 352 350 348 345 342 340 339 339 340 340 341
341 342 342 344 347 348 349 350 351 351 352 352 351 351 350 350 349 349 348 348 348 347 347 346 345 345 346 347 348 346 341 336 334 334 334 335 336 336 337 338 337 337 338 340 342 345 346 347 347 349 350 350 351 351 350 349 347 343 341 339 339 339 340
339 340 341 343 345 346 346 346 346 349 350 351 351 350 350 350 350 350 350 349 350 349 350 349 347 346 347 347 348 347 344 339 337 337 336 336 337 336 335 336 337 337 338 339 342 344 346 347 346 346 347 347 348 348 348 347 347 346 344 342 340 340 341
337 338 339 341 343 345 345 344 343 346 348 349 350 350 350 350 349 349 349 349 350 350 351 351 350 349 350 349 349 348 347 345 344 343 342 341 341 340 337 335 334 336 337 339 340 341 343 345 346 346 345 344 344 344 345 345 344 344 343 342 341 341 341
334 336 338 340 342 344 345 343 343 346 347 348 350 351 351 351 350 350 350 349 349 349 349 349 350 350 350 349 349 349 348 349 349 348 347 346 345 346 345 341 336 335 338 340 342 342 342 343 344 346 346 345 344 343 343 345 345 345 344 342 341 340 339
332 333 335 337 339 342 343 342 343 345 346 347 348 349 349 350 350 350 350 350 350 350 350 349 348 348 348 349 350 351 351 351 351 351 351 350 349 349 350 348 343 339 339 342 344 345 345 344 344 345 346 347 347 345 343 344 345 346 345 344 343 342 341
331 332 332 333 334 337 339 340 340 342 344 345 347 348 349 349 349 350 350 350 350 351 351 351 350 349 350 351 352 354 354 354 353 352 353 353 352 350 351 351 350 347 344 344 345 347 348 347 345 345 345 347 347 347 346 344 344 345 345 345 345 344 344
329 329 330 331 332 334 336 337 337 338 340 342 343 346 348 349 349 349 350 350 350 350 350 351 351 350 351 351 352 353 354 355 354 353 353 353 352 351 351 352 353 353 351 348 346 347 349 348 347 346 346 346 347 348 347 346 345 345 345 346 346 346 345
326 327 328 330 331 332 334 336 338 339 340 340 341 342 344 347 348 348 348 349 349 349 349 350 350 350 350 350 350 350 352 353 352 352 352 352 352 352 352 352 353 353 353 352 351 350 350 350 348 347 347 347 347 347 347 347 346 345 345 345 346 346 346
325 325 325 327 328 330 332 334 337 338 338 338 339 339 339 341 343 344 345 345 346 347 347 347 348 348 349 349 350 350 351 351 351 351 351 352 352 352 352 352 352 352 352 352 352 352 352 351 348 347 347 348 347 347 347 347 347 347 346 345 345 345 346
324 323 323 324 326 327 328 329 330 333 333 332 331 331 333 335 339 340 341 341 343 343 343 344 344 345 345 346 348 349 350 350 351 352 352 352 352 352 352 351 351 351 351 350 350 350 350 350 348 347 347 348 347 347 347 348 348 348 347 346 345 345 345
323 323 323 323 323 325 326 325 325 328 331 330 327 325 326 329 333 337 339 339 339 339 339 341 342 342 342 344 345 345 345 346 348 349 350 351 352 351 351 351 351 351 351 351 351 351 351 350 349 347 347 347 347 347 348 348 348 348 348 347 346 345 345
323 323 323 323 323 323 323 323 324 326 328 331 330 326 324 324 326 330 334 336 337 337 338 340 340 339 339 340 341 341 342 343 344 345 346 347 349 349 348 349 350 350 351 351 351 351 351 351 351 350 349 349 349 349 348 348 349 348 349 348 348 348 347
323 323 322 322 323 323 323 323 323 324 326 329 330 328 325 324 322 322 324 326 326 328 330 334 337 337 335 335 335 335 338 341 342 342 343 343 344 345 345 345 346 347 348 349 350 349 349 349 350 350 351 351 351 351 350 349 348 348 348 348 348 348 348
322 322 322 322 322 322 323 323 323 323 324 326 327 327 326 325 323 320 318 317 316 316 317 321 326 329 330 329 329 328 330 334 335 334 334 336 339 340 341 342 343 345 345 346 347 347 347 347 348 349 349 350 350 351 350 350 349 349 349 349 349 349 348
322 322 322 322 321 321 322 322 322 322 322 322 323 324 323 324 323 320 317 316 316 314 314 314 315 318 320 321 323 323 323 325 326 325 324 327 330 332 333 335 337 340 343 344 344 344 344 345 346 347 347 347 348 349 349 350 349 349 349 349 349 349 349
321 322 321 321 321 321 321 321 321 321 321 321 321 321 320 320 320 318 316 315 315 315 314 313 313 313 314 315 317 318 317 318 318 318 318 321 324 325 327 328 329 332 335 337 339 341 343 343 342 343 344 346 348 348 348 348 349 350 350 350 350 350 350
320 320 320 320 320 320 320 319 319 318 317 317 318 318 318 317 316 315 314 313 313 314 313 312 312 313 313 314 313 313 313 313 314 314 315 317 319 321 323 324 325 327 328 328 329 333 336 337 336 336 338 341 344 346 347 347 348 349 349 349 349 349 349
319 319 319 319 319 319 318 317 316 315 315 316 316 316 315 314 314 313 312 312 312 312 311 311 311 312 313 313 312 311 311 312 312 313 314 314 315 316 317 318 320 321 321 321 324 329 334 336 335 335 335 336 338 342 343 344 346 346 346 346 346 347 348
319 318 318 318 318 318 317 316 314 314 315 315 315 315 314 314 313 312 312 312 311 310 309 309 309 310 311 310 310 310 310 311 312 312 313 313 313 313 314 315 317 318 319 320 323 328 334 338 339 341 341 341 341 341 342 342 344 344 342 340 341 343 345
318 318 318 318 317 317 316 315 313 313 314 314 314 314 313 312 310 309 309 309 310 309 308 308 308 309 309 309 308 309 310 311 312 313 314 315 316 316 317 318 320 322 324 325 325 326 331 337 341 343 344 343 342 341 342 342 343 342 340 338 335 332 330
318 318 318 317 317 316 315 314 312 312 314 315 313 312 311 309 307 306 306 307 307 308 307 307 307 308 308 307 307 308 308 310 311 313 315 317 318 319 319 320 321 323 326 328 329 329 332 337 341 342 342 341 340 340 340 338 338 339 339 337 332 325 319
318 318 317 317 316 315 314 312 311 311 313 313 311 309 308 307 306 306 306 305 306 306 306 306 306 306 306 306 306 307 307 308 309 311 313 316 317 319 320 321 321 322 324 326 329 331 333 335 337 338 339 340 339 339 338 336 336 336 336 334 329 322 318
318 317 317 316 315 313 311 310 310 310 310 310 309 308 308 308 307 308 308 308 307 307 307 307 307 306 306 306 306 306 306 307 307 308 310 312 315 317 319 320 321 322 322 323 325 327 330 331 332 333 334 335 336 337 337 336 335 335 333 331 327 322 317
318 317 317 315 314 312 310 309 309 309 309 309 310 310 310 310 309 310 310 310 310 309 308 308 307 306 306 306 305 305 306 306 306 306 307 308 310 312 314 315 317 318 319 319 320 321 323 325 326 328 328 329 329 330 331 331 330 329 327 324 321 318 316
318 317 316 315 313 311 310 310 309 309 309 310 311 311 310 310 309 309 309 309 309 309 308 308 306 305 305 306 305 305 305 305 305 305 306 306 306 307 308 309 310 312 312 313 314 314 315 316 317 319 321 323 323 323 324 324 324 322 320 318 315 316 317
317 316 315 313 311 310 310 310 309 308 309 311 311 311 310 309 308 308 309 309 309 309 309 309 308 307 307 307 307 307 306 306 306 305 305 305 305 305 305 305 307 308 309 309 309 309 309 310 310 311 312 314 315 316 316 316 316 315 314 313 312 313 315
316 314 313 311 310 310 310 309 309 309 310 311 311 311 310 309 309 309 310 311 311 311 311 311 310 310 309 308 308 307 307 307 307 307 307 306 306 306 305 305 305 307 308 308 308 308 308 308 309 309 309 309 309 309 309 309 310 310 310 310 311 312 313

ECMWFFLT1_850_thetae_096.txt.gz
Theta_e
350 349 347 346 346 342 340 342 344 344 345 345 344 343 343 343 342 343 342 343 343 343 344 344 342 343 342 342 340 338 337 339 343 346 348 348 348 348 349 349 348 348 347 345 344 344 345 344 343 342 342 343 343 343 343 344 343 343 343 343 343 344 346
350 349 347 345 347 346 342 341 342 343 344 344 344 343 343 342 343 343 342 343 343 342 343 342 342 342 341 341 340 338 337 337 340 344 347 348 348 348 348 349 350 349 348 346 344 345 346 345 344 343 343 343 343 343 343 343 344 343 344 343 344 344 346
349 349 347 345 345 347 346 343 341 342 343 344 345 344 343 342 342 342 342 343 343 343 343 342 342 341 340 340 338 338 338 337 338 340 343 346 347 348 348 348 350 349 349 348 346 345 346 346 345 344 343 343 343 343 342 343 344 344 343 344 345 345 345
349 348 347 346 345 347 348 346 342 342 342 344 344 344 343 342 342 342 342 343 342 343 342 342 342 340 339 338 336 337 337 337 338 338 339 342 345 347 348 348 348 348 349 349 348 347 346 346 345 344 344 343 343 343 342 342 343 343 343 344 346 346 345
351 349 347 347 346 346 346 346 345 344 342 342 343 344 344 343 343 343 343 343 343 343 343 342 342 340 338 336 335 335 335 335 336 336 337 338 341 344 346 346 346 346 348 348 349 348 347 346 345 345 344 343 343 343 343 343 343 343 344 344 344 345 345
351 350 349 348 347 346 345 345 346 346 345 344 343 343 344 344 344 343 343 343 343 343 343 342 343 341 338 336 335 334 333 333 333 334 335 336 338 340 342 343 343 344 346 347 348 348 347 346 345 345 345 343 343 343 342 343 343 343 344 344 343 344 345
351 351 350 350 348 347 346 345 345 345 346 346 345 344 343 343 344 344 343 343 343 343 343 343 343 342 339 336 335 334 333 333 333 333 334 335 337 338 339 340 341 342 344 346 347 347 347 346 345 345 346 344 343 343 342 343 343 344 344 344 344 343 344
350 351 351 351 350 349 348 347 347 346 346 346 346 345 344 343 343 344 344 344 344 343 343 343 344 343 342 339 337 335 334 334 335 335 334 335 335 336 337 337 337 339 342 343 345 346 345 346 346 346 346 346 346 345 344 342 342 343 344 344 344 343 343
349 350 350 351 351 351 350 350 349 348 347 346 346 346 346 345 343 343 344 344 344 344 343 343 344 344 344 343 341 340 338 336 335 335 336 335 334 334 335 335 335 337 339 340 342 344 344 345 347 348 348 348 348 348 347 345 343 343 343 343 343 343 343
348 349 349 350 351 351 351 352 351 351 349 348 347 346 346 346 345 343 343 343 344 343 343 344 344 345 345 344 344 344 343 341 338 336 336 336 335 334 334 334 335 337 337 338 340 342 343 344 346 349 350 350 350 350 350 349 347 345 344 343 343 343 343
346 347 347 347 349 350 351 352 352 351 351 350 349 348 347 346 346 345 344 343 344 344 344 344 344 345 345 345 345 344 344 344 342 338 335 335 336 335 334 335 335 336 337 337 338 340 342 343 344 347 349 350 351 351 351 350 349 348 347 345 343 342 342
343 344 345 345 347 349 350 351 352 352 352 351 351 349 348 346 346 346 345 345 345 344 344 344 344 344 345 346 346 346 345 345 345 342 336 333 336 337 336 336 335 336 336 336 337 338 340 342 344 345 347 349 350 351 351 351 350 350 349 348 346 343 342
342 343 344 344 345 346 347 348 349 351 352 352 352 351 349 348 347 347 347 347 346 345 345 344 344 344 344 345 346 346 346 345 346 346 340 334 334 336 337 337 337 336 336 336 337 337 339 341 343 344 346 346 348 349 349 349 348 348 348 348 347 345 343
341 342 342 342 343 344 345 345 346 348 350 351 352 351 350 349 349 348 348 348 347 347 346 345 345 345 345 345 345 345 346 346 348 349 348 343 339 338 337 337 337 336 336 337 337 337 338 340 342 345 346 346 346 346 345 345 344 344 344 344 344 344 343
340 341 341 341 342 343 343 344 345 346 348 349 350 350 351 350 350 350 349 349 348 348 347 346 346 345 345 345 346 346 346 346 347 349 350 350 348 345 342 339 338 338 337 337 337 338 339 340 343 346 347 347 346 345 345 344 342 342 343 343 343 343 343
339 340 340 340 341 343 343 344 345 346 347 347 348 349 350 350 350 350 350 349 349 349 349 349 348 348 348 347 346 346 346 346 346 347 347 348 349 351 350 346 344 343 342 340 338 338 340 342 344 346 347 347 347 346 346 345 343 343 343 344 345 344 345
336 337 338 338 339 341 342 342 344 345 346 346 347 348 349 349 350 349 350 350 350 350 349 349 350 349 350 349 348 348 348 348 348 346 345 346 347 348 350 351 350 349 349 347 344 341 341 343 344 345 346 347 346 347 347 346 346 344 343 344 345 345 346
334 334 334 335 336 337 338 339 341 343 345 346 346 348 348 347 348 348 349 349 349 350 350 349 349 349 349 349 348 349 350 350 349 347 347 348 349 347 348 351 352 352 352 352 350 348 347 347 346 346 345 345 345 345 346 346 347 346 345 344 344 344 345
332 333 334 335 336 337 338 339 340 341 343 344 345 345 346 345 346 347 347 347 347 348 349 349 349 349 349 349 349 349 350 349 347 346 348 350 351 350 350 350 351 351 351 351 351 351 351 351 350 348 347 346 346 345 345 345 346 347 346 346 345 344 344
331 332 334 337 338 339 340 340 339 338 339 340 341 342 342 344 344 345 345 344 344 345 345 347 347 348 349 350 350 350 350 349 348 348 350 352 351 351 351 350 350 350 350 350 350 350 351 352 352 350 349 349 348 347 346 345 346 346 346 346 346 345 345
329 329 331 334 336 337 337 337 336 335 334 335 336 338 339 340 341 342 343 343 343 343 342 343 345 347 348 348 349 349 349 349 349 349 351 353 353 352 352 351 350 350 350 350 350 349 350 351 352 352 352 351 350 349 347 346 346 346 345 346 346 346 347
327 328 328 329 330 331 333 332 331 330 328 328 330 333 335 337 338 338 340 340 340 340 340 341 342 344 345 346 346 347 348 348 348 349 350 351 352 352 351 351 351 351 351 350 349 349 349 349 351 352 352 351 350 349 348 347 346 346 346 345 345 346 346
325 325 325 325 326 328 330 331 330 328 325 323 324 326 329 333 335 335 336 337 339 339 338 339 340 340 340 342 343 344 345 345 345 347 348 349 350 350 351 351 351 351 350 351 350 350 350 349 350 350 350 350 350 349 349 348 347 347 347 347 347 347 347
323 324 323 324 324 325 327 330 331 329 326 324 323 322 323 325 325 325 325 328 332 336 337 336 335 334 334 335 337 339 341 342 342 344 345 346 347 347 348 348 348 348 349 350 350 350 350 350 350 350 349 350 350 349 349 349 348 348 348 348 348 347 347
323 323 323 323 323 324 325 327 329 328 327 325 324 325 323 322 320 317 317 318 321 326 330 331 330 329 329 329 330 332 334 336 338 340 342 344 344 344 344 344 344 345 347 348 349 349 349 349 349 349 350 350 351 350 349 349 349 349 349 349 349 348 348
323 323 323 323 323 323 323 324 324 325 325 324 324 324 324 323 321 318 317 316 315 317 320 323 325 325 326 326 326 326 326 327 329 331 334 336 337 337 337 338 340 342 343 344 345 345 345 344 345 346 347 347 348 349 349 349 350 350 350 350 350 349 349
322 322 322 323 323 323 323 323 322 323 322 322 322 322 321 321 319 317 316 315 315 314 314 316 319 320 320 320 321 321 320 320 321 325 327 328 327 327 328 329 332 334 335 337 339 340 341 343 343 343 344 346 347 347 347 348 348 348 349 349 349 350 350
322 322 322 322 322 322 321 322 322 321 321 320 320 320 319 318 316 315 313 312 313 314 313 313 315 316 316 316 315 315 315 315 316 320 323 324 323 324 324 324 325 326 328 330 331 333 337 340 340 339 339 342 345 345 345 346 346 347 347 347 348 348 349
322 322 322 321 321 321 320 320 319 318 317 317 317 316 316 315 313 312 312 311 311 312 311 311 312 313 314 313 312 312 312 313 315 317 320 321 320 320 321 321 322 323 324 324 326 330 334 336 336 336 337 337 339 341 342 343 344 345 345 346 346 347 347
322 322 321 320 320 319 319 318 316 315 314 313 313 313 312 312 312 311 310 309 310 310 309 309 309 310 311 311 310 310 311 313 313 315 317 318 317 317 318 319 321 322 322 322 324 327 332 335 336 338 340 340 339 338 338 339 341 342 343 343 343 342 342
321 321 320 319 319 318 318 317 316 314 313 312 311 311 311 310 310 309 308 308 308 308 308 308 308 309 309 309 308 310 312 314 314 314 315 316 316 317 319 320 321 322 323 324 325 327 333 336 336 337 340 343 342 340 340 340 340 341 341 341 340 339 337
320 320 319 318 318 318 317 316 315 313 312 311 311 310 310 309 309 308 307 307 307 306 306 307 307 307 308 308 307 308 310 313 315 315 316 316 317 318 319 321 323 325 326 327 327 329 333 337 337 337 339 341 341 340 341 340 339 339 339 339 338 337 335
319 318 318 318 318 317 317 316 315 314 312 311 310 309 308 307 307 306 306 306 306 306 306 306 306 306 307 307 307 307 307 309 311 313 314 315 316 317 318 320 321 323 325 328 328 329 332 334 336 337 338 338 338 338 338 337 336 335 335 335 334 333 333
319 318 318 318 317 317 316 315 314 313 311 309 308 308 307 306 306 306 307 307 307 307 307 307 307 307 307 307 307 307 307 307 308 308 309 311 312 314 316 318 319 320 322 324 326 328 329 331 333 334 335 335 336 336 336 335 334 334 333 333 333 333 332
318 318 318 318 317 316 315 314 313 311 309 308 307 306 306 306 306 306 307 307 307 307 307 307 307 307 307 307 307 306 307 307 307 307 307 307 308 309 310 312 314 315 317 318 320 322 324 325 326 328 329 330 331 332 332 332 331 331 330 329 329 328 327
318 318 318 317 317 316 314 313 312 310 308 307 307 306 306 306 306 306 306 307 307 307 306 307 306 306 306 307 307 307 307 307 307 307 307 307 307 308 308 309 309 310 310 312 313 314 315 316 317 319 320 321 322 323 324 324 324 323 323 322 321 319 317
318 318 318 317 316 316 314 313 310 309 308 308 307 307 307 307 307 307 307 307 306 306 306 306 306 306 307 307 307 308 308 308 308 307 307 307 307 307 308 309 309 309 309 309 309 309 310 310 310 310 311 311 312 313 313 314 314 313 313 313 312 311 310
318 318 318 317 316 315 313 311 309 308 308 308 308 308 308 308 308 307 307 307 307 307 307 307 308 308 308 308 308 308 307 307 307 307 307 307 307 307 307 307 308 308 308 308 308 308 309 309 308 308 308 308 308 308 308 308 308 308 307 307 307 306 306

ECMWFFLT1_850_thetae_099.txt.gz
Theta_e
350 350 350 350 350 349 348 347 345 344 344 344 345 345 345 345 343 343 342 343 344 345 345 346 347 346 343 340 339 338 338 339 341 343 344 346 347 347 348 348 349 348 348 347 347 346 345 343 343 343 343 343 342 342 343 343 343 344 344 343 342 342 342
351 350 350 349 348 347 346 345 344 344 344 344 344 345 345 345 344 342 342 342 343 343 344 345 346 346 343 341 340 339 337 337 338 340 342 345 346 347 348 349 349 349 349 348 347 347 346 346 344 343 343 343 343 343 343 344 344 344 344 343 343 343 345
351 350 350 348 347 346 343 342 342 343 344 344 345 344 344 344 343 342 341 342 342 343 344 345 345 345 344 342 340 339 338 337 336 337 339 342 345 346 347 347 349 350 349 349 348 347 346 346 346 344 344 344 343 344 344 344 344 344 344 343 343 344 345
351 351 349 347 347 346 343 340 340 342 343 344 344 344 344 344 344 343 342 342 342 342 343 344 344 345 345 343 341 340 338 337 337 336 336 338 342 345 346 347 348 348 349 349 348 347 346 346 346 345 345 344 344 344 344 344 344 345 345 344 343 344 346
351 350 349 347 346 346 344 342 341 341 342 343 344 345 345 344 344 344 342 342 342 342 343 343 344 344 344 344 343 341 340 338 338 337 336 336 339 342 345 346 347 347 348 349 348 348 347 347 346 345 345 345 345 345 344 344 344 344 344 344 344 345 346
351 350 349 347 346 345 345 344 343 341 341 342 342 344 345 345 344 344 343 343 342 343 343 343 344 343 343 344 343 342 341 339 337 337 337 336 337 340 342 344 346 346 347 347 348 349 349 348 347 346 345 345 345 345 344 344 344 344 344 344 345 345 344
351 350 348 347 347 346 346 345 344 343 341 341 341 341 343 343 344 344 344 344 343 343 343 343 344 344 343 344 343 343 341 339 337 337 337 337 338 339 339 341 344 345 345 346 347 348 349 348 348 347 346 346 346 345 344 344 344 344 344 344 345 345 344
351 350 348 348 347 347 346 345 345 344 343 342 342 341 341 342 342 343 344 344 344 344 343 343 343 343 344 344 343 343 342 340 337 335 336 336 337 339 339 338 340 342 343 344 345 346 347 347 347 347 346 346 346 345 343 343 343 344 344 344 345 344 344
351 351 349 349 347 347 346 346 346 345 344 344 343 342 342 341 341 342 342 343 343 343 343 343 343 343 343 344 344 343 342 341 338 336 336 336 336 338 338 338 338 340 341 342 344 345 345 346 346 346 346 346 346 346 345 344 343 343 343 343 344 344 344
350 350 349 348 348 347 346 346 346 345 344 345 344 344 343 343 342 342 342 342 342 342 342 343 343 344 344 344 344 343 343 341 340 338 337 336 336 336 337 337 337 338 338 340 342 343 344 345 345 345 346 347 347 347 347 346 344 342 342 342 342 342 343
348 348 348 348 348 348 348 347 347 346 346 345 345 345 344 344 344 344 344 343 342 341 341 342 343 344 344 343 344 344 344 343 342 341 340 338 336 335 336 336 335 335 336 337 339 341 342 343 344 344 344 346 347 348 348 348 347 345 343 342 341 342 342
346 347 347 348 349 349 349 350 349 349 350 349 348 347 346 345 345 345 345 345 344 343 342 341 342 343 343 344 343 343 344 344 344 344 343 341 339 337 336 337 335 334 334 335 337 339 340 341 343 343 343 344 347 348 349 350 349 348 346 345 344 343 342
345 346 346 347 348 349 350 351 351 351 351 352 351 350 349 348 347 346 346 345 345 345 344 343 342 343 343 343 343 343 344 345 345 345 345 344 343 340 338 338 338 336 335 335 336 338 339 339 340 342 343 344 345 347 349 350 351 350 349 349 348 347 344
343 343 344 345 346 347 348 349 349 350 351 351 351 352 351 350 350 349 347 347 346 345 345 344 343 344 344 344 343 343 343 344 345 346 346 345 345 344 340 339 340 338 337 336 336 337 338 338 339 340 342 343 344 346 348 349 350 350 349 349 348 347 346
341 341 341 342 343 344 344 345 346 346 347 348 349 350 350 351 351 350 349 348 348 347 347 346 345 344 344 344 344 343 343 344 345 346 346 346 346 346 343 340 340 340 339 338 337 337 338 338 339 339 340 342 344 345 346 347 347 347 346 347 347 346 346
340 340 341 341 341 343 343 343 343 343 345 346 347 349 349 350 351 351 350 349 349 349 348 348 347 346 345 345 344 344 344 344 345 346 346 346 346 348 346 343 341 340 339 338 338 338 337 338 338 339 340 343 345 346 346 347 346 344 344 345 346 346 346
339 339 340 340 341 342 342 343 344 344 345 346 347 348 349 350 350 350 350 350 350 350 350 349 348 347 346 346 345 344 344 344 344 344 345 346 347 348 348 345 343 341 338 336 336 337 337 337 337 338 341 344 346 347 347 347 346 345 344 344 345 346 346
337 337 339 340 340 340 341 342 343 344 344 345 347 348 348 349 350 349 350 350 349 350 350 350 349 349 348 347 346 346 345 345 345 344 345 346 347 348 348 347 346 344 341 337 337 338 339 339 337 338 341 345 346 347 347 347 347 346 346 345 344 344 345
336 336 338 339 339 340 340 341 342 342 343 344 345 346 346 347 347 347 348 349 349 349 348 349 350 349 349 349 349 348 347 347 346 346 345 346 347 349 349 348 348 348 345 342 340 341 342 342 340 339 341 345 347 347 346 346 346 346 346 346 345 344 344
334 336 337 338 339 339 339 340 340 340 340 341 342 344 344 345 345 345 346 346 347 347 348 348 349 349 349 349 349 349 349 349 348 347 348 348 348 349 349 349 349 349 348 347 346 345 345 346 345 343 342 344 345 346 347 347 346 346 346 346 346 345 345
334 335 336 336 337 336 336 336 336 337 337 338 339 340 341 341 342 343 343 344 344 345 346 347 347 348 348 349 349 349 349 349 349 348 349 349 350 350 348 348 349 349 348 348 349 348 348 348 349 348 347 347 348 349 350 349 348 347 346 346 346 346 346
333 333 333 332 332 332 332 331 332 333 334 335 335 336 337 339 339 340 340 341 342 343 343 344 344 345 345 347 348 348 348 349 349 349 349 349 350 349 347 347 350 350 349 349 349 349 349 349 350 350 350 350 350 351 351 351 351 349 348 346 346 345 345
331 331 330 330 329 328 327 325 325 326 327 328 327 326 327 330 334 336 337 338 339 339 340 341 341 341 342 343 344 345 345 347 348 348 349 349 349 349 348 349 351 351 351 350 350 349 350 350 350 350 349 350 350 350 350 351 350 350 349 348 347 346 346
328 328 329 329 328 327 325 323 322 322 322 321 320 319 319 319 321 324 328 332 335 336 336 336 335 335 336 337 339 341 341 343 344 345 345 346 348 348 349 350 351 351 351 350 350 350 350 350 350 349 349 350 350 349 349 349 349 349 349 349 348 347 347
325 325 326 328 329 329 327 325 324 324 323 323 323 322 320 318 316 315 317 322 326 327 327 327 327 327 328 328 329 332 334 337 340 341 342 343 344 345 346 347 348 350 351 350 350 350 351 350 350 350 350 350 350 349 349 349 348 348 348 348 348 348 348
324 324 325 327 329 330 329 327 325 324 324 323 323 322 320 318 316 314 314 316 317 318 319 321 321 322 322 322 322 323 324 328 332 335 337 338 338 339 341 344 346 347 347 348 349 349 349 349 348 347 348 349 350 350 350 350 348 348 348 348 349 349 349
323 323 324 325 326 327 327 326 324 323 322 321 321 320 319 316 314 313 313 314 314 314 315 316 317 317 317 318 318 318 319 320 322 325 326 326 327 329 332 336 340 342 343 344 346 346 346 345 344 343 344 346 347 348 348 349 349 349 349 349 349 350 350
323 323 323 323 324 323 323 323 322 321 320 320 319 318 316 314 312 311 311 312 312 312 313 314 315 315 314 314 315 315 316 317 319 320 320 320 321 323 324 325 329 332 335 337 338 340 341 341 340 340 341 343 345 345 346 347 347 348 348 348 349 349 349
322 323 323 323 323 323 322 321 320 318 318 317 317 315 314 313 311 310 309 310 309 310 311 312 313 313 312 312 313 314 316 317 318 320 320 320 320 320 320 321 323 324 326 327 328 331 334 335 336 338 339 339 340 341 343 345 345 345 346 345 346 346 347
322 323 323 323 322 322 321 319 317 316 315 315 314 313 313 312 311 309 308 308 308 308 309 309 310 311 311 310 312 314 316 318 319 319 320 319 319 320 320 320 321 320 320 321 323 327 328 328 330 333 335 336 336 337 338 340 341 342 343 343 343 344 344
322 323 323 322 321 321 319 318 316 314 313 313 312 312 312 311 310 309 307 307 307 307 307 307 308 309 308 308 310 312 315 317 318 319 319 319 320 322 321 321 322 322 321 322 324 327 330 331 332 333 334 336 338 337 337 338 339 339 339 338 340 342 341
322 322 321 321 320 319 318 316 315 314 313 312 312 311 310 309 308 307 307 306 306 306 307 306 306 307 307 307 307 308 311 313 315 316 318 319 320 322 322 323 325 326 326 327 327 329 332 335 336 337 337 337 339 338 337 337 337 338 338 337 337 338 337
322 321 320 320 319 318 317 316 315 314 314 312 311 310 309 307 307 306 306 306 306 306 307 306 306 306 306 306 306 306 307 308 309 311 313 314 317 319 321 323 324 325 327 328 329 331 334 335 336 337 337 336 336 335 334 334 333 334 334 334 332 332 332
321 320 320 319 318 318 317 316 316 316 314 312 310 309 308 307 306 306 306 306 307 307 307 307 307 307 307 306 306 306 305 306 306 307 307 308 310 312 315 318 320 322 324 325 327 329 331 333 334 335 335 335 334 333 332 332 332 331 332 332 331 331 331
320 320 319 318 318 317 318 317 317 316 314 312 310 308 307 306 306 307 306 306 306 306 306 306 306 307 307 307 307 306 306 305 305 305 305 306 306 307 308 310 313 315 318 320 321 324 326 328 329 331 332 333 334 333 332 331 331 331 331 332 332 332 331
320 319 319 318 318 318 318 318 317 315 312 310 309 307 307 307 307 307 307 307 307 307 306 306 307 307 307 307 307 307 307 307 306 306 306 306 306 306 306 307 308 309 311 312 314 315 317 319 321 323 324 325 326 327 327 326 326 326 326 325 324 323 322
319 319 319 318 318 318 318 317 316 313 311 309 308 307 307 307 307 307 307 306 306 307 306 307 307 307 307 307 307 307 307 307 307 306 306 306 306 307 307 307 307 307 307 308 309 309 309 310 311 312 313 313 313 314 315 315 314 314 314 313 312 311 310
319 319 319 319 318 318 317 316 314 311 309 308 308 308 308 308 308 307 307 307 307 307 307 307 307 307 307 307 307 307 307 306 306 306 306 306 307 307 308 308 308 308 308 308 308 308 308 308 308 308 308 308 308 308 308 308 308 308 308 308 308 307 308

ECMWFFLT1_850_thetae_102.txt.gz
Theta_e
352 350 351 353 352 351 350 350 351 351 351 353 355 354 353 353 352 352 348 342 341 342 344 346 345 343 342 342 342 341 342 343 344 344 346 347 351 352 353 352 351 351 352 353 352 349 345 344 344 344 344 344 345 345 346 345 345 345 344 343 344 343 343
353 351 351 352 353 352 351 350 351 352 352 353 354 353 353 354 353 352 347 342 341 342 342 344 346 345 344 343 342 341 341 342 343 343 346 347 346 348 350 352 352 350 350 352 353 350 345 344 344 344 344 345 346 345 345 346 345 345 345 344 345 345 343
353 351 351 351 352 352 351 351 352 352 352 353 353 353 353 353 351 348 346 343 342 342 342 343 345 346 346 344 343 342 342 342 342 342 346 348 348 349 351 349 349 352 352 351 351 350 349 347 345 344 344 345 347 346 345 346 346 345 346 345 345 347 344
354 353 352 351 352 350 350 351 352 353 353 352 353 353 352 350 347 345 344 344 343 342 342 342 345 346 347 347 345 343 342 341 341 344 349 352 351 352 354 350 348 353 353 352 352 351 351 349 346 344 344 345 346 346 345 346 347 346 345 345 346 348 346
354 354 354 352 351 349 348 348 350 351 352 352 353 353 352 347 344 343 345 345 344 344 344 344 348 350 348 347 347 346 345 342 340 344 349 352 353 353 353 352 351 352 353 355 353 350 347 347 347 346 344 344 345 347 346 345 347 347 345 345 348 351 350
352 353 354 353 350 349 348 347 347 349 350 351 351 352 351 348 343 342 344 344 344 345 345 345 348 351 349 348 350 349 348 344 341 341 344 348 351 352 352 352 352 353 352 354 355 352 348 347 349 349 347 348 349 351 351 348 349 351 347 344 347 352 354
352 353 354 353 351 349 349 348 347 347 347 347 350 352 352 349 346 345 345 346 346 344 344 343 347 351 350 349 350 350 348 346 344 342 343 346 348 349 351 352 352 352 353 353 354 354 352 350 349 348 347 351 352 353 353 349 347 351 350 346 344 347 351
354 354 353 353 352 350 349 348 347 347 345 344 347 351 352 351 349 350 348 348 349 348 344 343 347 352 350 348 349 348 348 348 348 347 344 346 348 349 349 351 351 351 353 353 353 353 354 353 352 349 348 351 352 351 350 347 343 347 352 350 346 346 350
354 354 353 352 352 350 349 348 348 347 346 343 343 345 346 347 347 348 347 347 348 348 345 342 346 350 351 348 346 347 347 348 350 349 347 347 348 348 349 349 350 350 351 352 352 352 353 353 354 352 347 348 349 346 346 345 343 347 351 350 346 346 350
353 353 353 352 352 351 348 347 347 347 347 345 344 342 342 343 342 342 344 343 342 344 345 344 344 348 349 346 344 346 349 349 349 349 349 348 348 348 349 348 349 350 351 350 350 352 352 353 355 353 346 346 346 344 344 345 344 346 349 348 346 345 346
352 352 353 352 352 351 350 348 347 347 346 346 346 345 343 343 342 341 342 342 342 344 345 343 344 346 347 345 344 346 348 350 349 349 349 349 347 348 348 347 347 348 350 350 349 350 352 352 354 352 347 346 349 347 345 345 345 345 348 350 350 347 348
349 350 352 351 351 351 351 350 348 347 346 344 345 345 344 344 344 344 343 343 343 345 346 343 342 344 345 346 346 345 346 348 349 349 349 348 348 348 348 348 347 347 348 348 348 349 351 352 354 352 348 347 350 351 349 347 346 345 345 350 354 352 351
347 348 349 350 350 350 351 351 350 349 348 347 346 345 345 345 344 345 345 345 344 344 344 343 343 343 343 344 346 346 345 346 347 348 349 350 349 348 348 347 347 347 348 348 347 348 349 351 353 353 351 347 348 352 351 347 347 346 343 346 353 354 354
346 347 348 349 349 349 350 350 350 350 350 349 350 349 350 348 347 345 345 346 345 344 344 345 345 344 343 343 344 344 344 346 346 346 346 348 349 349 349 349 348 348 348 348 349 348 347 349 351 352 352 351 350 351 351 348 347 347 343 344 348 352 354
347 348 348 347 347 348 348 348 348 349 350 350 351 351 353 352 351 351 349 348 347 345 345 345 345 344 344 345 345 344 343 344 345 345 344 345 346 348 349 350 350 349 350 350 350 348 347 348 350 351 352 352 352 351 351 351 350 351 350 348 349 351 354
347 347 346 346 345 346 346 346 347 348 349 350 350 351 352 352 352 352 352 351 350 349 348 347 346 345 345 345 347 346 345 344 343 343 344 344 345 346 347 348 349 348 348 349 349 349 349 348 349 351 351 351 352 351 350 351 352 352 350 349 350 352 354
346 345 345 344 344 344 344 344 345 345 346 348 349 349 351 351 352 352 352 352 352 351 351 350 349 348 346 345 346 347 346 345 343 343 345 345 346 346 346 346 348 348 346 344 345 346 347 346 348 350 351 351 351 350 350 350 351 351 347 345 347 349 352
345 344 344 344 343 343 344 344 345 345 346 347 348 348 349 350 350 351 351 352 352 352 351 351 351 349 349 347 347 347 346 344 343 342 344 345 346 346 346 346 348 349 346 342 342 343 343 343 345 346 349 351 351 349 350 350 350 350 347 344 345 345 347
343 343 343 342 342 342 343 344 344 345 346 347 347 347 348 349 349 350 351 350 351 351 352 351 351 351 350 350 350 350 348 345 343 342 342 343 344 345 346 345 347 349 348 344 341 342 343 343 344 343 345 349 351 351 351 350 350 350 348 346 346 346 345
342 342 341 341 341 341 341 342 343 344 345 345 346 346 347 347 348 348 349 349 349 350 350 350 350 350 350 350 350 351 349 347 346 345 344 344 344 345 345 345 346 348 350 348 345 346 345 345 347 347 344 345 348 350 350 351 350 350 348 346 347 347 346
341 340 339 339 339 339 338 339 340 341 340 340 341 343 344 344 344 345 346 346 347 348 348 348 349 349 349 350 349 350 349 349 348 348 347 345 345 345 344 344 345 347 349 349 349 350 351 350 351 352 349 346 346 347 349 349 347 347 347 346 346 347 346
339 338 337 337 337 336 337 337 337 337 337 337 338 339 340 340 340 340 342 343 344 344 344 345 346 346 346 347 348 348 349 349 350 350 349 349 348 348 347 345 346 346 348 350 350 350 352 352 352 353 353 352 351 351 350 346 343 344 344 344 345 346 346
337 337 336 335 334 334 334 332 331 330 331 332 333 335 337 337 337 337 339 340 341 341 342 343 343 343 344 344 344 346 348 348 349 350 350 350 350 349 348 347 347 347 348 348 350 350 350 351 352 353 355 354 353 353 349 344 342 343 342 343 345 346 346
335 334 334 332 331 330 328 326 325 325 325 324 324 326 329 333 335 336 335 335 336 336 337 338 338 338 340 341 341 343 344 346 347 348 349 349 349 349 349 348 348 348 349 348 348 349 350 350 351 352 353 353 352 352 349 347 347 346 345 346 347 347 347
333 332 331 330 328 328 327 326 326 326 326 325 324 322 321 322 325 328 328 328 328 328 328 328 328 328 329 332 334 339 341 343 343 344 345 347 347 347 348 348 348 349 349 347 347 349 350 350 350 351 351 351 350 350 350 350 350 349 349 349 349 349 349
332 332 331 330 329 328 327 328 328 327 326 326 325 324 320 317 316 317 319 320 320 319 319 320 319 319 320 320 323 328 334 337 338 339 340 343 344 344 345 346 346 347 348 347 347 350 350 350 350 350 349 349 348 347 348 350 350 349 349 349 348 349 350
330 332 332 330 329 328 328 328 328 326 325 324 324 323 320 316 313 312 314 315 315 315 315 315 315 315 315 316 316 319 322 326 329 330 331 333 336 339 341 343 342 343 346 346 347 348 348 349 350 350 348 348 348 348 347 349 349 348 349 348 348 349 349
329 330 331 330 329 328 328 327 325 324 323 322 322 321 317 312 310 311 312 312 312 313 313 313 313 312 313 313 314 315 316 317 319 321 322 323 325 328 333 336 337 339 341 342 341 341 343 344 345 345 347 348 348 348 348 349 349 349 349 349 349 349 350
330 330 330 330 329 328 326 326 325 324 323 321 319 317 314 310 308 310 310 309 309 310 310 310 311 311 311 311 312 313 314 315 316 316 317 317 318 321 323 326 328 330 331 333 336 337 339 340 340 341 343 344 345 346 346 347 347 347 347 347 347 347 347
329 329 329 329 327 327 325 322 321 320 319 316 313 312 311 309 308 308 308 307 307 308 308 308 308 309 309 310 312 313 313 314 314 315 314 313 315 317 318 319 321 321 321 327 333 335 336 336 337 338 339 340 340 340 341 342 343 343 343 344 344 344 344
328 328 328 327 326 325 323 320 316 316 315 313 311 310 309 308 307 307 307 306 306 306 306 307 307 307 307 308 310 312 314 315 315 315 315 315 317 317 316 318 319 318 320 326 331 333 331 330 330 331 332 334 335 335 336 338 338 340 341 340 339 339 341
328 327 327 326 324 322 321 319 316 315 314 313 312 310 308 307 306 306 306 305 305 306 306 306 306 306 306 306 307 309 313 317 319 319 318 319 320 320 320 322 321 320 323 329 330 330 330 330 329 330 331 332 333 334 336 336 336 336 337 335 333 332 333
326 326 326 324 322 320 320 319 317 316 315 313 311 310 308 307 306 306 307 309 308 307 306 306 307 307 307 307 306 306 308 311 314 317 319 320 321 322 322 323 324 324 326 329 329 329 331 331 331 331 332 333 333 333 334 335 334 332 330 329 331 332 331
324 325 324 322 320 320 320 318 317 316 315 312 310 308 308 308 307 306 308 310 310 307 305 306 307 307 307 308 308 306 306 307 310 312 315 314 314 316 318 320 322 325 326 328 329 330 331 331 330 330 330 331 331 330 328 329 331 331 329 329 332 334 333
322 323 323 321 319 318 318 317 316 316 314 311 309 308 307 307 307 306 307 307 307 306 306 305 306 308 310 313 314 312 311 313 314 314 315 313 308 306 309 312 315 318 320 323 326 328 328 329 330 329 328 328 329 327 325 326 329 331 331 331 332 332 332
322 322 321 320 318 317 316 316 316 316 313 310 308 307 306 307 307 307 308 307 306 306 306 305 309 313 315 316 316 315 316 318 316 312 313 316 315 311 308 306 307 310 312 315 317 320 322 324 325 325 325 326 327 326 325 326 328 328 328 329 327 326 325
322 321 321 320 318 317 317 317 317 315 312 309 308 307 307 308 307 308 308 308 307 307 306 305 309 314 315 312 310 309 312 315 315 310 308 311 313 313 312 311 308 305 305 307 309 310 312 313 315 316 317 318 319 320 320 319 320 319 318 317 316 314 313
321 321 321 320 318 318 317 317 316 314 310 308 308 308 308 309 308 308 309 309 308 307 306 306 310 313 312 308 306 305 306 308 310 309 307 307 306 306 310 315 316 312 307 306 306 306 307 307 307 308 309 309 309 311 310 309 309 309 308 308 308 307 307

ECMWFFLT1_850_thetae_105.txt.gz
Theta_e
353 354 353 351 351 350 349 349 349 349 349 350 352 352 351 349 349 349 351 353 354 352 347 345 349 351 350 349 348 348 348 350 352 352 354 356 356 357 356 354 354 353 353 352 352 354 353 351 351 353 350 344 345 347 347 347 345 345 346 343 345 349 351
353 354 354 353 353 351 350 350 350 349 350 351 353 353 351 350 350 350 352 353 353 353 350 346 346 350 352 351 350 349 347 350 354 354 355 356 354 355 356 356 355 353 352 353 354 354 354 352 350 352 350 346 346 347 346 347 345 346 350 347 344 346 345
353 354 353 354 354 351 350 350 351 350 350 352 352 353 353 353 352 351 352 353 353 352 352 351 348 349 352 353 353 351 348 351 354 353 355 355 352 354 356 355 355 353 353 355 355 354 354 354 350 349 350 350 351 349 345 347 346 346 350 347 345 350 346
353 354 352 352 354 353 351 351 351 352 351 351 350 349 351 354 354 353 354 354 354 352 352 353 352 352 353 353 353 353 351 351 353 353 355 354 352 353 355 354 353 354 355 355 354 354 355 355 353 349 347 348 353 352 347 348 348 345 346 344 346 352 350
354 355 352 351 353 353 353 352 353 352 351 351 350 348 350 353 354 355 355 356 356 354 352 351 351 352 354 354 353 354 353 352 353 353 354 354 354 353 354 354 353 353 355 355 354 354 355 356 355 352 348 346 350 351 348 347 349 347 345 343 346 351 353
355 356 354 353 353 353 353 353 354 354 353 351 350 350 352 354 355 356 356 357 357 356 353 351 352 352 353 354 353 354 354 353 353 353 353 354 355 354 354 354 353 352 354 354 354 355 354 354 355 355 353 350 351 353 353 351 352 352 348 344 345 349 351
355 355 355 354 352 352 353 353 354 355 355 353 350 351 354 355 356 356 357 358 358 357 356 353 352 352 352 352 353 352 353 354 353 353 352 353 353 353 354 355 354 353 353 353 353 354 354 353 355 356 355 354 354 355 355 354 354 352 349 347 346 346 348
355 354 355 354 352 350 350 351 352 353 354 354 352 353 355 356 356 357 356 356 357 357 357 354 352 352 352 352 352 352 352 352 352 352 352 352 351 352 352 353 354 353 353 353 353 354 355 354 355 355 355 355 355 355 356 356 353 350 351 352 349 346 350
354 354 355 355 353 350 348 347 348 350 352 352 352 354 356 356 356 356 355 355 356 358 357 354 353 352 353 353 353 352 352 351 351 351 351 351 350 350 349 350 352 353 353 353 353 353 354 354 355 356 355 355 355 355 356 356 352 351 354 356 352 348 352
354 355 355 354 353 353 351 349 347 347 348 350 352 353 355 354 354 355 356 355 355 358 358 356 355 354 354 355 355 353 352 351 350 349 349 348 348 349 349 348 349 351 352 353 352 352 353 353 355 356 354 354 356 354 352 353 351 351 355 356 353 350 351
354 355 355 354 353 354 353 352 350 347 347 348 349 350 349 348 348 351 354 355 354 355 357 356 355 355 356 356 356 354 353 351 350 349 348 348 347 346 348 347 347 348 350 351 351 351 353 353 355 357 352 350 355 355 351 350 350 350 353 356 355 352 352
354 355 354 353 354 354 354 353 352 349 347 347 347 346 344 343 342 344 349 354 354 354 356 356 353 351 353 355 357 356 354 352 351 349 348 348 347 346 346 346 346 347 348 350 349 349 351 352 354 356 353 350 354 357 353 349 350 351 351 354 356 355 354
354 354 354 353 353 353 354 353 352 350 348 348 347 343 342 344 343 342 343 346 348 350 352 355 353 349 347 352 356 357 354 353 353 351 349 348 347 346 346 346 345 346 347 348 349 348 349 351 353 355 355 352 352 357 356 350 350 352 349 352 356 356 355
352 353 353 353 353 353 354 353 353 352 350 348 347 344 344 346 345 344 343 343 343 344 345 349 352 350 347 349 355 357 356 354 354 353 351 349 348 347 347 347 347 346 346 347 348 348 347 348 351 354 356 356 354 355 357 353 350 351 350 351 355 356 356
351 352 352 352 352 352 354 353 353 354 353 350 349 347 347 347 347 347 347 346 345 344 343 345 347 348 348 349 351 354 356 356 355 353 352 351 351 350 349 348 348 348 348 348 348 349 348 347 348 351 353 356 355 355 356 355 352 352 353 353 353 354 355
351 351 350 350 351 351 352 352 352 353 353 353 352 351 351 351 351 352 351 350 349 347 346 345 345 345 348 351 352 351 352 354 352 349 348 348 350 351 351 351 351 350 350 351 350 350 349 348 347 349 351 353 355 354 354 355 353 351 353 353 351 352 354
350 349 349 348 349 349 350 350 351 351 351 352 352 353 353 353 353 353 353 354 353 351 350 349 347 346 346 349 352 351 350 351 351 348 345 345 347 348 349 351 353 353 352 352 352 352 352 351 348 347 348 351 353 353 352 353 351 350 352 352 350 352 355
348 347 347 347 347 348 348 348 349 349 350 351 351 352 353 353 353 353 353 353 354 353 352 352 352 351 349 348 348 348 348 348 350 350 347 346 346 346 347 348 350 353 354 354 353 353 353 352 351 349 349 349 351 351 351 350 350 349 351 351 349 349 351
347 346 346 346 346 346 346 346 346 346 348 348 348 350 351 351 352 352 352 353 352 352 352 352 353 353 352 351 350 349 348 346 347 349 348 347 347 347 347 346 346 349 353 355 356 356 355 353 352 351 351 349 350 351 350 349 348 349 350 351 350 347 346
345 345 345 344 344 345 344 345 345 345 346 347 347 348 349 350 350 350 351 351 351 352 352 352 352 352 352 352 351 350 350 348 347 348 348 348 348 348 349 348 348 347 349 352 354 355 355 354 353 353 352 351 350 351 350 349 349 349 349 350 351 348 345
344 344 344 343 343 343 343 344 344 344 344 345 345 346 347 347 348 349 349 348 348 350 350 351 351 351 351 351 351 350 350 349 348 348 348 348 348 348 347 347 347 347 347 349 350 351 352 350 349 351 352 352 351 349 349 351 350 349 348 349 350 350 346
342 342 341 341 341 341 342 342 342 342 342 342 343 343 343 344 344 345 345 344 345 347 348 348 348 348 349 349 349 350 350 350 350 350 349 349 348 347 345 344 345 345 346 346 347 349 350 349 348 350 349 349 349 348 348 350 351 350 349 350 351 349 347
340 339 339 339 339 339 339 340 341 341 340 340 340 340 340 341 340 341 341 341 342 343 343 345 345 345 346 346 347 348 348 349 349 350 350 350 349 348 347 346 346 346 346 346 346 347 349 349 349 349 347 346 347 347 347 347 349 349 349 350 350 348 346
338 338 337 336 335 335 334 335 336 336 337 338 338 338 338 338 338 338 338 338 338 338 338 340 340 341 342 343 344 345 346 347 348 348 349 350 350 350 350 349 349 348 346 345 345 346 347 349 350 349 347 347 346 345 344 344 346 347 347 347 348 347 346
336 335 332 331 330 330 330 329 329 329 330 331 332 334 334 335 334 334 334 334 333 332 332 333 334 336 337 338 340 341 343 344 345 346 346 347 348 349 350 350 350 349 348 347 346 346 347 349 350 350 350 350 348 346 345 343 344 345 345 345 346 346 346
333 331 330 329 329 329 330 329 328 328 328 327 327 328 329 330 330 330 330 330 330 328 325 323 325 328 331 333 336 337 337 339 341 343 343 344 346 346 347 348 349 349 349 348 348 347 348 348 349 350 351 351 350 348 347 345 343 344 345 346 347 348 349
332 331 330 329 330 330 329 328 327 326 326 326 326 326 327 327 328 328 329 328 328 327 323 317 315 318 322 326 328 329 329 331 332 334 337 340 342 343 344 345 346 347 347 346 346 347 347 348 349 350 349 350 350 348 347 347 345 344 345 347 349 350 350
333 331 330 330 330 329 327 326 326 324 324 325 324 324 325 323 322 324 327 327 327 326 324 320 315 313 315 317 318 320 322 322 323 325 329 334 337 339 341 341 341 341 341 341 342 344 345 346 347 348 348 349 348 347 347 347 346 345 346 348 349 349 350
333 331 329 329 328 327 326 326 325 324 324 323 323 324 323 318 314 316 319 322 324 324 322 319 316 315 314 313 313 316 317 317 318 320 322 325 328 332 335 335 334 334 335 335 337 339 341 343 344 344 345 347 346 346 347 347 347 346 347 348 349 349 349
332 330 328 328 327 326 326 325 325 324 323 322 321 320 317 312 308 308 310 312 315 316 314 313 315 320 321 318 316 315 314 312 314 316 318 319 321 323 325 326 330 334 335 334 335 336 338 339 340 341 342 342 341 342 343 343 345 346 346 347 347 347 347
330 329 328 327 326 325 325 324 324 324 323 320 316 313 312 311 308 307 307 307 307 308 309 308 310 317 322 323 323 322 320 317 314 313 314 316 317 317 317 319 325 331 334 334 334 335 335 335 334 335 336 337 336 336 336 338 341 343 344 344 343 343 343
329 328 328 327 326 325 324 324 324 324 323 321 319 316 314 312 308 306 307 307 307 306 307 306 306 308 312 316 319 322 324 325 324 321 319 318 318 318 320 320 321 325 330 333 332 333 333 332 331 330 330 331 331 331 333 335 337 338 338 338 337 336 336
329 328 328 327 326 325 324 324 324 324 323 322 322 321 317 313 312 312 315 318 316 310 306 308 310 309 307 309 312 313 314 318 321 324 325 325 325 325 326 325 324 325 328 329 329 330 331 331 330 329 329 329 330 330 332 333 334 334 333 332 331 331 331
328 328 328 328 326 325 325 325 325 324 321 318 318 319 318 316 315 314 316 318 316 310 305 307 310 310 310 311 311 311 312 313 317 321 323 322 321 321 323 325 325 325 327 328 328 328 328 328 328 326 326 328 330 331 330 330 331 332 332 330 329 330 331
326 326 327 327 326 326 326 326 324 322 318 314 313 312 311 311 311 311 311 309 308 307 306 307 312 315 317 318 317 316 317 319 320 322 323 321 314 309 310 315 318 320 321 325 327 328 328 328 328 327 327 327 329 330 330 328 328 329 330 330 330 330 331
323 322 324 325 326 326 326 324 321 319 315 312 311 309 309 310 311 312 312 310 307 307 306 311 318 321 320 320 321 320 321 323 320 319 321 324 323 317 310 306 308 310 313 317 321 324 326 327 327 328 328 328 328 329 328 328 328 328 328 329 328 327 327
325 323 323 323 324 325 323 319 318 318 315 312 310 309 310 311 310 311 312 310 309 308 306 309 318 322 320 319 316 314 317 322 321 318 317 318 322 323 320 314 308 306 306 309 310 313 317 319 321 323 323 323 324 325 325 325 325 324 324 322 319 318 315
329 327 325 324 322 322 321 318 318 318 315 312 310 310 312 314 312 312 313 310 308 308 306 308 315 319 318 315 310 306 311 316 316 315 314 311 312 316 320 322 320 315 312 310 307 306 308 309 310 313 314 314 315 314 315 315 314 313 312 310 309 309 307

ECMWFFLT1_850_thetae_108.txt.gz
Theta_e
355 353 353 352 349 348 349 350 350 349 349 348 348 349 349 349 349 352 355 354 349 345 348 349 346 345 345 346 346 344 344 344 344 345 345 346 346 347 349 350 349 351 351 348 349 352 352 352 352 352 350 345 343 345 345 343 343 345 346 347 349 350 349
355 353 352 351 349 348 349 350 350 350 349 350 349 350 350 348 348 349 352 353 350 346 345 347 348 347 346 349 350 347 344 345 344 345 345 345 348 350 350 350 351 352 352 350 351 352 350 351 352 353 352 346 342 343 344 344 343 343 344 343 345 346 346
354 354 353 352 349 348 349 349 349 349 350 351 350 351 350 348 349 348 350 353 350 347 347 346 346 348 347 351 354 350 347 349 347 345 348 347 346 348 349 350 352 352 352 352 354 353 350 350 350 350 351 348 345 345 344 345 344 342 344 344 343 345 344
352 355 356 353 350 348 349 349 349 349 350 351 351 352 350 348 349 349 350 352 350 349 350 347 345 347 347 349 352 352 350 352 351 349 351 352 349 349 350 352 352 351 351 352 352 352 351 351 349 347 348 348 349 349 345 345 345 344 344 344 343 344 345
352 355 356 354 351 350 349 349 349 349 350 351 351 352 352 350 350 351 351 353 353 351 351 350 349 351 350 348 350 352 350 351 354 353 353 354 352 351 352 352 351 349 351 351 350 351 352 352 350 348 347 346 348 351 348 345 346 345 345 345 343 342 345
353 356 356 357 355 353 351 350 350 350 349 352 352 352 353 353 352 351 352 353 353 352 352 352 351 352 353 352 352 353 350 349 351 353 353 354 353 351 351 351 351 351 352 352 351 352 353 353 353 352 349 346 347 352 353 348 347 347 346 345 344 344 345
353 354 355 356 356 354 352 350 351 351 349 351 353 351 352 355 354 352 352 353 352 351 352 352 351 351 353 353 352 353 353 351 351 351 352 354 354 353 352 351 351 350 351 352 351 352 353 353 353 352 351 351 351 353 354 351 349 349 349 347 346 345 345
353 354 354 355 356 355 354 351 350 352 351 351 352 350 350 353 354 353 353 353 352 351 351 350 350 351 352 352 352 353 354 354 353 352 353 353 352 353 353 352 353 352 351 352 352 352 353 353 353 352 353 355 354 353 354 353 350 349 350 348 346 345 346
353 354 354 355 355 354 354 354 351 353 353 351 351 350 348 350 352 351 351 351 351 352 353 351 350 351 351 351 351 352 352 353 353 353 353 352 351 352 352 352 353 353 352 353 352 351 351 353 354 353 354 355 354 355 355 353 350 349 349 348 346 345 348
355 355 354 354 355 354 354 355 354 354 354 351 350 349 350 352 351 348 347 350 352 354 354 352 351 351 352 353 352 352 352 351 352 352 352 351 351 350 351 350 351 353 353 353 353 350 350 352 353 353 354 353 354 356 354 351 349 348 348 350 347 345 348
354 354 354 354 355 354 353 354 355 355 354 352 349 350 352 352 351 351 350 351 354 356 356 355 353 351 351 352 353 353 352 350 350 350 350 349 350 349 349 349 348 350 351 351 352 351 351 352 351 353 354 352 353 355 353 351 352 350 349 352 351 348 348
352 353 352 352 354 354 353 353 354 354 354 353 351 352 355 353 351 353 353 353 356 356 355 356 356 353 351 352 353 354 353 352 351 350 349 348 348 348 348 348 347 347 349 350 351 351 351 351 351 353 353 351 352 353 351 350 352 352 350 352 355 354 352
352 354 352 352 354 354 353 352 352 353 352 353 354 355 356 354 352 353 352 353 356 355 354 357 357 356 355 355 356 355 354 353 352 351 350 349 348 348 347 347 346 346 347 348 350 350 350 350 350 352 352 349 349 351 350 347 349 351 349 349 353 354 354
352 352 352 352 353 354 354 353 351 350 349 351 354 354 352 350 349 349 349 351 353 354 354 355 355 354 354 354 356 357 356 353 352 353 352 350 349 348 347 346 346 346 346 346 348 349 350 349 349 351 352 350 349 350 350 349 350 351 348 347 349 351 353
351 351 351 351 353 354 355 354 353 352 350 349 351 351 350 348 347 345 345 347 351 354 355 354 352 353 352 350 351 355 357 355 354 354 353 352 351 349 349 347 346 346 347 346 347 348 349 348 348 349 351 352 351 350 352 353 353 352 349 346 345 349 352
349 350 350 350 352 354 353 353 353 353 352 351 349 349 348 347 345 344 343 345 348 351 352 351 350 350 351 351 351 354 355 355 354 352 349 350 350 349 350 350 349 348 348 347 347 348 349 348 347 347 349 350 352 352 353 354 353 353 352 348 346 349 352
347 348 348 348 350 351 350 352 353 352 353 353 350 349 349 348 346 346 347 348 348 348 347 346 346 345 346 349 352 354 353 352 352 352 349 349 347 346 346 347 348 350 350 350 350 349 349 350 349 348 347 348 350 352 353 353 352 353 353 350 349 350 351
347 348 349 348 349 350 350 351 351 352 353 354 352 352 351 351 351 352 353 353 352 353 351 349 347 345 343 345 348 351 353 352 352 351 351 350 348 345 344 342 343 344 346 349 351 351 351 352 352 351 349 348 348 350 351 351 350 350 351 351 351 350 350
346 348 349 348 348 348 348 349 349 350 351 352 352 353 353 354 354 354 354 354 354 354 355 354 351 348 347 347 346 347 350 352 353 351 350 349 347 345 344 343 341 340 339 342 347 351 353 353 351 351 350 349 348 348 349 349 349 350 349 349 350 351 351
346 347 347 347 347 346 346 346 346 346 347 348 349 350 351 353 354 354 354 353 353 353 354 354 352 351 351 351 350 349 348 349 350 350 349 348 348 346 345 345 345 344 341 338 342 350 353 353 352 351 350 349 349 349 349 349 349 350 349 349 350 352 353
346 346 346 345 346 345 345 345 345 345 346 346 346 347 348 350 351 351 351 351 352 352 352 352 351 351 352 352 352 352 351 350 350 349 349 348 348 346 346 346 348 348 346 343 345 349 352 353 352 350 349 348 348 350 351 349 349 350 348 349 350 352 352
344 344 344 344 344 344 344 344 345 345 345 345 345 345 346 346 347 347 348 349 349 350 350 350 351 351 351 351 352 352 352 351 351 350 350 349 348 347 347 348 348 349 348 348 348 349 352 353 352 349 348 348 347 350 351 350 349 350 349 349 350 350 350
342 341 342 342 343 344 343 343 343 343 343 343 343 343 343 344 344 344 344 345 345 346 346 347 347 348 348 348 349 349 349 349 350 350 350 350 349 348 348 349 349 348 349 349 349 349 350 351 351 350 350 350 349 350 351 351 349 348 348 349 350 349 349
340 340 340 340 340 340 341 341 341 341 341 341 341 341 342 342 341 340 341 342 342 341 341 341 342 342 343 344 345 346 346 346 347 348 349 350 350 350 349 349 348 348 348 348 348 347 346 347 347 348 349 350 350 348 348 348 348 348 347 348 349 350 350
336 335 336 336 335 334 335 337 337 338 339 339 338 338 338 338 337 336 337 338 338 337 336 337 338 338 338 339 340 341 343 343 344 345 346 347 349 349 349 350 349 349 348 348 347 346 345 345 345 345 346 348 348 347 345 345 345 345 346 346 348 349 349
333 332 331 331 330 330 331 332 332 333 333 333 333 334 333 333 333 332 332 332 332 331 330 331 334 336 337 337 337 338 338 339 341 342 343 344 345 347 347 348 348 348 349 349 349 348 347 346 345 345 346 347 348 348 346 345 343 343 344 344 345 346 348
331 331 330 330 330 329 328 328 328 329 329 329 330 331 331 332 331 331 330 330 330 329 327 324 325 329 331 332 334 335 335 335 336 338 339 340 341 342 344 345 346 345 346 347 348 348 349 348 347 346 346 346 347 349 349 348 346 344 344 345 344 345 348
331 331 330 330 328 327 326 326 326 326 326 327 328 329 330 329 329 330 330 329 329 330 328 323 318 318 320 323 325 327 329 331 334 336 338 338 339 339 340 341 341 341 342 343 344 345 346 347 347 347 347 346 347 348 349 349 349 347 346 346 346 345 347
331 330 329 328 327 326 326 325 325 324 325 326 325 325 323 320 321 323 324 325 327 329 329 326 322 317 317 317 317 317 318 322 327 331 331 332 334 335 337 337 336 335 336 338 340 342 343 344 345 345 346 346 346 346 347 348 349 349 348 348 347 347 348
330 329 328 327 327 327 326 325 324 325 324 322 318 315 312 310 311 313 315 317 320 323 324 327 328 327 323 320 318 317 315 315 318 321 322 321 323 327 333 336 335 335 334 335 338 340 340 341 341 342 342 342 341 341 342 343 344 346 347 348 347 347 347
329 328 327 327 326 326 325 324 323 323 322 319 313 309 309 309 308 308 309 309 310 312 315 317 322 325 326 326 327 326 324 322 319 318 319 320 319 322 328 332 333 334 335 334 335 336 336 336 335 336 337 338 337 337 337 338 340 343 344 344 345 346 346
329 328 327 326 326 326 326 325 324 324 323 321 317 313 309 308 308 308 309 309 308 308 308 308 310 313 316 321 325 328 329 328 326 325 325 326 326 325 326 329 331 332 333 334 334 333 333 332 332 333 333 333 333 333 334 335 337 338 337 338 341 343 343
329 329 327 326 325 326 326 326 325 325 324 323 322 318 314 313 313 314 317 319 316 309 306 311 314 311 308 311 316 322 325 326 327 327 328 329 331 329 327 327 328 327 326 328 331 331 332 331 331 332 333 331 329 330 331 332 333 333 332 332 335 335 336
329 328 327 326 326 327 327 326 326 324 322 322 322 320 316 315 314 312 315 317 314 308 306 310 314 314 314 315 314 315 318 321 323 324 324 324 326 324 318 316 319 321 323 324 325 327 329 330 329 329 330 328 327 329 331 329 329 331 331 331 330 330 330
329 329 327 326 327 328 328 327 325 322 319 318 317 314 312 311 310 310 310 309 309 308 306 307 312 318 322 323 321 320 321 322 323 325 324 323 322 318 311 307 309 313 320 324 325 325 326 327 327 327 326 326 326 329 330 328 327 328 329 330 329 329 329
328 328 327 326 327 328 329 327 324 320 318 317 315 312 313 312 311 311 312 310 310 310 307 310 318 323 323 322 323 324 325 324 322 323 325 326 325 319 311 307 306 307 310 316 320 323 325 326 326 327 327 327 327 328 329 329 328 328 328 329 328 326 324
328 327 327 326 325 327 326 325 322 319 318 318 316 313 314 314 312 312 313 311 311 310 308 311 320 323 321 320 319 321 324 324 321 321 323 327 328 323 315 313 315 316 314 311 310 311 314 317 321 323 324 324 323 323 324 325 326 327 326 324 321 317 314
329 328 328 327 326 326 325 322 320 319 318 319 318 316 315 314 313 313 313 311 311 309 307 310 318 322 319 314 311 313 317 318 316 316 317 320 323 322 320 321 324 324 321 316 312 309 309 308 310 311 313 313 313 313 314 315 316 316 316 313 311 308 306

ECMWFFLT1_850_thetae_111.txt.gz
Theta_e
351 353 354 351 350 348 346 347 348 349 348 347 349 349 350 351 351 352 352 347 342 342 346 345 343 342 342 343 343 342 343 345 344 346 347 346 346 345 344 345 345 345 344 345 346 346 345 348 348 343 342 344 343 342 344 344 343 343 345 346 348 352 351
351 353 354 352 350 348 347 348 348 350 349 348 348 349 350 351 351 352 351 347 342 342 344 345 343 343 342 343 343 343 342 344 344 345 346 345 344 344 344 346 346 345 346 346 346 346 347 349 351 350 348 346 344 343 344 344 344 344 343 344 346 349 348
352 353 354 353 350 347 348 350 350 350 350 349 349 349 350 351 351 351 350 347 343 342 344 346 344 343 343 342 344 344 343 343 343 344 344 344 345 346 346 347 347 347 348 348 347 347 348 349 350 351 351 348 346 343 342 344 343 344 343 342 343 344 344
353 354 353 353 351 347 347 350 351 350 349 349 349 349 348 351 352 352 351 349 345 342 343 346 344 343 343 343 345 345 344 343 344 344 344 344 345 348 348 348 348 349 350 350 350 350 350 350 349 350 350 348 346 343 341 343 344 343 343 342 343 343 343
354 353 353 352 351 348 347 349 351 350 349 348 349 349 349 350 351 351 351 350 346 342 342 344 346 345 344 344 346 347 346 344 344 344 344 345 346 347 348 348 348 349 349 350 352 352 351 350 350 349 348 346 346 344 343 344 344 344 343 343 343 343 341
355 353 353 352 351 349 348 349 350 349 348 349 348 350 349 349 349 349 349 350 348 345 343 344 346 347 346 345 346 348 348 347 347 346 346 347 349 348 348 348 348 348 347 349 351 351 349 350 350 348 347 347 346 345 345 346 344 344 344 344 344 343 342
354 353 353 352 351 351 350 349 348 348 349 349 349 350 350 349 348 348 348 350 350 348 346 345 346 347 348 347 346 346 347 347 347 347 348 350 351 350 349 349 349 347 348 350 349 349 349 350 351 349 349 349 347 345 347 349 348 345 345 345 344 344 344
354 354 354 353 352 352 351 349 348 348 349 350 350 350 350 350 349 349 350 351 351 350 349 350 351 352 351 349 349 350 349 348 346 346 350 351 351 352 351 350 350 348 349 350 350 350 350 350 351 352 350 350 349 348 348 350 351 348 347 346 345 345 345
352 353 353 354 354 352 351 349 349 349 349 350 351 350 350 350 351 350 350 352 353 351 350 351 354 354 352 350 352 354 354 352 350 348 350 352 351 353 353 352 351 350 350 350 350 351 351 351 352 352 351 351 352 352 351 352 353 352 350 347 346 346 345
352 352 352 354 356 355 352 349 349 350 350 350 351 351 351 352 352 351 351 351 352 351 351 352 351 352 353 351 351 353 354 354 354 353 352 352 352 351 352 351 351 351 352 352 352 352 351 351 352 352 352 353 354 354 354 353 353 353 351 348 348 347 346
352 352 352 353 355 355 353 351 350 351 351 350 351 351 351 352 352 351 351 351 351 351 351 351 350 350 352 352 351 352 353 353 353 354 353 352 352 351 351 351 350 350 351 352 352 352 352 351 351 351 353 353 353 352 352 353 353 352 351 349 348 348 348
353 352 351 352 354 355 354 353 351 351 351 351 351 352 352 353 353 352 353 353 352 351 349 349 349 349 349 351 351 351 352 352 352 353 352 351 350 351 351 350 349 349 348 349 349 351 352 351 350 351 352 352 352 351 352 352 352 351 350 349 350 351 351
352 351 350 351 353 354 354 354 353 354 354 353 352 351 351 352 353 353 353 352 350 349 348 348 347 346 348 350 351 352 352 351 350 351 350 350 349 349 349 349 348 348 348 348 348 349 350 350 350 351 350 350 352 352 351 350 350 351 350 349 350 352 353
349 348 348 350 352 353 354 353 353 352 353 353 352 350 349 350 352 352 351 350 349 348 350 349 346 347 350 351 352 352 352 351 351 350 350 349 348 348 348 347 347 347 347 347 347 348 348 349 350 350 349 350 351 351 350 349 348 348 349 351 351 352 354
349 348 347 349 351 352 352 353 352 351 350 351 350 350 351 351 350 348 348 349 350 351 351 349 349 350 353 354 351 349 350 352 352 351 350 349 348 348 348 347 347 346 346 346 346 347 348 349 350 349 349 349 350 351 351 350 349 348 349 351 351 352 353
349 349 349 349 352 352 351 351 352 350 350 349 348 351 353 353 352 351 351 353 353 352 352 352 353 353 353 353 349 345 349 354 353 351 351 350 348 348 347 347 347 347 346 346 345 346 347 347 348 349 349 349 349 350 350 351 351 350 350 350 349 349 350
346 347 348 349 351 350 348 348 349 349 350 350 351 353 352 351 351 351 352 355 356 355 355 355 354 354 355 354 350 350 354 356 355 352 350 350 349 349 348 348 347 346 346 346 346 346 346 346 348 347 347 348 350 350 350 352 351 352 352 351 350 350 349
345 345 346 348 348 347 345 347 348 350 350 350 351 351 350 347 347 346 346 348 352 353 354 355 355 355 355 354 353 354 355 356 356 353 350 349 348 348 349 349 348 347 347 347 346 347 346 347 347 347 346 347 349 349 349 351 352 351 351 351 351 351 351
346 346 345 345 346 345 345 347 349 351 351 350 349 349 349 349 347 347 344 344 346 349 349 351 353 352 350 348 347 349 351 353 354 353 351 350 349 348 348 348 348 348 347 347 348 348 348 347 348 348 347 347 348 348 347 347 349 350 350 350 350 351 350
345 346 346 345 345 346 346 347 348 349 350 351 351 350 350 351 350 350 347 345 347 350 350 350 350 349 347 345 344 344 346 349 352 351 352 352 351 349 348 347 347 347 347 348 347 346 345 344 344 346 348 349 350 350 349 347 347 348 348 349 349 350 350
345 345 345 344 344 344 345 346 347 346 347 348 349 351 351 351 351 351 350 349 350 351 352 352 351 351 351 349 347 345 345 346 347 349 350 352 352 351 350 349 347 346 346 347 347 346 344 341 340 343 348 351 351 350 349 348 348 348 348 349 348 349 348
345 345 344 344 344 344 344 345 343 343 344 344 345 347 348 349 350 350 350 351 350 351 351 351 350 350 351 351 351 350 349 348 348 347 347 349 351 351 350 349 348 347 346 346 348 348 346 344 342 342 346 351 351 349 348 348 347 347 347 348 349 348 348
343 344 344 343 344 343 343 343 342 342 344 344 344 344 345 345 346 347 347 347 347 347 347 346 347 349 350 351 350 351 351 351 351 350 349 349 350 350 349 349 348 347 346 346 348 349 347 347 346 346 348 350 350 346 345 344 344 343 344 346 348 349 350
340 341 342 342 342 343 343 343 342 342 342 342 341 341 341 342 342 342 343 343 343 343 343 342 343 344 345 347 347 347 348 349 349 350 350 350 350 350 349 349 348 348 347 347 349 350 348 348 350 351 351 351 350 346 344 344 345 345 345 347 347 348 350
336 337 339 339 339 340 340 340 339 340 341 340 339 338 339 340 339 339 339 339 340 340 340 340 340 340 340 342 343 344 344 345 345 346 347 347 348 349 350 350 349 349 348 348 349 349 348 348 349 350 351 350 349 348 347 346 346 347 347 347 347 348 348
332 333 334 333 333 334 334 333 334 336 337 336 335 335 335 335 335 334 334 334 337 339 338 338 338 337 338 338 339 340 341 341 342 343 344 345 346 347 348 349 349 349 349 349 349 349 348 348 348 348 348 348 347 347 347 347 347 348 347 346 345 346 347
330 329 329 329 329 330 330 330 332 333 333 333 332 332 332 331 331 330 327 327 330 334 336 336 336 335 335 335 336 336 338 339 339 340 340 341 342 343 344 345 346 348 348 348 348 349 349 348 348 347 347 346 346 345 345 345 346 347 348 346 344 344 344
329 328 328 328 328 327 327 328 329 330 330 331 332 331 331 330 329 330 328 327 326 325 326 327 326 324 323 324 325 327 332 336 337 337 337 338 338 339 339 340 341 344 345 345 346 347 348 347 348 348 348 347 346 346 346 345 345 347 348 348 347 345 343
328 327 326 326 325 325 325 326 326 328 329 328 329 330 330 329 328 328 329 329 328 326 324 322 319 317 317 318 318 319 322 327 328 329 333 336 337 336 336 336 336 338 340 342 343 344 345 345 346 346 346 346 346 346 346 346 346 347 348 348 348 347 346
328 327 326 326 325 325 325 325 325 326 326 323 320 321 322 320 321 322 322 322 325 327 327 327 326 325 326 326 326 325 321 320 320 322 325 331 335 335 335 335 334 335 336 337 339 341 342 342 342 342 343 343 343 343 344 344 343 343 343 345 347 347 347
327 327 326 325 325 324 322 321 319 318 316 313 311 311 312 311 312 313 313 314 316 317 319 322 325 328 329 329 330 329 328 326 327 327 326 327 330 333 333 334 334 334 333 334 335 336 336 336 336 336 338 338 339 339 339 339 339 339 340 341 344 346 346
327 327 326 325 324 323 321 321 320 317 313 309 308 309 309 309 309 308 308 308 308 309 310 312 316 321 326 328 328 328 328 329 329 329 328 326 325 326 330 333 334 333 333 333 332 333 333 333 333 333 333 334 335 335 335 335 337 337 338 339 341 343 345
327 326 326 325 325 324 324 325 324 322 318 316 316 314 313 313 312 311 309 307 307 307 308 308 309 311 316 323 327 327 328 329 329 329 329 328 325 322 323 329 333 333 332 332 332 332 333 332 332 332 332 330 330 332 333 333 334 333 333 334 336 337 338
327 326 325 326 326 326 326 325 323 321 321 320 318 316 314 313 312 311 309 308 308 307 308 311 314 315 316 319 323 325 325 325 326 326 327 328 327 321 315 319 327 330 329 329 329 330 331 330 331 331 331 327 326 328 331 331 330 330 330 331 331 331 331
328 326 325 327 327 326 326 326 323 320 319 317 315 313 312 311 311 311 310 309 308 307 309 314 320 323 322 321 322 324 325 323 323 323 322 323 323 319 310 309 316 322 323 325 328 328 328 328 329 328 327 324 323 326 329 329 328 329 329 329 329 328 327
328 327 326 327 328 327 326 326 324 321 319 318 317 316 316 315 313 312 311 311 310 308 310 315 319 322 323 323 323 324 324 324 323 323 322 321 320 315 310 308 310 312 315 319 324 326 326 327 328 327 327 327 327 327 327 326 326 327 327 326 325 322 319
328 328 327 327 327 327 327 328 326 323 320 319 319 319 319 319 317 315 313 312 311 309 310 315 319 320 321 323 324 324 323 322 321 321 323 324 320 315 315 318 318 316 314 313 313 315 316 317 320 322 323 325 325 324 322 321 321 321 321 320 318 313 309
328 328 327 326 326 326 325 325 325 322 320 319 319 319 320 320 319 319 316 314 312 310 310 313 316 317 318 320 322 324 323 322 320 319 322 325 322 316 317 322 323 321 318 315 313 312 311 310 311 312 312 313 313 312 312 311 311 312 312 311 309 306 305

ECMWFFLT1_850_thetae_117.txt.gz
Theta_e
347 349 350 346 342 344 345 345 346 346 345 345 345 345 347 346 347 347 346 345 344 342 340 338 338 341 345 348 348 348 348 348 348 348 347 347 347 346 346 345 346 346 346 344 343 343 342 343 342 342 342 343 343 342 341 341 342 343 345 346 346 345 345
347 349 352 348 343 343 345 345 345 345 345 345 344 345 346 346 347 347 345 345 344 342 340 339 339 341 345 347 347 347 347 348 348 348 348 348 347 346 346 346 346 347 347 346 346 345 344 343 342 341 342 342 342 342 341 342 343 343 343 344 345 346 346
347 349 352 351 344 342 345 345 345 346 345 344 344 345 346 346 346 346 344 344 345 344 342 341 340 342 344 345 345 346 346 346 346 347 348 348 347 346 346 347 347 347 347 347 346 345 345 345 344 342 341 341 342 342 341 342 343 343 343 342 343 344 345
348 348 351 352 347 342 344 345 345 346 345 345 344 344 345 346 346 346 345 345 346 345 343 342 341 342 344 343 343 344 345 345 345 345 346 346 345 346 347 348 348 348 347 346 346 345 344 345 346 345 343 343 344 345 344 344 344 343 342 342 342 342 342
349 349 350 352 350 344 342 344 345 345 346 346 344 343 344 345 346 348 347 347 347 347 345 343 341 342 343 342 342 342 343 344 344 344 346 346 345 346 347 348 348 348 346 345 345 345 344 344 345 346 346 345 346 347 346 347 346 344 342 342 342 341 341
349 350 350 352 351 346 343 342 344 344 345 346 344 344 345 346 347 348 348 348 349 348 348 346 343 342 342 342 342 342 342 342 343 343 345 346 347 347 347 347 347 346 345 344 345 344 344 344 344 346 347 347 348 348 347 347 347 344 342 342 342 342 341
349 350 350 351 351 349 344 342 343 344 344 345 345 345 346 346 347 348 348 349 349 350 349 348 345 342 342 343 342 342 341 342 342 342 343 345 346 346 346 346 346 344 344 345 345 346 345 345 345 346 348 348 349 348 347 346 347 345 343 342 342 342 342
349 350 350 350 351 350 346 343 342 344 344 345 346 347 347 347 348 348 348 348 349 350 350 349 347 342 341 342 342 341 341 342 342 342 342 343 344 344 344 344 344 344 345 345 346 348 347 347 348 349 349 349 349 349 347 346 346 346 345 343 343 343 342
349 350 350 350 351 350 347 345 344 344 344 345 346 347 347 347 348 348 348 348 349 349 349 349 348 343 340 341 341 341 341 342 342 342 342 343 343 343 343 344 345 346 346 346 347 348 348 349 350 350 349 350 349 348 348 347 345 346 347 346 344 343 343
350 350 350 350 351 351 348 346 346 346 346 346 347 347 348 348 348 349 348 348 349 349 349 349 347 343 340 340 340 341 341 341 342 342 342 342 343 343 343 343 345 347 347 347 348 348 348 349 349 350 350 350 349 349 349 348 345 345 347 348 346 345 345
350 350 350 350 351 351 350 348 346 346 346 347 347 348 348 348 348 348 348 348 348 348 348 348 346 343 340 340 340 341 342 342 343 344 343 342 343 344 344 345 346 347 347 348 348 347 348 349 349 350 350 350 350 349 348 348 347 346 347 349 349 348 347
350 350 351 351 351 351 350 349 348 346 346 347 349 349 351 352 352 351 350 350 350 350 350 350 347 343 340 340 341 341 342 342 343 344 344 344 345 345 346 347 348 347 347 347 347 347 348 350 350 349 349 349 350 349 348 349 350 349 349 350 350 350 349
350 351 351 351 351 351 350 350 349 348 347 348 349 349 351 352 353 354 353 354 354 354 353 353 352 348 343 340 341 342 342 343 343 344 343 344 345 346 347 349 349 348 348 348 348 348 349 350 350 349 349 349 349 349 349 349 350 350 350 350 350 350 349
350 349 350 350 350 351 351 349 348 348 348 348 349 348 349 350 351 352 353 353 353 353 351 350 351 351 348 344 343 343 342 342 343 343 343 344 345 345 345 348 349 349 349 349 350 350 350 350 350 351 350 349 349 349 349 350 350 349 349 350 350 349 348
349 349 349 349 350 350 350 350 349 348 348 349 349 349 349 349 349 349 349 350 350 351 350 347 347 349 349 347 347 347 346 346 345 344 344 347 349 347 345 346 348 349 349 349 350 349 349 349 349 350 351 350 350 349 350 350 350 349 349 349 349 349 348
348 349 349 349 350 350 350 351 349 348 348 348 348 348 348 348 347 347 347 347 348 351 352 349 345 346 347 347 347 347 348 350 351 351 350 351 352 351 349 348 348 349 350 350 349 349 348 348 348 349 350 350 350 350 350 350 350 350 350 350 349 348 348
346 347 347 348 349 350 349 350 350 348 348 348 348 348 348 348 347 347 347 347 348 351 352 348 345 347 349 348 345 345 347 350 352 353 353 353 353 352 352 351 350 350 350 350 349 349 348 348 347 348 348 349 350 350 349 349 349 350 351 350 350 349 349
345 346 347 347 348 349 347 348 349 350 350 349 348 349 349 348 348 347 348 349 351 352 349 345 346 349 351 350 347 347 349 349 350 351 351 351 351 351 352 352 352 352 351 349 349 349 348 347 346 346 347 347 348 349 349 349 349 349 349 350 350 350 350
345 346 346 346 347 347 347 347 347 348 349 350 349 349 349 349 349 347 349 351 352 350 347 347 350 351 351 352 351 350 350 350 350 351 350 349 348 350 351 351 350 351 351 350 349 348 347 347 346 346 345 345 346 347 348 348 348 348 348 348 349 350 351
344 344 344 344 345 346 346 346 346 346 347 348 349 349 349 349 349 349 351 352 350 346 345 348 351 350 348 349 350 350 350 349 350 350 349 348 347 349 351 350 349 350 350 349 348 347 347 346 346 345 345 345 345 346 347 347 347 347 347 347 348 349 350
344 344 343 343 344 345 345 345 346 346 346 347 348 349 349 349 349 350 351 351 349 347 346 349 350 349 347 348 348 349 349 349 349 349 349 349 348 348 349 349 349 349 348 347 346 347 347 347 346 346 346 346 346 346 346 346 346 346 346 347 347 347 348
343 343 343 342 342 343 344 344 345 345 345 346 347 347 347 348 348 349 349 349 349 349 350 350 350 349 349 349 349 349 349 349 350 351 351 350 350 349 349 350 351 351 350 349 346 346 348 348 347 347 347 346 346 346 346 346 346 347 347 346 347 346 347
343 342 342 342 342 343 343 344 344 344 344 345 345 346 347 347 347 348 348 348 349 350 350 350 351 351 350 351 351 351 351 351 351 352 351 350 349 348 349 350 351 351 352 352 350 350 350 348 347 348 348 348 348 347 347 347 347 347 347 346 346 346 346
343 343 343 343 343 343 343 343 343 343 343 343 343 345 346 346 347 347 347 346 346 347 347 347 348 349 349 349 349 348 349 351 351 350 349 349 347 345 347 348 348 348 350 352 352 352 351 349 347 348 349 349 349 348 347 347 348 348 348 348 348 347 347
342 342 342 342 342 342 341 341 342 342 341 341 341 342 343 344 345 345 345 345 345 345 345 344 344 345 345 345 344 344 346 349 349 348 348 347 346 345 345 345 346 347 348 349 349 349 349 348 348 349 350 349 349 348 348 348 348 348 349 349 349 349 349
339 340 341 340 339 339 338 339 339 338 338 338 338 339 339 340 340 341 342 343 343 343 344 344 343 344 345 346 346 345 346 347 348 349 348 348 348 347 348 347 347 346 346 346 347 347 348 348 348 349 350 349 349 349 349 349 349 348 347 348 349 349 349
336 338 339 339 338 336 335 335 335 335 336 336 335 335 335 336 338 338 339 339 339 340 340 339 339 340 341 343 345 344 345 345 345 346 346 347 347 347 347 347 347 347 347 347 348 347 347 347 347 348 348 348 348 349 349 349 349 348 348 349 349 349 349
333 336 337 337 335 334 333 332 330 329 330 330 329 331 334 336 337 337 338 337 335 334 334 335 336 337 338 339 339 340 340 340 341 342 342 343 343 343 344 345 344 345 346 346 347 347 346 347 348 348 348 348 348 348 348 348 348 348 348 349 348 349 349
332 333 333 332 332 331 332 331 328 325 326 327 326 327 330 335 336 334 332 330 327 325 326 329 331 333 336 337 335 336 337 337 337 338 338 338 338 338 340 342 342 343 344 344 345 345 346 347 347 346 347 347 347 347 347 347 347 346 346 346 346 347 348
330 329 328 328 328 329 330 331 330 328 329 329 328 326 324 326 326 324 322 321 321 321 323 325 327 328 330 329 328 331 336 335 334 335 335 335 335 334 335 337 338 339 341 342 343 343 344 345 345 344 345 345 344 344 344 344 344 344 344 345 345 345 346
327 326 326 326 327 328 329 330 331 330 330 330 330 329 326 322 318 316 317 318 320 322 324 325 325 324 322 321 320 326 331 331 331 333 333 331 331 331 332 332 332 334 337 338 339 340 340 341 341 341 341 341 341 341 341 341 341 341 341 341 341 341 342
325 324 323 323 323 323 323 325 327 328 328 328 327 327 327 327 324 321 322 324 324 326 327 327 327 326 324 323 323 325 327 326 326 327 327 327 328 330 331 329 329 330 333 335 335 335 336 336 336 336 337 337 338 338 338 338 338 338 338 338 338 339 340
324 323 319 315 313 312 312 313 316 317 317 317 317 316 318 321 322 322 324 326 326 326 327 328 328 328 328 327 327 327 326 325 324 322 321 321 323 324 326 328 329 329 330 331 330 330 332 332 330 330 331 333 334 334 334 335 335 335 335 335 335 336 337
325 324 320 317 316 316 314 312 312 312 312 312 312 311 310 311 312 313 315 318 320 321 323 326 327 327 327 328 327 327 327 327 326 324 322 321 320 320 321 323 327 329 329 327 326 327 329 329 327 325 327 329 330 330 330 330 329 329 330 330 330 330 331
324 325 324 323 323 324 322 319 317 316 316 315 314 313 311 310 309 308 309 311 313 314 317 322 325 325 325 326 327 327 326 326 325 323 322 321 320 320 318 319 324 328 328 326 326 326 326 326 325 325 325 326 328 328 328 328 328 327 327 328 327 327 327
324 325 325 325 326 325 324 323 322 321 320 319 318 317 316 315 313 311 309 310 312 313 314 317 320 322 323 324 324 324 324 324 323 323 322 320 317 314 313 315 321 326 326 326 327 327 326 326 325 324 322 322 323 324 325 326 326 326 327 328 328 327 326
325 326 326 325 325 325 325 324 325 324 323 321 320 319 319 318 318 316 313 312 313 315 316 317 317 319 320 321 321 323 324 324 324 324 322 319 315 311 309 310 315 320 321 322 324 325 325 324 322 319 316 313 313 313 313 314 315 315 317 320 321 322 321
326 326 326 325 325 325 325 325 326 326 325 323 321 321 320 320 320 320 318 315 313 313 314 315 314 315 318 319 321 322 324 324 324 324 322 319 317 315 312 310 312 313 313 314 316 317 316 315 313 312 310 309 308 308 307 307 306 306 307 308 309 310 309

ECMWFFLT1_850_thetae_120.txt.gz
Theta_e
347 347 345 342 341 341 341 341 341 342 342 344 344 344 345 345 345 346 346 346 345 344 346 346 343 340 339 342 343 345 346 346 347 347 347 348 348 347 347 348 346 342 342 342 341 340 340 341 341 341 342 341 341 341 340 342 342 343 343 345 347 346 345
347 348 347 343 341 341 341 341 341 342 342 342 343 344 344 345 344 345 346 346 345 343 344 345 344 340 338 339 341 342 344 345 346 347 347 347 348 348 348 348 348 346 345 345 344 342 341 342 342 342 342 342 341 341 341 340 340 341 342 344 346 346 346
347 347 348 346 343 341 341 341 341 342 342 342 343 343 344 344 343 343 344 346 346 345 342 344 343 340 338 338 339 340 343 345 346 346 347 347 348 348 348 348 349 348 347 347 347 346 345 344 344 343 342 341 342 341 341 341 340 341 343 344 345 345 345
348 347 347 348 346 343 341 341 341 342 343 342 342 343 343 342 342 342 343 345 346 345 341 341 341 339 337 338 338 340 344 345 345 345 346 347 347 348 348 349 348 348 347 348 348 348 348 347 345 344 342 341 341 341 340 341 341 341 343 344 344 344 344
346 347 347 348 348 345 343 342 342 342 343 343 343 343 343 342 342 342 343 344 345 345 342 339 338 338 337 337 337 340 344 345 345 345 345 345 346 347 348 348 348 347 348 348 348 348 348 348 346 345 345 343 342 341 341 341 341 341 341 342 343 342 342
345 346 347 348 348 347 345 343 342 341 342 342 343 343 342 342 342 342 343 343 345 346 345 342 340 338 338 338 338 341 343 343 344 344 345 344 344 345 346 346 347 347 348 349 348 348 348 347 345 345 346 346 345 344 344 343 343 342 342 341 341 342 342
346 346 347 347 347 347 347 344 342 342 343 343 343 343 344 343 343 343 343 344 345 347 346 344 341 339 339 339 339 341 342 342 342 343 344 344 343 344 345 346 346 346 347 348 348 348 346 346 345 344 345 346 347 347 348 348 346 346 345 342 341 341 342
347 346 347 347 347 347 347 346 344 343 343 343 344 345 344 344 343 343 343 343 345 347 346 344 342 341 341 340 340 341 341 341 341 342 343 343 343 343 345 346 346 347 347 347 347 347 345 345 344 344 344 345 347 348 349 349 349 349 347 346 344 342 342
347 347 347 347 348 348 347 348 346 344 343 344 345 345 344 344 344 343 343 343 345 347 347 346 344 344 343 342 340 341 341 342 341 341 341 341 342 342 344 344 345 346 346 345 345 345 344 345 346 346 346 346 347 349 349 350 350 350 349 348 347 345 343
347 347 347 347 348 348 349 349 348 346 344 343 345 345 345 344 344 344 343 344 345 347 348 348 347 348 347 345 343 341 341 342 341 341 341 341 341 341 342 343 344 345 345 344 344 344 345 346 347 348 348 348 348 349 350 350 350 351 349 348 347 347 346
348 348 348 348 349 349 350 350 349 347 344 343 345 346 346 346 346 347 347 347 347 348 349 349 349 349 349 348 346 343 341 342 342 341 340 341 341 341 341 342 343 344 344 344 346 346 346 346 348 349 349 349 349 349 350 350 350 351 350 347 346 348 348
349 349 349 348 349 349 350 349 347 345 344 344 345 346 347 348 348 348 346 345 346 347 349 349 349 350 350 349 349 345 342 340 341 341 340 341 341 341 341 342 342 342 343 344 346 347 347 348 348 349 349 349 349 349 349 350 350 351 350 348 347 349 350
349 349 349 349 349 349 349 349 347 344 343 344 345 346 347 347 347 347 345 343 344 346 347 349 349 350 350 350 350 348 345 341 341 341 341 341 342 342 342 342 342 343 344 345 347 347 348 349 348 348 349 349 349 349 350 351 350 350 350 350 349 350 351
348 349 349 349 349 349 349 350 348 346 345 345 346 347 347 348 348 347 344 343 344 345 346 347 348 350 350 349 349 349 346 343 341 342 342 341 342 343 343 343 344 345 346 347 348 348 348 348 348 348 349 350 350 350 351 351 351 351 351 351 351 351 351
348 348 348 348 349 349 349 349 347 347 346 345 345 346 347 348 349 349 347 346 345 345 345 346 348 349 350 349 349 348 344 341 341 342 342 341 342 343 344 344 345 346 347 349 350 349 349 349 349 349 349 350 350 350 350 351 350 351 351 351 351 351 351
347 347 347 347 348 348 349 348 349 348 348 346 346 346 346 346 347 349 349 348 348 346 346 346 347 348 349 349 348 348 344 340 340 341 342 342 342 343 343 345 345 346 348 350 350 350 350 350 350 350 350 350 350 351 350 350 350 350 351 351 351 351 351
345 346 346 347 347 348 348 348 348 349 348 347 347 346 346 345 346 348 349 350 350 348 348 348 347 347 348 348 348 349 347 344 341 341 342 342 342 343 343 344 345 345 346 348 350 350 350 350 350 350 350 349 349 350 350 350 350 349 350 350 351 351 351
345 345 346 346 347 347 346 347 348 348 348 348 348 347 347 346 347 348 348 349 350 350 351 351 348 348 349 350 348 348 349 347 345 343 343 343 343 343 342 343 345 346 345 345 348 350 350 350 350 350 349 349 348 348 348 349 349 349 349 349 350 350 350
344 344 345 345 346 346 346 346 346 347 348 348 349 348 347 347 346 347 348 350 350 351 353 353 350 348 350 352 350 348 348 348 347 346 344 344 346 346 345 345 347 348 346 344 346 349 351 351 349 349 349 348 348 347 347 348 349 349 349 349 349 349 349
343 343 343 343 344 345 345 346 346 347 347 347 348 349 348 348 347 347 347 349 350 351 352 351 350 348 349 352 350 348 347 348 348 346 345 346 348 350 350 348 349 348 346 346 346 348 349 349 349 348 348 347 346 346 346 346 347 347 348 348 348 348 348
342 342 343 343 344 344 344 345 345 346 346 346 346 347 348 348 348 348 348 348 348 349 349 349 349 349 351 352 351 349 350 351 350 348 347 349 350 351 351 349 348 348 347 347 348 348 349 349 348 348 347 347 346 345 345 346 345 346 346 347 347 347 347
342 342 342 343 343 344 344 344 344 344 345 345 345 346 347 348 348 348 348 349 349 349 350 350 349 349 351 351 351 351 351 352 352 351 350 351 349 349 348 348 347 347 347 347 347 347 348 348 348 347 347 347 346 345 345 345 345 345 346 345 345 346 346
342 342 343 343 343 343 343 343 344 344 344 345 345 346 346 346 347 348 348 349 348 348 349 348 347 348 349 349 349 349 350 350 350 350 349 349 347 346 347 348 348 349 349 349 348 348 349 349 349 348 347 347 346 345 345 346 346 346 346 346 345 346 346
342 342 343 343 342 342 342 342 343 343 344 344 345 346 346 346 346 347 347 348 347 347 347 348 347 348 348 348 348 348 349 349 349 350 349 349 348 348 348 349 348 349 351 352 352 351 351 351 351 350 349 348 347 347 346 347 347 347 347 346 347 346 346
341 340 341 341 341 341 340 340 340 340 340 341 341 342 343 345 345 346 347 347 347 346 346 346 347 348 348 348 348 349 349 347 347 349 350 349 349 350 350 350 349 348 349 350 350 350 349 349 350 351 350 349 349 348 348 347 348 348 348 348 347 347 347
339 337 337 337 337 337 336 336 336 334 334 335 336 338 339 341 343 343 344 345 345 344 343 343 344 345 346 346 346 347 346 344 344 347 348 348 349 349 349 349 349 348 348 347 347 347 346 346 347 348 349 349 348 348 348 347 348 348 349 348 348 348 348
337 335 334 334 333 332 331 331 330 330 332 334 335 337 337 339 340 340 339 340 341 342 341 341 341 342 343 343 343 343 343 342 342 344 345 345 346 346 347 347 347 347 347 347 347 347 346 346 345 346 347 347 347 348 348 347 348 348 349 349 348 348 349
334 331 331 331 330 327 325 325 324 327 330 334 337 338 337 337 337 336 336 336 337 338 338 338 338 339 339 339 338 339 339 339 339 339 339 341 342 342 343 344 344 345 345 345 346 347 347 347 347 347 347 347 347 348 347 347 348 348 349 349 349 349 349
328 326 327 329 329 328 325 324 324 324 324 327 331 334 334 333 332 331 332 333 334 336 337 337 337 336 336 336 336 336 336 336 336 336 335 335 337 338 339 340 340 342 343 343 344 345 345 346 346 346 347 346 347 347 346 347 347 347 348 348 348 348 348
326 326 325 327 329 329 327 326 326 325 323 322 322 322 323 324 324 324 325 327 328 329 330 332 331 328 329 331 331 331 331 330 332 334 333 332 333 334 334 335 336 338 341 342 343 343 344 344 344 344 344 344 344 344 343 344 345 344 345 345 345 345 345
326 325 324 324 325 326 326 325 325 325 324 324 322 319 317 317 318 319 321 321 321 319 319 321 321 319 320 321 322 324 325 324 324 327 329 331 332 330 329 331 334 337 338 340 340 341 341 341 341 340 341 341 342 342 342 342 343 343 342 342 342 343 342
322 320 318 318 319 320 319 320 321 322 323 325 326 326 323 319 319 321 324 325 323 320 318 320 323 323 323 322 322 323 323 321 320 321 322 324 326 326 325 327 330 332 334 335 335 335 335 336 337 337 337 337 337 338 338 339 339 339 339 339 339 338 339
316 315 313 313 314 314 314 314 315 315 316 318 321 324 324 323 323 324 327 328 327 326 326 326 327 327 326 327 326 325 325 325 324 322 321 321 322 322 323 324 326 327 328 330 331 330 329 329 330 331 332 333 333 333 334 335 335 336 336 336 336 336 337
318 318 317 315 314 314 314 314 314 313 312 312 314 314 316 317 318 321 324 325 325 327 327 327 327 327 326 327 327 327 326 326 324 323 322 319 316 315 318 322 324 325 325 325 328 329 327 326 326 326 327 328 330 330 330 331 331 332 332 332 332 333 333
323 323 321 319 317 317 318 318 318 317 316 316 315 314 313 312 311 313 316 318 319 320 321 322 324 324 324 325 325 325 325 324 323 323 322 319 313 311 312 316 321 323 323 322 324 325 326 326 326 325 325 326 327 328 328 328 329 329 329 330 330 330 331
325 325 324 322 320 320 321 321 321 321 320 320 318 318 318 316 314 312 312 313 315 316 317 319 320 321 322 322 322 323 322 323 323 324 323 321 317 314 312 312 314 317 320 320 320 321 323 323 322 322 321 319 320 321 321 322 322 323 323 324 324 325 326
325 325 325 324 322 321 322 324 324 323 323 322 320 319 320 319 318 317 315 314 314 314 315 316 316 317 318 319 320 321 322 323 323 323 323 322 321 319 317 313 311 313 313 313 314 316 317 316 314 313 312 311 311 311 311 310 311 310 310 310 311 312 313
324 324 325 324 324 324 325 326 326 325 325 325 323 321 320 320 320 320 319 317 316 314 313 313 312 313 315 317 319 321 322 322 322 323 323 322 322 322 319 315 312 313 313 311 311 312 312 311 310 310 310 310 310 309 308 308 307 306 306 305 304 305 305